<?xml version="1.0" encoding="UTF-8" standalone="no" ?>
<gpx xmlns="http://www.topografix.com/GPX/1/1" xmlns:xsi="http://www.w3.org/2001/XMLSchema-instance" xsi:schemaLocation="http://www.topografix.com/GPX/1/1 http://www.topografix.com/GPX/1/1/gpx.xsd" version="1.1" creator="VisuGPX - https://www.visugpx.com">
  <metadata>
    <name>Pornichet 21/05/2020</name>
    <desc><![CDATA[Sortie VTT du jeudi 21 mai 2020]]></desc>
  </metadata>
  <trk>
    <name><![CDATA[Pornichet Cyclisme]]></name>
    <trkseg>
      <trkpt lat="47.26411" lon="-2.31564">
        <ele>9.8000001907349</ele>
        <time>2020-05-21T07:24:56.000Z</time>
      </trkpt>
      <trkpt lat="47.26409" lon="-2.31577">
        <ele>9.8000001907349</ele>
        <time>2020-05-21T07:24:59.000Z</time>
      </trkpt>
      <trkpt lat="47.26409" lon="-2.31581">
        <ele>9.6000003814697</ele>
        <time>2020-05-21T07:25:00.000Z</time>
      </trkpt>
      <trkpt lat="47.26409" lon="-2.31597">
        <ele>9.6000003814697</ele>
        <time>2020-05-21T07:25:05.000Z</time>
      </trkpt>
      <trkpt lat="47.26407" lon="-2.31619">
        <ele>9.6000003814697</ele>
        <time>2020-05-21T07:25:11.000Z</time>
      </trkpt>
      <trkpt lat="47.26409" lon="-2.31653">
        <ele>9.6000003814697</ele>
        <time>2020-05-21T07:25:18.000Z</time>
      </trkpt>
      <trkpt lat="47.26408" lon="-2.31658">
        <ele>9.6000003814697</ele>
        <time>2020-05-21T07:25:20.000Z</time>
      </trkpt>
      <trkpt lat="47.26404" lon="-2.31661">
        <ele>9.6000003814697</ele>
        <time>2020-05-21T07:25:22.000Z</time>
      </trkpt>
      <trkpt lat="47.26384" lon="-2.3167">
        <ele>9.6000003814697</ele>
        <time>2020-05-21T07:25:29.000Z</time>
      </trkpt>
      <trkpt lat="47.26351" lon="-2.31685">
        <ele>9.6000003814697</ele>
        <time>2020-05-21T07:25:38.000Z</time>
      </trkpt>
      <trkpt lat="47.2634" lon="-2.3169">
        <ele>9</ele>
        <time>2020-05-21T07:25:41.000Z</time>
      </trkpt>
      <trkpt lat="47.26337" lon="-2.31691">
        <ele>8.6000003814697</ele>
        <time>2020-05-21T07:25:42.000Z</time>
      </trkpt>
      <trkpt lat="47.26335" lon="-2.31693">
        <ele>8.1999998092651</ele>
        <time>2020-05-21T07:25:43.000Z</time>
      </trkpt>
      <trkpt lat="47.26334" lon="-2.31696">
        <ele>7.8000001907349</ele>
        <time>2020-05-21T07:25:44.000Z</time>
      </trkpt>
      <trkpt lat="47.26333" lon="-2.317">
        <ele>7.4000000953674</ele>
        <time>2020-05-21T07:25:45.000Z</time>
      </trkpt>
      <trkpt lat="47.26329" lon="-2.31706">
        <ele>7.4000000953674</ele>
        <time>2020-05-21T07:25:47.000Z</time>
      </trkpt>
      <trkpt lat="47.26317" lon="-2.31715">
        <ele>7.4000000953674</ele>
        <time>2020-05-21T07:25:51.000Z</time>
      </trkpt>
      <trkpt lat="47.26313" lon="-2.31717">
        <ele>7.4000000953674</ele>
        <time>2020-05-21T07:25:52.000Z</time>
      </trkpt>
      <trkpt lat="47.26307" lon="-2.31717">
        <ele>6.8000001907349</ele>
        <time>2020-05-21T07:25:54.000Z</time>
      </trkpt>
      <trkpt lat="47.26304" lon="-2.31715">
        <ele>6.4000000953674</ele>
        <time>2020-05-21T07:25:55.000Z</time>
      </trkpt>
      <trkpt lat="47.26302" lon="-2.31712">
        <ele>6</ele>
        <time>2020-05-21T07:25:56.000Z</time>
      </trkpt>
      <trkpt lat="47.26299" lon="-2.31709">
        <ele>5.4000000953674</ele>
        <time>2020-05-21T07:25:57.000Z</time>
      </trkpt>
      <trkpt lat="47.26297" lon="-2.31706">
        <ele>5</ele>
        <time>2020-05-21T07:25:58.000Z</time>
      </trkpt>
      <trkpt lat="47.26289" lon="-2.3169">
        <ele>5</ele>
        <time>2020-05-21T07:26:02.000Z</time>
      </trkpt>
      <trkpt lat="47.26276" lon="-2.31662">
        <ele>5</ele>
        <time>2020-05-21T07:26:09.000Z</time>
      </trkpt>
      <trkpt lat="47.26259" lon="-2.3163">
        <ele>5</ele>
        <time>2020-05-21T07:26:16.000Z</time>
      </trkpt>
      <trkpt lat="47.26241" lon="-2.3161">
        <ele>5</ele>
        <time>2020-05-21T07:26:21.000Z</time>
      </trkpt>
      <trkpt lat="47.26224" lon="-2.31602">
        <ele>5</ele>
        <time>2020-05-21T07:26:25.000Z</time>
      </trkpt>
      <trkpt lat="47.2622" lon="-2.31601">
        <ele>5</ele>
        <time>2020-05-21T07:26:26.000Z</time>
      </trkpt>
      <trkpt lat="47.26215" lon="-2.31601">
        <ele>5</ele>
        <time>2020-05-21T07:26:27.000Z</time>
      </trkpt>
      <trkpt lat="47.26202" lon="-2.31602">
        <ele>5</ele>
        <time>2020-05-21T07:26:30.000Z</time>
      </trkpt>
      <trkpt lat="47.26198" lon="-2.31603">
        <ele>5</ele>
        <time>2020-05-21T07:26:31.000Z</time>
      </trkpt>
      <trkpt lat="47.2616" lon="-2.31609">
        <ele>5</ele>
        <time>2020-05-21T07:26:39.000Z</time>
      </trkpt>
      <trkpt lat="47.26132" lon="-2.31616">
        <ele>5</ele>
        <time>2020-05-21T07:26:46.000Z</time>
      </trkpt>
      <trkpt lat="47.26108" lon="-2.31612">
        <ele>5</ele>
        <time>2020-05-21T07:26:53.000Z</time>
      </trkpt>
      <trkpt lat="47.26092" lon="-2.31592">
        <ele>5</ele>
        <time>2020-05-21T07:26:59.000Z</time>
      </trkpt>
      <trkpt lat="47.26081" lon="-2.31583">
        <ele>5</ele>
        <time>2020-05-21T07:27:04.000Z</time>
      </trkpt>
      <trkpt lat="47.2607" lon="-2.31565">
        <ele>5</ele>
        <time>2020-05-21T07:27:09.000Z</time>
      </trkpt>
      <trkpt lat="47.26055" lon="-2.31533">
        <ele>5</ele>
        <time>2020-05-21T07:27:16.000Z</time>
      </trkpt>
      <trkpt lat="47.2604" lon="-2.31518">
        <ele>5</ele>
        <time>2020-05-21T07:27:22.000Z</time>
      </trkpt>
      <trkpt lat="47.26037" lon="-2.31519">
        <ele>5</ele>
        <time>2020-05-21T07:27:23.000Z</time>
      </trkpt>
      <trkpt lat="47.26032" lon="-2.31527">
        <ele>5</ele>
        <time>2020-05-21T07:27:26.000Z</time>
      </trkpt>
      <trkpt lat="47.26029" lon="-2.31536">
        <ele>5.4000000953674</ele>
        <time>2020-05-21T07:27:28.000Z</time>
      </trkpt>
      <trkpt lat="47.26027" lon="-2.31541">
        <ele>5.8000001907349</ele>
        <time>2020-05-21T07:27:29.000Z</time>
      </trkpt>
      <trkpt lat="47.26026" lon="-2.31545">
        <ele>6.1999998092651</ele>
        <time>2020-05-21T07:27:30.000Z</time>
      </trkpt>
      <trkpt lat="47.26023" lon="-2.3155">
        <ele>6.8000001907349</ele>
        <time>2020-05-21T07:27:31.000Z</time>
      </trkpt>
      <trkpt lat="47.26021" lon="-2.31554">
        <ele>7.1999998092651</ele>
        <time>2020-05-21T07:27:32.000Z</time>
      </trkpt>
      <trkpt lat="47.26011" lon="-2.31563">
        <ele>7.1999998092651</ele>
        <time>2020-05-21T07:27:36.000Z</time>
      </trkpt>
      <trkpt lat="47.26003" lon="-2.31555">
        <ele>7.1999998092651</ele>
        <time>2020-05-21T07:27:39.000Z</time>
      </trkpt>
      <trkpt lat="47.26001" lon="-2.31551">
        <ele>7.1999998092651</ele>
        <time>2020-05-21T07:27:40.000Z</time>
      </trkpt>
      <trkpt lat="47.25985" lon="-2.31521">
        <ele>7.1999998092651</ele>
        <time>2020-05-21T07:27:47.000Z</time>
      </trkpt>
      <trkpt lat="47.25971" lon="-2.31489">
        <ele>7.1999998092651</ele>
        <time>2020-05-21T07:27:54.000Z</time>
      </trkpt>
      <trkpt lat="47.25957" lon="-2.31472">
        <ele>7.1999998092651</ele>
        <time>2020-05-21T07:27:59.000Z</time>
      </trkpt>
      <trkpt lat="47.25936" lon="-2.31462">
        <ele>7.1999998092651</ele>
        <time>2020-05-21T07:28:06.000Z</time>
      </trkpt>
      <trkpt lat="47.25931" lon="-2.31467">
        <ele>7.1999998092651</ele>
        <time>2020-05-21T07:28:08.000Z</time>
      </trkpt>
      <trkpt lat="47.25929" lon="-2.31473">
        <ele>7.1999998092651</ele>
        <time>2020-05-21T07:28:10.000Z</time>
      </trkpt>
      <trkpt lat="47.25918" lon="-2.315">
        <ele>7.1999998092651</ele>
        <time>2020-05-21T07:28:17.000Z</time>
      </trkpt>
      <trkpt lat="47.25915" lon="-2.31507">
        <ele>7.1999998092651</ele>
        <time>2020-05-21T07:28:20.000Z</time>
      </trkpt>
      <trkpt lat="47.25915" lon="-2.31508">
        <ele>7.1999998092651</ele>
        <time>2020-05-21T07:28:22.000Z</time>
      </trkpt>
      <trkpt lat="47.25915" lon="-2.3151">
        <ele>7.1999998092651</ele>
        <time>2020-05-21T07:28:24.000Z</time>
      </trkpt>
      <trkpt lat="47.25913" lon="-2.31512">
        <ele>7.1999998092651</ele>
        <time>2020-05-21T07:28:26.000Z</time>
      </trkpt>
      <trkpt lat="47.25908" lon="-2.31518">
        <ele>7.1999998092651</ele>
        <time>2020-05-21T07:28:28.000Z</time>
      </trkpt>
      <trkpt lat="47.25898" lon="-2.31541">
        <ele>7.1999998092651</ele>
        <time>2020-05-21T07:28:33.000Z</time>
      </trkpt>
      <trkpt lat="47.25896" lon="-2.31545">
        <ele>7.5999999046326</ele>
        <time>2020-05-21T07:28:34.000Z</time>
      </trkpt>
      <trkpt lat="47.25895" lon="-2.3155">
        <ele>8</ele>
        <time>2020-05-21T07:28:35.000Z</time>
      </trkpt>
      <trkpt lat="47.25893" lon="-2.31555">
        <ele>8.3999996185303</ele>
        <time>2020-05-21T07:28:36.000Z</time>
      </trkpt>
      <trkpt lat="47.25891" lon="-2.3156">
        <ele>8.8000001907349</ele>
        <time>2020-05-21T07:28:37.000Z</time>
      </trkpt>
      <trkpt lat="47.25889" lon="-2.31565">
        <ele>9.1999998092651</ele>
        <time>2020-05-21T07:28:38.000Z</time>
      </trkpt>
      <trkpt lat="47.25882" lon="-2.31577">
        <ele>9.1999998092651</ele>
        <time>2020-05-21T07:28:41.000Z</time>
      </trkpt>
      <trkpt lat="47.25863" lon="-2.31595">
        <ele>9.1999998092651</ele>
        <time>2020-05-21T07:28:47.000Z</time>
      </trkpt>
      <trkpt lat="47.2585" lon="-2.31606">
        <ele>9.6000003814697</ele>
        <time>2020-05-21T07:28:51.000Z</time>
      </trkpt>
      <trkpt lat="47.25847" lon="-2.31608">
        <ele>10</ele>
        <time>2020-05-21T07:28:52.000Z</time>
      </trkpt>
      <trkpt lat="47.25844" lon="-2.31611">
        <ele>10.60000038147</ele>
        <time>2020-05-21T07:28:53.000Z</time>
      </trkpt>
      <trkpt lat="47.2584" lon="-2.31613">
        <ele>11</ele>
        <time>2020-05-21T07:28:54.000Z</time>
      </trkpt>
      <trkpt lat="47.25837" lon="-2.31615">
        <ele>11.39999961853</ele>
        <time>2020-05-21T07:28:55.000Z</time>
      </trkpt>
      <trkpt lat="47.25815" lon="-2.31636">
        <ele>11.39999961853</ele>
        <time>2020-05-21T07:29:02.000Z</time>
      </trkpt>
      <trkpt lat="47.2578" lon="-2.31664">
        <ele>11.39999961853</ele>
        <time>2020-05-21T07:29:11.000Z</time>
      </trkpt>
      <trkpt lat="47.25751" lon="-2.31686">
        <ele>11.39999961853</ele>
        <time>2020-05-21T07:29:17.000Z</time>
      </trkpt>
      <trkpt lat="47.25725" lon="-2.317">
        <ele>11.39999961853</ele>
        <time>2020-05-21T07:29:22.000Z</time>
      </trkpt>
      <trkpt lat="47.25711" lon="-2.31694">
        <ele>11.39999961853</ele>
        <time>2020-05-21T07:29:25.000Z</time>
      </trkpt>
      <trkpt lat="47.25707" lon="-2.31691">
        <ele>11.39999961853</ele>
        <time>2020-05-21T07:29:26.000Z</time>
      </trkpt>
      <trkpt lat="47.25687" lon="-2.3168">
        <ele>11.39999961853</ele>
        <time>2020-05-21T07:29:31.000Z</time>
      </trkpt>
      <trkpt lat="47.25668" lon="-2.31682">
        <ele>11.39999961853</ele>
        <time>2020-05-21T07:29:36.000Z</time>
      </trkpt>
      <trkpt lat="47.25654" lon="-2.31692">
        <ele>11.39999961853</ele>
        <time>2020-05-21T07:29:40.000Z</time>
      </trkpt>
      <trkpt lat="47.25649" lon="-2.31702">
        <ele>11.39999961853</ele>
        <time>2020-05-21T07:29:42.000Z</time>
      </trkpt>
      <trkpt lat="47.25643" lon="-2.3171">
        <ele>11.800000190735</ele>
        <time>2020-05-21T07:29:44.000Z</time>
      </trkpt>
      <trkpt lat="47.2564" lon="-2.31713">
        <ele>12.199999809265</ele>
        <time>2020-05-21T07:29:45.000Z</time>
      </trkpt>
      <trkpt lat="47.25636" lon="-2.31717">
        <ele>13</ele>
        <time>2020-05-21T07:29:46.000Z</time>
      </trkpt>
      <trkpt lat="47.25633" lon="-2.31721">
        <ele>13.39999961853</ele>
        <time>2020-05-21T07:29:47.000Z</time>
      </trkpt>
      <trkpt lat="47.25629" lon="-2.31732">
        <ele>13.39999961853</ele>
        <time>2020-05-21T07:29:49.000Z</time>
      </trkpt>
      <trkpt lat="47.25627" lon="-2.31744">
        <ele>13.39999961853</ele>
        <time>2020-05-21T07:29:51.000Z</time>
      </trkpt>
      <trkpt lat="47.25626" lon="-2.3175">
        <ele>13.800000190735</ele>
        <time>2020-05-21T07:29:52.000Z</time>
      </trkpt>
      <trkpt lat="47.25623" lon="-2.31756">
        <ele>14.199999809265</ele>
        <time>2020-05-21T07:29:53.000Z</time>
      </trkpt>
      <trkpt lat="47.2562" lon="-2.31761">
        <ele>14.60000038147</ele>
        <time>2020-05-21T07:29:54.000Z</time>
      </trkpt>
      <trkpt lat="47.25616" lon="-2.31764">
        <ele>15.199999809265</ele>
        <time>2020-05-21T07:29:55.000Z</time>
      </trkpt>
      <trkpt lat="47.25612" lon="-2.31766">
        <ele>15.60000038147</ele>
        <time>2020-05-21T07:29:56.000Z</time>
      </trkpt>
      <trkpt lat="47.25598" lon="-2.31767">
        <ele>15.60000038147</ele>
        <time>2020-05-21T07:29:59.000Z</time>
      </trkpt>
      <trkpt lat="47.25593" lon="-2.31767">
        <ele>15.60000038147</ele>
        <time>2020-05-21T07:30:00.000Z</time>
      </trkpt>
      <trkpt lat="47.25588" lon="-2.31769">
        <ele>15.60000038147</ele>
        <time>2020-05-21T07:30:01.000Z</time>
      </trkpt>
      <trkpt lat="47.25574" lon="-2.31777">
        <ele>15.60000038147</ele>
        <time>2020-05-21T07:30:04.000Z</time>
      </trkpt>
      <trkpt lat="47.25571" lon="-2.31781">
        <ele>15.60000038147</ele>
        <time>2020-05-21T07:30:05.000Z</time>
      </trkpt>
      <trkpt lat="47.25566" lon="-2.3179">
        <ele>15.60000038147</ele>
        <time>2020-05-21T07:30:07.000Z</time>
      </trkpt>
      <trkpt lat="47.25563" lon="-2.31804">
        <ele>15.60000038147</ele>
        <time>2020-05-21T07:30:10.000Z</time>
      </trkpt>
      <trkpt lat="47.25559" lon="-2.31805">
        <ele>16</ele>
        <time>2020-05-21T07:30:11.000Z</time>
      </trkpt>
      <trkpt lat="47.25556" lon="-2.31805">
        <ele>16.39999961853</ele>
        <time>2020-05-21T07:30:12.000Z</time>
      </trkpt>
      <trkpt lat="47.25552" lon="-2.31806">
        <ele>16.799999237061</ele>
        <time>2020-05-21T07:30:13.000Z</time>
      </trkpt>
      <trkpt lat="47.25547" lon="-2.31807">
        <ele>17.200000762939</ele>
        <time>2020-05-21T07:30:14.000Z</time>
      </trkpt>
      <trkpt lat="47.25543" lon="-2.31807">
        <ele>17.60000038147</ele>
        <time>2020-05-21T07:30:15.000Z</time>
      </trkpt>
      <trkpt lat="47.25526" lon="-2.31809">
        <ele>17.60000038147</ele>
        <time>2020-05-21T07:30:20.000Z</time>
      </trkpt>
      <trkpt lat="47.25511" lon="-2.3182">
        <ele>17.60000038147</ele>
        <time>2020-05-21T07:30:27.000Z</time>
      </trkpt>
      <trkpt lat="47.25514" lon="-2.31826">
        <ele>17.60000038147</ele>
        <time>2020-05-21T07:30:31.000Z</time>
      </trkpt>
      <trkpt lat="47.25514" lon="-2.31825">
        <ele>17.60000038147</ele>
        <time>2020-05-21T07:30:32.000Z</time>
      </trkpt>
      <trkpt lat="47.25518" lon="-2.31825">
        <ele>19.60000038147</ele>
        <time>2020-05-21T07:39:36.000Z</time>
      </trkpt>
      <trkpt lat="47.25521" lon="-2.31824">
        <ele>19.60000038147</ele>
        <time>2020-05-21T07:39:38.000Z</time>
      </trkpt>
      <trkpt lat="47.25525" lon="-2.3182">
        <ele>19.60000038147</ele>
        <time>2020-05-21T07:39:41.000Z</time>
      </trkpt>
      <trkpt lat="47.25526" lon="-2.31815">
        <ele>19.60000038147</ele>
        <time>2020-05-21T07:39:43.000Z</time>
      </trkpt>
      <trkpt lat="47.25528" lon="-2.31812">
        <ele>19.60000038147</ele>
        <time>2020-05-21T07:39:46.000Z</time>
      </trkpt>
      <trkpt lat="47.25531" lon="-2.31811">
        <ele>19.60000038147</ele>
        <time>2020-05-21T07:39:48.000Z</time>
      </trkpt>
      <trkpt lat="47.25548" lon="-2.31805">
        <ele>19.60000038147</ele>
        <time>2020-05-21T07:39:54.000Z</time>
      </trkpt>
      <trkpt lat="47.2555" lon="-2.31804">
        <ele>19.60000038147</ele>
        <time>2020-05-21T07:39:55.000Z</time>
      </trkpt>
      <trkpt lat="47.25555" lon="-2.31795">
        <ele>19.60000038147</ele>
        <time>2020-05-21T07:39:58.000Z</time>
      </trkpt>
      <trkpt lat="47.25564" lon="-2.31783">
        <ele>19.60000038147</ele>
        <time>2020-05-21T07:40:01.000Z</time>
      </trkpt>
      <trkpt lat="47.25572" lon="-2.31774">
        <ele>19.60000038147</ele>
        <time>2020-05-21T07:40:03.000Z</time>
      </trkpt>
      <trkpt lat="47.25586" lon="-2.31749">
        <ele>19.60000038147</ele>
        <time>2020-05-21T07:40:07.000Z</time>
      </trkpt>
      <trkpt lat="47.25589" lon="-2.31742">
        <ele>19.60000038147</ele>
        <time>2020-05-21T07:40:08.000Z</time>
      </trkpt>
      <trkpt lat="47.25593" lon="-2.31728">
        <ele>19.60000038147</ele>
        <time>2020-05-21T07:40:10.000Z</time>
      </trkpt>
      <trkpt lat="47.25604" lon="-2.31713">
        <ele>19.60000038147</ele>
        <time>2020-05-21T07:40:13.000Z</time>
      </trkpt>
      <trkpt lat="47.25624" lon="-2.31706">
        <ele>19.200000762939</ele>
        <time>2020-05-21T07:40:17.000Z</time>
      </trkpt>
      <trkpt lat="47.25629" lon="-2.31705">
        <ele>18.799999237061</ele>
        <time>2020-05-21T07:40:18.000Z</time>
      </trkpt>
      <trkpt lat="47.25635" lon="-2.31703">
        <ele>18.39999961853</ele>
        <time>2020-05-21T07:40:19.000Z</time>
      </trkpt>
      <trkpt lat="47.25639" lon="-2.31701">
        <ele>18</ele>
        <time>2020-05-21T07:40:20.000Z</time>
      </trkpt>
      <trkpt lat="47.25643" lon="-2.31698">
        <ele>17.60000038147</ele>
        <time>2020-05-21T07:40:21.000Z</time>
      </trkpt>
      <trkpt lat="47.25656" lon="-2.31681">
        <ele>17.200000762939</ele>
        <time>2020-05-21T07:40:25.000Z</time>
      </trkpt>
      <trkpt lat="47.25657" lon="-2.31675">
        <ele>16.799999237061</ele>
        <time>2020-05-21T07:40:26.000Z</time>
      </trkpt>
      <trkpt lat="47.25659" lon="-2.3167">
        <ele>16.39999961853</ele>
        <time>2020-05-21T07:40:27.000Z</time>
      </trkpt>
      <trkpt lat="47.25661" lon="-2.31666">
        <ele>15.39999961853</ele>
        <time>2020-05-21T07:40:28.000Z</time>
      </trkpt>
      <trkpt lat="47.25664" lon="-2.31663">
        <ele>15.39999961853</ele>
        <time>2020-05-21T07:40:29.000Z</time>
      </trkpt>
      <trkpt lat="47.25674" lon="-2.31668">
        <ele>15.39999961853</ele>
        <time>2020-05-21T07:40:32.000Z</time>
      </trkpt>
      <trkpt lat="47.25683" lon="-2.31673">
        <ele>15.39999961853</ele>
        <time>2020-05-21T07:40:34.000Z</time>
      </trkpt>
      <trkpt lat="47.25695" lon="-2.31678">
        <ele>15</ele>
        <time>2020-05-21T07:40:36.000Z</time>
      </trkpt>
      <trkpt lat="47.25701" lon="-2.31681">
        <ele>14.60000038147</ele>
        <time>2020-05-21T07:40:37.000Z</time>
      </trkpt>
      <trkpt lat="47.25707" lon="-2.31685">
        <ele>14.199999809265</ele>
        <time>2020-05-21T07:40:38.000Z</time>
      </trkpt>
      <trkpt lat="47.25713" lon="-2.31689">
        <ele>13.800000190735</ele>
        <time>2020-05-21T07:40:39.000Z</time>
      </trkpt>
      <trkpt lat="47.25719" lon="-2.31694">
        <ele>13.39999961853</ele>
        <time>2020-05-21T07:40:40.000Z</time>
      </trkpt>
      <trkpt lat="47.25725" lon="-2.31697">
        <ele>13.39999961853</ele>
        <time>2020-05-21T07:40:41.000Z</time>
      </trkpt>
      <trkpt lat="47.25745" lon="-2.31689">
        <ele>13.39999961853</ele>
        <time>2020-05-21T07:40:44.000Z</time>
      </trkpt>
      <trkpt lat="47.25751" lon="-2.31684">
        <ele>13.39999961853</ele>
        <time>2020-05-21T07:40:45.000Z</time>
      </trkpt>
      <trkpt lat="47.25779" lon="-2.31661">
        <ele>13.39999961853</ele>
        <time>2020-05-21T07:40:50.000Z</time>
      </trkpt>
      <trkpt lat="47.25814" lon="-2.31632">
        <ele>13.39999961853</ele>
        <time>2020-05-21T07:40:58.000Z</time>
      </trkpt>
      <trkpt lat="47.25836" lon="-2.31614">
        <ele>13.39999961853</ele>
        <time>2020-05-21T07:41:04.000Z</time>
      </trkpt>
      <trkpt lat="47.2586" lon="-2.31594">
        <ele>13.39999961853</ele>
        <time>2020-05-21T07:41:10.000Z</time>
      </trkpt>
      <trkpt lat="47.25883" lon="-2.31569">
        <ele>13.39999961853</ele>
        <time>2020-05-21T07:41:15.000Z</time>
      </trkpt>
      <trkpt lat="47.25887" lon="-2.31561">
        <ele>13.39999961853</ele>
        <time>2020-05-21T07:41:16.000Z</time>
      </trkpt>
      <trkpt lat="47.259" lon="-2.31528">
        <ele>13</ele>
        <time>2020-05-21T07:41:21.000Z</time>
      </trkpt>
      <trkpt lat="47.25901" lon="-2.31526">
        <ele>12.60000038147</ele>
        <time>2020-05-21T07:41:22.000Z</time>
      </trkpt>
      <trkpt lat="47.25902" lon="-2.31525">
        <ele>12.199999809265</ele>
        <time>2020-05-21T07:41:23.000Z</time>
      </trkpt>
      <trkpt lat="47.25902" lon="-2.31523">
        <ele>11.800000190735</ele>
        <time>2020-05-21T07:41:24.000Z</time>
      </trkpt>
      <trkpt lat="47.25903" lon="-2.31522">
        <ele>11.39999961853</ele>
        <time>2020-05-21T07:41:25.000Z</time>
      </trkpt>
      <trkpt lat="47.25903" lon="-2.31521">
        <ele>11.39999961853</ele>
        <time>2020-05-21T07:41:26.000Z</time>
      </trkpt>
      <trkpt lat="47.25907" lon="-2.31517">
        <ele>11.39999961853</ele>
        <time>2020-05-21T07:41:33.000Z</time>
      </trkpt>
      <trkpt lat="47.25908" lon="-2.31515">
        <ele>11.39999961853</ele>
        <time>2020-05-21T07:41:36.000Z</time>
      </trkpt>
      <trkpt lat="47.2591" lon="-2.31509">
        <ele>11.39999961853</ele>
        <time>2020-05-21T07:41:39.000Z</time>
      </trkpt>
      <trkpt lat="47.25911" lon="-2.31504">
        <ele>11.39999961853</ele>
        <time>2020-05-21T07:41:43.000Z</time>
      </trkpt>
      <trkpt lat="47.25919" lon="-2.31483">
        <ele>11.39999961853</ele>
        <time>2020-05-21T07:41:47.000Z</time>
      </trkpt>
      <trkpt lat="47.25927" lon="-2.31464">
        <ele>11.39999961853</ele>
        <time>2020-05-21T07:41:50.000Z</time>
      </trkpt>
      <trkpt lat="47.25931" lon="-2.3146">
        <ele>11.39999961853</ele>
        <time>2020-05-21T07:41:51.000Z</time>
      </trkpt>
      <trkpt lat="47.25944" lon="-2.31462">
        <ele>11.39999961853</ele>
        <time>2020-05-21T07:41:54.000Z</time>
      </trkpt>
      <trkpt lat="47.25949" lon="-2.31466">
        <ele>11</ele>
        <time>2020-05-21T07:41:55.000Z</time>
      </trkpt>
      <trkpt lat="47.25953" lon="-2.3147">
        <ele>10.60000038147</ele>
        <time>2020-05-21T07:41:56.000Z</time>
      </trkpt>
      <trkpt lat="47.25957" lon="-2.31476">
        <ele>10.199999809265</ele>
        <time>2020-05-21T07:41:57.000Z</time>
      </trkpt>
      <trkpt lat="47.25962" lon="-2.31481">
        <ele>9.8000001907349</ele>
        <time>2020-05-21T07:41:58.000Z</time>
      </trkpt>
      <trkpt lat="47.25966" lon="-2.31487">
        <ele>9.3999996185303</ele>
        <time>2020-05-21T07:41:59.000Z</time>
      </trkpt>
      <trkpt lat="47.25973" lon="-2.315">
        <ele>9.3999996185303</ele>
        <time>2020-05-21T07:42:01.000Z</time>
      </trkpt>
      <trkpt lat="47.25976" lon="-2.31507">
        <ele>9.3999996185303</ele>
        <time>2020-05-21T07:42:02.000Z</time>
      </trkpt>
      <trkpt lat="47.25995" lon="-2.31544">
        <ele>9.3999996185303</ele>
        <time>2020-05-21T07:42:08.000Z</time>
      </trkpt>
      <trkpt lat="47.2601" lon="-2.31564">
        <ele>9.3999996185303</ele>
        <time>2020-05-21T07:42:13.000Z</time>
      </trkpt>
      <trkpt lat="47.26018" lon="-2.31561">
        <ele>9.3999996185303</ele>
        <time>2020-05-21T07:42:15.000Z</time>
      </trkpt>
      <trkpt lat="47.26023" lon="-2.31551">
        <ele>9.3999996185303</ele>
        <time>2020-05-21T07:42:17.000Z</time>
      </trkpt>
      <trkpt lat="47.26026" lon="-2.31545">
        <ele>9.3999996185303</ele>
        <time>2020-05-21T07:42:18.000Z</time>
      </trkpt>
      <trkpt lat="47.26029" lon="-2.31533">
        <ele>9.3999996185303</ele>
        <time>2020-05-21T07:42:20.000Z</time>
      </trkpt>
      <trkpt lat="47.26039" lon="-2.31516">
        <ele>9.3999996185303</ele>
        <time>2020-05-21T07:42:24.000Z</time>
      </trkpt>
      <trkpt lat="47.26051" lon="-2.31526">
        <ele>9.3999996185303</ele>
        <time>2020-05-21T07:42:27.000Z</time>
      </trkpt>
      <trkpt lat="47.26055" lon="-2.31532">
        <ele>9.3999996185303</ele>
        <time>2020-05-21T07:42:28.000Z</time>
      </trkpt>
      <trkpt lat="47.26065" lon="-2.3155">
        <ele>9.3999996185303</ele>
        <time>2020-05-21T07:42:31.000Z</time>
      </trkpt>
      <trkpt lat="47.2607" lon="-2.31563">
        <ele>9.3999996185303</ele>
        <time>2020-05-21T07:42:33.000Z</time>
      </trkpt>
      <trkpt lat="47.26073" lon="-2.31573">
        <ele>9</ele>
        <time>2020-05-21T07:42:35.000Z</time>
      </trkpt>
      <trkpt lat="47.26076" lon="-2.31576">
        <ele>8.6000003814697</ele>
        <time>2020-05-21T07:42:36.000Z</time>
      </trkpt>
      <trkpt lat="47.26077" lon="-2.31578">
        <ele>8</ele>
        <time>2020-05-21T07:42:37.000Z</time>
      </trkpt>
      <trkpt lat="47.2608" lon="-2.3158">
        <ele>7.5999999046326</ele>
        <time>2020-05-21T07:42:38.000Z</time>
      </trkpt>
      <trkpt lat="47.26082" lon="-2.31581">
        <ele>7.1999998092651</ele>
        <time>2020-05-21T07:42:39.000Z</time>
      </trkpt>
      <trkpt lat="47.26087" lon="-2.31586">
        <ele>7.1999998092651</ele>
        <time>2020-05-21T07:42:41.000Z</time>
      </trkpt>
      <trkpt lat="47.26101" lon="-2.31609">
        <ele>7.1999998092651</ele>
        <time>2020-05-21T07:42:48.000Z</time>
      </trkpt>
      <trkpt lat="47.26111" lon="-2.31617">
        <ele>7.1999998092651</ele>
        <time>2020-05-21T07:42:52.000Z</time>
      </trkpt>
      <trkpt lat="47.26128" lon="-2.31615">
        <ele>7.1999998092651</ele>
        <time>2020-05-21T07:42:57.000Z</time>
      </trkpt>
      <trkpt lat="47.26148" lon="-2.3161">
        <ele>7.1999998092651</ele>
        <time>2020-05-21T07:43:02.000Z</time>
      </trkpt>
      <trkpt lat="47.26156" lon="-2.31606">
        <ele>7.1999998092651</ele>
        <time>2020-05-21T07:43:04.000Z</time>
      </trkpt>
      <trkpt lat="47.26172" lon="-2.316">
        <ele>7.1999998092651</ele>
        <time>2020-05-21T07:43:08.000Z</time>
      </trkpt>
      <trkpt lat="47.26185" lon="-2.31596">
        <ele>7.1999998092651</ele>
        <time>2020-05-21T07:43:11.000Z</time>
      </trkpt>
      <trkpt lat="47.26203" lon="-2.3159">
        <ele>7.1999998092651</ele>
        <time>2020-05-21T07:43:15.000Z</time>
      </trkpt>
      <trkpt lat="47.26217" lon="-2.31591">
        <ele>7.1999998092651</ele>
        <time>2020-05-21T07:43:18.000Z</time>
      </trkpt>
      <trkpt lat="47.26228" lon="-2.31598">
        <ele>7.1999998092651</ele>
        <time>2020-05-21T07:43:21.000Z</time>
      </trkpt>
      <trkpt lat="47.26232" lon="-2.31601">
        <ele>7.1999998092651</ele>
        <time>2020-05-21T07:43:22.000Z</time>
      </trkpt>
      <trkpt lat="47.26239" lon="-2.31608">
        <ele>7.1999998092651</ele>
        <time>2020-05-21T07:43:24.000Z</time>
      </trkpt>
      <trkpt lat="47.26247" lon="-2.31616">
        <ele>7.1999998092651</ele>
        <time>2020-05-21T07:43:26.000Z</time>
      </trkpt>
      <trkpt lat="47.26253" lon="-2.31625">
        <ele>7.1999998092651</ele>
        <time>2020-05-21T07:43:28.000Z</time>
      </trkpt>
      <trkpt lat="47.26259" lon="-2.31635">
        <ele>7.1999998092651</ele>
        <time>2020-05-21T07:43:30.000Z</time>
      </trkpt>
      <trkpt lat="47.26266" lon="-2.31652">
        <ele>7.1999998092651</ele>
        <time>2020-05-21T07:43:33.000Z</time>
      </trkpt>
      <trkpt lat="47.26278" lon="-2.31678">
        <ele>7.1999998092651</ele>
        <time>2020-05-21T07:43:38.000Z</time>
      </trkpt>
      <trkpt lat="47.26292" lon="-2.31707">
        <ele>7.1999998092651</ele>
        <time>2020-05-21T07:43:44.000Z</time>
      </trkpt>
      <trkpt lat="47.26297" lon="-2.3173">
        <ele>7.1999998092651</ele>
        <time>2020-05-21T07:43:48.000Z</time>
      </trkpt>
      <trkpt lat="47.26299" lon="-2.31753">
        <ele>7.1999998092651</ele>
        <time>2020-05-21T07:43:53.000Z</time>
      </trkpt>
      <trkpt lat="47.26301" lon="-2.31773">
        <ele>7.1999998092651</ele>
        <time>2020-05-21T07:43:59.000Z</time>
      </trkpt>
      <trkpt lat="47.26302" lon="-2.31792">
        <ele>7.1999998092651</ele>
        <time>2020-05-21T07:44:06.000Z</time>
      </trkpt>
      <trkpt lat="47.26301" lon="-2.31804">
        <ele>7.1999998092651</ele>
        <time>2020-05-21T07:44:12.000Z</time>
      </trkpt>
      <trkpt lat="47.263" lon="-2.3182">
        <ele>7.1999998092651</ele>
        <time>2020-05-21T07:44:18.000Z</time>
      </trkpt>
      <trkpt lat="47.26298" lon="-2.31832">
        <ele>7.1999998092651</ele>
        <time>2020-05-21T07:44:23.000Z</time>
      </trkpt>
      <trkpt lat="47.26299" lon="-2.31851">
        <ele>7.1999998092651</ele>
        <time>2020-05-21T07:44:28.000Z</time>
      </trkpt>
      <trkpt lat="47.26297" lon="-2.31881">
        <ele>7.1999998092651</ele>
        <time>2020-05-21T07:44:33.000Z</time>
      </trkpt>
      <trkpt lat="47.26296" lon="-2.3191">
        <ele>7.1999998092651</ele>
        <time>2020-05-21T07:44:38.000Z</time>
      </trkpt>
      <trkpt lat="47.26298" lon="-2.31922">
        <ele>7.1999998092651</ele>
        <time>2020-05-21T07:44:41.000Z</time>
      </trkpt>
      <trkpt lat="47.263" lon="-2.31925">
        <ele>7.1999998092651</ele>
        <time>2020-05-21T07:44:42.000Z</time>
      </trkpt>
      <trkpt lat="47.26314" lon="-2.31929">
        <ele>7.1999998092651</ele>
        <time>2020-05-21T07:44:47.000Z</time>
      </trkpt>
      <trkpt lat="47.26334" lon="-2.31933">
        <ele>7.1999998092651</ele>
        <time>2020-05-21T07:44:53.000Z</time>
      </trkpt>
      <trkpt lat="47.26339" lon="-2.31939">
        <ele>7.1999998092651</ele>
        <time>2020-05-21T07:44:56.000Z</time>
      </trkpt>
      <trkpt lat="47.26341" lon="-2.31946">
        <ele>7.1999998092651</ele>
        <time>2020-05-21T07:44:59.000Z</time>
      </trkpt>
      <trkpt lat="47.26346" lon="-2.31959">
        <ele>7.1999998092651</ele>
        <time>2020-05-21T07:45:05.000Z</time>
      </trkpt>
      <trkpt lat="47.2635" lon="-2.31973">
        <ele>7.1999998092651</ele>
        <time>2020-05-21T07:45:10.000Z</time>
      </trkpt>
      <trkpt lat="47.26352" lon="-2.31974">
        <ele>7.1999998092651</ele>
        <time>2020-05-21T07:45:11.000Z</time>
      </trkpt>
      <trkpt lat="47.26354" lon="-2.31975">
        <ele>7.1999998092651</ele>
        <time>2020-05-21T07:45:12.000Z</time>
      </trkpt>
      <trkpt lat="47.26375" lon="-2.31981">
        <ele>7.1999998092651</ele>
        <time>2020-05-21T07:45:19.000Z</time>
      </trkpt>
      <trkpt lat="47.26383" lon="-2.31983">
        <ele>7.5999999046326</ele>
        <time>2020-05-21T07:45:22.000Z</time>
      </trkpt>
      <trkpt lat="47.26385" lon="-2.31983">
        <ele>8</ele>
        <time>2020-05-21T07:45:23.000Z</time>
      </trkpt>
      <trkpt lat="47.26387" lon="-2.31984">
        <ele>8.3999996185303</ele>
        <time>2020-05-21T07:45:24.000Z</time>
      </trkpt>
      <trkpt lat="47.26389" lon="-2.31985">
        <ele>9.3999996185303</ele>
        <time>2020-05-21T07:45:25.000Z</time>
      </trkpt>
      <trkpt lat="47.26403" lon="-2.31991">
        <ele>9.3999996185303</ele>
        <time>2020-05-21T07:45:30.000Z</time>
      </trkpt>
      <trkpt lat="47.2641" lon="-2.31992">
        <ele>9.8000001907349</ele>
        <time>2020-05-21T07:45:32.000Z</time>
      </trkpt>
      <trkpt lat="47.26413" lon="-2.31993">
        <ele>10.199999809265</ele>
        <time>2020-05-21T07:45:33.000Z</time>
      </trkpt>
      <trkpt lat="47.26416" lon="-2.31994">
        <ele>10.60000038147</ele>
        <time>2020-05-21T07:45:34.000Z</time>
      </trkpt>
      <trkpt lat="47.26417" lon="-2.31994">
        <ele>11</ele>
        <time>2020-05-21T07:45:35.000Z</time>
      </trkpt>
      <trkpt lat="47.2642" lon="-2.31994">
        <ele>11.39999961853</ele>
        <time>2020-05-21T07:45:36.000Z</time>
      </trkpt>
      <trkpt lat="47.26423" lon="-2.31994">
        <ele>11.39999961853</ele>
        <time>2020-05-21T07:45:37.000Z</time>
      </trkpt>
      <trkpt lat="47.26451" lon="-2.31998">
        <ele>11.800000190735</ele>
        <time>2020-05-21T07:45:43.000Z</time>
      </trkpt>
      <trkpt lat="47.26454" lon="-2.31998">
        <ele>12.199999809265</ele>
        <time>2020-05-21T07:45:44.000Z</time>
      </trkpt>
      <trkpt lat="47.26456" lon="-2.31998">
        <ele>12.60000038147</ele>
        <time>2020-05-21T07:45:45.000Z</time>
      </trkpt>
      <trkpt lat="47.26459" lon="-2.31998">
        <ele>13</ele>
        <time>2020-05-21T07:45:46.000Z</time>
      </trkpt>
      <trkpt lat="47.26463" lon="-2.31998">
        <ele>13.39999961853</ele>
        <time>2020-05-21T07:45:47.000Z</time>
      </trkpt>
      <trkpt lat="47.26477" lon="-2.31997">
        <ele>13.39999961853</ele>
        <time>2020-05-21T07:45:51.000Z</time>
      </trkpt>
      <trkpt lat="47.26495" lon="-2.31998">
        <ele>14</ele>
        <time>2020-05-21T07:45:55.000Z</time>
      </trkpt>
      <trkpt lat="47.26498" lon="-2.31997">
        <ele>14.39999961853</ele>
        <time>2020-05-21T07:45:56.000Z</time>
      </trkpt>
      <trkpt lat="47.26502" lon="-2.31997">
        <ele>14.800000190735</ele>
        <time>2020-05-21T07:45:57.000Z</time>
      </trkpt>
      <trkpt lat="47.26505" lon="-2.31997">
        <ele>15.199999809265</ele>
        <time>2020-05-21T07:45:58.000Z</time>
      </trkpt>
      <trkpt lat="47.26507" lon="-2.31997">
        <ele>15.60000038147</ele>
        <time>2020-05-21T07:45:59.000Z</time>
      </trkpt>
      <trkpt lat="47.26515" lon="-2.31997">
        <ele>16</ele>
        <time>2020-05-21T07:46:02.000Z</time>
      </trkpt>
      <trkpt lat="47.26517" lon="-2.31998">
        <ele>16.60000038147</ele>
        <time>2020-05-21T07:46:03.000Z</time>
      </trkpt>
      <trkpt lat="47.26519" lon="-2.31999">
        <ele>17</ele>
        <time>2020-05-21T07:46:04.000Z</time>
      </trkpt>
      <trkpt lat="47.26521" lon="-2.32">
        <ele>17.39999961853</ele>
        <time>2020-05-21T07:46:05.000Z</time>
      </trkpt>
      <trkpt lat="47.26524" lon="-2.32001">
        <ele>17.799999237061</ele>
        <time>2020-05-21T07:46:06.000Z</time>
      </trkpt>
      <trkpt lat="47.26528" lon="-2.32005">
        <ele>17.799999237061</ele>
        <time>2020-05-21T07:46:08.000Z</time>
      </trkpt>
      <trkpt lat="47.2653" lon="-2.32008">
        <ele>17.799999237061</ele>
        <time>2020-05-21T07:46:09.000Z</time>
      </trkpt>
      <trkpt lat="47.26537" lon="-2.32019">
        <ele>17.799999237061</ele>
        <time>2020-05-21T07:46:14.000Z</time>
      </trkpt>
      <trkpt lat="47.2654" lon="-2.32031">
        <ele>17.799999237061</ele>
        <time>2020-05-21T07:46:18.000Z</time>
      </trkpt>
      <trkpt lat="47.26541" lon="-2.32034">
        <ele>18.200000762939</ele>
        <time>2020-05-21T07:46:19.000Z</time>
      </trkpt>
      <trkpt lat="47.26542" lon="-2.32036">
        <ele>18.60000038147</ele>
        <time>2020-05-21T07:46:20.000Z</time>
      </trkpt>
      <trkpt lat="47.26544" lon="-2.32036">
        <ele>19</ele>
        <time>2020-05-21T07:46:21.000Z</time>
      </trkpt>
      <trkpt lat="47.26547" lon="-2.32036">
        <ele>19.39999961853</ele>
        <time>2020-05-21T07:46:22.000Z</time>
      </trkpt>
      <trkpt lat="47.2655" lon="-2.32035">
        <ele>19.799999237061</ele>
        <time>2020-05-21T07:46:23.000Z</time>
      </trkpt>
      <trkpt lat="47.26559" lon="-2.32031">
        <ele>19.799999237061</ele>
        <time>2020-05-21T07:46:26.000Z</time>
      </trkpt>
      <trkpt lat="47.26566" lon="-2.32029">
        <ele>19.799999237061</ele>
        <time>2020-05-21T07:46:28.000Z</time>
      </trkpt>
      <trkpt lat="47.26583" lon="-2.32021">
        <ele>20.200000762939</ele>
        <time>2020-05-21T07:46:33.000Z</time>
      </trkpt>
      <trkpt lat="47.26586" lon="-2.32019">
        <ele>20.60000038147</ele>
        <time>2020-05-21T07:46:34.000Z</time>
      </trkpt>
      <trkpt lat="47.2659" lon="-2.32018">
        <ele>21</ele>
        <time>2020-05-21T07:46:35.000Z</time>
      </trkpt>
      <trkpt lat="47.26593" lon="-2.32017">
        <ele>21.39999961853</ele>
        <time>2020-05-21T07:46:36.000Z</time>
      </trkpt>
      <trkpt lat="47.26597" lon="-2.32015">
        <ele>21.799999237061</ele>
        <time>2020-05-21T07:46:37.000Z</time>
      </trkpt>
      <trkpt lat="47.26618" lon="-2.3201">
        <ele>21.799999237061</ele>
        <time>2020-05-21T07:46:43.000Z</time>
      </trkpt>
      <trkpt lat="47.26628" lon="-2.32008">
        <ele>22.39999961853</ele>
        <time>2020-05-21T07:46:46.000Z</time>
      </trkpt>
      <trkpt lat="47.26631" lon="-2.32008">
        <ele>22.799999237061</ele>
        <time>2020-05-21T07:46:47.000Z</time>
      </trkpt>
      <trkpt lat="47.26634" lon="-2.32008">
        <ele>23.200000762939</ele>
        <time>2020-05-21T07:46:48.000Z</time>
      </trkpt>
      <trkpt lat="47.26637" lon="-2.32008">
        <ele>23.60000038147</ele>
        <time>2020-05-21T07:46:49.000Z</time>
      </trkpt>
      <trkpt lat="47.2664" lon="-2.32007">
        <ele>24</ele>
        <time>2020-05-21T07:46:50.000Z</time>
      </trkpt>
      <trkpt lat="47.26642" lon="-2.32008">
        <ele>24</ele>
        <time>2020-05-21T07:46:53.000Z</time>
      </trkpt>
      <trkpt lat="47.26642" lon="-2.32008">
        <ele>24</ele>
        <time>2020-05-21T07:46:54.000Z</time>
      </trkpt>
      <trkpt lat="47.26644" lon="-2.32006">
        <ele>24</ele>
        <time>2020-05-21T07:47:41.000Z</time>
      </trkpt>
      <trkpt lat="47.26648" lon="-2.3201">
        <ele>24</ele>
        <time>2020-05-21T07:47:43.000Z</time>
      </trkpt>
      <trkpt lat="47.26651" lon="-2.32023">
        <ele>24</ele>
        <time>2020-05-21T07:47:46.000Z</time>
      </trkpt>
      <trkpt lat="47.26654" lon="-2.32032">
        <ele>24</ele>
        <time>2020-05-21T07:47:48.000Z</time>
      </trkpt>
      <trkpt lat="47.26662" lon="-2.32066">
        <ele>24</ele>
        <time>2020-05-21T07:47:54.000Z</time>
      </trkpt>
      <trkpt lat="47.2667" lon="-2.321">
        <ele>24</ele>
        <time>2020-05-21T07:47:59.000Z</time>
      </trkpt>
      <trkpt lat="47.26678" lon="-2.32125">
        <ele>24</ele>
        <time>2020-05-21T07:48:04.000Z</time>
      </trkpt>
      <trkpt lat="47.26684" lon="-2.32117">
        <ele>24</ele>
        <time>2020-05-21T07:48:07.000Z</time>
      </trkpt>
      <trkpt lat="47.26686" lon="-2.321">
        <ele>24</ele>
        <time>2020-05-21T07:48:10.000Z</time>
      </trkpt>
      <trkpt lat="47.26685" lon="-2.32094">
        <ele>24</ele>
        <time>2020-05-21T07:48:11.000Z</time>
      </trkpt>
      <trkpt lat="47.26686" lon="-2.32056">
        <ele>24</ele>
        <time>2020-05-21T07:48:18.000Z</time>
      </trkpt>
      <trkpt lat="47.2669" lon="-2.32032">
        <ele>24</ele>
        <time>2020-05-21T07:48:24.000Z</time>
      </trkpt>
      <trkpt lat="47.267" lon="-2.32011">
        <ele>24</ele>
        <time>2020-05-21T07:48:29.000Z</time>
      </trkpt>
      <trkpt lat="47.26704" lon="-2.32007">
        <ele>24</ele>
        <time>2020-05-21T07:48:30.000Z</time>
      </trkpt>
      <trkpt lat="47.26714" lon="-2.31999">
        <ele>23.60000038147</ele>
        <time>2020-05-21T07:48:33.000Z</time>
      </trkpt>
      <trkpt lat="47.26717" lon="-2.31997">
        <ele>23.200000762939</ele>
        <time>2020-05-21T07:48:34.000Z</time>
      </trkpt>
      <trkpt lat="47.2672" lon="-2.31994">
        <ele>22.799999237061</ele>
        <time>2020-05-21T07:48:35.000Z</time>
      </trkpt>
      <trkpt lat="47.26724" lon="-2.31991">
        <ele>22.39999961853</ele>
        <time>2020-05-21T07:48:36.000Z</time>
      </trkpt>
      <trkpt lat="47.26728" lon="-2.31988">
        <ele>22</ele>
        <time>2020-05-21T07:48:37.000Z</time>
      </trkpt>
      <trkpt lat="47.26741" lon="-2.31978">
        <ele>22</ele>
        <time>2020-05-21T07:48:40.000Z</time>
      </trkpt>
      <trkpt lat="47.26745" lon="-2.31973">
        <ele>22</ele>
        <time>2020-05-21T07:48:41.000Z</time>
      </trkpt>
      <trkpt lat="47.26753" lon="-2.31958">
        <ele>22</ele>
        <time>2020-05-21T07:48:44.000Z</time>
      </trkpt>
      <trkpt lat="47.26763" lon="-2.31949">
        <ele>21.60000038147</ele>
        <time>2020-05-21T07:48:47.000Z</time>
      </trkpt>
      <trkpt lat="47.26765" lon="-2.31951">
        <ele>21.200000762939</ele>
        <time>2020-05-21T07:48:48.000Z</time>
      </trkpt>
      <trkpt lat="47.26768" lon="-2.31955">
        <ele>20.60000038147</ele>
        <time>2020-05-21T07:48:49.000Z</time>
      </trkpt>
      <trkpt lat="47.26771" lon="-2.31961">
        <ele>20.200000762939</ele>
        <time>2020-05-21T07:48:50.000Z</time>
      </trkpt>
      <trkpt lat="47.26773" lon="-2.31967">
        <ele>19.799999237061</ele>
        <time>2020-05-21T07:48:51.000Z</time>
      </trkpt>
      <trkpt lat="47.26777" lon="-2.31974">
        <ele>19.799999237061</ele>
        <time>2020-05-21T07:48:52.000Z</time>
      </trkpt>
      <trkpt lat="47.26785" lon="-2.31988">
        <ele>19.799999237061</ele>
        <time>2020-05-21T07:48:54.000Z</time>
      </trkpt>
      <trkpt lat="47.26802" lon="-2.32021">
        <ele>19.39999961853</ele>
        <time>2020-05-21T07:48:58.000Z</time>
      </trkpt>
      <trkpt lat="47.26805" lon="-2.3203">
        <ele>19</ele>
        <time>2020-05-21T07:48:59.000Z</time>
      </trkpt>
      <trkpt lat="47.26809" lon="-2.3204">
        <ele>18.60000038147</ele>
        <time>2020-05-21T07:49:00.000Z</time>
      </trkpt>
      <trkpt lat="47.26812" lon="-2.3205">
        <ele>18.200000762939</ele>
        <time>2020-05-21T07:49:01.000Z</time>
      </trkpt>
      <trkpt lat="47.26814" lon="-2.32059">
        <ele>17.799999237061</ele>
        <time>2020-05-21T07:49:02.000Z</time>
      </trkpt>
      <trkpt lat="47.26827" lon="-2.32105">
        <ele>17.799999237061</ele>
        <time>2020-05-21T07:49:07.000Z</time>
      </trkpt>
      <trkpt lat="47.26837" lon="-2.32139">
        <ele>17.39999961853</ele>
        <time>2020-05-21T07:49:11.000Z</time>
      </trkpt>
      <trkpt lat="47.26839" lon="-2.32147">
        <ele>17</ele>
        <time>2020-05-21T07:49:12.000Z</time>
      </trkpt>
      <trkpt lat="47.26842" lon="-2.32154">
        <ele>16.39999961853</ele>
        <time>2020-05-21T07:49:13.000Z</time>
      </trkpt>
      <trkpt lat="47.26845" lon="-2.32162">
        <ele>16</ele>
        <time>2020-05-21T07:49:14.000Z</time>
      </trkpt>
      <trkpt lat="47.26848" lon="-2.3217">
        <ele>15.60000038147</ele>
        <time>2020-05-21T07:49:15.000Z</time>
      </trkpt>
      <trkpt lat="47.26866" lon="-2.3221">
        <ele>15.60000038147</ele>
        <time>2020-05-21T07:49:20.000Z</time>
      </trkpt>
      <trkpt lat="47.26873" lon="-2.32226">
        <ele>15.199999809265</ele>
        <time>2020-05-21T07:49:22.000Z</time>
      </trkpt>
      <trkpt lat="47.26877" lon="-2.32234">
        <ele>14.800000190735</ele>
        <time>2020-05-21T07:49:23.000Z</time>
      </trkpt>
      <trkpt lat="47.2688" lon="-2.32241">
        <ele>14.39999961853</ele>
        <time>2020-05-21T07:49:24.000Z</time>
      </trkpt>
      <trkpt lat="47.26885" lon="-2.32248">
        <ele>13.800000190735</ele>
        <time>2020-05-21T07:49:25.000Z</time>
      </trkpt>
      <trkpt lat="47.26889" lon="-2.32254">
        <ele>13.39999961853</ele>
        <time>2020-05-21T07:49:26.000Z</time>
      </trkpt>
      <trkpt lat="47.26903" lon="-2.3228">
        <ele>13.39999961853</ele>
        <time>2020-05-21T07:49:29.000Z</time>
      </trkpt>
      <trkpt lat="47.26918" lon="-2.32318">
        <ele>13</ele>
        <time>2020-05-21T07:49:33.000Z</time>
      </trkpt>
      <trkpt lat="47.2692" lon="-2.32326">
        <ele>12.39999961853</ele>
        <time>2020-05-21T07:49:34.000Z</time>
      </trkpt>
      <trkpt lat="47.26922" lon="-2.32333">
        <ele>12</ele>
        <time>2020-05-21T07:49:35.000Z</time>
      </trkpt>
      <trkpt lat="47.26925" lon="-2.3234">
        <ele>11.39999961853</ele>
        <time>2020-05-21T07:49:36.000Z</time>
      </trkpt>
      <trkpt lat="47.26929" lon="-2.32344">
        <ele>11</ele>
        <time>2020-05-21T07:49:37.000Z</time>
      </trkpt>
      <trkpt lat="47.26932" lon="-2.32349">
        <ele>11</ele>
        <time>2020-05-21T07:49:38.000Z</time>
      </trkpt>
      <trkpt lat="47.26944" lon="-2.32375">
        <ele>11</ele>
        <time>2020-05-21T07:49:42.000Z</time>
      </trkpt>
      <trkpt lat="47.2695" lon="-2.32399">
        <ele>11</ele>
        <time>2020-05-21T07:49:45.000Z</time>
      </trkpt>
      <trkpt lat="47.26955" lon="-2.32414">
        <ele>10.60000038147</ele>
        <time>2020-05-21T07:49:47.000Z</time>
      </trkpt>
      <trkpt lat="47.26959" lon="-2.32421">
        <ele>10.199999809265</ele>
        <time>2020-05-21T07:49:48.000Z</time>
      </trkpt>
      <trkpt lat="47.26963" lon="-2.32428">
        <ele>9.8000001907349</ele>
        <time>2020-05-21T07:49:49.000Z</time>
      </trkpt>
      <trkpt lat="47.26967" lon="-2.32434">
        <ele>9.3999996185303</ele>
        <time>2020-05-21T07:49:50.000Z</time>
      </trkpt>
      <trkpt lat="47.26971" lon="-2.3244">
        <ele>9</ele>
        <time>2020-05-21T07:49:51.000Z</time>
      </trkpt>
      <trkpt lat="47.26979" lon="-2.32452">
        <ele>9</ele>
        <time>2020-05-21T07:49:53.000Z</time>
      </trkpt>
      <trkpt lat="47.27" lon="-2.32497">
        <ele>9</ele>
        <time>2020-05-21T07:50:00.000Z</time>
      </trkpt>
      <trkpt lat="47.27003" lon="-2.32501">
        <ele>8.3999996185303</ele>
        <time>2020-05-21T07:50:01.000Z</time>
      </trkpt>
      <trkpt lat="47.27006" lon="-2.32505">
        <ele>8</ele>
        <time>2020-05-21T07:50:02.000Z</time>
      </trkpt>
      <trkpt lat="47.2701" lon="-2.32507">
        <ele>7.5999999046326</ele>
        <time>2020-05-21T07:50:03.000Z</time>
      </trkpt>
      <trkpt lat="47.27016" lon="-2.32506">
        <ele>7.1999998092651</ele>
        <time>2020-05-21T07:50:04.000Z</time>
      </trkpt>
      <trkpt lat="47.27021" lon="-2.32503">
        <ele>6.8000001907349</ele>
        <time>2020-05-21T07:50:05.000Z</time>
      </trkpt>
      <trkpt lat="47.27029" lon="-2.32494">
        <ele>6.8000001907349</ele>
        <time>2020-05-21T07:50:07.000Z</time>
      </trkpt>
      <trkpt lat="47.27032" lon="-2.32468">
        <ele>6.8000001907349</ele>
        <time>2020-05-21T07:50:10.000Z</time>
      </trkpt>
      <trkpt lat="47.2703" lon="-2.3245">
        <ele>6.8000001907349</ele>
        <time>2020-05-21T07:50:12.000Z</time>
      </trkpt>
      <trkpt lat="47.27026" lon="-2.32406">
        <ele>6.8000001907349</ele>
        <time>2020-05-21T07:50:17.000Z</time>
      </trkpt>
      <trkpt lat="47.27026" lon="-2.32398">
        <ele>6.8000001907349</ele>
        <time>2020-05-21T07:50:18.000Z</time>
      </trkpt>
      <trkpt lat="47.27021" lon="-2.32369">
        <ele>6.8000001907349</ele>
        <time>2020-05-21T07:50:22.000Z</time>
      </trkpt>
      <trkpt lat="47.2702" lon="-2.32362">
        <ele>6.8000001907349</ele>
        <time>2020-05-21T07:50:23.000Z</time>
      </trkpt>
      <trkpt lat="47.27018" lon="-2.32333">
        <ele>6.8000001907349</ele>
        <time>2020-05-21T07:50:27.000Z</time>
      </trkpt>
      <trkpt lat="47.27013" lon="-2.32286">
        <ele>6.8000001907349</ele>
        <time>2020-05-21T07:50:33.000Z</time>
      </trkpt>
      <trkpt lat="47.27011" lon="-2.32238">
        <ele>6.8000001907349</ele>
        <time>2020-05-21T07:50:39.000Z</time>
      </trkpt>
      <trkpt lat="47.27003" lon="-2.32199">
        <ele>6.8000001907349</ele>
        <time>2020-05-21T07:50:44.000Z</time>
      </trkpt>
      <trkpt lat="47.27001" lon="-2.32192">
        <ele>6.8000001907349</ele>
        <time>2020-05-21T07:50:45.000Z</time>
      </trkpt>
      <trkpt lat="47.26993" lon="-2.32171">
        <ele>6.8000001907349</ele>
        <time>2020-05-21T07:50:48.000Z</time>
      </trkpt>
      <trkpt lat="47.26986" lon="-2.32159">
        <ele>6.8000001907349</ele>
        <time>2020-05-21T07:50:50.000Z</time>
      </trkpt>
      <trkpt lat="47.26983" lon="-2.32143">
        <ele>6.8000001907349</ele>
        <time>2020-05-21T07:50:53.000Z</time>
      </trkpt>
      <trkpt lat="47.26985" lon="-2.32138">
        <ele>6.8000001907349</ele>
        <time>2020-05-21T07:50:54.000Z</time>
      </trkpt>
      <trkpt lat="47.26999" lon="-2.32123">
        <ele>6.8000001907349</ele>
        <time>2020-05-21T07:50:58.000Z</time>
      </trkpt>
      <trkpt lat="47.27008" lon="-2.32099">
        <ele>6.8000001907349</ele>
        <time>2020-05-21T07:51:02.000Z</time>
      </trkpt>
      <trkpt lat="47.2701" lon="-2.32083">
        <ele>6.8000001907349</ele>
        <time>2020-05-21T07:51:04.000Z</time>
      </trkpt>
      <trkpt lat="47.2701" lon="-2.32077">
        <ele>6.8000001907349</ele>
        <time>2020-05-21T07:51:05.000Z</time>
      </trkpt>
      <trkpt lat="47.2701" lon="-2.32064">
        <ele>6.8000001907349</ele>
        <time>2020-05-21T07:51:07.000Z</time>
      </trkpt>
      <trkpt lat="47.2701" lon="-2.32029">
        <ele>6.8000001907349</ele>
        <time>2020-05-21T07:51:13.000Z</time>
      </trkpt>
      <trkpt lat="47.27009" lon="-2.32023">
        <ele>7.1999998092651</ele>
        <time>2020-05-21T07:51:14.000Z</time>
      </trkpt>
      <trkpt lat="47.27009" lon="-2.32017">
        <ele>7.5999999046326</ele>
        <time>2020-05-21T07:51:15.000Z</time>
      </trkpt>
      <trkpt lat="47.27009" lon="-2.32011">
        <ele>8</ele>
        <time>2020-05-21T07:51:16.000Z</time>
      </trkpt>
      <trkpt lat="47.27008" lon="-2.32005">
        <ele>8.3999996185303</ele>
        <time>2020-05-21T07:51:17.000Z</time>
      </trkpt>
      <trkpt lat="47.27007" lon="-2.31999">
        <ele>8.8000001907349</ele>
        <time>2020-05-21T07:51:18.000Z</time>
      </trkpt>
      <trkpt lat="47.27007" lon="-2.31993">
        <ele>8.8000001907349</ele>
        <time>2020-05-21T07:51:19.000Z</time>
      </trkpt>
      <trkpt lat="47.27008" lon="-2.31987">
        <ele>8.8000001907349</ele>
        <time>2020-05-21T07:51:20.000Z</time>
      </trkpt>
      <trkpt lat="47.27022" lon="-2.31973">
        <ele>8.8000001907349</ele>
        <time>2020-05-21T07:51:24.000Z</time>
      </trkpt>
      <trkpt lat="47.27027" lon="-2.31971">
        <ele>8.8000001907349</ele>
        <time>2020-05-21T07:51:25.000Z</time>
      </trkpt>
      <trkpt lat="47.27043" lon="-2.3196">
        <ele>8.8000001907349</ele>
        <time>2020-05-21T07:51:30.000Z</time>
      </trkpt>
      <trkpt lat="47.27047" lon="-2.31959">
        <ele>8.8000001907349</ele>
        <time>2020-05-21T07:51:31.000Z</time>
      </trkpt>
      <trkpt lat="47.27062" lon="-2.31959">
        <ele>8.8000001907349</ele>
        <time>2020-05-21T07:51:34.000Z</time>
      </trkpt>
      <trkpt lat="47.27088" lon="-2.31958">
        <ele>8.8000001907349</ele>
        <time>2020-05-21T07:51:39.000Z</time>
      </trkpt>
      <trkpt lat="47.27093" lon="-2.31959">
        <ele>8.8000001907349</ele>
        <time>2020-05-21T07:51:40.000Z</time>
      </trkpt>
      <trkpt lat="47.27103" lon="-2.31961">
        <ele>8.8000001907349</ele>
        <time>2020-05-21T07:51:42.000Z</time>
      </trkpt>
      <trkpt lat="47.27117" lon="-2.31969">
        <ele>8.8000001907349</ele>
        <time>2020-05-21T07:51:45.000Z</time>
      </trkpt>
      <trkpt lat="47.27127" lon="-2.31974">
        <ele>8.8000001907349</ele>
        <time>2020-05-21T07:51:47.000Z</time>
      </trkpt>
      <trkpt lat="47.27135" lon="-2.31981">
        <ele>8.8000001907349</ele>
        <time>2020-05-21T07:51:49.000Z</time>
      </trkpt>
      <trkpt lat="47.27138" lon="-2.31984">
        <ele>8.8000001907349</ele>
        <time>2020-05-21T07:51:50.000Z</time>
      </trkpt>
      <trkpt lat="47.27142" lon="-2.31987">
        <ele>8.8000001907349</ele>
        <time>2020-05-21T07:51:51.000Z</time>
      </trkpt>
      <trkpt lat="47.27154" lon="-2.31995">
        <ele>8.3999996185303</ele>
        <time>2020-05-21T07:51:54.000Z</time>
      </trkpt>
      <trkpt lat="47.27158" lon="-2.31996">
        <ele>8</ele>
        <time>2020-05-21T07:51:55.000Z</time>
      </trkpt>
      <trkpt lat="47.2716" lon="-2.31994">
        <ele>7.4000000953674</ele>
        <time>2020-05-21T07:51:56.000Z</time>
      </trkpt>
      <trkpt lat="47.27162" lon="-2.31992">
        <ele>7</ele>
        <time>2020-05-21T07:51:57.000Z</time>
      </trkpt>
      <trkpt lat="47.27164" lon="-2.31989">
        <ele>6.5999999046326</ele>
        <time>2020-05-21T07:51:58.000Z</time>
      </trkpt>
      <trkpt lat="47.27167" lon="-2.31986">
        <ele>6.5999999046326</ele>
        <time>2020-05-21T07:51:59.000Z</time>
      </trkpt>
      <trkpt lat="47.27175" lon="-2.31969">
        <ele>6.5999999046326</ele>
        <time>2020-05-21T07:52:03.000Z</time>
      </trkpt>
      <trkpt lat="47.27188" lon="-2.31952">
        <ele>6.5999999046326</ele>
        <time>2020-05-21T07:52:08.000Z</time>
      </trkpt>
      <trkpt lat="47.272" lon="-2.31931">
        <ele>6.5999999046326</ele>
        <time>2020-05-21T07:52:13.000Z</time>
      </trkpt>
      <trkpt lat="47.27208" lon="-2.31926">
        <ele>6.5999999046326</ele>
        <time>2020-05-21T07:52:16.000Z</time>
      </trkpt>
      <trkpt lat="47.27211" lon="-2.31926">
        <ele>6.5999999046326</ele>
        <time>2020-05-21T07:52:17.000Z</time>
      </trkpt>
      <trkpt lat="47.27228" lon="-2.31931">
        <ele>7</ele>
        <time>2020-05-21T07:52:21.000Z</time>
      </trkpt>
      <trkpt lat="47.27233" lon="-2.31933">
        <ele>7.4000000953674</ele>
        <time>2020-05-21T07:52:22.000Z</time>
      </trkpt>
      <trkpt lat="47.27239" lon="-2.31934">
        <ele>7.8000001907349</ele>
        <time>2020-05-21T07:52:23.000Z</time>
      </trkpt>
      <trkpt lat="47.27244" lon="-2.31935">
        <ele>8.1999998092651</ele>
        <time>2020-05-21T07:52:24.000Z</time>
      </trkpt>
      <trkpt lat="47.27249" lon="-2.31937">
        <ele>8.6000003814697</ele>
        <time>2020-05-21T07:52:25.000Z</time>
      </trkpt>
      <trkpt lat="47.27259" lon="-2.31939">
        <ele>8.6000003814697</ele>
        <time>2020-05-21T07:52:27.000Z</time>
      </trkpt>
      <trkpt lat="47.27287" lon="-2.31951">
        <ele>8.6000003814697</ele>
        <time>2020-05-21T07:52:33.000Z</time>
      </trkpt>
      <trkpt lat="47.27308" lon="-2.31966">
        <ele>8.6000003814697</ele>
        <time>2020-05-21T07:52:37.000Z</time>
      </trkpt>
      <trkpt lat="47.27316" lon="-2.31969">
        <ele>8.6000003814697</ele>
        <time>2020-05-21T07:52:38.000Z</time>
      </trkpt>
      <trkpt lat="47.27358" lon="-2.32">
        <ele>8.6000003814697</ele>
        <time>2020-05-21T07:52:45.000Z</time>
      </trkpt>
      <trkpt lat="47.2739" lon="-2.32025">
        <ele>8.1999998092651</ele>
        <time>2020-05-21T07:52:51.000Z</time>
      </trkpt>
      <trkpt lat="47.27395" lon="-2.3203">
        <ele>7.8000001907349</ele>
        <time>2020-05-21T07:52:52.000Z</time>
      </trkpt>
      <trkpt lat="47.27401" lon="-2.32033">
        <ele>7.4000000953674</ele>
        <time>2020-05-21T07:52:53.000Z</time>
      </trkpt>
      <trkpt lat="47.27406" lon="-2.32037">
        <ele>7</ele>
        <time>2020-05-21T07:52:54.000Z</time>
      </trkpt>
      <trkpt lat="47.27411" lon="-2.3204">
        <ele>6.5999999046326</ele>
        <time>2020-05-21T07:52:55.000Z</time>
      </trkpt>
      <trkpt lat="47.27417" lon="-2.32041">
        <ele>6.5999999046326</ele>
        <time>2020-05-21T07:52:56.000Z</time>
      </trkpt>
      <trkpt lat="47.27432" lon="-2.3203">
        <ele>6.5999999046326</ele>
        <time>2020-05-21T07:52:59.000Z</time>
      </trkpt>
      <trkpt lat="47.27441" lon="-2.32009">
        <ele>6.5999999046326</ele>
        <time>2020-05-21T07:53:02.000Z</time>
      </trkpt>
      <trkpt lat="47.27448" lon="-2.31993">
        <ele>6.5999999046326</ele>
        <time>2020-05-21T07:53:04.000Z</time>
      </trkpt>
      <trkpt lat="47.27466" lon="-2.3195">
        <ele>6.5999999046326</ele>
        <time>2020-05-21T07:53:10.000Z</time>
      </trkpt>
      <trkpt lat="47.27485" lon="-2.31904">
        <ele>6.5999999046326</ele>
        <time>2020-05-21T07:53:17.000Z</time>
      </trkpt>
      <trkpt lat="47.27501" lon="-2.31858">
        <ele>6.5999999046326</ele>
        <time>2020-05-21T07:53:24.000Z</time>
      </trkpt>
      <trkpt lat="47.27523" lon="-2.31794">
        <ele>6.5999999046326</ele>
        <time>2020-05-21T07:53:34.000Z</time>
      </trkpt>
      <trkpt lat="47.27533" lon="-2.31748">
        <ele>6.5999999046326</ele>
        <time>2020-05-21T07:53:41.000Z</time>
      </trkpt>
      <trkpt lat="47.27536" lon="-2.31735">
        <ele>7</ele>
        <time>2020-05-21T07:53:43.000Z</time>
      </trkpt>
      <trkpt lat="47.27537" lon="-2.31728">
        <ele>7.4000000953674</ele>
        <time>2020-05-21T07:53:44.000Z</time>
      </trkpt>
      <trkpt lat="47.27538" lon="-2.31722">
        <ele>7.8000001907349</ele>
        <time>2020-05-21T07:53:45.000Z</time>
      </trkpt>
      <trkpt lat="47.27539" lon="-2.31716">
        <ele>8.1999998092651</ele>
        <time>2020-05-21T07:53:46.000Z</time>
      </trkpt>
      <trkpt lat="47.2754" lon="-2.31709">
        <ele>8.6000003814697</ele>
        <time>2020-05-21T07:53:47.000Z</time>
      </trkpt>
      <trkpt lat="47.2755" lon="-2.31665">
        <ele>9</ele>
        <time>2020-05-21T07:53:55.000Z</time>
      </trkpt>
      <trkpt lat="47.27551" lon="-2.3166">
        <ele>9.3999996185303</ele>
        <time>2020-05-21T07:53:56.000Z</time>
      </trkpt>
      <trkpt lat="47.27553" lon="-2.31653">
        <ele>9.8000001907349</ele>
        <time>2020-05-21T07:53:57.000Z</time>
      </trkpt>
      <trkpt lat="47.27555" lon="-2.31648">
        <ele>10.39999961853</ele>
        <time>2020-05-21T07:53:58.000Z</time>
      </trkpt>
      <trkpt lat="47.27556" lon="-2.31641">
        <ele>10.800000190735</ele>
        <time>2020-05-21T07:53:59.000Z</time>
      </trkpt>
      <trkpt lat="47.27559" lon="-2.31628">
        <ele>10.800000190735</ele>
        <time>2020-05-21T07:54:01.000Z</time>
      </trkpt>
      <trkpt lat="47.27572" lon="-2.31583">
        <ele>10.800000190735</ele>
        <time>2020-05-21T07:54:08.000Z</time>
      </trkpt>
      <trkpt lat="47.27575" lon="-2.31577">
        <ele>10.800000190735</ele>
        <time>2020-05-21T07:54:09.000Z</time>
      </trkpt>
      <trkpt lat="47.27585" lon="-2.31555">
        <ele>10.800000190735</ele>
        <time>2020-05-21T07:54:12.000Z</time>
      </trkpt>
      <trkpt lat="47.27588" lon="-2.31548">
        <ele>10.800000190735</ele>
        <time>2020-05-21T07:54:13.000Z</time>
      </trkpt>
      <trkpt lat="47.27595" lon="-2.31525">
        <ele>11.199999809265</ele>
        <time>2020-05-21T07:54:16.000Z</time>
      </trkpt>
      <trkpt lat="47.27597" lon="-2.31517">
        <ele>11.60000038147</ele>
        <time>2020-05-21T07:54:17.000Z</time>
      </trkpt>
      <trkpt lat="47.27599" lon="-2.31509">
        <ele>12</ele>
        <time>2020-05-21T07:54:18.000Z</time>
      </trkpt>
      <trkpt lat="47.27601" lon="-2.31501">
        <ele>12.39999961853</ele>
        <time>2020-05-21T07:54:19.000Z</time>
      </trkpt>
      <trkpt lat="47.27603" lon="-2.31493">
        <ele>12.800000190735</ele>
        <time>2020-05-21T07:54:20.000Z</time>
      </trkpt>
      <trkpt lat="47.27607" lon="-2.31476">
        <ele>12.800000190735</ele>
        <time>2020-05-21T07:54:22.000Z</time>
      </trkpt>
      <trkpt lat="47.27613" lon="-2.31453">
        <ele>12.800000190735</ele>
        <time>2020-05-21T07:54:25.000Z</time>
      </trkpt>
      <trkpt lat="47.27615" lon="-2.31446">
        <ele>12.800000190735</ele>
        <time>2020-05-21T07:54:26.000Z</time>
      </trkpt>
      <trkpt lat="47.27623" lon="-2.31409">
        <ele>12.800000190735</ele>
        <time>2020-05-21T07:54:31.000Z</time>
      </trkpt>
      <trkpt lat="47.27634" lon="-2.31367">
        <ele>12.800000190735</ele>
        <time>2020-05-21T07:54:37.000Z</time>
      </trkpt>
      <trkpt lat="47.2764" lon="-2.31347">
        <ele>13.199999809265</ele>
        <time>2020-05-21T07:54:40.000Z</time>
      </trkpt>
      <trkpt lat="47.27643" lon="-2.3134">
        <ele>13.60000038147</ele>
        <time>2020-05-21T07:54:41.000Z</time>
      </trkpt>
      <trkpt lat="47.27645" lon="-2.31334">
        <ele>14</ele>
        <time>2020-05-21T07:54:42.000Z</time>
      </trkpt>
      <trkpt lat="47.27647" lon="-2.31328">
        <ele>14.39999961853</ele>
        <time>2020-05-21T07:54:43.000Z</time>
      </trkpt>
      <trkpt lat="47.27649" lon="-2.31323">
        <ele>14.800000190735</ele>
        <time>2020-05-21T07:54:44.000Z</time>
      </trkpt>
      <trkpt lat="47.27664" lon="-2.31275">
        <ele>14.800000190735</ele>
        <time>2020-05-21T07:54:52.000Z</time>
      </trkpt>
      <trkpt lat="47.27675" lon="-2.31236">
        <ele>14.800000190735</ele>
        <time>2020-05-21T07:54:59.000Z</time>
      </trkpt>
      <trkpt lat="47.27677" lon="-2.3123">
        <ele>15.199999809265</ele>
        <time>2020-05-21T07:55:00.000Z</time>
      </trkpt>
      <trkpt lat="47.27678" lon="-2.31225">
        <ele>15.60000038147</ele>
        <time>2020-05-21T07:55:01.000Z</time>
      </trkpt>
      <trkpt lat="47.27678" lon="-2.31219">
        <ele>16</ele>
        <time>2020-05-21T07:55:02.000Z</time>
      </trkpt>
      <trkpt lat="47.27679" lon="-2.31213">
        <ele>16.39999961853</ele>
        <time>2020-05-21T07:55:03.000Z</time>
      </trkpt>
      <trkpt lat="47.27681" lon="-2.31207">
        <ele>16.799999237061</ele>
        <time>2020-05-21T07:55:04.000Z</time>
      </trkpt>
      <trkpt lat="47.27682" lon="-2.31201">
        <ele>16.799999237061</ele>
        <time>2020-05-21T07:55:05.000Z</time>
      </trkpt>
      <trkpt lat="47.27688" lon="-2.31176">
        <ele>16.799999237061</ele>
        <time>2020-05-21T07:55:10.000Z</time>
      </trkpt>
      <trkpt lat="47.27697" lon="-2.31143">
        <ele>16.799999237061</ele>
        <time>2020-05-21T07:55:16.000Z</time>
      </trkpt>
      <trkpt lat="47.27704" lon="-2.31116">
        <ele>16.799999237061</ele>
        <time>2020-05-21T07:55:22.000Z</time>
      </trkpt>
      <trkpt lat="47.27711" lon="-2.31102">
        <ele>16.799999237061</ele>
        <time>2020-05-21T07:55:28.000Z</time>
      </trkpt>
      <trkpt lat="47.27715" lon="-2.31085">
        <ele>16.799999237061</ele>
        <time>2020-05-21T07:55:34.000Z</time>
      </trkpt>
      <trkpt lat="47.27714" lon="-2.31075">
        <ele>17.200000762939</ele>
        <time>2020-05-21T07:55:36.000Z</time>
      </trkpt>
      <trkpt lat="47.27713" lon="-2.3107">
        <ele>17.60000038147</ele>
        <time>2020-05-21T07:55:37.000Z</time>
      </trkpt>
      <trkpt lat="47.2771" lon="-2.31066">
        <ele>18</ele>
        <time>2020-05-21T07:55:38.000Z</time>
      </trkpt>
      <trkpt lat="47.27708" lon="-2.31061">
        <ele>18.39999961853</ele>
        <time>2020-05-21T07:55:39.000Z</time>
      </trkpt>
      <trkpt lat="47.27706" lon="-2.31055">
        <ele>18.799999237061</ele>
        <time>2020-05-21T07:55:40.000Z</time>
      </trkpt>
      <trkpt lat="47.27704" lon="-2.31049">
        <ele>18.799999237061</ele>
        <time>2020-05-21T07:55:41.000Z</time>
      </trkpt>
      <trkpt lat="47.277" lon="-2.31039">
        <ele>18.799999237061</ele>
        <time>2020-05-21T07:55:43.000Z</time>
      </trkpt>
      <trkpt lat="47.27688" lon="-2.31008">
        <ele>18.799999237061</ele>
        <time>2020-05-21T07:55:49.000Z</time>
      </trkpt>
      <trkpt lat="47.27674" lon="-2.30974">
        <ele>18.799999237061</ele>
        <time>2020-05-21T07:55:55.000Z</time>
      </trkpt>
      <trkpt lat="47.27658" lon="-2.30935">
        <ele>18.799999237061</ele>
        <time>2020-05-21T07:56:01.000Z</time>
      </trkpt>
      <trkpt lat="47.27637" lon="-2.30895">
        <ele>18.799999237061</ele>
        <time>2020-05-21T07:56:07.000Z</time>
      </trkpt>
      <trkpt lat="47.27621" lon="-2.30855">
        <ele>18.799999237061</ele>
        <time>2020-05-21T07:56:13.000Z</time>
      </trkpt>
      <trkpt lat="47.27611" lon="-2.3083">
        <ele>19.200000762939</ele>
        <time>2020-05-21T07:56:17.000Z</time>
      </trkpt>
      <trkpt lat="47.27608" lon="-2.30824">
        <ele>19.799999237061</ele>
        <time>2020-05-21T07:56:18.000Z</time>
      </trkpt>
      <trkpt lat="47.27605" lon="-2.30818">
        <ele>20.200000762939</ele>
        <time>2020-05-21T07:56:19.000Z</time>
      </trkpt>
      <trkpt lat="47.27602" lon="-2.30812">
        <ele>20.60000038147</ele>
        <time>2020-05-21T07:56:20.000Z</time>
      </trkpt>
      <trkpt lat="47.27599" lon="-2.30805">
        <ele>21</ele>
        <time>2020-05-21T07:56:21.000Z</time>
      </trkpt>
      <trkpt lat="47.27581" lon="-2.30755">
        <ele>21</ele>
        <time>2020-05-21T07:56:28.000Z</time>
      </trkpt>
      <trkpt lat="47.2757" lon="-2.30709">
        <ele>21</ele>
        <time>2020-05-21T07:56:34.000Z</time>
      </trkpt>
      <trkpt lat="47.27561" lon="-2.30662">
        <ele>21</ele>
        <time>2020-05-21T07:56:40.000Z</time>
      </trkpt>
      <trkpt lat="47.27553" lon="-2.30625">
        <ele>20.60000038147</ele>
        <time>2020-05-21T07:56:45.000Z</time>
      </trkpt>
      <trkpt lat="47.27551" lon="-2.3062">
        <ele>20.200000762939</ele>
        <time>2020-05-21T07:56:46.000Z</time>
      </trkpt>
      <trkpt lat="47.2755" lon="-2.30615">
        <ele>19.799999237061</ele>
        <time>2020-05-21T07:56:47.000Z</time>
      </trkpt>
      <trkpt lat="47.27549" lon="-2.30611">
        <ele>19.39999961853</ele>
        <time>2020-05-21T07:56:48.000Z</time>
      </trkpt>
      <trkpt lat="47.27548" lon="-2.30606">
        <ele>19</ele>
        <time>2020-05-21T07:56:49.000Z</time>
      </trkpt>
      <trkpt lat="47.27542" lon="-2.30583">
        <ele>19</ele>
        <time>2020-05-21T07:56:53.000Z</time>
      </trkpt>
      <trkpt lat="47.2753" lon="-2.30539">
        <ele>19</ele>
        <time>2020-05-21T07:56:59.000Z</time>
      </trkpt>
      <trkpt lat="47.27516" lon="-2.30488">
        <ele>19</ele>
        <time>2020-05-21T07:57:06.000Z</time>
      </trkpt>
      <trkpt lat="47.27504" lon="-2.30436">
        <ele>19</ele>
        <time>2020-05-21T07:57:13.000Z</time>
      </trkpt>
      <trkpt lat="47.27497" lon="-2.30382">
        <ele>19.39999961853</ele>
        <time>2020-05-21T07:57:20.000Z</time>
      </trkpt>
      <trkpt lat="47.27496" lon="-2.30374">
        <ele>19.799999237061</ele>
        <time>2020-05-21T07:57:21.000Z</time>
      </trkpt>
      <trkpt lat="47.27494" lon="-2.30366">
        <ele>20.799999237061</ele>
        <time>2020-05-21T07:57:22.000Z</time>
      </trkpt>
      <trkpt lat="47.27493" lon="-2.30358">
        <ele>21.200000762939</ele>
        <time>2020-05-21T07:57:23.000Z</time>
      </trkpt>
      <trkpt lat="47.2749" lon="-2.30344">
        <ele>21.200000762939</ele>
        <time>2020-05-21T07:57:25.000Z</time>
      </trkpt>
      <trkpt lat="47.27483" lon="-2.30304">
        <ele>21.200000762939</ele>
        <time>2020-05-21T07:57:31.000Z</time>
      </trkpt>
      <trkpt lat="47.2748" lon="-2.30287">
        <ele>21.60000038147</ele>
        <time>2020-05-21T07:57:34.000Z</time>
      </trkpt>
      <trkpt lat="47.27479" lon="-2.30281">
        <ele>22</ele>
        <time>2020-05-21T07:57:35.000Z</time>
      </trkpt>
      <trkpt lat="47.27478" lon="-2.30275">
        <ele>22.39999961853</ele>
        <time>2020-05-21T07:57:36.000Z</time>
      </trkpt>
      <trkpt lat="47.27477" lon="-2.30269">
        <ele>22.799999237061</ele>
        <time>2020-05-21T07:57:37.000Z</time>
      </trkpt>
      <trkpt lat="47.27476" lon="-2.30263">
        <ele>23.200000762939</ele>
        <time>2020-05-21T07:57:38.000Z</time>
      </trkpt>
      <trkpt lat="47.27475" lon="-2.30259">
        <ele>23.200000762939</ele>
        <time>2020-05-21T07:57:39.000Z</time>
      </trkpt>
      <trkpt lat="47.27467" lon="-2.30224">
        <ele>23.200000762939</ele>
        <time>2020-05-21T07:57:45.000Z</time>
      </trkpt>
      <trkpt lat="47.27464" lon="-2.30207">
        <ele>23.60000038147</ele>
        <time>2020-05-21T07:57:48.000Z</time>
      </trkpt>
      <trkpt lat="47.27463" lon="-2.30203">
        <ele>24.200000762939</ele>
        <time>2020-05-21T07:57:49.000Z</time>
      </trkpt>
      <trkpt lat="47.27462" lon="-2.30198">
        <ele>24.60000038147</ele>
        <time>2020-05-21T07:57:50.000Z</time>
      </trkpt>
      <trkpt lat="47.27461" lon="-2.30194">
        <ele>25</ele>
        <time>2020-05-21T07:57:51.000Z</time>
      </trkpt>
      <trkpt lat="47.2746" lon="-2.30191">
        <ele>25.39999961853</ele>
        <time>2020-05-21T07:57:52.000Z</time>
      </trkpt>
      <trkpt lat="47.27456" lon="-2.30173">
        <ele>25.39999961853</ele>
        <time>2020-05-21T07:57:57.000Z</time>
      </trkpt>
      <trkpt lat="47.27451" lon="-2.3015">
        <ele>25.799999237061</ele>
        <time>2020-05-21T07:58:01.000Z</time>
      </trkpt>
      <trkpt lat="47.27449" lon="-2.30142">
        <ele>26.200000762939</ele>
        <time>2020-05-21T07:58:02.000Z</time>
      </trkpt>
      <trkpt lat="47.27447" lon="-2.30135">
        <ele>26.60000038147</ele>
        <time>2020-05-21T07:58:03.000Z</time>
      </trkpt>
      <trkpt lat="47.27446" lon="-2.30129">
        <ele>27</ele>
        <time>2020-05-21T07:58:04.000Z</time>
      </trkpt>
      <trkpt lat="47.27445" lon="-2.30121">
        <ele>27.39999961853</ele>
        <time>2020-05-21T07:58:05.000Z</time>
      </trkpt>
      <trkpt lat="47.27439" lon="-2.30094">
        <ele>27.39999961853</ele>
        <time>2020-05-21T07:58:09.000Z</time>
      </trkpt>
      <trkpt lat="47.27422" lon="-2.30042">
        <ele>27.39999961853</ele>
        <time>2020-05-21T07:58:17.000Z</time>
      </trkpt>
      <trkpt lat="47.27408" lon="-2.30011">
        <ele>28</ele>
        <time>2020-05-21T07:58:22.000Z</time>
      </trkpt>
      <trkpt lat="47.27405" lon="-2.30005">
        <ele>28.39999961853</ele>
        <time>2020-05-21T07:58:23.000Z</time>
      </trkpt>
      <trkpt lat="47.27402" lon="-2.29999">
        <ele>28.799999237061</ele>
        <time>2020-05-21T07:58:24.000Z</time>
      </trkpt>
      <trkpt lat="47.274" lon="-2.29994">
        <ele>29.200000762939</ele>
        <time>2020-05-21T07:58:25.000Z</time>
      </trkpt>
      <trkpt lat="47.27397" lon="-2.29989">
        <ele>29.60000038147</ele>
        <time>2020-05-21T07:58:26.000Z</time>
      </trkpt>
      <trkpt lat="47.27384" lon="-2.29958">
        <ele>29.60000038147</ele>
        <time>2020-05-21T07:58:31.000Z</time>
      </trkpt>
      <trkpt lat="47.27359" lon="-2.29904">
        <ele>29.60000038147</ele>
        <time>2020-05-21T07:58:40.000Z</time>
      </trkpt>
      <trkpt lat="47.27333" lon="-2.29854">
        <ele>29.60000038147</ele>
        <time>2020-05-21T07:58:48.000Z</time>
      </trkpt>
      <trkpt lat="47.2731" lon="-2.29813">
        <ele>29.60000038147</ele>
        <time>2020-05-21T07:58:55.000Z</time>
      </trkpt>
      <trkpt lat="47.27299" lon="-2.29782">
        <ele>29.60000038147</ele>
        <time>2020-05-21T07:59:00.000Z</time>
      </trkpt>
      <trkpt lat="47.27291" lon="-2.29749">
        <ele>29.60000038147</ele>
        <time>2020-05-21T07:59:06.000Z</time>
      </trkpt>
      <trkpt lat="47.27287" lon="-2.29736">
        <ele>29.60000038147</ele>
        <time>2020-05-21T07:59:08.000Z</time>
      </trkpt>
      <trkpt lat="47.27282" lon="-2.29718">
        <ele>29.60000038147</ele>
        <time>2020-05-21T07:59:11.000Z</time>
      </trkpt>
      <trkpt lat="47.2728" lon="-2.29712">
        <ele>29.60000038147</ele>
        <time>2020-05-21T07:59:12.000Z</time>
      </trkpt>
      <trkpt lat="47.27271" lon="-2.29678">
        <ele>29.60000038147</ele>
        <time>2020-05-21T07:59:19.000Z</time>
      </trkpt>
      <trkpt lat="47.27267" lon="-2.29658">
        <ele>29.60000038147</ele>
        <time>2020-05-21T07:59:25.000Z</time>
      </trkpt>
      <trkpt lat="47.27266" lon="-2.29653">
        <ele>29.60000038147</ele>
        <time>2020-05-21T07:59:27.000Z</time>
      </trkpt>
      <trkpt lat="47.27263" lon="-2.29647">
        <ele>29.60000038147</ele>
        <time>2020-05-21T07:59:29.000Z</time>
      </trkpt>
      <trkpt lat="47.27258" lon="-2.29624">
        <ele>29.60000038147</ele>
        <time>2020-05-21T07:59:34.000Z</time>
      </trkpt>
      <trkpt lat="47.2725" lon="-2.29575">
        <ele>29.60000038147</ele>
        <time>2020-05-21T07:59:43.000Z</time>
      </trkpt>
      <trkpt lat="47.27245" lon="-2.29539">
        <ele>29.60000038147</ele>
        <time>2020-05-21T07:59:50.000Z</time>
      </trkpt>
      <trkpt lat="47.27233" lon="-2.29508">
        <ele>29.60000038147</ele>
        <time>2020-05-21T07:59:56.000Z</time>
      </trkpt>
      <trkpt lat="47.27221" lon="-2.29468">
        <ele>29.60000038147</ele>
        <time>2020-05-21T08:00:02.000Z</time>
      </trkpt>
      <trkpt lat="47.27219" lon="-2.2946">
        <ele>29.60000038147</ele>
        <time>2020-05-21T08:00:03.000Z</time>
      </trkpt>
      <trkpt lat="47.27201" lon="-2.29405">
        <ele>29.60000038147</ele>
        <time>2020-05-21T08:00:11.000Z</time>
      </trkpt>
      <trkpt lat="47.27188" lon="-2.29368">
        <ele>29.60000038147</ele>
        <time>2020-05-21T08:00:17.000Z</time>
      </trkpt>
      <trkpt lat="47.27185" lon="-2.29363">
        <ele>29.60000038147</ele>
        <time>2020-05-21T08:00:18.000Z</time>
      </trkpt>
      <trkpt lat="47.27173" lon="-2.29347">
        <ele>29.60000038147</ele>
        <time>2020-05-21T08:00:22.000Z</time>
      </trkpt>
      <trkpt lat="47.27153" lon="-2.29318">
        <ele>29.60000038147</ele>
        <time>2020-05-21T08:00:29.000Z</time>
      </trkpt>
      <trkpt lat="47.27152" lon="-2.293">
        <ele>29.60000038147</ele>
        <time>2020-05-21T08:00:33.000Z</time>
      </trkpt>
      <trkpt lat="47.27158" lon="-2.2928">
        <ele>29.60000038147</ele>
        <time>2020-05-21T08:00:37.000Z</time>
      </trkpt>
      <trkpt lat="47.27164" lon="-2.29245">
        <ele>29.60000038147</ele>
        <time>2020-05-21T08:00:43.000Z</time>
      </trkpt>
      <trkpt lat="47.27161" lon="-2.29231">
        <ele>29.60000038147</ele>
        <time>2020-05-21T08:00:45.000Z</time>
      </trkpt>
      <trkpt lat="47.2716" lon="-2.29225">
        <ele>29.60000038147</ele>
        <time>2020-05-21T08:00:46.000Z</time>
      </trkpt>
      <trkpt lat="47.27144" lon="-2.29185">
        <ele>29.60000038147</ele>
        <time>2020-05-21T08:00:53.000Z</time>
      </trkpt>
      <trkpt lat="47.27144" lon="-2.29181">
        <ele>29.60000038147</ele>
        <time>2020-05-21T08:00:54.000Z</time>
      </trkpt>
      <trkpt lat="47.27145" lon="-2.29172">
        <ele>29.60000038147</ele>
        <time>2020-05-21T08:00:56.000Z</time>
      </trkpt>
      <trkpt lat="47.27152" lon="-2.29155">
        <ele>29.60000038147</ele>
        <time>2020-05-21T08:01:01.000Z</time>
      </trkpt>
      <trkpt lat="47.2717" lon="-2.29133">
        <ele>29.60000038147</ele>
        <time>2020-05-21T08:01:07.000Z</time>
      </trkpt>
      <trkpt lat="47.27178" lon="-2.29124">
        <ele>29.60000038147</ele>
        <time>2020-05-21T08:01:09.000Z</time>
      </trkpt>
      <trkpt lat="47.27186" lon="-2.29105">
        <ele>29.60000038147</ele>
        <time>2020-05-21T08:01:12.000Z</time>
      </trkpt>
      <trkpt lat="47.27185" lon="-2.29074">
        <ele>29.60000038147</ele>
        <time>2020-05-21T08:01:16.000Z</time>
      </trkpt>
      <trkpt lat="47.27184" lon="-2.29067">
        <ele>29.60000038147</ele>
        <time>2020-05-21T08:01:17.000Z</time>
      </trkpt>
      <trkpt lat="47.27179" lon="-2.29033">
        <ele>29.60000038147</ele>
        <time>2020-05-21T08:01:23.000Z</time>
      </trkpt>
      <trkpt lat="47.27178" lon="-2.29001">
        <ele>29.60000038147</ele>
        <time>2020-05-21T08:01:28.000Z</time>
      </trkpt>
      <trkpt lat="47.27173" lon="-2.28963">
        <ele>29.60000038147</ele>
        <time>2020-05-21T08:01:34.000Z</time>
      </trkpt>
      <trkpt lat="47.27167" lon="-2.28927">
        <ele>29.60000038147</ele>
        <time>2020-05-21T08:01:40.000Z</time>
      </trkpt>
      <trkpt lat="47.27163" lon="-2.289">
        <ele>29.60000038147</ele>
        <time>2020-05-21T08:01:44.000Z</time>
      </trkpt>
      <trkpt lat="47.27163" lon="-2.28885">
        <ele>29.60000038147</ele>
        <time>2020-05-21T08:01:46.000Z</time>
      </trkpt>
      <trkpt lat="47.2717" lon="-2.28833">
        <ele>29.60000038147</ele>
        <time>2020-05-21T08:01:51.000Z</time>
      </trkpt>
      <trkpt lat="47.27176" lon="-2.28764">
        <ele>29.60000038147</ele>
        <time>2020-05-21T08:01:58.000Z</time>
      </trkpt>
      <trkpt lat="47.27174" lon="-2.28713">
        <ele>29.60000038147</ele>
        <time>2020-05-21T08:02:04.000Z</time>
      </trkpt>
      <trkpt lat="47.27174" lon="-2.28662">
        <ele>29.60000038147</ele>
        <time>2020-05-21T08:02:11.000Z</time>
      </trkpt>
      <trkpt lat="47.27175" lon="-2.2862">
        <ele>29.60000038147</ele>
        <time>2020-05-21T08:02:17.000Z</time>
      </trkpt>
      <trkpt lat="47.27183" lon="-2.28605">
        <ele>29.60000038147</ele>
        <time>2020-05-21T08:02:21.000Z</time>
      </trkpt>
      <trkpt lat="47.27202" lon="-2.28596">
        <ele>29.60000038147</ele>
        <time>2020-05-21T08:02:25.000Z</time>
      </trkpt>
      <trkpt lat="47.27234" lon="-2.28589">
        <ele>29.60000038147</ele>
        <time>2020-05-21T08:02:31.000Z</time>
      </trkpt>
      <trkpt lat="47.27258" lon="-2.28589">
        <ele>29.60000038147</ele>
        <time>2020-05-21T08:02:35.000Z</time>
      </trkpt>
      <trkpt lat="47.27275" lon="-2.2859">
        <ele>29.60000038147</ele>
        <time>2020-05-21T08:02:38.000Z</time>
      </trkpt>
      <trkpt lat="47.27298" lon="-2.28595">
        <ele>29.60000038147</ele>
        <time>2020-05-21T08:02:42.000Z</time>
      </trkpt>
      <trkpt lat="47.27309" lon="-2.28598">
        <ele>29.60000038147</ele>
        <time>2020-05-21T08:02:44.000Z</time>
      </trkpt>
      <trkpt lat="47.27343" lon="-2.28609">
        <ele>29.60000038147</ele>
        <time>2020-05-21T08:02:50.000Z</time>
      </trkpt>
      <trkpt lat="47.27374" lon="-2.28624">
        <ele>29.60000038147</ele>
        <time>2020-05-21T08:02:55.000Z</time>
      </trkpt>
      <trkpt lat="47.27404" lon="-2.28637">
        <ele>29.60000038147</ele>
        <time>2020-05-21T08:03:00.000Z</time>
      </trkpt>
      <trkpt lat="47.27423" lon="-2.28643">
        <ele>29.60000038147</ele>
        <time>2020-05-21T08:03:03.000Z</time>
      </trkpt>
      <trkpt lat="47.27442" lon="-2.28642">
        <ele>29.60000038147</ele>
        <time>2020-05-21T08:03:06.000Z</time>
      </trkpt>
      <trkpt lat="47.27447" lon="-2.28639">
        <ele>29.200000762939</ele>
        <time>2020-05-21T08:03:07.000Z</time>
      </trkpt>
      <trkpt lat="47.27452" lon="-2.28634">
        <ele>28.799999237061</ele>
        <time>2020-05-21T08:03:08.000Z</time>
      </trkpt>
      <trkpt lat="47.27455" lon="-2.28628">
        <ele>28.39999961853</ele>
        <time>2020-05-21T08:03:09.000Z</time>
      </trkpt>
      <trkpt lat="47.27459" lon="-2.28622">
        <ele>28</ele>
        <time>2020-05-21T08:03:10.000Z</time>
      </trkpt>
      <trkpt lat="47.27463" lon="-2.28615">
        <ele>27.60000038147</ele>
        <time>2020-05-21T08:03:11.000Z</time>
      </trkpt>
      <trkpt lat="47.27473" lon="-2.28591">
        <ele>27.60000038147</ele>
        <time>2020-05-21T08:03:14.000Z</time>
      </trkpt>
      <trkpt lat="47.27476" lon="-2.28581">
        <ele>27.60000038147</ele>
        <time>2020-05-21T08:03:15.000Z</time>
      </trkpt>
      <trkpt lat="47.27485" lon="-2.28555">
        <ele>27.60000038147</ele>
        <time>2020-05-21T08:03:18.000Z</time>
      </trkpt>
      <trkpt lat="47.27492" lon="-2.28539">
        <ele>27.60000038147</ele>
        <time>2020-05-21T08:03:20.000Z</time>
      </trkpt>
      <trkpt lat="47.27501" lon="-2.2852">
        <ele>27.60000038147</ele>
        <time>2020-05-21T08:03:23.000Z</time>
      </trkpt>
      <trkpt lat="47.27503" lon="-2.28513">
        <ele>27.60000038147</ele>
        <time>2020-05-21T08:03:24.000Z</time>
      </trkpt>
      <trkpt lat="47.27512" lon="-2.28491">
        <ele>27.60000038147</ele>
        <time>2020-05-21T08:03:27.000Z</time>
      </trkpt>
      <trkpt lat="47.27515" lon="-2.28483">
        <ele>27.60000038147</ele>
        <time>2020-05-21T08:03:28.000Z</time>
      </trkpt>
      <trkpt lat="47.27532" lon="-2.28441">
        <ele>27.60000038147</ele>
        <time>2020-05-21T08:03:34.000Z</time>
      </trkpt>
      <trkpt lat="47.27542" lon="-2.28425">
        <ele>27.60000038147</ele>
        <time>2020-05-21T08:03:37.000Z</time>
      </trkpt>
      <trkpt lat="47.27549" lon="-2.28415">
        <ele>27.60000038147</ele>
        <time>2020-05-21T08:03:39.000Z</time>
      </trkpt>
      <trkpt lat="47.27567" lon="-2.28393">
        <ele>27.60000038147</ele>
        <time>2020-05-21T08:03:44.000Z</time>
      </trkpt>
      <trkpt lat="47.27573" lon="-2.28385">
        <ele>27.60000038147</ele>
        <time>2020-05-21T08:03:46.000Z</time>
      </trkpt>
      <trkpt lat="47.27593" lon="-2.28361">
        <ele>27.60000038147</ele>
        <time>2020-05-21T08:03:52.000Z</time>
      </trkpt>
      <trkpt lat="47.27609" lon="-2.28338">
        <ele>27.60000038147</ele>
        <time>2020-05-21T08:03:58.000Z</time>
      </trkpt>
      <trkpt lat="47.27634" lon="-2.28311">
        <ele>27.60000038147</ele>
        <time>2020-05-21T08:04:04.000Z</time>
      </trkpt>
      <trkpt lat="47.2765" lon="-2.28292">
        <ele>27.60000038147</ele>
        <time>2020-05-21T08:04:09.000Z</time>
      </trkpt>
      <trkpt lat="47.27652" lon="-2.28285">
        <ele>27.60000038147</ele>
        <time>2020-05-21T08:04:10.000Z</time>
      </trkpt>
      <trkpt lat="47.27658" lon="-2.28275">
        <ele>27.60000038147</ele>
        <time>2020-05-21T08:04:12.000Z</time>
      </trkpt>
      <trkpt lat="47.27685" lon="-2.28236">
        <ele>27.60000038147</ele>
        <time>2020-05-21T08:04:19.000Z</time>
      </trkpt>
      <trkpt lat="47.27706" lon="-2.28201">
        <ele>27.60000038147</ele>
        <time>2020-05-21T08:04:25.000Z</time>
      </trkpt>
      <trkpt lat="47.27714" lon="-2.28182">
        <ele>28</ele>
        <time>2020-05-21T08:04:28.000Z</time>
      </trkpt>
      <trkpt lat="47.27717" lon="-2.28175">
        <ele>28.39999961853</ele>
        <time>2020-05-21T08:04:29.000Z</time>
      </trkpt>
      <trkpt lat="47.27719" lon="-2.28169">
        <ele>28.799999237061</ele>
        <time>2020-05-21T08:04:30.000Z</time>
      </trkpt>
      <trkpt lat="47.27722" lon="-2.28162">
        <ele>29.200000762939</ele>
        <time>2020-05-21T08:04:31.000Z</time>
      </trkpt>
      <trkpt lat="47.27725" lon="-2.28154">
        <ele>29.60000038147</ele>
        <time>2020-05-21T08:04:32.000Z</time>
      </trkpt>
      <trkpt lat="47.27736" lon="-2.28113">
        <ele>29.60000038147</ele>
        <time>2020-05-21T08:04:37.000Z</time>
      </trkpt>
      <trkpt lat="47.27747" lon="-2.28057">
        <ele>29.60000038147</ele>
        <time>2020-05-21T08:04:44.000Z</time>
      </trkpt>
      <trkpt lat="47.27754" lon="-2.28012">
        <ele>29.60000038147</ele>
        <time>2020-05-21T08:04:50.000Z</time>
      </trkpt>
      <trkpt lat="47.27761" lon="-2.27976">
        <ele>29.60000038147</ele>
        <time>2020-05-21T08:04:55.000Z</time>
      </trkpt>
      <trkpt lat="47.27768" lon="-2.27931">
        <ele>29.60000038147</ele>
        <time>2020-05-21T08:05:02.000Z</time>
      </trkpt>
      <trkpt lat="47.2777" lon="-2.27925">
        <ele>29.60000038147</ele>
        <time>2020-05-21T08:05:03.000Z</time>
      </trkpt>
      <trkpt lat="47.27779" lon="-2.279">
        <ele>29.60000038147</ele>
        <time>2020-05-21T08:05:07.000Z</time>
      </trkpt>
      <trkpt lat="47.27797" lon="-2.27866">
        <ele>29.60000038147</ele>
        <time>2020-05-21T08:05:12.000Z</time>
      </trkpt>
      <trkpt lat="47.27819" lon="-2.27822">
        <ele>29.60000038147</ele>
        <time>2020-05-21T08:05:19.000Z</time>
      </trkpt>
      <trkpt lat="47.27824" lon="-2.27812">
        <ele>29.60000038147</ele>
        <time>2020-05-21T08:05:21.000Z</time>
      </trkpt>
      <trkpt lat="47.27831" lon="-2.27794">
        <ele>29.60000038147</ele>
        <time>2020-05-21T08:05:24.000Z</time>
      </trkpt>
      <trkpt lat="47.27853" lon="-2.2775">
        <ele>29.60000038147</ele>
        <time>2020-05-21T08:05:31.000Z</time>
      </trkpt>
      <trkpt lat="47.27879" lon="-2.27697">
        <ele>29.60000038147</ele>
        <time>2020-05-21T08:05:39.000Z</time>
      </trkpt>
      <trkpt lat="47.27894" lon="-2.27655">
        <ele>29.60000038147</ele>
        <time>2020-05-21T08:05:45.000Z</time>
      </trkpt>
      <trkpt lat="47.27906" lon="-2.27613">
        <ele>29.60000038147</ele>
        <time>2020-05-21T08:05:52.000Z</time>
      </trkpt>
      <trkpt lat="47.27916" lon="-2.27587">
        <ele>29.60000038147</ele>
        <time>2020-05-21T08:05:57.000Z</time>
      </trkpt>
      <trkpt lat="47.27931" lon="-2.2757">
        <ele>29.60000038147</ele>
        <time>2020-05-21T08:06:02.000Z</time>
      </trkpt>
      <trkpt lat="47.27948" lon="-2.27558">
        <ele>29.60000038147</ele>
        <time>2020-05-21T08:06:08.000Z</time>
      </trkpt>
      <trkpt lat="47.27962" lon="-2.2756">
        <ele>29.60000038147</ele>
        <time>2020-05-21T08:06:13.000Z</time>
      </trkpt>
      <trkpt lat="47.27983" lon="-2.27559">
        <ele>29.60000038147</ele>
        <time>2020-05-21T08:06:19.000Z</time>
      </trkpt>
      <trkpt lat="47.2801" lon="-2.2756">
        <ele>29.60000038147</ele>
        <time>2020-05-21T08:06:26.000Z</time>
      </trkpt>
      <trkpt lat="47.28021" lon="-2.2756">
        <ele>30</ele>
        <time>2020-05-21T08:06:29.000Z</time>
      </trkpt>
      <trkpt lat="47.28024" lon="-2.2756">
        <ele>30.39999961853</ele>
        <time>2020-05-21T08:06:30.000Z</time>
      </trkpt>
      <trkpt lat="47.28028" lon="-2.2756">
        <ele>30.799999237061</ele>
        <time>2020-05-21T08:06:31.000Z</time>
      </trkpt>
      <trkpt lat="47.28032" lon="-2.27559">
        <ele>31.200000762939</ele>
        <time>2020-05-21T08:06:32.000Z</time>
      </trkpt>
      <trkpt lat="47.28036" lon="-2.27558">
        <ele>31.799999237061</ele>
        <time>2020-05-21T08:06:33.000Z</time>
      </trkpt>
      <trkpt lat="47.2804" lon="-2.27556">
        <ele>31.799999237061</ele>
        <time>2020-05-21T08:06:34.000Z</time>
      </trkpt>
      <trkpt lat="47.28044" lon="-2.27554">
        <ele>31.799999237061</ele>
        <time>2020-05-21T08:06:35.000Z</time>
      </trkpt>
      <trkpt lat="47.28058" lon="-2.27544">
        <ele>32.200000762939</ele>
        <time>2020-05-21T08:06:39.000Z</time>
      </trkpt>
      <trkpt lat="47.28062" lon="-2.2754">
        <ele>32.599998474121</ele>
        <time>2020-05-21T08:06:40.000Z</time>
      </trkpt>
      <trkpt lat="47.28065" lon="-2.27536">
        <ele>33</ele>
        <time>2020-05-21T08:06:41.000Z</time>
      </trkpt>
      <trkpt lat="47.28069" lon="-2.27532">
        <ele>33.400001525879</ele>
        <time>2020-05-21T08:06:42.000Z</time>
      </trkpt>
      <trkpt lat="47.28072" lon="-2.27527">
        <ele>33.799999237061</ele>
        <time>2020-05-21T08:06:43.000Z</time>
      </trkpt>
      <trkpt lat="47.28074" lon="-2.27523">
        <ele>33.799999237061</ele>
        <time>2020-05-21T08:06:44.000Z</time>
      </trkpt>
      <trkpt lat="47.2808" lon="-2.27507">
        <ele>33.799999237061</ele>
        <time>2020-05-21T08:06:47.000Z</time>
      </trkpt>
      <trkpt lat="47.28083" lon="-2.27497">
        <ele>34.599998474121</ele>
        <time>2020-05-21T08:06:49.000Z</time>
      </trkpt>
      <trkpt lat="47.28085" lon="-2.27492">
        <ele>35.200000762939</ele>
        <time>2020-05-21T08:06:50.000Z</time>
      </trkpt>
      <trkpt lat="47.28087" lon="-2.27486">
        <ele>35.599998474121</ele>
        <time>2020-05-21T08:06:51.000Z</time>
      </trkpt>
      <trkpt lat="47.28088" lon="-2.27481">
        <ele>36</ele>
        <time>2020-05-21T08:06:52.000Z</time>
      </trkpt>
      <trkpt lat="47.28095" lon="-2.27461">
        <ele>36.400001525879</ele>
        <time>2020-05-21T08:06:56.000Z</time>
      </trkpt>
      <trkpt lat="47.28097" lon="-2.27456">
        <ele>36.799999237061</ele>
        <time>2020-05-21T08:06:57.000Z</time>
      </trkpt>
      <trkpt lat="47.28099" lon="-2.27451">
        <ele>37.200000762939</ele>
        <time>2020-05-21T08:06:58.000Z</time>
      </trkpt>
      <trkpt lat="47.28101" lon="-2.27445">
        <ele>37.599998474121</ele>
        <time>2020-05-21T08:06:59.000Z</time>
      </trkpt>
      <trkpt lat="47.28102" lon="-2.2744">
        <ele>38</ele>
        <time>2020-05-21T08:07:00.000Z</time>
      </trkpt>
      <trkpt lat="47.28114" lon="-2.27414">
        <ele>38</ele>
        <time>2020-05-21T08:07:05.000Z</time>
      </trkpt>
      <trkpt lat="47.28116" lon="-2.27409">
        <ele>38</ele>
        <time>2020-05-21T08:07:06.000Z</time>
      </trkpt>
      <trkpt lat="47.28128" lon="-2.2738">
        <ele>38.400001525879</ele>
        <time>2020-05-21T08:07:12.000Z</time>
      </trkpt>
      <trkpt lat="47.28131" lon="-2.27377">
        <ele>38.799999237061</ele>
        <time>2020-05-21T08:07:13.000Z</time>
      </trkpt>
      <trkpt lat="47.28135" lon="-2.27375">
        <ele>39.599998474121</ele>
        <time>2020-05-21T08:07:14.000Z</time>
      </trkpt>
      <trkpt lat="47.2814" lon="-2.27373">
        <ele>40</ele>
        <time>2020-05-21T08:07:15.000Z</time>
      </trkpt>
      <trkpt lat="47.28149" lon="-2.27372">
        <ele>40</ele>
        <time>2020-05-21T08:07:17.000Z</time>
      </trkpt>
      <trkpt lat="47.28154" lon="-2.27371">
        <ele>40</ele>
        <time>2020-05-21T08:07:18.000Z</time>
      </trkpt>
      <trkpt lat="47.28158" lon="-2.2737">
        <ele>40</ele>
        <time>2020-05-21T08:07:19.000Z</time>
      </trkpt>
      <trkpt lat="47.28183" lon="-2.27366">
        <ele>40</ele>
        <time>2020-05-21T08:07:24.000Z</time>
      </trkpt>
      <trkpt lat="47.28201" lon="-2.27362">
        <ele>40</ele>
        <time>2020-05-21T08:07:28.000Z</time>
      </trkpt>
      <trkpt lat="47.2821" lon="-2.27359">
        <ele>40</ele>
        <time>2020-05-21T08:07:30.000Z</time>
      </trkpt>
      <trkpt lat="47.28215" lon="-2.27359">
        <ele>40</ele>
        <time>2020-05-21T08:07:31.000Z</time>
      </trkpt>
      <trkpt lat="47.28241" lon="-2.27352">
        <ele>40</ele>
        <time>2020-05-21T08:07:36.000Z</time>
      </trkpt>
      <trkpt lat="47.28277" lon="-2.27353">
        <ele>40</ele>
        <time>2020-05-21T08:07:42.000Z</time>
      </trkpt>
      <trkpt lat="47.28313" lon="-2.27352">
        <ele>39.599998474121</ele>
        <time>2020-05-21T08:07:47.000Z</time>
      </trkpt>
      <trkpt lat="47.2832" lon="-2.27352">
        <ele>39.200000762939</ele>
        <time>2020-05-21T08:07:48.000Z</time>
      </trkpt>
      <trkpt lat="47.28328" lon="-2.27352">
        <ele>38.599998474121</ele>
        <time>2020-05-21T08:07:49.000Z</time>
      </trkpt>
      <trkpt lat="47.28335" lon="-2.27351">
        <ele>38.200000762939</ele>
        <time>2020-05-21T08:07:50.000Z</time>
      </trkpt>
      <trkpt lat="47.28344" lon="-2.2735">
        <ele>37.599998474121</ele>
        <time>2020-05-21T08:07:51.000Z</time>
      </trkpt>
      <trkpt lat="47.28353" lon="-2.2735">
        <ele>37.200000762939</ele>
        <time>2020-05-21T08:07:52.000Z</time>
      </trkpt>
      <trkpt lat="47.28361" lon="-2.27351">
        <ele>36.599998474121</ele>
        <time>2020-05-21T08:07:53.000Z</time>
      </trkpt>
      <trkpt lat="47.28371" lon="-2.27352">
        <ele>36</ele>
        <time>2020-05-21T08:07:54.000Z</time>
      </trkpt>
      <trkpt lat="47.2838" lon="-2.27354">
        <ele>35.400001525879</ele>
        <time>2020-05-21T08:07:55.000Z</time>
      </trkpt>
      <trkpt lat="47.28388" lon="-2.27357">
        <ele>34.799999237061</ele>
        <time>2020-05-21T08:07:56.000Z</time>
      </trkpt>
      <trkpt lat="47.28397" lon="-2.27359">
        <ele>34.200000762939</ele>
        <time>2020-05-21T08:07:57.000Z</time>
      </trkpt>
      <trkpt lat="47.28406" lon="-2.27358">
        <ele>33.400001525879</ele>
        <time>2020-05-21T08:07:58.000Z</time>
      </trkpt>
      <trkpt lat="47.28416" lon="-2.27358">
        <ele>32.599998474121</ele>
        <time>2020-05-21T08:07:59.000Z</time>
      </trkpt>
      <trkpt lat="47.28425" lon="-2.27358">
        <ele>31.60000038147</ele>
        <time>2020-05-21T08:08:00.000Z</time>
      </trkpt>
      <trkpt lat="47.28433" lon="-2.27358">
        <ele>30.799999237061</ele>
        <time>2020-05-21T08:08:01.000Z</time>
      </trkpt>
      <trkpt lat="47.2844" lon="-2.27356">
        <ele>30</ele>
        <time>2020-05-21T08:08:02.000Z</time>
      </trkpt>
      <trkpt lat="47.28447" lon="-2.27356">
        <ele>30</ele>
        <time>2020-05-21T08:08:03.000Z</time>
      </trkpt>
      <trkpt lat="47.28455" lon="-2.27356">
        <ele>29.60000038147</ele>
        <time>2020-05-21T08:08:04.000Z</time>
      </trkpt>
      <trkpt lat="47.28463" lon="-2.27357">
        <ele>29.200000762939</ele>
        <time>2020-05-21T08:08:05.000Z</time>
      </trkpt>
      <trkpt lat="47.28471" lon="-2.27358">
        <ele>28.799999237061</ele>
        <time>2020-05-21T08:08:06.000Z</time>
      </trkpt>
      <trkpt lat="47.2848" lon="-2.27359">
        <ele>28.39999961853</ele>
        <time>2020-05-21T08:08:07.000Z</time>
      </trkpt>
      <trkpt lat="47.28488" lon="-2.2736">
        <ele>28</ele>
        <time>2020-05-21T08:08:08.000Z</time>
      </trkpt>
      <trkpt lat="47.28531" lon="-2.27365">
        <ele>28</ele>
        <time>2020-05-21T08:08:13.000Z</time>
      </trkpt>
      <trkpt lat="47.28575" lon="-2.27361">
        <ele>27.60000038147</ele>
        <time>2020-05-21T08:08:18.000Z</time>
      </trkpt>
      <trkpt lat="47.28582" lon="-2.27356">
        <ele>27.200000762939</ele>
        <time>2020-05-21T08:08:19.000Z</time>
      </trkpt>
      <trkpt lat="47.28589" lon="-2.27352">
        <ele>26.60000038147</ele>
        <time>2020-05-21T08:08:20.000Z</time>
      </trkpt>
      <trkpt lat="47.28595" lon="-2.27348">
        <ele>26.200000762939</ele>
        <time>2020-05-21T08:08:21.000Z</time>
      </trkpt>
      <trkpt lat="47.28601" lon="-2.27345">
        <ele>25.799999237061</ele>
        <time>2020-05-21T08:08:22.000Z</time>
      </trkpt>
      <trkpt lat="47.28604" lon="-2.27344">
        <ele>25.799999237061</ele>
        <time>2020-05-21T08:08:23.000Z</time>
      </trkpt>
      <trkpt lat="47.28609" lon="-2.27347">
        <ele>25.39999961853</ele>
        <time>2020-05-21T08:08:25.000Z</time>
      </trkpt>
      <trkpt lat="47.28611" lon="-2.2735">
        <ele>24.799999237061</ele>
        <time>2020-05-21T08:08:26.000Z</time>
      </trkpt>
      <trkpt lat="47.28614" lon="-2.27352">
        <ele>23.799999237061</ele>
        <time>2020-05-21T08:08:27.000Z</time>
      </trkpt>
      <trkpt lat="47.28617" lon="-2.27357">
        <ele>23.39999961853</ele>
        <time>2020-05-21T08:08:28.000Z</time>
      </trkpt>
      <trkpt lat="47.28625" lon="-2.27369">
        <ele>23.39999961853</ele>
        <time>2020-05-21T08:08:30.000Z</time>
      </trkpt>
      <trkpt lat="47.28632" lon="-2.27382">
        <ele>23.39999961853</ele>
        <time>2020-05-21T08:08:32.000Z</time>
      </trkpt>
      <trkpt lat="47.28642" lon="-2.27402">
        <ele>23.39999961853</ele>
        <time>2020-05-21T08:08:35.000Z</time>
      </trkpt>
      <trkpt lat="47.28649" lon="-2.27414">
        <ele>23</ele>
        <time>2020-05-21T08:08:37.000Z</time>
      </trkpt>
      <trkpt lat="47.28653" lon="-2.2742">
        <ele>22.60000038147</ele>
        <time>2020-05-21T08:08:38.000Z</time>
      </trkpt>
      <trkpt lat="47.28656" lon="-2.27426">
        <ele>22</ele>
        <time>2020-05-21T08:08:39.000Z</time>
      </trkpt>
      <trkpt lat="47.2866" lon="-2.27433">
        <ele>21.60000038147</ele>
        <time>2020-05-21T08:08:40.000Z</time>
      </trkpt>
      <trkpt lat="47.28664" lon="-2.27439">
        <ele>21.200000762939</ele>
        <time>2020-05-21T08:08:41.000Z</time>
      </trkpt>
      <trkpt lat="47.28672" lon="-2.27451">
        <ele>21.200000762939</ele>
        <time>2020-05-21T08:08:43.000Z</time>
      </trkpt>
      <trkpt lat="47.28701" lon="-2.27488">
        <ele>21.200000762939</ele>
        <time>2020-05-21T08:08:49.000Z</time>
      </trkpt>
      <trkpt lat="47.28707" lon="-2.27493">
        <ele>21.200000762939</ele>
        <time>2020-05-21T08:08:50.000Z</time>
      </trkpt>
      <trkpt lat="47.2873" lon="-2.2751">
        <ele>21.200000762939</ele>
        <time>2020-05-21T08:08:54.000Z</time>
      </trkpt>
      <trkpt lat="47.28748" lon="-2.2752">
        <ele>20.799999237061</ele>
        <time>2020-05-21T08:08:57.000Z</time>
      </trkpt>
      <trkpt lat="47.28755" lon="-2.27524">
        <ele>20.39999961853</ele>
        <time>2020-05-21T08:08:58.000Z</time>
      </trkpt>
      <trkpt lat="47.28761" lon="-2.27526">
        <ele>20</ele>
        <time>2020-05-21T08:08:59.000Z</time>
      </trkpt>
      <trkpt lat="47.28768" lon="-2.27529">
        <ele>19.60000038147</ele>
        <time>2020-05-21T08:09:00.000Z</time>
      </trkpt>
      <trkpt lat="47.28774" lon="-2.27531">
        <ele>19.200000762939</ele>
        <time>2020-05-21T08:09:01.000Z</time>
      </trkpt>
      <trkpt lat="47.28809" lon="-2.27541">
        <ele>19.200000762939</ele>
        <time>2020-05-21T08:09:06.000Z</time>
      </trkpt>
      <trkpt lat="47.28839" lon="-2.27538">
        <ele>19.200000762939</ele>
        <time>2020-05-21T08:09:10.000Z</time>
      </trkpt>
      <trkpt lat="47.28888" lon="-2.27529">
        <ele>19.200000762939</ele>
        <time>2020-05-21T08:09:17.000Z</time>
      </trkpt>
      <trkpt lat="47.28934" lon="-2.27522">
        <ele>19.200000762939</ele>
        <time>2020-05-21T08:09:24.000Z</time>
      </trkpt>
      <trkpt lat="47.28977" lon="-2.27522">
        <ele>19.200000762939</ele>
        <time>2020-05-21T08:09:31.000Z</time>
      </trkpt>
      <trkpt lat="47.29019" lon="-2.2752">
        <ele>19.200000762939</ele>
        <time>2020-05-21T08:09:38.000Z</time>
      </trkpt>
      <trkpt lat="47.29063" lon="-2.27524">
        <ele>19.200000762939</ele>
        <time>2020-05-21T08:09:45.000Z</time>
      </trkpt>
      <trkpt lat="47.29107" lon="-2.27529">
        <ele>19.200000762939</ele>
        <time>2020-05-21T08:09:52.000Z</time>
      </trkpt>
      <trkpt lat="47.29147" lon="-2.27528">
        <ele>19.200000762939</ele>
        <time>2020-05-21T08:09:58.000Z</time>
      </trkpt>
      <trkpt lat="47.29154" lon="-2.27529">
        <ele>19.200000762939</ele>
        <time>2020-05-21T08:09:59.000Z</time>
      </trkpt>
      <trkpt lat="47.2921" lon="-2.27529">
        <ele>19.200000762939</ele>
        <time>2020-05-21T08:10:07.000Z</time>
      </trkpt>
      <trkpt lat="47.29216" lon="-2.27529">
        <ele>19.200000762939</ele>
        <time>2020-05-21T08:10:08.000Z</time>
      </trkpt>
      <trkpt lat="47.29259" lon="-2.27526">
        <ele>19.200000762939</ele>
        <time>2020-05-21T08:10:15.000Z</time>
      </trkpt>
      <trkpt lat="47.29265" lon="-2.27523">
        <ele>19.200000762939</ele>
        <time>2020-05-21T08:10:16.000Z</time>
      </trkpt>
      <trkpt lat="47.29277" lon="-2.2752">
        <ele>19.200000762939</ele>
        <time>2020-05-21T08:10:18.000Z</time>
      </trkpt>
      <trkpt lat="47.29289" lon="-2.27526">
        <ele>19.200000762939</ele>
        <time>2020-05-21T08:10:20.000Z</time>
      </trkpt>
      <trkpt lat="47.29321" lon="-2.27536">
        <ele>19.200000762939</ele>
        <time>2020-05-21T08:10:25.000Z</time>
      </trkpt>
      <trkpt lat="47.29353" lon="-2.27531">
        <ele>19.200000762939</ele>
        <time>2020-05-21T08:10:30.000Z</time>
      </trkpt>
      <trkpt lat="47.29408" lon="-2.27516">
        <ele>19.200000762939</ele>
        <time>2020-05-21T08:10:39.000Z</time>
      </trkpt>
      <trkpt lat="47.29446" lon="-2.27514">
        <ele>19.200000762939</ele>
        <time>2020-05-21T08:10:45.000Z</time>
      </trkpt>
      <trkpt lat="47.2949" lon="-2.27527">
        <ele>19.200000762939</ele>
        <time>2020-05-21T08:10:52.000Z</time>
      </trkpt>
      <trkpt lat="47.29536" lon="-2.27541">
        <ele>19.200000762939</ele>
        <time>2020-05-21T08:11:00.000Z</time>
      </trkpt>
      <trkpt lat="47.29568" lon="-2.27554">
        <ele>19.200000762939</ele>
        <time>2020-05-21T08:11:06.000Z</time>
      </trkpt>
      <trkpt lat="47.29583" lon="-2.27562">
        <ele>18.60000038147</ele>
        <time>2020-05-21T08:11:09.000Z</time>
      </trkpt>
      <trkpt lat="47.29588" lon="-2.27565">
        <ele>18.200000762939</ele>
        <time>2020-05-21T08:11:10.000Z</time>
      </trkpt>
      <trkpt lat="47.29594" lon="-2.27568">
        <ele>17.799999237061</ele>
        <time>2020-05-21T08:11:11.000Z</time>
      </trkpt>
      <trkpt lat="47.29599" lon="-2.2757">
        <ele>17.39999961853</ele>
        <time>2020-05-21T08:11:12.000Z</time>
      </trkpt>
      <trkpt lat="47.29604" lon="-2.27574">
        <ele>17</ele>
        <time>2020-05-21T08:11:13.000Z</time>
      </trkpt>
      <trkpt lat="47.29624" lon="-2.27589">
        <ele>17</ele>
        <time>2020-05-21T08:11:17.000Z</time>
      </trkpt>
      <trkpt lat="47.29646" lon="-2.27604">
        <ele>16.200000762939</ele>
        <time>2020-05-21T08:11:21.000Z</time>
      </trkpt>
      <trkpt lat="47.29653" lon="-2.27607">
        <ele>15.800000190735</ele>
        <time>2020-05-21T08:11:22.000Z</time>
      </trkpt>
      <trkpt lat="47.29658" lon="-2.27609">
        <ele>15.39999961853</ele>
        <time>2020-05-21T08:11:23.000Z</time>
      </trkpt>
      <trkpt lat="47.29666" lon="-2.27611">
        <ele>14.800000190735</ele>
        <time>2020-05-21T08:11:24.000Z</time>
      </trkpt>
      <trkpt lat="47.29707" lon="-2.27615">
        <ele>14.800000190735</ele>
        <time>2020-05-21T08:11:30.000Z</time>
      </trkpt>
      <trkpt lat="47.29744" lon="-2.27603">
        <ele>14.800000190735</ele>
        <time>2020-05-21T08:11:35.000Z</time>
      </trkpt>
      <trkpt lat="47.29783" lon="-2.2759">
        <ele>14.800000190735</ele>
        <time>2020-05-21T08:11:41.000Z</time>
      </trkpt>
      <trkpt lat="47.2979" lon="-2.27591">
        <ele>14.800000190735</ele>
        <time>2020-05-21T08:11:42.000Z</time>
      </trkpt>
      <trkpt lat="47.29796" lon="-2.27593">
        <ele>14.39999961853</ele>
        <time>2020-05-21T08:11:43.000Z</time>
      </trkpt>
      <trkpt lat="47.29801" lon="-2.27595">
        <ele>14</ele>
        <time>2020-05-21T08:11:44.000Z</time>
      </trkpt>
      <trkpt lat="47.29806" lon="-2.27598">
        <ele>13.199999809265</ele>
        <time>2020-05-21T08:11:45.000Z</time>
      </trkpt>
      <trkpt lat="47.29812" lon="-2.27602">
        <ele>12.800000190735</ele>
        <time>2020-05-21T08:11:46.000Z</time>
      </trkpt>
      <trkpt lat="47.29819" lon="-2.27606">
        <ele>12.800000190735</ele>
        <time>2020-05-21T08:11:47.000Z</time>
      </trkpt>
      <trkpt lat="47.29842" lon="-2.2762">
        <ele>12.800000190735</ele>
        <time>2020-05-21T08:11:51.000Z</time>
      </trkpt>
      <trkpt lat="47.29854" lon="-2.27622">
        <ele>12.800000190735</ele>
        <time>2020-05-21T08:11:53.000Z</time>
      </trkpt>
      <trkpt lat="47.29879" lon="-2.27616">
        <ele>12.800000190735</ele>
        <time>2020-05-21T08:11:57.000Z</time>
      </trkpt>
      <trkpt lat="47.2992" lon="-2.27597">
        <ele>12.800000190735</ele>
        <time>2020-05-21T08:12:04.000Z</time>
      </trkpt>
      <trkpt lat="47.2995" lon="-2.27598">
        <ele>12.800000190735</ele>
        <time>2020-05-21T08:12:09.000Z</time>
      </trkpt>
      <trkpt lat="47.29954" lon="-2.27604">
        <ele>12.800000190735</ele>
        <time>2020-05-21T08:12:10.000Z</time>
      </trkpt>
      <trkpt lat="47.2996" lon="-2.27624">
        <ele>12.800000190735</ele>
        <time>2020-05-21T08:12:13.000Z</time>
      </trkpt>
      <trkpt lat="47.29957" lon="-2.27649">
        <ele>12.800000190735</ele>
        <time>2020-05-21T08:12:16.000Z</time>
      </trkpt>
      <trkpt lat="47.29953" lon="-2.277">
        <ele>12.800000190735</ele>
        <time>2020-05-21T08:12:22.000Z</time>
      </trkpt>
      <trkpt lat="47.29947" lon="-2.27773">
        <ele>12.800000190735</ele>
        <time>2020-05-21T08:12:31.000Z</time>
      </trkpt>
      <trkpt lat="47.29942" lon="-2.2783">
        <ele>12.800000190735</ele>
        <time>2020-05-21T08:12:38.000Z</time>
      </trkpt>
      <trkpt lat="47.29936" lon="-2.27897">
        <ele>12.800000190735</ele>
        <time>2020-05-21T08:12:46.000Z</time>
      </trkpt>
      <trkpt lat="47.29932" lon="-2.27961">
        <ele>12.800000190735</ele>
        <time>2020-05-21T08:12:53.000Z</time>
      </trkpt>
      <trkpt lat="47.29932" lon="-2.27979">
        <ele>12.800000190735</ele>
        <time>2020-05-21T08:12:55.000Z</time>
      </trkpt>
      <trkpt lat="47.29935" lon="-2.28015">
        <ele>12.800000190735</ele>
        <time>2020-05-21T08:12:59.000Z</time>
      </trkpt>
      <trkpt lat="47.29943" lon="-2.28035">
        <ele>12.800000190735</ele>
        <time>2020-05-21T08:13:02.000Z</time>
      </trkpt>
      <trkpt lat="47.29945" lon="-2.2804">
        <ele>12.800000190735</ele>
        <time>2020-05-21T08:13:03.000Z</time>
      </trkpt>
      <trkpt lat="47.2996" lon="-2.28047">
        <ele>12.800000190735</ele>
        <time>2020-05-21T08:13:07.000Z</time>
      </trkpt>
      <trkpt lat="47.29973" lon="-2.2804">
        <ele>12.800000190735</ele>
        <time>2020-05-21T08:13:10.000Z</time>
      </trkpt>
      <trkpt lat="47.29977" lon="-2.28037">
        <ele>12.800000190735</ele>
        <time>2020-05-21T08:13:11.000Z</time>
      </trkpt>
      <trkpt lat="47.29992" lon="-2.28036">
        <ele>12.800000190735</ele>
        <time>2020-05-21T08:13:16.000Z</time>
      </trkpt>
      <trkpt lat="47.29992" lon="-2.28046">
        <ele>12.800000190735</ele>
        <time>2020-05-21T08:13:20.000Z</time>
      </trkpt>
      <trkpt lat="47.29991" lon="-2.28048">
        <ele>12.800000190735</ele>
        <time>2020-05-21T08:13:21.000Z</time>
      </trkpt>
      <trkpt lat="47.29984" lon="-2.28075">
        <ele>12.800000190735</ele>
        <time>2020-05-21T08:13:27.000Z</time>
      </trkpt>
      <trkpt lat="47.29976" lon="-2.28109">
        <ele>12.800000190735</ele>
        <time>2020-05-21T08:13:33.000Z</time>
      </trkpt>
      <trkpt lat="47.29964" lon="-2.28151">
        <ele>12.800000190735</ele>
        <time>2020-05-21T08:13:40.000Z</time>
      </trkpt>
      <trkpt lat="47.29955" lon="-2.28187">
        <ele>12.800000190735</ele>
        <time>2020-05-21T08:13:46.000Z</time>
      </trkpt>
      <trkpt lat="47.29951" lon="-2.28223">
        <ele>12.800000190735</ele>
        <time>2020-05-21T08:13:52.000Z</time>
      </trkpt>
      <trkpt lat="47.2995" lon="-2.28229">
        <ele>12.800000190735</ele>
        <time>2020-05-21T08:13:53.000Z</time>
      </trkpt>
      <trkpt lat="47.29951" lon="-2.28267">
        <ele>12.800000190735</ele>
        <time>2020-05-21T08:13:58.000Z</time>
      </trkpt>
      <trkpt lat="47.29952" lon="-2.28312">
        <ele>12.800000190735</ele>
        <time>2020-05-21T08:14:04.000Z</time>
      </trkpt>
      <trkpt lat="47.29953" lon="-2.2832">
        <ele>12.800000190735</ele>
        <time>2020-05-21T08:14:05.000Z</time>
      </trkpt>
      <trkpt lat="47.29949" lon="-2.28346">
        <ele>12.800000190735</ele>
        <time>2020-05-21T08:14:08.000Z</time>
      </trkpt>
      <trkpt lat="47.29946" lon="-2.28389">
        <ele>12.800000190735</ele>
        <time>2020-05-21T08:14:13.000Z</time>
      </trkpt>
      <trkpt lat="47.29946" lon="-2.28397">
        <ele>12.800000190735</ele>
        <time>2020-05-21T08:14:14.000Z</time>
      </trkpt>
      <trkpt lat="47.2994" lon="-2.28425">
        <ele>12.800000190735</ele>
        <time>2020-05-21T08:14:18.000Z</time>
      </trkpt>
      <trkpt lat="47.29936" lon="-2.28435">
        <ele>12.800000190735</ele>
        <time>2020-05-21T08:14:20.000Z</time>
      </trkpt>
      <trkpt lat="47.29934" lon="-2.28441">
        <ele>12.800000190735</ele>
        <time>2020-05-21T08:14:21.000Z</time>
      </trkpt>
      <trkpt lat="47.29933" lon="-2.28449">
        <ele>12.800000190735</ele>
        <time>2020-05-21T08:14:22.000Z</time>
      </trkpt>
      <trkpt lat="47.29933" lon="-2.28484">
        <ele>12.800000190735</ele>
        <time>2020-05-21T08:14:26.000Z</time>
      </trkpt>
      <trkpt lat="47.29932" lon="-2.28492">
        <ele>12.800000190735</ele>
        <time>2020-05-21T08:14:27.000Z</time>
      </trkpt>
      <trkpt lat="47.29922" lon="-2.28529">
        <ele>12.800000190735</ele>
        <time>2020-05-21T08:14:32.000Z</time>
      </trkpt>
      <trkpt lat="47.29924" lon="-2.28548">
        <ele>12.800000190735</ele>
        <time>2020-05-21T08:14:35.000Z</time>
      </trkpt>
      <trkpt lat="47.29933" lon="-2.2856">
        <ele>12.800000190735</ele>
        <time>2020-05-21T08:14:39.000Z</time>
      </trkpt>
      <trkpt lat="47.29935" lon="-2.28561">
        <ele>12.800000190735</ele>
        <time>2020-05-21T08:14:40.000Z</time>
      </trkpt>
      <trkpt lat="47.29936" lon="-2.28562">
        <ele>12.800000190735</ele>
        <time>2020-05-21T08:14:41.000Z</time>
      </trkpt>
      <trkpt lat="47.29938" lon="-2.28568">
        <ele>12.800000190735</ele>
        <time>2020-05-21T08:14:43.000Z</time>
      </trkpt>
      <trkpt lat="47.29938" lon="-2.28577">
        <ele>12.800000190735</ele>
        <time>2020-05-21T08:14:45.000Z</time>
      </trkpt>
      <trkpt lat="47.29936" lon="-2.28593">
        <ele>12.800000190735</ele>
        <time>2020-05-21T08:14:48.000Z</time>
      </trkpt>
      <trkpt lat="47.29933" lon="-2.28622">
        <ele>12.800000190735</ele>
        <time>2020-05-21T08:14:54.000Z</time>
      </trkpt>
      <trkpt lat="47.29933" lon="-2.28628">
        <ele>12.39999961853</ele>
        <time>2020-05-21T08:14:55.000Z</time>
      </trkpt>
      <trkpt lat="47.29933" lon="-2.28633">
        <ele>12</ele>
        <time>2020-05-21T08:14:56.000Z</time>
      </trkpt>
      <trkpt lat="47.29932" lon="-2.28638">
        <ele>11.60000038147</ele>
        <time>2020-05-21T08:14:57.000Z</time>
      </trkpt>
      <trkpt lat="47.29931" lon="-2.28643">
        <ele>11.199999809265</ele>
        <time>2020-05-21T08:14:58.000Z</time>
      </trkpt>
      <trkpt lat="47.2993" lon="-2.28648">
        <ele>10.800000190735</ele>
        <time>2020-05-21T08:14:59.000Z</time>
      </trkpt>
      <trkpt lat="47.29928" lon="-2.28653">
        <ele>10.800000190735</ele>
        <time>2020-05-21T08:15:00.000Z</time>
      </trkpt>
      <trkpt lat="47.29919" lon="-2.28684">
        <ele>10.800000190735</ele>
        <time>2020-05-21T08:15:06.000Z</time>
      </trkpt>
      <trkpt lat="47.29912" lon="-2.28717">
        <ele>10.800000190735</ele>
        <time>2020-05-21T08:15:12.000Z</time>
      </trkpt>
      <trkpt lat="47.29903" lon="-2.28755">
        <ele>10.800000190735</ele>
        <time>2020-05-21T08:15:19.000Z</time>
      </trkpt>
      <trkpt lat="47.299" lon="-2.2878">
        <ele>10.800000190735</ele>
        <time>2020-05-21T08:15:24.000Z</time>
      </trkpt>
      <trkpt lat="47.29898" lon="-2.288">
        <ele>10.800000190735</ele>
        <time>2020-05-21T08:15:27.000Z</time>
      </trkpt>
      <trkpt lat="47.29898" lon="-2.28807">
        <ele>10.800000190735</ele>
        <time>2020-05-21T08:15:28.000Z</time>
      </trkpt>
      <trkpt lat="47.29893" lon="-2.28841">
        <ele>10.800000190735</ele>
        <time>2020-05-21T08:15:33.000Z</time>
      </trkpt>
      <trkpt lat="47.29883" lon="-2.28889">
        <ele>10.800000190735</ele>
        <time>2020-05-21T08:15:40.000Z</time>
      </trkpt>
      <trkpt lat="47.29879" lon="-2.28912">
        <ele>10.800000190735</ele>
        <time>2020-05-21T08:15:44.000Z</time>
      </trkpt>
      <trkpt lat="47.29879" lon="-2.28918">
        <ele>10.800000190735</ele>
        <time>2020-05-21T08:15:45.000Z</time>
      </trkpt>
      <trkpt lat="47.29882" lon="-2.28939">
        <ele>10.800000190735</ele>
        <time>2020-05-21T08:15:49.000Z</time>
      </trkpt>
      <trkpt lat="47.29897" lon="-2.28946">
        <ele>10.800000190735</ele>
        <time>2020-05-21T08:15:53.000Z</time>
      </trkpt>
      <trkpt lat="47.29915" lon="-2.28949">
        <ele>10.800000190735</ele>
        <time>2020-05-21T08:15:57.000Z</time>
      </trkpt>
      <trkpt lat="47.29922" lon="-2.28953">
        <ele>10.800000190735</ele>
        <time>2020-05-21T08:15:59.000Z</time>
      </trkpt>
      <trkpt lat="47.29924" lon="-2.28956">
        <ele>10.39999961853</ele>
        <time>2020-05-21T08:16:00.000Z</time>
      </trkpt>
      <trkpt lat="47.29927" lon="-2.2896">
        <ele>10</ele>
        <time>2020-05-21T08:16:01.000Z</time>
      </trkpt>
      <trkpt lat="47.29929" lon="-2.28964">
        <ele>9.6000003814697</ele>
        <time>2020-05-21T08:16:02.000Z</time>
      </trkpt>
      <trkpt lat="47.29931" lon="-2.28968">
        <ele>9</ele>
        <time>2020-05-21T08:16:03.000Z</time>
      </trkpt>
      <trkpt lat="47.29934" lon="-2.28973">
        <ele>8.6000003814697</ele>
        <time>2020-05-21T08:16:04.000Z</time>
      </trkpt>
      <trkpt lat="47.29937" lon="-2.28978">
        <ele>8.6000003814697</ele>
        <time>2020-05-21T08:16:05.000Z</time>
      </trkpt>
      <trkpt lat="47.29946" lon="-2.28995">
        <ele>8.6000003814697</ele>
        <time>2020-05-21T08:16:08.000Z</time>
      </trkpt>
      <trkpt lat="47.29948" lon="-2.29001">
        <ele>8.6000003814697</ele>
        <time>2020-05-21T08:16:09.000Z</time>
      </trkpt>
      <trkpt lat="47.29961" lon="-2.29024">
        <ele>8.6000003814697</ele>
        <time>2020-05-21T08:16:13.000Z</time>
      </trkpt>
      <trkpt lat="47.29982" lon="-2.2906">
        <ele>8.6000003814697</ele>
        <time>2020-05-21T08:16:19.000Z</time>
      </trkpt>
      <trkpt lat="47.29991" lon="-2.29076">
        <ele>8.6000003814697</ele>
        <time>2020-05-21T08:16:22.000Z</time>
      </trkpt>
      <trkpt lat="47.29998" lon="-2.29086">
        <ele>8.6000003814697</ele>
        <time>2020-05-21T08:16:24.000Z</time>
      </trkpt>
      <trkpt lat="47.30003" lon="-2.29091">
        <ele>8.6000003814697</ele>
        <time>2020-05-21T08:16:25.000Z</time>
      </trkpt>
      <trkpt lat="47.30022" lon="-2.29109">
        <ele>8.6000003814697</ele>
        <time>2020-05-21T08:16:29.000Z</time>
      </trkpt>
      <trkpt lat="47.30027" lon="-2.29112">
        <ele>8.6000003814697</ele>
        <time>2020-05-21T08:16:30.000Z</time>
      </trkpt>
      <trkpt lat="47.30045" lon="-2.29123">
        <ele>8.6000003814697</ele>
        <time>2020-05-21T08:16:34.000Z</time>
      </trkpt>
      <trkpt lat="47.30054" lon="-2.29124">
        <ele>8.6000003814697</ele>
        <time>2020-05-21T08:16:36.000Z</time>
      </trkpt>
      <trkpt lat="47.30063" lon="-2.29131">
        <ele>8.6000003814697</ele>
        <time>2020-05-21T08:16:39.000Z</time>
      </trkpt>
      <trkpt lat="47.30069" lon="-2.29148">
        <ele>8.6000003814697</ele>
        <time>2020-05-21T08:16:42.000Z</time>
      </trkpt>
      <trkpt lat="47.30071" lon="-2.29154">
        <ele>8.6000003814697</ele>
        <time>2020-05-21T08:16:43.000Z</time>
      </trkpt>
      <trkpt lat="47.30092" lon="-2.29189">
        <ele>8.6000003814697</ele>
        <time>2020-05-21T08:16:48.000Z</time>
      </trkpt>
      <trkpt lat="47.30115" lon="-2.29222">
        <ele>8.1999998092651</ele>
        <time>2020-05-21T08:16:53.000Z</time>
      </trkpt>
      <trkpt lat="47.3012" lon="-2.29228">
        <ele>7.8000001907349</ele>
        <time>2020-05-21T08:16:54.000Z</time>
      </trkpt>
      <trkpt lat="47.30124" lon="-2.29235">
        <ele>7.4000000953674</ele>
        <time>2020-05-21T08:16:55.000Z</time>
      </trkpt>
      <trkpt lat="47.30128" lon="-2.29242">
        <ele>7</ele>
        <time>2020-05-21T08:16:56.000Z</time>
      </trkpt>
      <trkpt lat="47.30133" lon="-2.29249">
        <ele>6.5999999046326</ele>
        <time>2020-05-21T08:16:57.000Z</time>
      </trkpt>
      <trkpt lat="47.30149" lon="-2.29276">
        <ele>6.5999999046326</ele>
        <time>2020-05-21T08:17:01.000Z</time>
      </trkpt>
      <trkpt lat="47.30179" lon="-2.29323">
        <ele>6.5999999046326</ele>
        <time>2020-05-21T08:17:08.000Z</time>
      </trkpt>
      <trkpt lat="47.30202" lon="-2.29363">
        <ele>6.5999999046326</ele>
        <time>2020-05-21T08:17:14.000Z</time>
      </trkpt>
      <trkpt lat="47.30209" lon="-2.29394">
        <ele>6.5999999046326</ele>
        <time>2020-05-21T08:17:18.000Z</time>
      </trkpt>
      <trkpt lat="47.30212" lon="-2.29401">
        <ele>6.5999999046326</ele>
        <time>2020-05-21T08:17:19.000Z</time>
      </trkpt>
      <trkpt lat="47.30217" lon="-2.29414">
        <ele>6.5999999046326</ele>
        <time>2020-05-21T08:17:21.000Z</time>
      </trkpt>
      <trkpt lat="47.30217" lon="-2.29421">
        <ele>6.5999999046326</ele>
        <time>2020-05-21T08:17:22.000Z</time>
      </trkpt>
      <trkpt lat="47.3021" lon="-2.29436">
        <ele>6.1999998092651</ele>
        <time>2020-05-21T08:17:25.000Z</time>
      </trkpt>
      <trkpt lat="47.30207" lon="-2.29442">
        <ele>5.8000001907349</ele>
        <time>2020-05-21T08:17:26.000Z</time>
      </trkpt>
      <trkpt lat="47.30204" lon="-2.29449">
        <ele>5.4000000953674</ele>
        <time>2020-05-21T08:17:27.000Z</time>
      </trkpt>
      <trkpt lat="47.302" lon="-2.29455">
        <ele>5</ele>
        <time>2020-05-21T08:17:28.000Z</time>
      </trkpt>
      <trkpt lat="47.30196" lon="-2.29462">
        <ele>4.5999999046326</ele>
        <time>2020-05-21T08:17:29.000Z</time>
      </trkpt>
      <trkpt lat="47.30193" lon="-2.29469">
        <ele>4.5999999046326</ele>
        <time>2020-05-21T08:17:30.000Z</time>
      </trkpt>
      <trkpt lat="47.30174" lon="-2.29507">
        <ele>4.5999999046326</ele>
        <time>2020-05-21T08:17:36.000Z</time>
      </trkpt>
      <trkpt lat="47.30152" lon="-2.2955">
        <ele>4.5999999046326</ele>
        <time>2020-05-21T08:17:43.000Z</time>
      </trkpt>
      <trkpt lat="47.30146" lon="-2.29563">
        <ele>4.5999999046326</ele>
        <time>2020-05-21T08:17:45.000Z</time>
      </trkpt>
      <trkpt lat="47.30142" lon="-2.29579">
        <ele>4.5999999046326</ele>
        <time>2020-05-21T08:17:47.000Z</time>
      </trkpt>
      <trkpt lat="47.30142" lon="-2.29603">
        <ele>4.5999999046326</ele>
        <time>2020-05-21T08:17:50.000Z</time>
      </trkpt>
      <trkpt lat="47.30142" lon="-2.2962">
        <ele>4.5999999046326</ele>
        <time>2020-05-21T08:17:52.000Z</time>
      </trkpt>
      <trkpt lat="47.30143" lon="-2.2965">
        <ele>4.5999999046326</ele>
        <time>2020-05-21T08:17:57.000Z</time>
      </trkpt>
      <trkpt lat="47.30157" lon="-2.29662">
        <ele>4.5999999046326</ele>
        <time>2020-05-21T08:18:01.000Z</time>
      </trkpt>
      <trkpt lat="47.30176" lon="-2.29674">
        <ele>4.5999999046326</ele>
        <time>2020-05-21T08:18:05.000Z</time>
      </trkpt>
      <trkpt lat="47.30186" lon="-2.2968">
        <ele>4.5999999046326</ele>
        <time>2020-05-21T08:18:07.000Z</time>
      </trkpt>
      <trkpt lat="47.30219" lon="-2.297">
        <ele>4.5999999046326</ele>
        <time>2020-05-21T08:18:13.000Z</time>
      </trkpt>
      <trkpt lat="47.30225" lon="-2.29702">
        <ele>4.5999999046326</ele>
        <time>2020-05-21T08:18:14.000Z</time>
      </trkpt>
      <trkpt lat="47.30241" lon="-2.29711">
        <ele>4.5999999046326</ele>
        <time>2020-05-21T08:18:17.000Z</time>
      </trkpt>
      <trkpt lat="47.30263" lon="-2.29718">
        <ele>4.5999999046326</ele>
        <time>2020-05-21T08:18:21.000Z</time>
      </trkpt>
      <trkpt lat="47.30268" lon="-2.29717">
        <ele>4.5999999046326</ele>
        <time>2020-05-21T08:18:22.000Z</time>
      </trkpt>
      <trkpt lat="47.30284" lon="-2.29713">
        <ele>4.5999999046326</ele>
        <time>2020-05-21T08:18:25.000Z</time>
      </trkpt>
      <trkpt lat="47.30293" lon="-2.2971">
        <ele>4.5999999046326</ele>
        <time>2020-05-21T08:18:27.000Z</time>
      </trkpt>
      <trkpt lat="47.30326" lon="-2.297">
        <ele>4.5999999046326</ele>
        <time>2020-05-21T08:18:33.000Z</time>
      </trkpt>
      <trkpt lat="47.30361" lon="-2.29691">
        <ele>4.5999999046326</ele>
        <time>2020-05-21T08:18:39.000Z</time>
      </trkpt>
      <trkpt lat="47.30398" lon="-2.29679">
        <ele>4.5999999046326</ele>
        <time>2020-05-21T08:18:45.000Z</time>
      </trkpt>
      <trkpt lat="47.30446" lon="-2.29664">
        <ele>4.5999999046326</ele>
        <time>2020-05-21T08:18:53.000Z</time>
      </trkpt>
      <trkpt lat="47.30486" lon="-2.29652">
        <ele>4.5999999046326</ele>
        <time>2020-05-21T08:19:00.000Z</time>
      </trkpt>
      <trkpt lat="47.30509" lon="-2.29643">
        <ele>4.5999999046326</ele>
        <time>2020-05-21T08:19:04.000Z</time>
      </trkpt>
      <trkpt lat="47.30521" lon="-2.2964">
        <ele>4.5999999046326</ele>
        <time>2020-05-21T08:19:06.000Z</time>
      </trkpt>
      <trkpt lat="47.30545" lon="-2.29634">
        <ele>4.5999999046326</ele>
        <time>2020-05-21T08:19:10.000Z</time>
      </trkpt>
      <trkpt lat="47.3055" lon="-2.29631">
        <ele>4.5999999046326</ele>
        <time>2020-05-21T08:19:11.000Z</time>
      </trkpt>
      <trkpt lat="47.30573" lon="-2.29623">
        <ele>4.5999999046326</ele>
        <time>2020-05-21T08:19:15.000Z</time>
      </trkpt>
      <trkpt lat="47.30585" lon="-2.2962">
        <ele>4.5999999046326</ele>
        <time>2020-05-21T08:19:17.000Z</time>
      </trkpt>
      <trkpt lat="47.30597" lon="-2.29618">
        <ele>4.5999999046326</ele>
        <time>2020-05-21T08:19:19.000Z</time>
      </trkpt>
      <trkpt lat="47.30603" lon="-2.29616">
        <ele>4.5999999046326</ele>
        <time>2020-05-21T08:19:20.000Z</time>
      </trkpt>
      <trkpt lat="47.30614" lon="-2.29612">
        <ele>4.5999999046326</ele>
        <time>2020-05-21T08:19:22.000Z</time>
      </trkpt>
      <trkpt lat="47.30631" lon="-2.29607">
        <ele>4.5999999046326</ele>
        <time>2020-05-21T08:19:25.000Z</time>
      </trkpt>
      <trkpt lat="47.30673" lon="-2.29593">
        <ele>4.5999999046326</ele>
        <time>2020-05-21T08:19:33.000Z</time>
      </trkpt>
      <trkpt lat="47.30684" lon="-2.2959">
        <ele>4.5999999046326</ele>
        <time>2020-05-21T08:19:35.000Z</time>
      </trkpt>
      <trkpt lat="47.307" lon="-2.29585">
        <ele>4.5999999046326</ele>
        <time>2020-05-21T08:19:38.000Z</time>
      </trkpt>
      <trkpt lat="47.30724" lon="-2.29577">
        <ele>4.5999999046326</ele>
        <time>2020-05-21T08:19:43.000Z</time>
      </trkpt>
      <trkpt lat="47.30729" lon="-2.29575">
        <ele>4.5999999046326</ele>
        <time>2020-05-21T08:19:44.000Z</time>
      </trkpt>
      <trkpt lat="47.3076" lon="-2.29564">
        <ele>4.5999999046326</ele>
        <time>2020-05-21T08:19:50.000Z</time>
      </trkpt>
      <trkpt lat="47.3079" lon="-2.29553">
        <ele>5</ele>
        <time>2020-05-21T08:19:56.000Z</time>
      </trkpt>
      <trkpt lat="47.30795" lon="-2.29551">
        <ele>5.4000000953674</ele>
        <time>2020-05-21T08:19:57.000Z</time>
      </trkpt>
      <trkpt lat="47.30801" lon="-2.2955">
        <ele>6</ele>
        <time>2020-05-21T08:19:58.000Z</time>
      </trkpt>
      <trkpt lat="47.30807" lon="-2.29548">
        <ele>6.4000000953674</ele>
        <time>2020-05-21T08:19:59.000Z</time>
      </trkpt>
      <trkpt lat="47.30813" lon="-2.29547">
        <ele>6.8000001907349</ele>
        <time>2020-05-21T08:20:00.000Z</time>
      </trkpt>
      <trkpt lat="47.3083" lon="-2.29544">
        <ele>6.8000001907349</ele>
        <time>2020-05-21T08:20:03.000Z</time>
      </trkpt>
      <trkpt lat="47.30836" lon="-2.29545">
        <ele>6.8000001907349</ele>
        <time>2020-05-21T08:20:04.000Z</time>
      </trkpt>
      <trkpt lat="47.30859" lon="-2.2955">
        <ele>6.8000001907349</ele>
        <time>2020-05-21T08:20:08.000Z</time>
      </trkpt>
      <trkpt lat="47.30898" lon="-2.29563">
        <ele>6.8000001907349</ele>
        <time>2020-05-21T08:20:15.000Z</time>
      </trkpt>
      <trkpt lat="47.30926" lon="-2.29571">
        <ele>6.8000001907349</ele>
        <time>2020-05-21T08:20:20.000Z</time>
      </trkpt>
      <trkpt lat="47.30931" lon="-2.29573">
        <ele>6.8000001907349</ele>
        <time>2020-05-21T08:20:21.000Z</time>
      </trkpt>
      <trkpt lat="47.30963" lon="-2.29584">
        <ele>6.8000001907349</ele>
        <time>2020-05-21T08:20:27.000Z</time>
      </trkpt>
      <trkpt lat="47.30981" lon="-2.29591">
        <ele>6.8000001907349</ele>
        <time>2020-05-21T08:20:30.000Z</time>
      </trkpt>
      <trkpt lat="47.30992" lon="-2.29598">
        <ele>6.8000001907349</ele>
        <time>2020-05-21T08:20:32.000Z</time>
      </trkpt>
      <trkpt lat="47.31002" lon="-2.2961">
        <ele>6.8000001907349</ele>
        <time>2020-05-21T08:20:34.000Z</time>
      </trkpt>
      <trkpt lat="47.31014" lon="-2.29628">
        <ele>6.8000001907349</ele>
        <time>2020-05-21T08:20:37.000Z</time>
      </trkpt>
      <trkpt lat="47.31017" lon="-2.29635">
        <ele>6.8000001907349</ele>
        <time>2020-05-21T08:20:38.000Z</time>
      </trkpt>
      <trkpt lat="47.31028" lon="-2.29661">
        <ele>6.8000001907349</ele>
        <time>2020-05-21T08:20:42.000Z</time>
      </trkpt>
      <trkpt lat="47.31039" lon="-2.29693">
        <ele>6.8000001907349</ele>
        <time>2020-05-21T08:20:48.000Z</time>
      </trkpt>
      <trkpt lat="47.31043" lon="-2.29695">
        <ele>6.8000001907349</ele>
        <time>2020-05-21T08:20:49.000Z</time>
      </trkpt>
      <trkpt lat="47.31051" lon="-2.29693">
        <ele>6.8000001907349</ele>
        <time>2020-05-21T08:20:51.000Z</time>
      </trkpt>
      <trkpt lat="47.31064" lon="-2.29684">
        <ele>6.8000001907349</ele>
        <time>2020-05-21T08:20:54.000Z</time>
      </trkpt>
      <trkpt lat="47.31076" lon="-2.29671">
        <ele>6.8000001907349</ele>
        <time>2020-05-21T08:20:57.000Z</time>
      </trkpt>
      <trkpt lat="47.31094" lon="-2.29648">
        <ele>7.1999998092651</ele>
        <time>2020-05-21T08:21:02.000Z</time>
      </trkpt>
      <trkpt lat="47.31097" lon="-2.29643">
        <ele>7.5999999046326</ele>
        <time>2020-05-21T08:21:03.000Z</time>
      </trkpt>
      <trkpt lat="47.31101" lon="-2.29638">
        <ele>8</ele>
        <time>2020-05-21T08:21:04.000Z</time>
      </trkpt>
      <trkpt lat="47.31105" lon="-2.29633">
        <ele>8.3999996185303</ele>
        <time>2020-05-21T08:21:05.000Z</time>
      </trkpt>
      <trkpt lat="47.3111" lon="-2.29627">
        <ele>8.8000001907349</ele>
        <time>2020-05-21T08:21:06.000Z</time>
      </trkpt>
      <trkpt lat="47.31115" lon="-2.29622">
        <ele>8.8000001907349</ele>
        <time>2020-05-21T08:21:07.000Z</time>
      </trkpt>
      <trkpt lat="47.31119" lon="-2.29617">
        <ele>8.8000001907349</ele>
        <time>2020-05-21T08:21:08.000Z</time>
      </trkpt>
      <trkpt lat="47.31124" lon="-2.29613">
        <ele>8.8000001907349</ele>
        <time>2020-05-21T08:21:09.000Z</time>
      </trkpt>
      <trkpt lat="47.31139" lon="-2.29602">
        <ele>8.8000001907349</ele>
        <time>2020-05-21T08:21:12.000Z</time>
      </trkpt>
      <trkpt lat="47.31155" lon="-2.2959">
        <ele>8.8000001907349</ele>
        <time>2020-05-21T08:21:15.000Z</time>
      </trkpt>
      <trkpt lat="47.31164" lon="-2.29579">
        <ele>8.8000001907349</ele>
        <time>2020-05-21T08:21:17.000Z</time>
      </trkpt>
      <trkpt lat="47.31167" lon="-2.29564">
        <ele>8.8000001907349</ele>
        <time>2020-05-21T08:21:19.000Z</time>
      </trkpt>
      <trkpt lat="47.31164" lon="-2.29548">
        <ele>8.8000001907349</ele>
        <time>2020-05-21T08:21:21.000Z</time>
      </trkpt>
      <trkpt lat="47.31162" lon="-2.29539">
        <ele>8.8000001907349</ele>
        <time>2020-05-21T08:21:22.000Z</time>
      </trkpt>
      <trkpt lat="47.3116" lon="-2.29531">
        <ele>8.8000001907349</ele>
        <time>2020-05-21T08:21:23.000Z</time>
      </trkpt>
      <trkpt lat="47.31147" lon="-2.29495">
        <ele>8.8000001907349</ele>
        <time>2020-05-21T08:21:28.000Z</time>
      </trkpt>
      <trkpt lat="47.31144" lon="-2.29488">
        <ele>8.8000001907349</ele>
        <time>2020-05-21T08:21:29.000Z</time>
      </trkpt>
      <trkpt lat="47.31144" lon="-2.29481">
        <ele>8.3999996185303</ele>
        <time>2020-05-21T08:21:30.000Z</time>
      </trkpt>
      <trkpt lat="47.31146" lon="-2.29474">
        <ele>8</ele>
        <time>2020-05-21T08:21:31.000Z</time>
      </trkpt>
      <trkpt lat="47.31149" lon="-2.29468">
        <ele>7.5999999046326</ele>
        <time>2020-05-21T08:21:32.000Z</time>
      </trkpt>
      <trkpt lat="47.31153" lon="-2.29463">
        <ele>7.1999998092651</ele>
        <time>2020-05-21T08:21:33.000Z</time>
      </trkpt>
      <trkpt lat="47.31158" lon="-2.29458">
        <ele>6.8000001907349</ele>
        <time>2020-05-21T08:21:34.000Z</time>
      </trkpt>
      <trkpt lat="47.31163" lon="-2.29454">
        <ele>6.8000001907349</ele>
        <time>2020-05-21T08:21:35.000Z</time>
      </trkpt>
      <trkpt lat="47.312" lon="-2.29424">
        <ele>6.8000001907349</ele>
        <time>2020-05-21T08:21:42.000Z</time>
      </trkpt>
      <trkpt lat="47.31231" lon="-2.29402">
        <ele>6.8000001907349</ele>
        <time>2020-05-21T08:21:48.000Z</time>
      </trkpt>
      <trkpt lat="47.31235" lon="-2.29398">
        <ele>7.1999998092651</ele>
        <time>2020-05-21T08:21:49.000Z</time>
      </trkpt>
      <trkpt lat="47.31241" lon="-2.29394">
        <ele>7.5999999046326</ele>
        <time>2020-05-21T08:21:50.000Z</time>
      </trkpt>
      <trkpt lat="47.31245" lon="-2.2939">
        <ele>8</ele>
        <time>2020-05-21T08:21:51.000Z</time>
      </trkpt>
      <trkpt lat="47.3125" lon="-2.29385">
        <ele>8.3999996185303</ele>
        <time>2020-05-21T08:21:52.000Z</time>
      </trkpt>
      <trkpt lat="47.31254" lon="-2.29379">
        <ele>8.8000001907349</ele>
        <time>2020-05-21T08:21:53.000Z</time>
      </trkpt>
      <trkpt lat="47.31265" lon="-2.2935">
        <ele>8.8000001907349</ele>
        <time>2020-05-21T08:21:57.000Z</time>
      </trkpt>
      <trkpt lat="47.31268" lon="-2.29343">
        <ele>8.8000001907349</ele>
        <time>2020-05-21T08:21:58.000Z</time>
      </trkpt>
      <trkpt lat="47.31279" lon="-2.29318">
        <ele>8.8000001907349</ele>
        <time>2020-05-21T08:22:02.000Z</time>
      </trkpt>
      <trkpt lat="47.313" lon="-2.29299">
        <ele>8.8000001907349</ele>
        <time>2020-05-21T08:22:07.000Z</time>
      </trkpt>
      <trkpt lat="47.31317" lon="-2.29299">
        <ele>8.8000001907349</ele>
        <time>2020-05-21T08:22:10.000Z</time>
      </trkpt>
      <trkpt lat="47.31322" lon="-2.29299">
        <ele>8.8000001907349</ele>
        <time>2020-05-21T08:22:11.000Z</time>
      </trkpt>
      <trkpt lat="47.31327" lon="-2.29301">
        <ele>8.8000001907349</ele>
        <time>2020-05-21T08:22:12.000Z</time>
      </trkpt>
      <trkpt lat="47.31343" lon="-2.29307">
        <ele>8.8000001907349</ele>
        <time>2020-05-21T08:22:15.000Z</time>
      </trkpt>
      <trkpt lat="47.31348" lon="-2.2931">
        <ele>8.8000001907349</ele>
        <time>2020-05-21T08:22:16.000Z</time>
      </trkpt>
      <trkpt lat="47.31374" lon="-2.2932">
        <ele>8.8000001907349</ele>
        <time>2020-05-21T08:22:21.000Z</time>
      </trkpt>
      <trkpt lat="47.31388" lon="-2.29326">
        <ele>8.8000001907349</ele>
        <time>2020-05-21T08:22:24.000Z</time>
      </trkpt>
      <trkpt lat="47.31403" lon="-2.29336">
        <ele>8.8000001907349</ele>
        <time>2020-05-21T08:22:27.000Z</time>
      </trkpt>
      <trkpt lat="47.31408" lon="-2.29341">
        <ele>9.1999998092651</ele>
        <time>2020-05-21T08:22:28.000Z</time>
      </trkpt>
      <trkpt lat="47.31412" lon="-2.29346">
        <ele>9.6000003814697</ele>
        <time>2020-05-21T08:22:29.000Z</time>
      </trkpt>
      <trkpt lat="47.31416" lon="-2.29351">
        <ele>10</ele>
        <time>2020-05-21T08:22:30.000Z</time>
      </trkpt>
      <trkpt lat="47.31421" lon="-2.29356">
        <ele>10.39999961853</ele>
        <time>2020-05-21T08:22:31.000Z</time>
      </trkpt>
      <trkpt lat="47.31424" lon="-2.29361">
        <ele>10.800000190735</ele>
        <time>2020-05-21T08:22:32.000Z</time>
      </trkpt>
      <trkpt lat="47.31428" lon="-2.29365">
        <ele>10.800000190735</ele>
        <time>2020-05-21T08:22:33.000Z</time>
      </trkpt>
      <trkpt lat="47.31435" lon="-2.29374">
        <ele>10.800000190735</ele>
        <time>2020-05-21T08:22:35.000Z</time>
      </trkpt>
      <trkpt lat="47.31446" lon="-2.29388">
        <ele>10.800000190735</ele>
        <time>2020-05-21T08:22:38.000Z</time>
      </trkpt>
      <trkpt lat="47.31454" lon="-2.29397">
        <ele>10.800000190735</ele>
        <time>2020-05-21T08:22:40.000Z</time>
      </trkpt>
      <trkpt lat="47.31463" lon="-2.29399">
        <ele>11.39999961853</ele>
        <time>2020-05-21T08:22:42.000Z</time>
      </trkpt>
      <trkpt lat="47.31468" lon="-2.29398">
        <ele>11.800000190735</ele>
        <time>2020-05-21T08:22:43.000Z</time>
      </trkpt>
      <trkpt lat="47.31473" lon="-2.29397">
        <ele>12.199999809265</ele>
        <time>2020-05-21T08:22:44.000Z</time>
      </trkpt>
      <trkpt lat="47.31477" lon="-2.29396">
        <ele>12.60000038147</ele>
        <time>2020-05-21T08:22:45.000Z</time>
      </trkpt>
      <trkpt lat="47.31482" lon="-2.29394">
        <ele>13</ele>
        <time>2020-05-21T08:22:46.000Z</time>
      </trkpt>
      <trkpt lat="47.31486" lon="-2.29394">
        <ele>13</ele>
        <time>2020-05-21T08:22:47.000Z</time>
      </trkpt>
      <trkpt lat="47.31491" lon="-2.29394">
        <ele>13</ele>
        <time>2020-05-21T08:22:48.000Z</time>
      </trkpt>
      <trkpt lat="47.31501" lon="-2.29402">
        <ele>13</ele>
        <time>2020-05-21T08:22:51.000Z</time>
      </trkpt>
      <trkpt lat="47.31505" lon="-2.29407">
        <ele>13</ele>
        <time>2020-05-21T08:22:52.000Z</time>
      </trkpt>
      <trkpt lat="47.31522" lon="-2.29436">
        <ele>13</ele>
        <time>2020-05-21T08:22:57.000Z</time>
      </trkpt>
      <trkpt lat="47.3153" lon="-2.29455">
        <ele>13.39999961853</ele>
        <time>2020-05-21T08:23:00.000Z</time>
      </trkpt>
      <trkpt lat="47.31533" lon="-2.29462">
        <ele>13.800000190735</ele>
        <time>2020-05-21T08:23:01.000Z</time>
      </trkpt>
      <trkpt lat="47.31535" lon="-2.29468">
        <ele>14.199999809265</ele>
        <time>2020-05-21T08:23:02.000Z</time>
      </trkpt>
      <trkpt lat="47.31536" lon="-2.29474">
        <ele>14.60000038147</ele>
        <time>2020-05-21T08:23:03.000Z</time>
      </trkpt>
      <trkpt lat="47.31537" lon="-2.29481">
        <ele>15</ele>
        <time>2020-05-21T08:23:04.000Z</time>
      </trkpt>
      <trkpt lat="47.31543" lon="-2.2951">
        <ele>15</ele>
        <time>2020-05-21T08:23:09.000Z</time>
      </trkpt>
      <trkpt lat="47.31544" lon="-2.29516">
        <ele>15</ele>
        <time>2020-05-21T08:23:10.000Z</time>
      </trkpt>
      <trkpt lat="47.31551" lon="-2.29536">
        <ele>15</ele>
        <time>2020-05-21T08:23:13.000Z</time>
      </trkpt>
      <trkpt lat="47.31576" lon="-2.29572">
        <ele>15</ele>
        <time>2020-05-21T08:23:20.000Z</time>
      </trkpt>
      <trkpt lat="47.31579" lon="-2.29577">
        <ele>15</ele>
        <time>2020-05-21T08:23:21.000Z</time>
      </trkpt>
      <trkpt lat="47.31588" lon="-2.29586">
        <ele>15</ele>
        <time>2020-05-21T08:23:23.000Z</time>
      </trkpt>
      <trkpt lat="47.31596" lon="-2.29594">
        <ele>15</ele>
        <time>2020-05-21T08:23:25.000Z</time>
      </trkpt>
      <trkpt lat="47.31611" lon="-2.29609">
        <ele>15</ele>
        <time>2020-05-21T08:23:29.000Z</time>
      </trkpt>
      <trkpt lat="47.31618" lon="-2.2962">
        <ele>15.39999961853</ele>
        <time>2020-05-21T08:23:31.000Z</time>
      </trkpt>
      <trkpt lat="47.31621" lon="-2.29626">
        <ele>15.800000190735</ele>
        <time>2020-05-21T08:23:32.000Z</time>
      </trkpt>
      <trkpt lat="47.31624" lon="-2.29633">
        <ele>16.200000762939</ele>
        <time>2020-05-21T08:23:33.000Z</time>
      </trkpt>
      <trkpt lat="47.31627" lon="-2.29639">
        <ele>16.799999237061</ele>
        <time>2020-05-21T08:23:34.000Z</time>
      </trkpt>
      <trkpt lat="47.3163" lon="-2.29647">
        <ele>17.200000762939</ele>
        <time>2020-05-21T08:23:35.000Z</time>
      </trkpt>
      <trkpt lat="47.31638" lon="-2.29667">
        <ele>17.200000762939</ele>
        <time>2020-05-21T08:23:38.000Z</time>
      </trkpt>
      <trkpt lat="47.31644" lon="-2.29681">
        <ele>17.200000762939</ele>
        <time>2020-05-21T08:23:40.000Z</time>
      </trkpt>
      <trkpt lat="47.31656" lon="-2.29711">
        <ele>17.200000762939</ele>
        <time>2020-05-21T08:23:45.000Z</time>
      </trkpt>
      <trkpt lat="47.31673" lon="-2.29729">
        <ele>17.200000762939</ele>
        <time>2020-05-21T08:23:49.000Z</time>
      </trkpt>
      <trkpt lat="47.31682" lon="-2.29728">
        <ele>17.200000762939</ele>
        <time>2020-05-21T08:23:51.000Z</time>
      </trkpt>
      <trkpt lat="47.3169" lon="-2.29728">
        <ele>17.200000762939</ele>
        <time>2020-05-21T08:23:53.000Z</time>
      </trkpt>
      <trkpt lat="47.31708" lon="-2.29723">
        <ele>17.200000762939</ele>
        <time>2020-05-21T08:23:57.000Z</time>
      </trkpt>
      <trkpt lat="47.31737" lon="-2.29701">
        <ele>17.200000762939</ele>
        <time>2020-05-21T08:24:03.000Z</time>
      </trkpt>
      <trkpt lat="47.31775" lon="-2.2967">
        <ele>17.200000762939</ele>
        <time>2020-05-21T08:24:10.000Z</time>
      </trkpt>
      <trkpt lat="47.31813" lon="-2.29644">
        <ele>17.200000762939</ele>
        <time>2020-05-21T08:24:17.000Z</time>
      </trkpt>
      <trkpt lat="47.31824" lon="-2.29638">
        <ele>17.200000762939</ele>
        <time>2020-05-21T08:24:19.000Z</time>
      </trkpt>
      <trkpt lat="47.31843" lon="-2.29629">
        <ele>17.200000762939</ele>
        <time>2020-05-21T08:24:23.000Z</time>
      </trkpt>
      <trkpt lat="47.31848" lon="-2.29626">
        <ele>17.200000762939</ele>
        <time>2020-05-21T08:24:24.000Z</time>
      </trkpt>
      <trkpt lat="47.31865" lon="-2.29608">
        <ele>17.200000762939</ele>
        <time>2020-05-21T08:24:28.000Z</time>
      </trkpt>
      <trkpt lat="47.31874" lon="-2.29578">
        <ele>17.200000762939</ele>
        <time>2020-05-21T08:24:32.000Z</time>
      </trkpt>
      <trkpt lat="47.31871" lon="-2.29558">
        <ele>17.200000762939</ele>
        <time>2020-05-21T08:24:35.000Z</time>
      </trkpt>
      <trkpt lat="47.31869" lon="-2.29552">
        <ele>17.200000762939</ele>
        <time>2020-05-21T08:24:36.000Z</time>
      </trkpt>
      <trkpt lat="47.31858" lon="-2.29517">
        <ele>17.200000762939</ele>
        <time>2020-05-21T08:24:43.000Z</time>
      </trkpt>
      <trkpt lat="47.31848" lon="-2.29492">
        <ele>17.200000762939</ele>
        <time>2020-05-21T08:24:50.000Z</time>
      </trkpt>
      <trkpt lat="47.31846" lon="-2.29472">
        <ele>17.200000762939</ele>
        <time>2020-05-21T08:24:56.000Z</time>
      </trkpt>
      <trkpt lat="47.3185" lon="-2.29445">
        <ele>17.200000762939</ele>
        <time>2020-05-21T08:25:03.000Z</time>
      </trkpt>
      <trkpt lat="47.31851" lon="-2.29421">
        <ele>17.200000762939</ele>
        <time>2020-05-21T08:25:09.000Z</time>
      </trkpt>
      <trkpt lat="47.31846" lon="-2.29389">
        <ele>17.200000762939</ele>
        <time>2020-05-21T08:25:16.000Z</time>
      </trkpt>
      <trkpt lat="47.31841" lon="-2.29363">
        <ele>17.200000762939</ele>
        <time>2020-05-21T08:25:22.000Z</time>
      </trkpt>
      <trkpt lat="47.31839" lon="-2.29354">
        <ele>16.799999237061</ele>
        <time>2020-05-21T08:25:24.000Z</time>
      </trkpt>
      <trkpt lat="47.31838" lon="-2.2935">
        <ele>16.39999961853</ele>
        <time>2020-05-21T08:25:25.000Z</time>
      </trkpt>
      <trkpt lat="47.31837" lon="-2.29346">
        <ele>16</ele>
        <time>2020-05-21T08:25:26.000Z</time>
      </trkpt>
      <trkpt lat="47.31837" lon="-2.29342">
        <ele>15.60000038147</ele>
        <time>2020-05-21T08:25:27.000Z</time>
      </trkpt>
      <trkpt lat="47.31836" lon="-2.29338">
        <ele>15.199999809265</ele>
        <time>2020-05-21T08:25:28.000Z</time>
      </trkpt>
      <trkpt lat="47.31834" lon="-2.29325">
        <ele>15.199999809265</ele>
        <time>2020-05-21T08:25:31.000Z</time>
      </trkpt>
      <trkpt lat="47.31831" lon="-2.29295">
        <ele>15.199999809265</ele>
        <time>2020-05-21T08:25:36.000Z</time>
      </trkpt>
      <trkpt lat="47.31826" lon="-2.2925">
        <ele>15.199999809265</ele>
        <time>2020-05-21T08:25:42.000Z</time>
      </trkpt>
      <trkpt lat="47.31824" lon="-2.29234">
        <ele>14.800000190735</ele>
        <time>2020-05-21T08:25:44.000Z</time>
      </trkpt>
      <trkpt lat="47.31823" lon="-2.29226">
        <ele>14.199999809265</ele>
        <time>2020-05-21T08:25:45.000Z</time>
      </trkpt>
      <trkpt lat="47.31822" lon="-2.29218">
        <ele>13.800000190735</ele>
        <time>2020-05-21T08:25:46.000Z</time>
      </trkpt>
      <trkpt lat="47.31822" lon="-2.29209">
        <ele>13.39999961853</ele>
        <time>2020-05-21T08:25:47.000Z</time>
      </trkpt>
      <trkpt lat="47.31822" lon="-2.292">
        <ele>13</ele>
        <time>2020-05-21T08:25:48.000Z</time>
      </trkpt>
      <trkpt lat="47.31827" lon="-2.29154">
        <ele>13</ele>
        <time>2020-05-21T08:25:53.000Z</time>
      </trkpt>
      <trkpt lat="47.3183" lon="-2.29136">
        <ele>12.60000038147</ele>
        <time>2020-05-21T08:25:55.000Z</time>
      </trkpt>
      <trkpt lat="47.31831" lon="-2.29127">
        <ele>12.199999809265</ele>
        <time>2020-05-21T08:25:56.000Z</time>
      </trkpt>
      <trkpt lat="47.31833" lon="-2.29118">
        <ele>11.800000190735</ele>
        <time>2020-05-21T08:25:57.000Z</time>
      </trkpt>
      <trkpt lat="47.31834" lon="-2.29109">
        <ele>11.199999809265</ele>
        <time>2020-05-21T08:25:58.000Z</time>
      </trkpt>
      <trkpt lat="47.31836" lon="-2.291">
        <ele>10.800000190735</ele>
        <time>2020-05-21T08:25:59.000Z</time>
      </trkpt>
      <trkpt lat="47.31842" lon="-2.29066">
        <ele>10.39999961853</ele>
        <time>2020-05-21T08:26:03.000Z</time>
      </trkpt>
      <trkpt lat="47.31843" lon="-2.29058">
        <ele>10</ele>
        <time>2020-05-21T08:26:04.000Z</time>
      </trkpt>
      <trkpt lat="47.31845" lon="-2.29049">
        <ele>9.6000003814697</ele>
        <time>2020-05-21T08:26:05.000Z</time>
      </trkpt>
      <trkpt lat="47.31847" lon="-2.29041">
        <ele>9.1999998092651</ele>
        <time>2020-05-21T08:26:06.000Z</time>
      </trkpt>
      <trkpt lat="47.31849" lon="-2.29033">
        <ele>8.8000001907349</ele>
        <time>2020-05-21T08:26:07.000Z</time>
      </trkpt>
      <trkpt lat="47.31856" lon="-2.29003">
        <ele>8.8000001907349</ele>
        <time>2020-05-21T08:26:11.000Z</time>
      </trkpt>
      <trkpt lat="47.31857" lon="-2.28995">
        <ele>8.8000001907349</ele>
        <time>2020-05-21T08:26:12.000Z</time>
      </trkpt>
      <trkpt lat="47.3186" lon="-2.2897">
        <ele>8.8000001907349</ele>
        <time>2020-05-21T08:26:16.000Z</time>
      </trkpt>
      <trkpt lat="47.31864" lon="-2.28952">
        <ele>8.3999996185303</ele>
        <time>2020-05-21T08:26:21.000Z</time>
      </trkpt>
      <trkpt lat="47.31866" lon="-2.2895">
        <ele>8</ele>
        <time>2020-05-21T08:26:22.000Z</time>
      </trkpt>
      <trkpt lat="47.31869" lon="-2.28948">
        <ele>7.5999999046326</ele>
        <time>2020-05-21T08:26:23.000Z</time>
      </trkpt>
      <trkpt lat="47.31871" lon="-2.28948">
        <ele>7.1999998092651</ele>
        <time>2020-05-21T08:26:24.000Z</time>
      </trkpt>
      <trkpt lat="47.31874" lon="-2.28948">
        <ele>6.8000001907349</ele>
        <time>2020-05-21T08:26:25.000Z</time>
      </trkpt>
      <trkpt lat="47.3189" lon="-2.28944">
        <ele>6.8000001907349</ele>
        <time>2020-05-21T08:26:30.000Z</time>
      </trkpt>
      <trkpt lat="47.31902" lon="-2.28939">
        <ele>6.8000001907349</ele>
        <time>2020-05-21T08:26:33.000Z</time>
      </trkpt>
      <trkpt lat="47.3191" lon="-2.28933">
        <ele>6.8000001907349</ele>
        <time>2020-05-21T08:26:35.000Z</time>
      </trkpt>
      <trkpt lat="47.31924" lon="-2.28918">
        <ele>6.8000001907349</ele>
        <time>2020-05-21T08:26:39.000Z</time>
      </trkpt>
      <trkpt lat="47.31928" lon="-2.28914">
        <ele>6.8000001907349</ele>
        <time>2020-05-21T08:26:40.000Z</time>
      </trkpt>
      <trkpt lat="47.31946" lon="-2.28901">
        <ele>6.8000001907349</ele>
        <time>2020-05-21T08:26:46.000Z</time>
      </trkpt>
      <trkpt lat="47.31956" lon="-2.28897">
        <ele>6.8000001907349</ele>
        <time>2020-05-21T08:26:50.000Z</time>
      </trkpt>
      <trkpt lat="47.31978" lon="-2.2889">
        <ele>6.8000001907349</ele>
        <time>2020-05-21T08:26:55.000Z</time>
      </trkpt>
      <trkpt lat="47.32013" lon="-2.28881">
        <ele>6.8000001907349</ele>
        <time>2020-05-21T08:27:01.000Z</time>
      </trkpt>
      <trkpt lat="47.32044" lon="-2.28865">
        <ele>6.8000001907349</ele>
        <time>2020-05-21T08:27:07.000Z</time>
      </trkpt>
      <trkpt lat="47.32047" lon="-2.28858">
        <ele>6.8000001907349</ele>
        <time>2020-05-21T08:27:11.000Z</time>
      </trkpt>
      <trkpt lat="47.32048" lon="-2.28857">
        <ele>6.8000001907349</ele>
        <time>2020-05-21T08:27:12.000Z</time>
      </trkpt>
      <trkpt lat="47.32051" lon="-2.2886">
        <ele>6.8000001907349</ele>
        <time>2020-05-21T08:27:15.000Z</time>
      </trkpt>
      <trkpt lat="47.3205" lon="-2.28861">
        <ele>6.8000001907349</ele>
        <time>2020-05-21T08:27:16.000Z</time>
      </trkpt>
      <trkpt lat="47.32049" lon="-2.28862">
        <ele>6.8000001907349</ele>
        <time>2020-05-21T08:27:17.000Z</time>
      </trkpt>
      <trkpt lat="47.32044" lon="-2.28865">
        <ele>6.8000001907349</ele>
        <time>2020-05-21T08:27:19.000Z</time>
      </trkpt>
      <trkpt lat="47.32042" lon="-2.28878">
        <ele>6.8000001907349</ele>
        <time>2020-05-21T08:27:22.000Z</time>
      </trkpt>
      <trkpt lat="47.32041" lon="-2.28882">
        <ele>6.8000001907349</ele>
        <time>2020-05-21T08:27:23.000Z</time>
      </trkpt>
      <trkpt lat="47.32044" lon="-2.28905">
        <ele>6.8000001907349</ele>
        <time>2020-05-21T08:27:27.000Z</time>
      </trkpt>
      <trkpt lat="47.32052" lon="-2.28942">
        <ele>6.8000001907349</ele>
        <time>2020-05-21T08:27:34.000Z</time>
      </trkpt>
      <trkpt lat="47.32066" lon="-2.28951">
        <ele>6.8000001907349</ele>
        <time>2020-05-21T08:27:38.000Z</time>
      </trkpt>
      <trkpt lat="47.32088" lon="-2.28965">
        <ele>6.8000001907349</ele>
        <time>2020-05-21T08:27:44.000Z</time>
      </trkpt>
      <trkpt lat="47.32092" lon="-2.28969">
        <ele>6.8000001907349</ele>
        <time>2020-05-21T08:27:45.000Z</time>
      </trkpt>
      <trkpt lat="47.321" lon="-2.28977">
        <ele>6.8000001907349</ele>
        <time>2020-05-21T08:27:47.000Z</time>
      </trkpt>
      <trkpt lat="47.32108" lon="-2.28993">
        <ele>6.8000001907349</ele>
        <time>2020-05-21T08:27:50.000Z</time>
      </trkpt>
      <trkpt lat="47.32127" lon="-2.2903">
        <ele>6.8000001907349</ele>
        <time>2020-05-21T08:27:57.000Z</time>
      </trkpt>
      <trkpt lat="47.32138" lon="-2.29063">
        <ele>7.1999998092651</ele>
        <time>2020-05-21T08:28:03.000Z</time>
      </trkpt>
      <trkpt lat="47.3214" lon="-2.29068">
        <ele>7.5999999046326</ele>
        <time>2020-05-21T08:28:04.000Z</time>
      </trkpt>
      <trkpt lat="47.32141" lon="-2.29073">
        <ele>8</ele>
        <time>2020-05-21T08:28:05.000Z</time>
      </trkpt>
      <trkpt lat="47.32143" lon="-2.29078">
        <ele>8.3999996185303</ele>
        <time>2020-05-21T08:28:06.000Z</time>
      </trkpt>
      <trkpt lat="47.32146" lon="-2.29083">
        <ele>8.8000001907349</ele>
        <time>2020-05-21T08:28:07.000Z</time>
      </trkpt>
      <trkpt lat="47.32155" lon="-2.29098">
        <ele>8.8000001907349</ele>
        <time>2020-05-21T08:28:10.000Z</time>
      </trkpt>
      <trkpt lat="47.32185" lon="-2.29131">
        <ele>8.8000001907349</ele>
        <time>2020-05-21T08:28:17.000Z</time>
      </trkpt>
      <trkpt lat="47.32214" lon="-2.29165">
        <ele>8.8000001907349</ele>
        <time>2020-05-21T08:28:24.000Z</time>
      </trkpt>
      <trkpt lat="47.32228" lon="-2.29184">
        <ele>8.8000001907349</ele>
        <time>2020-05-21T08:28:28.000Z</time>
      </trkpt>
      <trkpt lat="47.32232" lon="-2.29189">
        <ele>8.8000001907349</ele>
        <time>2020-05-21T08:28:29.000Z</time>
      </trkpt>
      <trkpt lat="47.32251" lon="-2.29218">
        <ele>8.8000001907349</ele>
        <time>2020-05-21T08:28:34.000Z</time>
      </trkpt>
      <trkpt lat="47.32261" lon="-2.2922">
        <ele>8.8000001907349</ele>
        <time>2020-05-21T08:28:36.000Z</time>
      </trkpt>
      <trkpt lat="47.32273" lon="-2.29217">
        <ele>8.8000001907349</ele>
        <time>2020-05-21T08:28:38.000Z</time>
      </trkpt>
      <trkpt lat="47.32289" lon="-2.29213">
        <ele>8.8000001907349</ele>
        <time>2020-05-21T08:28:41.000Z</time>
      </trkpt>
      <trkpt lat="47.32304" lon="-2.29212">
        <ele>8.8000001907349</ele>
        <time>2020-05-21T08:28:44.000Z</time>
      </trkpt>
      <trkpt lat="47.32315" lon="-2.29217">
        <ele>8.8000001907349</ele>
        <time>2020-05-21T08:28:46.000Z</time>
      </trkpt>
      <trkpt lat="47.32349" lon="-2.29238">
        <ele>8.8000001907349</ele>
        <time>2020-05-21T08:28:52.000Z</time>
      </trkpt>
      <trkpt lat="47.32392" lon="-2.29261">
        <ele>8.8000001907349</ele>
        <time>2020-05-21T08:28:59.000Z</time>
      </trkpt>
      <trkpt lat="47.32404" lon="-2.29269">
        <ele>8.8000001907349</ele>
        <time>2020-05-21T08:29:01.000Z</time>
      </trkpt>
      <trkpt lat="47.32412" lon="-2.29283">
        <ele>8.8000001907349</ele>
        <time>2020-05-21T08:29:03.000Z</time>
      </trkpt>
      <trkpt lat="47.32423" lon="-2.29324">
        <ele>8.8000001907349</ele>
        <time>2020-05-21T08:29:08.000Z</time>
      </trkpt>
      <trkpt lat="47.32423" lon="-2.29333">
        <ele>8.8000001907349</ele>
        <time>2020-05-21T08:29:09.000Z</time>
      </trkpt>
      <trkpt lat="47.32431" lon="-2.29397">
        <ele>8.8000001907349</ele>
        <time>2020-05-21T08:29:16.000Z</time>
      </trkpt>
      <trkpt lat="47.32436" lon="-2.2942">
        <ele>8.8000001907349</ele>
        <time>2020-05-21T08:29:19.000Z</time>
      </trkpt>
      <trkpt lat="47.32438" lon="-2.29436">
        <ele>8.8000001907349</ele>
        <time>2020-05-21T08:29:21.000Z</time>
      </trkpt>
      <trkpt lat="47.32439" lon="-2.29443">
        <ele>8.8000001907349</ele>
        <time>2020-05-21T08:29:22.000Z</time>
      </trkpt>
      <trkpt lat="47.32441" lon="-2.29457">
        <ele>8.8000001907349</ele>
        <time>2020-05-21T08:29:24.000Z</time>
      </trkpt>
      <trkpt lat="47.32444" lon="-2.29472">
        <ele>8.8000001907349</ele>
        <time>2020-05-21T08:29:26.000Z</time>
      </trkpt>
      <trkpt lat="47.32446" lon="-2.29479">
        <ele>8.8000001907349</ele>
        <time>2020-05-21T08:29:27.000Z</time>
      </trkpt>
      <trkpt lat="47.32455" lon="-2.29508">
        <ele>9.1999998092651</ele>
        <time>2020-05-21T08:29:31.000Z</time>
      </trkpt>
      <trkpt lat="47.32457" lon="-2.29515">
        <ele>9.8000001907349</ele>
        <time>2020-05-21T08:29:32.000Z</time>
      </trkpt>
      <trkpt lat="47.32459" lon="-2.29522">
        <ele>10.199999809265</ele>
        <time>2020-05-21T08:29:33.000Z</time>
      </trkpt>
      <trkpt lat="47.32461" lon="-2.29529">
        <ele>10.60000038147</ele>
        <time>2020-05-21T08:29:34.000Z</time>
      </trkpt>
      <trkpt lat="47.32462" lon="-2.29536">
        <ele>11</ele>
        <time>2020-05-21T08:29:35.000Z</time>
      </trkpt>
      <trkpt lat="47.32466" lon="-2.29549">
        <ele>11</ele>
        <time>2020-05-21T08:29:37.000Z</time>
      </trkpt>
      <trkpt lat="47.32471" lon="-2.29568">
        <ele>11.60000038147</ele>
        <time>2020-05-21T08:29:40.000Z</time>
      </trkpt>
      <trkpt lat="47.32473" lon="-2.29574">
        <ele>12</ele>
        <time>2020-05-21T08:29:41.000Z</time>
      </trkpt>
      <trkpt lat="47.32474" lon="-2.29579">
        <ele>12.39999961853</ele>
        <time>2020-05-21T08:29:42.000Z</time>
      </trkpt>
      <trkpt lat="47.32476" lon="-2.29585">
        <ele>12.800000190735</ele>
        <time>2020-05-21T08:29:43.000Z</time>
      </trkpt>
      <trkpt lat="47.32478" lon="-2.2959">
        <ele>13.39999961853</ele>
        <time>2020-05-21T08:29:44.000Z</time>
      </trkpt>
      <trkpt lat="47.32486" lon="-2.29619">
        <ele>13.800000190735</ele>
        <time>2020-05-21T08:29:49.000Z</time>
      </trkpt>
      <trkpt lat="47.32488" lon="-2.29626">
        <ele>14.199999809265</ele>
        <time>2020-05-21T08:29:50.000Z</time>
      </trkpt>
      <trkpt lat="47.32489" lon="-2.29633">
        <ele>15</ele>
        <time>2020-05-21T08:29:51.000Z</time>
      </trkpt>
      <trkpt lat="47.32491" lon="-2.2964">
        <ele>15.39999961853</ele>
        <time>2020-05-21T08:29:52.000Z</time>
      </trkpt>
      <trkpt lat="47.32496" lon="-2.29659">
        <ele>15.800000190735</ele>
        <time>2020-05-21T08:29:55.000Z</time>
      </trkpt>
      <trkpt lat="47.32498" lon="-2.29665">
        <ele>16.200000762939</ele>
        <time>2020-05-21T08:29:56.000Z</time>
      </trkpt>
      <trkpt lat="47.325" lon="-2.29672">
        <ele>16.60000038147</ele>
        <time>2020-05-21T08:29:57.000Z</time>
      </trkpt>
      <trkpt lat="47.32501" lon="-2.29679">
        <ele>17</ele>
        <time>2020-05-21T08:29:58.000Z</time>
      </trkpt>
      <trkpt lat="47.32503" lon="-2.29685">
        <ele>17.39999961853</ele>
        <time>2020-05-21T08:29:59.000Z</time>
      </trkpt>
      <trkpt lat="47.32513" lon="-2.29725">
        <ele>17.39999961853</ele>
        <time>2020-05-21T08:30:05.000Z</time>
      </trkpt>
      <trkpt lat="47.32517" lon="-2.29739">
        <ele>17.799999237061</ele>
        <time>2020-05-21T08:30:07.000Z</time>
      </trkpt>
      <trkpt lat="47.32518" lon="-2.29746">
        <ele>18.200000762939</ele>
        <time>2020-05-21T08:30:08.000Z</time>
      </trkpt>
      <trkpt lat="47.3252" lon="-2.29753">
        <ele>18.60000038147</ele>
        <time>2020-05-21T08:30:09.000Z</time>
      </trkpt>
      <trkpt lat="47.32522" lon="-2.29759">
        <ele>19</ele>
        <time>2020-05-21T08:30:10.000Z</time>
      </trkpt>
      <trkpt lat="47.32525" lon="-2.29766">
        <ele>19.39999961853</ele>
        <time>2020-05-21T08:30:11.000Z</time>
      </trkpt>
      <trkpt lat="47.32528" lon="-2.29778">
        <ele>19.39999961853</ele>
        <time>2020-05-21T08:30:13.000Z</time>
      </trkpt>
      <trkpt lat="47.32528" lon="-2.29788">
        <ele>19.39999961853</ele>
        <time>2020-05-21T08:30:15.000Z</time>
      </trkpt>
      <trkpt lat="47.32526" lon="-2.29792">
        <ele>19.39999961853</ele>
        <time>2020-05-21T08:30:16.000Z</time>
      </trkpt>
      <trkpt lat="47.32512" lon="-2.29807">
        <ele>19.39999961853</ele>
        <time>2020-05-21T08:30:20.000Z</time>
      </trkpt>
      <trkpt lat="47.32477" lon="-2.29837">
        <ele>19.39999961853</ele>
        <time>2020-05-21T08:30:28.000Z</time>
      </trkpt>
      <trkpt lat="47.32452" lon="-2.29859">
        <ele>19.39999961853</ele>
        <time>2020-05-21T08:30:33.000Z</time>
      </trkpt>
      <trkpt lat="47.32449" lon="-2.29866">
        <ele>19.39999961853</ele>
        <time>2020-05-21T08:30:34.000Z</time>
      </trkpt>
      <trkpt lat="47.32447" lon="-2.29891">
        <ele>19.39999961853</ele>
        <time>2020-05-21T08:30:37.000Z</time>
      </trkpt>
      <trkpt lat="47.32447" lon="-2.29898">
        <ele>19.39999961853</ele>
        <time>2020-05-21T08:30:38.000Z</time>
      </trkpt>
      <trkpt lat="47.32449" lon="-2.29912">
        <ele>19.39999961853</ele>
        <time>2020-05-21T08:30:40.000Z</time>
      </trkpt>
      <trkpt lat="47.32451" lon="-2.29931">
        <ele>19.39999961853</ele>
        <time>2020-05-21T08:30:43.000Z</time>
      </trkpt>
      <trkpt lat="47.32447" lon="-2.29944">
        <ele>19.39999961853</ele>
        <time>2020-05-21T08:30:47.000Z</time>
      </trkpt>
      <trkpt lat="47.32442" lon="-2.29953">
        <ele>19.39999961853</ele>
        <time>2020-05-21T08:30:53.000Z</time>
      </trkpt>
      <trkpt lat="47.3244" lon="-2.29953">
        <ele>19.39999961853</ele>
        <time>2020-05-21T08:30:54.000Z</time>
      </trkpt>
      <trkpt lat="47.32437" lon="-2.29948">
        <ele>19.39999961853</ele>
        <time>2020-05-21T08:30:57.000Z</time>
      </trkpt>
      <trkpt lat="47.32441" lon="-2.29949">
        <ele>19.39999961853</ele>
        <time>2020-05-21T08:31:00.000Z</time>
      </trkpt>
      <trkpt lat="47.32448" lon="-2.29961">
        <ele>19.39999961853</ele>
        <time>2020-05-21T08:31:05.000Z</time>
      </trkpt>
      <trkpt lat="47.32459" lon="-2.29978">
        <ele>19.39999961853</ele>
        <time>2020-05-21T08:31:12.000Z</time>
      </trkpt>
      <trkpt lat="47.3247" lon="-2.29998">
        <ele>19.39999961853</ele>
        <time>2020-05-21T08:31:18.000Z</time>
      </trkpt>
      <trkpt lat="47.32484" lon="-2.30034">
        <ele>19.39999961853</ele>
        <time>2020-05-21T08:31:27.000Z</time>
      </trkpt>
      <trkpt lat="47.32492" lon="-2.30063">
        <ele>19.39999961853</ele>
        <time>2020-05-21T08:31:34.000Z</time>
      </trkpt>
      <trkpt lat="47.32497" lon="-2.30098">
        <ele>19.39999961853</ele>
        <time>2020-05-21T08:31:41.000Z</time>
      </trkpt>
      <trkpt lat="47.325" lon="-2.30131">
        <ele>19.39999961853</ele>
        <time>2020-05-21T08:31:48.000Z</time>
      </trkpt>
      <trkpt lat="47.32506" lon="-2.30165">
        <ele>19.39999961853</ele>
        <time>2020-05-21T08:31:56.000Z</time>
      </trkpt>
      <trkpt lat="47.3251" lon="-2.30196">
        <ele>19.39999961853</ele>
        <time>2020-05-21T08:32:03.000Z</time>
      </trkpt>
      <trkpt lat="47.32516" lon="-2.30235">
        <ele>19.39999961853</ele>
        <time>2020-05-21T08:32:12.000Z</time>
      </trkpt>
      <trkpt lat="47.32522" lon="-2.30279">
        <ele>19.39999961853</ele>
        <time>2020-05-21T08:32:21.000Z</time>
      </trkpt>
      <trkpt lat="47.32528" lon="-2.30312">
        <ele>19</ele>
        <time>2020-05-21T08:32:28.000Z</time>
      </trkpt>
      <trkpt lat="47.3253" lon="-2.30317">
        <ele>18.60000038147</ele>
        <time>2020-05-21T08:32:29.000Z</time>
      </trkpt>
      <trkpt lat="47.32531" lon="-2.30322">
        <ele>18.200000762939</ele>
        <time>2020-05-21T08:32:30.000Z</time>
      </trkpt>
      <trkpt lat="47.32532" lon="-2.30327">
        <ele>17.799999237061</ele>
        <time>2020-05-21T08:32:31.000Z</time>
      </trkpt>
      <trkpt lat="47.32533" lon="-2.30332">
        <ele>17.39999961853</ele>
        <time>2020-05-21T08:32:32.000Z</time>
      </trkpt>
      <trkpt lat="47.32537" lon="-2.30355">
        <ele>17.39999961853</ele>
        <time>2020-05-21T08:32:37.000Z</time>
      </trkpt>
      <trkpt lat="47.32543" lon="-2.30386">
        <ele>17.39999961853</ele>
        <time>2020-05-21T08:32:44.000Z</time>
      </trkpt>
      <trkpt lat="47.32539" lon="-2.304">
        <ele>17.39999961853</ele>
        <time>2020-05-21T08:32:47.000Z</time>
      </trkpt>
      <trkpt lat="47.32536" lon="-2.30402">
        <ele>17.39999961853</ele>
        <time>2020-05-21T08:32:48.000Z</time>
      </trkpt>
      <trkpt lat="47.32522" lon="-2.30408">
        <ele>17.39999961853</ele>
        <time>2020-05-21T08:32:54.000Z</time>
      </trkpt>
      <trkpt lat="47.32517" lon="-2.3041">
        <ele>17.39999961853</ele>
        <time>2020-05-21T08:32:58.000Z</time>
      </trkpt>
      <trkpt lat="47.32519" lon="-2.30409">
        <ele>17.39999961853</ele>
        <time>2020-05-21T08:33:33.000Z</time>
      </trkpt>
      <trkpt lat="47.32532" lon="-2.30404">
        <ele>17.39999961853</ele>
        <time>2020-05-21T08:33:38.000Z</time>
      </trkpt>
      <trkpt lat="47.3254" lon="-2.30396">
        <ele>17.39999961853</ele>
        <time>2020-05-21T08:33:41.000Z</time>
      </trkpt>
      <trkpt lat="47.3254" lon="-2.30392">
        <ele>17.39999961853</ele>
        <time>2020-05-21T08:33:42.000Z</time>
      </trkpt>
      <trkpt lat="47.32539" lon="-2.30373">
        <ele>17.39999961853</ele>
        <time>2020-05-21T08:33:47.000Z</time>
      </trkpt>
      <trkpt lat="47.32534" lon="-2.30349">
        <ele>17.39999961853</ele>
        <time>2020-05-21T08:33:52.000Z</time>
      </trkpt>
      <trkpt lat="47.32529" lon="-2.30317">
        <ele>17.39999961853</ele>
        <time>2020-05-21T08:33:58.000Z</time>
      </trkpt>
      <trkpt lat="47.32523" lon="-2.30286">
        <ele>17.39999961853</ele>
        <time>2020-05-21T08:34:04.000Z</time>
      </trkpt>
      <trkpt lat="47.32515" lon="-2.30233">
        <ele>17.39999961853</ele>
        <time>2020-05-21T08:34:13.000Z</time>
      </trkpt>
      <trkpt lat="47.32514" lon="-2.30221">
        <ele>17.39999961853</ele>
        <time>2020-05-21T08:34:15.000Z</time>
      </trkpt>
      <trkpt lat="47.3251" lon="-2.30199">
        <ele>17.39999961853</ele>
        <time>2020-05-21T08:34:19.000Z</time>
      </trkpt>
      <trkpt lat="47.32509" lon="-2.30187">
        <ele>17.799999237061</ele>
        <time>2020-05-21T08:34:21.000Z</time>
      </trkpt>
      <trkpt lat="47.32508" lon="-2.30181">
        <ele>18.60000038147</ele>
        <time>2020-05-21T08:34:22.000Z</time>
      </trkpt>
      <trkpt lat="47.32507" lon="-2.30176">
        <ele>19</ele>
        <time>2020-05-21T08:34:23.000Z</time>
      </trkpt>
      <trkpt lat="47.32506" lon="-2.3017">
        <ele>19.39999961853</ele>
        <time>2020-05-21T08:34:24.000Z</time>
      </trkpt>
      <trkpt lat="47.32503" lon="-2.30154">
        <ele>19.39999961853</ele>
        <time>2020-05-21T08:34:27.000Z</time>
      </trkpt>
      <trkpt lat="47.32495" lon="-2.30102">
        <ele>19.39999961853</ele>
        <time>2020-05-21T08:34:36.000Z</time>
      </trkpt>
      <trkpt lat="47.32494" lon="-2.30089">
        <ele>19.39999961853</ele>
        <time>2020-05-21T08:34:38.000Z</time>
      </trkpt>
      <trkpt lat="47.32492" lon="-2.30066">
        <ele>19.39999961853</ele>
        <time>2020-05-21T08:34:42.000Z</time>
      </trkpt>
      <trkpt lat="47.32491" lon="-2.30061">
        <ele>19.39999961853</ele>
        <time>2020-05-21T08:34:43.000Z</time>
      </trkpt>
      <trkpt lat="47.32489" lon="-2.3005">
        <ele>19.39999961853</ele>
        <time>2020-05-21T08:34:45.000Z</time>
      </trkpt>
      <trkpt lat="47.32483" lon="-2.30032">
        <ele>19.39999961853</ele>
        <time>2020-05-21T08:34:48.000Z</time>
      </trkpt>
      <trkpt lat="47.32468" lon="-2.29994">
        <ele>19.39999961853</ele>
        <time>2020-05-21T08:34:55.000Z</time>
      </trkpt>
      <trkpt lat="47.32447" lon="-2.29962">
        <ele>19.39999961853</ele>
        <time>2020-05-21T08:35:03.000Z</time>
      </trkpt>
      <trkpt lat="47.32442" lon="-2.29955">
        <ele>19.39999961853</ele>
        <time>2020-05-21T08:35:07.000Z</time>
      </trkpt>
      <trkpt lat="47.32442" lon="-2.29954">
        <ele>19.39999961853</ele>
        <time>2020-05-21T08:35:08.000Z</time>
      </trkpt>
      <trkpt lat="47.32437" lon="-2.29951">
        <ele>19.39999961853</ele>
        <time>2020-05-21T08:37:28.000Z</time>
      </trkpt>
      <trkpt lat="47.32439" lon="-2.29949">
        <ele>19.39999961853</ele>
        <time>2020-05-21T08:37:30.000Z</time>
      </trkpt>
      <trkpt lat="47.32441" lon="-2.29951">
        <ele>19.39999961853</ele>
        <time>2020-05-21T08:37:34.000Z</time>
      </trkpt>
      <trkpt lat="47.32446" lon="-2.29958">
        <ele>19.39999961853</ele>
        <time>2020-05-21T08:38:47.000Z</time>
      </trkpt>
      <trkpt lat="47.32453" lon="-2.2997">
        <ele>19.39999961853</ele>
        <time>2020-05-21T08:38:53.000Z</time>
      </trkpt>
      <trkpt lat="47.32461" lon="-2.29984">
        <ele>19.39999961853</ele>
        <time>2020-05-21T08:39:00.000Z</time>
      </trkpt>
      <trkpt lat="47.32464" lon="-2.29989">
        <ele>19.39999961853</ele>
        <time>2020-05-21T08:39:03.000Z</time>
      </trkpt>
      <trkpt lat="47.32467" lon="-2.29993">
        <ele>19.39999961853</ele>
        <time>2020-05-21T08:39:05.000Z</time>
      </trkpt>
      <trkpt lat="47.32478" lon="-2.30015">
        <ele>19.39999961853</ele>
        <time>2020-05-21T08:39:14.000Z</time>
      </trkpt>
      <trkpt lat="47.32486" lon="-2.30039">
        <ele>19.39999961853</ele>
        <time>2020-05-21T08:39:21.000Z</time>
      </trkpt>
      <trkpt lat="47.32488" lon="-2.30047">
        <ele>19.39999961853</ele>
        <time>2020-05-21T08:39:23.000Z</time>
      </trkpt>
      <trkpt lat="47.32493" lon="-2.30072">
        <ele>19.39999961853</ele>
        <time>2020-05-21T08:39:28.000Z</time>
      </trkpt>
      <trkpt lat="47.32496" lon="-2.30106">
        <ele>19.39999961853</ele>
        <time>2020-05-21T08:39:34.000Z</time>
      </trkpt>
      <trkpt lat="47.32497" lon="-2.30118">
        <ele>19.39999961853</ele>
        <time>2020-05-21T08:39:36.000Z</time>
      </trkpt>
      <trkpt lat="47.32501" lon="-2.30144">
        <ele>19.39999961853</ele>
        <time>2020-05-21T08:39:40.000Z</time>
      </trkpt>
      <trkpt lat="47.3251" lon="-2.30197">
        <ele>19.39999961853</ele>
        <time>2020-05-21T08:39:48.000Z</time>
      </trkpt>
      <trkpt lat="47.32514" lon="-2.30224">
        <ele>19.39999961853</ele>
        <time>2020-05-21T08:39:52.000Z</time>
      </trkpt>
      <trkpt lat="47.32517" lon="-2.30248">
        <ele>19.39999961853</ele>
        <time>2020-05-21T08:39:55.000Z</time>
      </trkpt>
      <trkpt lat="47.32526" lon="-2.30303">
        <ele>19.39999961853</ele>
        <time>2020-05-21T08:40:01.000Z</time>
      </trkpt>
      <trkpt lat="47.32537" lon="-2.30353">
        <ele>19.39999961853</ele>
        <time>2020-05-21T08:40:07.000Z</time>
      </trkpt>
      <trkpt lat="47.32538" lon="-2.30361">
        <ele>19</ele>
        <time>2020-05-21T08:40:08.000Z</time>
      </trkpt>
      <trkpt lat="47.3254" lon="-2.30368">
        <ele>18.60000038147</ele>
        <time>2020-05-21T08:40:09.000Z</time>
      </trkpt>
      <trkpt lat="47.32541" lon="-2.30375">
        <ele>18.200000762939</ele>
        <time>2020-05-21T08:40:10.000Z</time>
      </trkpt>
      <trkpt lat="47.32543" lon="-2.30382">
        <ele>17.799999237061</ele>
        <time>2020-05-21T08:40:11.000Z</time>
      </trkpt>
      <trkpt lat="47.32544" lon="-2.30389">
        <ele>17.39999961853</ele>
        <time>2020-05-21T08:40:12.000Z</time>
      </trkpt>
      <trkpt lat="47.32543" lon="-2.30395">
        <ele>17.39999961853</ele>
        <time>2020-05-21T08:40:13.000Z</time>
      </trkpt>
      <trkpt lat="47.3254" lon="-2.304">
        <ele>17.39999961853</ele>
        <time>2020-05-21T08:40:14.000Z</time>
      </trkpt>
      <trkpt lat="47.32527" lon="-2.30406">
        <ele>17.39999961853</ele>
        <time>2020-05-21T08:40:17.000Z</time>
      </trkpt>
      <trkpt lat="47.32521" lon="-2.30408">
        <ele>17.39999961853</ele>
        <time>2020-05-21T08:40:18.000Z</time>
      </trkpt>
      <trkpt lat="47.32499" lon="-2.30424">
        <ele>17.39999961853</ele>
        <time>2020-05-21T08:40:23.000Z</time>
      </trkpt>
      <trkpt lat="47.32503" lon="-2.30444">
        <ele>17.39999961853</ele>
        <time>2020-05-21T08:40:26.000Z</time>
      </trkpt>
      <trkpt lat="47.32505" lon="-2.30451">
        <ele>17.39999961853</ele>
        <time>2020-05-21T08:40:27.000Z</time>
      </trkpt>
      <trkpt lat="47.32507" lon="-2.30458">
        <ele>17.39999961853</ele>
        <time>2020-05-21T08:40:28.000Z</time>
      </trkpt>
      <trkpt lat="47.32512" lon="-2.30484">
        <ele>17.39999961853</ele>
        <time>2020-05-21T08:40:31.000Z</time>
      </trkpt>
      <trkpt lat="47.32525" lon="-2.30553">
        <ele>17.39999961853</ele>
        <time>2020-05-21T08:40:39.000Z</time>
      </trkpt>
      <trkpt lat="47.32534" lon="-2.30612">
        <ele>17.39999961853</ele>
        <time>2020-05-21T08:40:46.000Z</time>
      </trkpt>
      <trkpt lat="47.32536" lon="-2.30628">
        <ele>16.799999237061</ele>
        <time>2020-05-21T08:40:48.000Z</time>
      </trkpt>
      <trkpt lat="47.32538" lon="-2.30635">
        <ele>16.39999961853</ele>
        <time>2020-05-21T08:40:49.000Z</time>
      </trkpt>
      <trkpt lat="47.32539" lon="-2.30641">
        <ele>16</ele>
        <time>2020-05-21T08:40:50.000Z</time>
      </trkpt>
      <trkpt lat="47.32541" lon="-2.30646">
        <ele>15.60000038147</ele>
        <time>2020-05-21T08:40:51.000Z</time>
      </trkpt>
      <trkpt lat="47.32541" lon="-2.3065">
        <ele>15.199999809265</ele>
        <time>2020-05-21T08:40:52.000Z</time>
      </trkpt>
      <trkpt lat="47.32544" lon="-2.30672">
        <ele>15.199999809265</ele>
        <time>2020-05-21T08:40:58.000Z</time>
      </trkpt>
      <trkpt lat="47.32547" lon="-2.30706">
        <ele>15.199999809265</ele>
        <time>2020-05-21T08:41:03.000Z</time>
      </trkpt>
      <trkpt lat="47.32556" lon="-2.3075">
        <ele>15.199999809265</ele>
        <time>2020-05-21T08:41:09.000Z</time>
      </trkpt>
      <trkpt lat="47.32565" lon="-2.30791">
        <ele>15.199999809265</ele>
        <time>2020-05-21T08:41:15.000Z</time>
      </trkpt>
      <trkpt lat="47.32568" lon="-2.30847">
        <ele>15.199999809265</ele>
        <time>2020-05-21T08:41:22.000Z</time>
      </trkpt>
      <trkpt lat="47.32571" lon="-2.30895">
        <ele>15.199999809265</ele>
        <time>2020-05-21T08:41:28.000Z</time>
      </trkpt>
      <trkpt lat="47.3257" lon="-2.30904">
        <ele>15.199999809265</ele>
        <time>2020-05-21T08:41:29.000Z</time>
      </trkpt>
      <trkpt lat="47.32569" lon="-2.30931">
        <ele>15.199999809265</ele>
        <time>2020-05-21T08:41:32.000Z</time>
      </trkpt>
      <trkpt lat="47.32568" lon="-2.3094">
        <ele>15.199999809265</ele>
        <time>2020-05-21T08:41:33.000Z</time>
      </trkpt>
      <trkpt lat="47.32566" lon="-2.30982">
        <ele>15.199999809265</ele>
        <time>2020-05-21T08:41:38.000Z</time>
      </trkpt>
      <trkpt lat="47.32567" lon="-2.30999">
        <ele>15.199999809265</ele>
        <time>2020-05-21T08:41:40.000Z</time>
      </trkpt>
      <trkpt lat="47.3257" lon="-2.31026">
        <ele>15.199999809265</ele>
        <time>2020-05-21T08:41:43.000Z</time>
      </trkpt>
      <trkpt lat="47.32575" lon="-2.31061">
        <ele>15.199999809265</ele>
        <time>2020-05-21T08:41:47.000Z</time>
      </trkpt>
      <trkpt lat="47.32575" lon="-2.3108">
        <ele>15.199999809265</ele>
        <time>2020-05-21T08:41:49.000Z</time>
      </trkpt>
      <trkpt lat="47.32573" lon="-2.31129">
        <ele>15.199999809265</ele>
        <time>2020-05-21T08:41:54.000Z</time>
      </trkpt>
      <trkpt lat="47.32567" lon="-2.31186">
        <ele>14.800000190735</ele>
        <time>2020-05-21T08:42:00.000Z</time>
      </trkpt>
      <trkpt lat="47.32569" lon="-2.31197">
        <ele>14.39999961853</ele>
        <time>2020-05-21T08:42:01.000Z</time>
      </trkpt>
      <trkpt lat="47.32572" lon="-2.31205">
        <ele>14</ele>
        <time>2020-05-21T08:42:02.000Z</time>
      </trkpt>
      <trkpt lat="47.32574" lon="-2.31214">
        <ele>13.60000038147</ele>
        <time>2020-05-21T08:42:03.000Z</time>
      </trkpt>
      <trkpt lat="47.32577" lon="-2.31224">
        <ele>13</ele>
        <time>2020-05-21T08:42:04.000Z</time>
      </trkpt>
      <trkpt lat="47.32579" lon="-2.31262">
        <ele>13</ele>
        <time>2020-05-21T08:42:08.000Z</time>
      </trkpt>
      <trkpt lat="47.32573" lon="-2.3131">
        <ele>13</ele>
        <time>2020-05-21T08:42:12.000Z</time>
      </trkpt>
      <trkpt lat="47.32573" lon="-2.3131">
        <ele>13</ele>
        <time>2020-05-21T08:42:13.000Z</time>
      </trkpt>
      <trkpt lat="47.32569" lon="-2.31319">
        <ele>13</ele>
        <time>2020-05-21T08:42:14.000Z</time>
      </trkpt>
      <trkpt lat="47.32562" lon="-2.31337">
        <ele>13</ele>
        <time>2020-05-21T08:42:16.000Z</time>
      </trkpt>
      <trkpt lat="47.3256" lon="-2.31347">
        <ele>13</ele>
        <time>2020-05-21T08:42:17.000Z</time>
      </trkpt>
      <trkpt lat="47.32557" lon="-2.31375">
        <ele>13</ele>
        <time>2020-05-21T08:42:20.000Z</time>
      </trkpt>
      <trkpt lat="47.32556" lon="-2.31383">
        <ele>13</ele>
        <time>2020-05-21T08:42:21.000Z</time>
      </trkpt>
      <trkpt lat="47.32553" lon="-2.31399">
        <ele>13</ele>
        <time>2020-05-21T08:42:25.000Z</time>
      </trkpt>
      <trkpt lat="47.32552" lon="-2.31401">
        <ele>13</ele>
        <time>2020-05-21T08:42:26.000Z</time>
      </trkpt>
      <trkpt lat="47.32549" lon="-2.31408">
        <ele>13</ele>
        <time>2020-05-21T08:42:29.000Z</time>
      </trkpt>
      <trkpt lat="47.32549" lon="-2.31408">
        <ele>13</ele>
        <time>2020-05-21T08:42:30.000Z</time>
      </trkpt>
      <trkpt lat="47.3255" lon="-2.31411">
        <ele>13</ele>
        <time>2020-05-21T08:42:46.000Z</time>
      </trkpt>
      <trkpt lat="47.32552" lon="-2.31419">
        <ele>13</ele>
        <time>2020-05-21T08:42:48.000Z</time>
      </trkpt>
      <trkpt lat="47.32555" lon="-2.31442">
        <ele>13</ele>
        <time>2020-05-21T08:42:52.000Z</time>
      </trkpt>
      <trkpt lat="47.32561" lon="-2.31484">
        <ele>13</ele>
        <time>2020-05-21T08:42:58.000Z</time>
      </trkpt>
      <trkpt lat="47.32561" lon="-2.3153">
        <ele>13</ele>
        <time>2020-05-21T08:43:04.000Z</time>
      </trkpt>
      <trkpt lat="47.32562" lon="-2.31579">
        <ele>13</ele>
        <time>2020-05-21T08:43:10.000Z</time>
      </trkpt>
      <trkpt lat="47.3256" lon="-2.31584">
        <ele>13</ele>
        <time>2020-05-21T08:43:11.000Z</time>
      </trkpt>
      <trkpt lat="47.32549" lon="-2.31601">
        <ele>13</ele>
        <time>2020-05-21T08:43:14.000Z</time>
      </trkpt>
      <trkpt lat="47.32517" lon="-2.31641">
        <ele>13</ele>
        <time>2020-05-21T08:43:21.000Z</time>
      </trkpt>
      <trkpt lat="47.32513" lon="-2.31648">
        <ele>13</ele>
        <time>2020-05-21T08:43:22.000Z</time>
      </trkpt>
      <trkpt lat="47.3251" lon="-2.31666">
        <ele>13</ele>
        <time>2020-05-21T08:43:24.000Z</time>
      </trkpt>
      <trkpt lat="47.3251" lon="-2.31694">
        <ele>13</ele>
        <time>2020-05-21T08:43:27.000Z</time>
      </trkpt>
      <trkpt lat="47.32511" lon="-2.31704">
        <ele>13</ele>
        <time>2020-05-21T08:43:28.000Z</time>
      </trkpt>
      <trkpt lat="47.32517" lon="-2.31779">
        <ele>13</ele>
        <time>2020-05-21T08:43:36.000Z</time>
      </trkpt>
      <trkpt lat="47.32521" lon="-2.31848">
        <ele>13</ele>
        <time>2020-05-21T08:43:43.000Z</time>
      </trkpt>
      <trkpt lat="47.32516" lon="-2.31902">
        <ele>13</ele>
        <time>2020-05-21T08:43:48.000Z</time>
      </trkpt>
      <trkpt lat="47.32507" lon="-2.31977">
        <ele>13</ele>
        <time>2020-05-21T08:43:55.000Z</time>
      </trkpt>
      <trkpt lat="47.32505" lon="-2.32039">
        <ele>13</ele>
        <time>2020-05-21T08:44:01.000Z</time>
      </trkpt>
      <trkpt lat="47.32502" lon="-2.32079">
        <ele>13</ele>
        <time>2020-05-21T08:44:06.000Z</time>
      </trkpt>
      <trkpt lat="47.32504" lon="-2.32093">
        <ele>13</ele>
        <time>2020-05-21T08:44:09.000Z</time>
      </trkpt>
      <trkpt lat="47.32506" lon="-2.32095">
        <ele>13</ele>
        <time>2020-05-21T08:44:10.000Z</time>
      </trkpt>
      <trkpt lat="47.32518" lon="-2.32095">
        <ele>13</ele>
        <time>2020-05-21T08:44:13.000Z</time>
      </trkpt>
      <trkpt lat="47.32522" lon="-2.32095">
        <ele>13</ele>
        <time>2020-05-21T08:44:14.000Z</time>
      </trkpt>
      <trkpt lat="47.32558" lon="-2.32092">
        <ele>13</ele>
        <time>2020-05-21T08:44:21.000Z</time>
      </trkpt>
      <trkpt lat="47.3258" lon="-2.32092">
        <ele>13</ele>
        <time>2020-05-21T08:44:25.000Z</time>
      </trkpt>
      <trkpt lat="47.32588" lon="-2.32103">
        <ele>13</ele>
        <time>2020-05-21T08:44:27.000Z</time>
      </trkpt>
      <trkpt lat="47.32589" lon="-2.3213">
        <ele>13</ele>
        <time>2020-05-21T08:44:30.000Z</time>
      </trkpt>
      <trkpt lat="47.32588" lon="-2.32138">
        <ele>12.60000038147</ele>
        <time>2020-05-21T08:44:31.000Z</time>
      </trkpt>
      <trkpt lat="47.32586" lon="-2.32147">
        <ele>12.199999809265</ele>
        <time>2020-05-21T08:44:32.000Z</time>
      </trkpt>
      <trkpt lat="47.32583" lon="-2.32158">
        <ele>11.60000038147</ele>
        <time>2020-05-21T08:44:33.000Z</time>
      </trkpt>
      <trkpt lat="47.32581" lon="-2.32169">
        <ele>11.199999809265</ele>
        <time>2020-05-21T08:44:34.000Z</time>
      </trkpt>
      <trkpt lat="47.32578" lon="-2.32179">
        <ele>10.800000190735</ele>
        <time>2020-05-21T08:44:35.000Z</time>
      </trkpt>
      <trkpt lat="47.32559" lon="-2.32245">
        <ele>10.800000190735</ele>
        <time>2020-05-21T08:44:41.000Z</time>
      </trkpt>
      <trkpt lat="47.32542" lon="-2.32286">
        <ele>10.800000190735</ele>
        <time>2020-05-21T08:44:46.000Z</time>
      </trkpt>
      <trkpt lat="47.32537" lon="-2.32307">
        <ele>10.800000190735</ele>
        <time>2020-05-21T08:44:49.000Z</time>
      </trkpt>
      <trkpt lat="47.32539" lon="-2.32312">
        <ele>10.800000190735</ele>
        <time>2020-05-21T08:44:50.000Z</time>
      </trkpt>
      <trkpt lat="47.32549" lon="-2.32321">
        <ele>10.800000190735</ele>
        <time>2020-05-21T08:44:53.000Z</time>
      </trkpt>
      <trkpt lat="47.3256" lon="-2.32317">
        <ele>10.800000190735</ele>
        <time>2020-05-21T08:44:55.000Z</time>
      </trkpt>
      <trkpt lat="47.32566" lon="-2.32315">
        <ele>10.800000190735</ele>
        <time>2020-05-21T08:44:56.000Z</time>
      </trkpt>
      <trkpt lat="47.32572" lon="-2.32314">
        <ele>10.800000190735</ele>
        <time>2020-05-21T08:44:57.000Z</time>
      </trkpt>
      <trkpt lat="47.326" lon="-2.3231">
        <ele>10.800000190735</ele>
        <time>2020-05-21T08:45:01.000Z</time>
      </trkpt>
      <trkpt lat="47.32607" lon="-2.3231">
        <ele>11.199999809265</ele>
        <time>2020-05-21T08:45:02.000Z</time>
      </trkpt>
      <trkpt lat="47.32613" lon="-2.32309">
        <ele>11.60000038147</ele>
        <time>2020-05-21T08:45:03.000Z</time>
      </trkpt>
      <trkpt lat="47.3262" lon="-2.32309">
        <ele>12</ele>
        <time>2020-05-21T08:45:04.000Z</time>
      </trkpt>
      <trkpt lat="47.32627" lon="-2.32309">
        <ele>12.800000190735</ele>
        <time>2020-05-21T08:45:05.000Z</time>
      </trkpt>
      <trkpt lat="47.3264" lon="-2.3231">
        <ele>12.800000190735</ele>
        <time>2020-05-21T08:45:07.000Z</time>
      </trkpt>
      <trkpt lat="47.32681" lon="-2.32318">
        <ele>12.800000190735</ele>
        <time>2020-05-21T08:45:13.000Z</time>
      </trkpt>
      <trkpt lat="47.32704" lon="-2.32326">
        <ele>12.800000190735</ele>
        <time>2020-05-21T08:45:16.000Z</time>
      </trkpt>
      <trkpt lat="47.32719" lon="-2.32333">
        <ele>12.800000190735</ele>
        <time>2020-05-21T08:45:18.000Z</time>
      </trkpt>
      <trkpt lat="47.32741" lon="-2.32347">
        <ele>12.39999961853</ele>
        <time>2020-05-21T08:45:21.000Z</time>
      </trkpt>
      <trkpt lat="47.32749" lon="-2.32352">
        <ele>12</ele>
        <time>2020-05-21T08:45:22.000Z</time>
      </trkpt>
      <trkpt lat="47.32757" lon="-2.32357">
        <ele>11.60000038147</ele>
        <time>2020-05-21T08:45:23.000Z</time>
      </trkpt>
      <trkpt lat="47.32765" lon="-2.32361">
        <ele>11.199999809265</ele>
        <time>2020-05-21T08:45:24.000Z</time>
      </trkpt>
      <trkpt lat="47.32772" lon="-2.32366">
        <ele>10.60000038147</ele>
        <time>2020-05-21T08:45:25.000Z</time>
      </trkpt>
      <trkpt lat="47.3281" lon="-2.32395">
        <ele>10.60000038147</ele>
        <time>2020-05-21T08:45:30.000Z</time>
      </trkpt>
      <trkpt lat="47.32842" lon="-2.32425">
        <ele>10.60000038147</ele>
        <time>2020-05-21T08:45:35.000Z</time>
      </trkpt>
      <trkpt lat="47.32873" lon="-2.32446">
        <ele>10.60000038147</ele>
        <time>2020-05-21T08:45:40.000Z</time>
      </trkpt>
      <trkpt lat="47.32894" lon="-2.32461">
        <ele>10.60000038147</ele>
        <time>2020-05-21T08:45:44.000Z</time>
      </trkpt>
      <trkpt lat="47.32898" lon="-2.32468">
        <ele>10.60000038147</ele>
        <time>2020-05-21T08:45:45.000Z</time>
      </trkpt>
      <trkpt lat="47.32906" lon="-2.32494">
        <ele>10.60000038147</ele>
        <time>2020-05-21T08:45:48.000Z</time>
      </trkpt>
      <trkpt lat="47.32908" lon="-2.32503">
        <ele>10.60000038147</ele>
        <time>2020-05-21T08:45:49.000Z</time>
      </trkpt>
      <trkpt lat="47.32917" lon="-2.32543">
        <ele>10.60000038147</ele>
        <time>2020-05-21T08:45:53.000Z</time>
      </trkpt>
      <trkpt lat="47.32919" lon="-2.32564">
        <ele>10.60000038147</ele>
        <time>2020-05-21T08:45:55.000Z</time>
      </trkpt>
      <trkpt lat="47.32921" lon="-2.32627">
        <ele>10.60000038147</ele>
        <time>2020-05-21T08:46:01.000Z</time>
      </trkpt>
      <trkpt lat="47.32923" lon="-2.32634">
        <ele>10.60000038147</ele>
        <time>2020-05-21T08:46:02.000Z</time>
      </trkpt>
      <trkpt lat="47.32933" lon="-2.32642">
        <ele>10.199999809265</ele>
        <time>2020-05-21T08:46:04.000Z</time>
      </trkpt>
      <trkpt lat="47.32939" lon="-2.32643">
        <ele>9.8000001907349</ele>
        <time>2020-05-21T08:46:05.000Z</time>
      </trkpt>
      <trkpt lat="47.32945" lon="-2.32642">
        <ele>9.3999996185303</ele>
        <time>2020-05-21T08:46:06.000Z</time>
      </trkpt>
      <trkpt lat="47.32952" lon="-2.32641">
        <ele>9</ele>
        <time>2020-05-21T08:46:07.000Z</time>
      </trkpt>
      <trkpt lat="47.32959" lon="-2.32639">
        <ele>8.3999996185303</ele>
        <time>2020-05-21T08:46:08.000Z</time>
      </trkpt>
      <trkpt lat="47.32985" lon="-2.32629">
        <ele>8.3999996185303</ele>
        <time>2020-05-21T08:46:12.000Z</time>
      </trkpt>
      <trkpt lat="47.33006" lon="-2.32629">
        <ele>8</ele>
        <time>2020-05-21T08:46:16.000Z</time>
      </trkpt>
      <trkpt lat="47.33012" lon="-2.32634">
        <ele>7.5999999046326</ele>
        <time>2020-05-21T08:46:17.000Z</time>
      </trkpt>
      <trkpt lat="47.33018" lon="-2.32635">
        <ele>7.1999998092651</ele>
        <time>2020-05-21T08:46:18.000Z</time>
      </trkpt>
      <trkpt lat="47.33024" lon="-2.32637">
        <ele>6.4000000953674</ele>
        <time>2020-05-21T08:46:19.000Z</time>
      </trkpt>
      <trkpt lat="47.3303" lon="-2.32635">
        <ele>6.4000000953674</ele>
        <time>2020-05-21T08:46:20.000Z</time>
      </trkpt>
      <trkpt lat="47.33053" lon="-2.32619">
        <ele>6.4000000953674</ele>
        <time>2020-05-21T08:46:24.000Z</time>
      </trkpt>
      <trkpt lat="47.33087" lon="-2.3259">
        <ele>6.8000001907349</ele>
        <time>2020-05-21T08:46:31.000Z</time>
      </trkpt>
      <trkpt lat="47.33092" lon="-2.32586">
        <ele>7.1999998092651</ele>
        <time>2020-05-21T08:46:32.000Z</time>
      </trkpt>
      <trkpt lat="47.33097" lon="-2.3258">
        <ele>7.5999999046326</ele>
        <time>2020-05-21T08:46:33.000Z</time>
      </trkpt>
      <trkpt lat="47.33103" lon="-2.32576">
        <ele>8</ele>
        <time>2020-05-21T08:46:34.000Z</time>
      </trkpt>
      <trkpt lat="47.33108" lon="-2.3257">
        <ele>8.3999996185303</ele>
        <time>2020-05-21T08:46:35.000Z</time>
      </trkpt>
      <trkpt lat="47.3312" lon="-2.32561">
        <ele>8.3999996185303</ele>
        <time>2020-05-21T08:46:37.000Z</time>
      </trkpt>
      <trkpt lat="47.33159" lon="-2.3253">
        <ele>9.3999996185303</ele>
        <time>2020-05-21T08:46:44.000Z</time>
      </trkpt>
      <trkpt lat="47.33164" lon="-2.32525">
        <ele>9.8000001907349</ele>
        <time>2020-05-21T08:46:45.000Z</time>
      </trkpt>
      <trkpt lat="47.3317" lon="-2.32522">
        <ele>10.199999809265</ele>
        <time>2020-05-21T08:46:46.000Z</time>
      </trkpt>
      <trkpt lat="47.33175" lon="-2.32519">
        <ele>10.60000038147</ele>
        <time>2020-05-21T08:46:47.000Z</time>
      </trkpt>
      <trkpt lat="47.33197" lon="-2.32509">
        <ele>10.60000038147</ele>
        <time>2020-05-21T08:46:51.000Z</time>
      </trkpt>
      <trkpt lat="47.33209" lon="-2.32504">
        <ele>10.60000038147</ele>
        <time>2020-05-21T08:46:53.000Z</time>
      </trkpt>
      <trkpt lat="47.33229" lon="-2.32495">
        <ele>10.60000038147</ele>
        <time>2020-05-21T08:46:56.000Z</time>
      </trkpt>
      <trkpt lat="47.33242" lon="-2.3249">
        <ele>10.60000038147</ele>
        <time>2020-05-21T08:46:58.000Z</time>
      </trkpt>
      <trkpt lat="47.33263" lon="-2.32481">
        <ele>10.60000038147</ele>
        <time>2020-05-21T08:47:01.000Z</time>
      </trkpt>
      <trkpt lat="47.33281" lon="-2.32475">
        <ele>10.60000038147</ele>
        <time>2020-05-21T08:47:04.000Z</time>
      </trkpt>
      <trkpt lat="47.33288" lon="-2.3247">
        <ele>10.60000038147</ele>
        <time>2020-05-21T08:47:05.000Z</time>
      </trkpt>
      <trkpt lat="47.33327" lon="-2.32453">
        <ele>10.60000038147</ele>
        <time>2020-05-21T08:47:11.000Z</time>
      </trkpt>
      <trkpt lat="47.33339" lon="-2.32443">
        <ele>10.60000038147</ele>
        <time>2020-05-21T08:47:13.000Z</time>
      </trkpt>
      <trkpt lat="47.3335" lon="-2.3243">
        <ele>10.60000038147</ele>
        <time>2020-05-21T08:47:15.000Z</time>
      </trkpt>
      <trkpt lat="47.33384" lon="-2.32394">
        <ele>10.60000038147</ele>
        <time>2020-05-21T08:47:21.000Z</time>
      </trkpt>
      <trkpt lat="47.33427" lon="-2.3236">
        <ele>10.60000038147</ele>
        <time>2020-05-21T08:47:28.000Z</time>
      </trkpt>
      <trkpt lat="47.33459" lon="-2.32336">
        <ele>10.60000038147</ele>
        <time>2020-05-21T08:47:34.000Z</time>
      </trkpt>
      <trkpt lat="47.3347" lon="-2.32329">
        <ele>10.199999809265</ele>
        <time>2020-05-21T08:47:36.000Z</time>
      </trkpt>
      <trkpt lat="47.33476" lon="-2.32326">
        <ele>9.8000001907349</ele>
        <time>2020-05-21T08:47:37.000Z</time>
      </trkpt>
      <trkpt lat="47.33482" lon="-2.32323">
        <ele>9.3999996185303</ele>
        <time>2020-05-21T08:47:38.000Z</time>
      </trkpt>
      <trkpt lat="47.33488" lon="-2.32319">
        <ele>9</ele>
        <time>2020-05-21T08:47:39.000Z</time>
      </trkpt>
      <trkpt lat="47.33494" lon="-2.32316">
        <ele>8.3999996185303</ele>
        <time>2020-05-21T08:47:40.000Z</time>
      </trkpt>
      <trkpt lat="47.33507" lon="-2.3231">
        <ele>8.3999996185303</ele>
        <time>2020-05-21T08:47:42.000Z</time>
      </trkpt>
      <trkpt lat="47.33535" lon="-2.32302">
        <ele>8.3999996185303</ele>
        <time>2020-05-21T08:47:46.000Z</time>
      </trkpt>
      <trkpt lat="47.33541" lon="-2.32303">
        <ele>8.3999996185303</ele>
        <time>2020-05-21T08:47:47.000Z</time>
      </trkpt>
      <trkpt lat="47.33548" lon="-2.32303">
        <ele>8.3999996185303</ele>
        <time>2020-05-21T08:47:48.000Z</time>
      </trkpt>
      <trkpt lat="47.33565" lon="-2.32298">
        <ele>8.3999996185303</ele>
        <time>2020-05-21T08:47:51.000Z</time>
      </trkpt>
      <trkpt lat="47.33577" lon="-2.32294">
        <ele>8.8000001907349</ele>
        <time>2020-05-21T08:47:53.000Z</time>
      </trkpt>
      <trkpt lat="47.33584" lon="-2.32292">
        <ele>9.3999996185303</ele>
        <time>2020-05-21T08:47:54.000Z</time>
      </trkpt>
      <trkpt lat="47.3359" lon="-2.3229">
        <ele>9.8000001907349</ele>
        <time>2020-05-21T08:47:55.000Z</time>
      </trkpt>
      <trkpt lat="47.33597" lon="-2.32288">
        <ele>10.199999809265</ele>
        <time>2020-05-21T08:47:56.000Z</time>
      </trkpt>
      <trkpt lat="47.33603" lon="-2.32288">
        <ele>10.60000038147</ele>
        <time>2020-05-21T08:47:57.000Z</time>
      </trkpt>
      <trkpt lat="47.33643" lon="-2.3228">
        <ele>10.60000038147</ele>
        <time>2020-05-21T08:48:03.000Z</time>
      </trkpt>
      <trkpt lat="47.33655" lon="-2.32276">
        <ele>10.60000038147</ele>
        <time>2020-05-21T08:48:05.000Z</time>
      </trkpt>
      <trkpt lat="47.33676" lon="-2.32264">
        <ele>10.60000038147</ele>
        <time>2020-05-21T08:48:08.000Z</time>
      </trkpt>
      <trkpt lat="47.33719" lon="-2.32236">
        <ele>10.60000038147</ele>
        <time>2020-05-21T08:48:14.000Z</time>
      </trkpt>
      <trkpt lat="47.33766" lon="-2.32209">
        <ele>10.60000038147</ele>
        <time>2020-05-21T08:48:21.000Z</time>
      </trkpt>
      <trkpt lat="47.33811" lon="-2.32199">
        <ele>10.60000038147</ele>
        <time>2020-05-21T08:48:27.000Z</time>
      </trkpt>
      <trkpt lat="47.33868" lon="-2.32194">
        <ele>10.60000038147</ele>
        <time>2020-05-21T08:48:34.000Z</time>
      </trkpt>
      <trkpt lat="47.33876" lon="-2.32194">
        <ele>10.60000038147</ele>
        <time>2020-05-21T08:48:35.000Z</time>
      </trkpt>
      <trkpt lat="47.33915" lon="-2.32197">
        <ele>10.60000038147</ele>
        <time>2020-05-21T08:48:40.000Z</time>
      </trkpt>
      <trkpt lat="47.33923" lon="-2.32196">
        <ele>10.60000038147</ele>
        <time>2020-05-21T08:48:41.000Z</time>
      </trkpt>
      <trkpt lat="47.33943" lon="-2.32205">
        <ele>10.199999809265</ele>
        <time>2020-05-21T08:48:44.000Z</time>
      </trkpt>
      <trkpt lat="47.33948" lon="-2.32209">
        <ele>9.8000001907349</ele>
        <time>2020-05-21T08:48:45.000Z</time>
      </trkpt>
      <trkpt lat="47.33955" lon="-2.32216">
        <ele>9.3999996185303</ele>
        <time>2020-05-21T08:48:46.000Z</time>
      </trkpt>
      <trkpt lat="47.33963" lon="-2.32219">
        <ele>9</ele>
        <time>2020-05-21T08:48:47.000Z</time>
      </trkpt>
      <trkpt lat="47.33971" lon="-2.3222">
        <ele>8.6000003814697</ele>
        <time>2020-05-21T08:48:48.000Z</time>
      </trkpt>
      <trkpt lat="47.34023" lon="-2.3222">
        <ele>8.6000003814697</ele>
        <time>2020-05-21T08:48:55.000Z</time>
      </trkpt>
      <trkpt lat="47.34059" lon="-2.32224">
        <ele>8.6000003814697</ele>
        <time>2020-05-21T08:49:00.000Z</time>
      </trkpt>
      <trkpt lat="47.34066" lon="-2.32226">
        <ele>8.6000003814697</ele>
        <time>2020-05-21T08:49:01.000Z</time>
      </trkpt>
      <trkpt lat="47.34072" lon="-2.32232">
        <ele>8.6000003814697</ele>
        <time>2020-05-21T08:49:02.000Z</time>
      </trkpt>
      <trkpt lat="47.34083" lon="-2.32246">
        <ele>8.6000003814697</ele>
        <time>2020-05-21T08:49:04.000Z</time>
      </trkpt>
      <trkpt lat="47.3409" lon="-2.32262">
        <ele>8.6000003814697</ele>
        <time>2020-05-21T08:49:06.000Z</time>
      </trkpt>
      <trkpt lat="47.34098" lon="-2.32288">
        <ele>9</ele>
        <time>2020-05-21T08:49:09.000Z</time>
      </trkpt>
      <trkpt lat="47.341" lon="-2.32296">
        <ele>9.3999996185303</ele>
        <time>2020-05-21T08:49:10.000Z</time>
      </trkpt>
      <trkpt lat="47.34102" lon="-2.32305">
        <ele>9.8000001907349</ele>
        <time>2020-05-21T08:49:11.000Z</time>
      </trkpt>
      <trkpt lat="47.34105" lon="-2.32313">
        <ele>10.199999809265</ele>
        <time>2020-05-21T08:49:12.000Z</time>
      </trkpt>
      <trkpt lat="47.34107" lon="-2.32322">
        <ele>10.60000038147</ele>
        <time>2020-05-21T08:49:13.000Z</time>
      </trkpt>
      <trkpt lat="47.34114" lon="-2.32348">
        <ele>10.60000038147</ele>
        <time>2020-05-21T08:49:16.000Z</time>
      </trkpt>
      <trkpt lat="47.34116" lon="-2.32356">
        <ele>11</ele>
        <time>2020-05-21T08:49:17.000Z</time>
      </trkpt>
      <trkpt lat="47.34119" lon="-2.32364">
        <ele>11.39999961853</ele>
        <time>2020-05-21T08:49:18.000Z</time>
      </trkpt>
      <trkpt lat="47.34121" lon="-2.32371">
        <ele>11.800000190735</ele>
        <time>2020-05-21T08:49:19.000Z</time>
      </trkpt>
      <trkpt lat="47.34123" lon="-2.32378">
        <ele>12.199999809265</ele>
        <time>2020-05-21T08:49:20.000Z</time>
      </trkpt>
      <trkpt lat="47.34125" lon="-2.32386">
        <ele>12.60000038147</ele>
        <time>2020-05-21T08:49:21.000Z</time>
      </trkpt>
      <trkpt lat="47.34127" lon="-2.32394">
        <ele>12.60000038147</ele>
        <time>2020-05-21T08:49:22.000Z</time>
      </trkpt>
      <trkpt lat="47.34141" lon="-2.32443">
        <ele>12.60000038147</ele>
        <time>2020-05-21T08:49:28.000Z</time>
      </trkpt>
      <trkpt lat="47.34153" lon="-2.32494">
        <ele>12.60000038147</ele>
        <time>2020-05-21T08:49:34.000Z</time>
      </trkpt>
      <trkpt lat="47.34157" lon="-2.32529">
        <ele>12.60000038147</ele>
        <time>2020-05-21T08:49:39.000Z</time>
      </trkpt>
      <trkpt lat="47.34159" lon="-2.32568">
        <ele>12.60000038147</ele>
        <time>2020-05-21T08:49:46.000Z</time>
      </trkpt>
      <trkpt lat="47.34161" lon="-2.32575">
        <ele>12.60000038147</ele>
        <time>2020-05-21T08:49:48.000Z</time>
      </trkpt>
      <trkpt lat="47.34164" lon="-2.32577">
        <ele>12.60000038147</ele>
        <time>2020-05-21T08:49:49.000Z</time>
      </trkpt>
      <trkpt lat="47.34179" lon="-2.32576">
        <ele>12.60000038147</ele>
        <time>2020-05-21T08:49:54.000Z</time>
      </trkpt>
      <trkpt lat="47.34207" lon="-2.3257">
        <ele>12.60000038147</ele>
        <time>2020-05-21T08:50:01.000Z</time>
      </trkpt>
      <trkpt lat="47.34233" lon="-2.32566">
        <ele>12.60000038147</ele>
        <time>2020-05-21T08:50:07.000Z</time>
      </trkpt>
      <trkpt lat="47.34241" lon="-2.32563">
        <ele>12.60000038147</ele>
        <time>2020-05-21T08:50:09.000Z</time>
      </trkpt>
      <trkpt lat="47.3427" lon="-2.32557">
        <ele>12.60000038147</ele>
        <time>2020-05-21T08:50:16.000Z</time>
      </trkpt>
      <trkpt lat="47.34279" lon="-2.32555">
        <ele>12.60000038147</ele>
        <time>2020-05-21T08:50:18.000Z</time>
      </trkpt>
      <trkpt lat="47.34287" lon="-2.32552">
        <ele>12.60000038147</ele>
        <time>2020-05-21T08:50:20.000Z</time>
      </trkpt>
      <trkpt lat="47.34292" lon="-2.32551">
        <ele>12.60000038147</ele>
        <time>2020-05-21T08:50:21.000Z</time>
      </trkpt>
      <trkpt lat="47.34305" lon="-2.32546">
        <ele>12.60000038147</ele>
        <time>2020-05-21T08:50:24.000Z</time>
      </trkpt>
      <trkpt lat="47.34319" lon="-2.32541">
        <ele>12.60000038147</ele>
        <time>2020-05-21T08:50:27.000Z</time>
      </trkpt>
      <trkpt lat="47.34328" lon="-2.32536">
        <ele>12.60000038147</ele>
        <time>2020-05-21T08:50:29.000Z</time>
      </trkpt>
      <trkpt lat="47.34341" lon="-2.32526">
        <ele>12.60000038147</ele>
        <time>2020-05-21T08:50:32.000Z</time>
      </trkpt>
      <trkpt lat="47.34344" lon="-2.32521">
        <ele>12.60000038147</ele>
        <time>2020-05-21T08:50:33.000Z</time>
      </trkpt>
      <trkpt lat="47.3436" lon="-2.32497">
        <ele>12.60000038147</ele>
        <time>2020-05-21T08:50:38.000Z</time>
      </trkpt>
      <trkpt lat="47.34378" lon="-2.32458">
        <ele>12.60000038147</ele>
        <time>2020-05-21T08:50:45.000Z</time>
      </trkpt>
      <trkpt lat="47.34383" lon="-2.32447">
        <ele>12.199999809265</ele>
        <time>2020-05-21T08:50:47.000Z</time>
      </trkpt>
      <trkpt lat="47.34386" lon="-2.32442">
        <ele>11.800000190735</ele>
        <time>2020-05-21T08:50:48.000Z</time>
      </trkpt>
      <trkpt lat="47.34388" lon="-2.32438">
        <ele>11.39999961853</ele>
        <time>2020-05-21T08:50:49.000Z</time>
      </trkpt>
      <trkpt lat="47.3439" lon="-2.32433">
        <ele>11</ele>
        <time>2020-05-21T08:50:50.000Z</time>
      </trkpt>
      <trkpt lat="47.34393" lon="-2.32428">
        <ele>10.60000038147</ele>
        <time>2020-05-21T08:50:51.000Z</time>
      </trkpt>
      <trkpt lat="47.34399" lon="-2.32418">
        <ele>10.60000038147</ele>
        <time>2020-05-21T08:50:53.000Z</time>
      </trkpt>
      <trkpt lat="47.34426" lon="-2.32382">
        <ele>10.60000038147</ele>
        <time>2020-05-21T08:51:01.000Z</time>
      </trkpt>
      <trkpt lat="47.34459" lon="-2.32349">
        <ele>10.60000038147</ele>
        <time>2020-05-21T08:51:09.000Z</time>
      </trkpt>
      <trkpt lat="47.34493" lon="-2.32314">
        <ele>10.60000038147</ele>
        <time>2020-05-21T08:51:17.000Z</time>
      </trkpt>
      <trkpt lat="47.34513" lon="-2.32294">
        <ele>10.60000038147</ele>
        <time>2020-05-21T08:51:22.000Z</time>
      </trkpt>
      <trkpt lat="47.34541" lon="-2.3227">
        <ele>10.60000038147</ele>
        <time>2020-05-21T08:51:28.000Z</time>
      </trkpt>
      <trkpt lat="47.34569" lon="-2.32246">
        <ele>10.60000038147</ele>
        <time>2020-05-21T08:51:34.000Z</time>
      </trkpt>
      <trkpt lat="47.34574" lon="-2.32242">
        <ele>10.60000038147</ele>
        <time>2020-05-21T08:51:35.000Z</time>
      </trkpt>
      <trkpt lat="47.34594" lon="-2.32225">
        <ele>10.60000038147</ele>
        <time>2020-05-21T08:51:39.000Z</time>
      </trkpt>
      <trkpt lat="47.34604" lon="-2.32216">
        <ele>10.199999809265</ele>
        <time>2020-05-21T08:51:41.000Z</time>
      </trkpt>
      <trkpt lat="47.34608" lon="-2.32211">
        <ele>9.8000001907349</ele>
        <time>2020-05-21T08:51:42.000Z</time>
      </trkpt>
      <trkpt lat="47.34613" lon="-2.32207">
        <ele>9.3999996185303</ele>
        <time>2020-05-21T08:51:43.000Z</time>
      </trkpt>
      <trkpt lat="47.34618" lon="-2.32202">
        <ele>9</ele>
        <time>2020-05-21T08:51:44.000Z</time>
      </trkpt>
      <trkpt lat="47.34623" lon="-2.32197">
        <ele>8.6000003814697</ele>
        <time>2020-05-21T08:51:45.000Z</time>
      </trkpt>
      <trkpt lat="47.34629" lon="-2.32191">
        <ele>8.6000003814697</ele>
        <time>2020-05-21T08:51:46.000Z</time>
      </trkpt>
      <trkpt lat="47.34665" lon="-2.32161">
        <ele>8.6000003814697</ele>
        <time>2020-05-21T08:51:52.000Z</time>
      </trkpt>
      <trkpt lat="47.34692" lon="-2.32139">
        <ele>8.6000003814697</ele>
        <time>2020-05-21T08:51:57.000Z</time>
      </trkpt>
      <trkpt lat="47.34697" lon="-2.32135">
        <ele>8.1999998092651</ele>
        <time>2020-05-21T08:51:58.000Z</time>
      </trkpt>
      <trkpt lat="47.34702" lon="-2.32132">
        <ele>7.8000001907349</ele>
        <time>2020-05-21T08:51:59.000Z</time>
      </trkpt>
      <trkpt lat="47.34706" lon="-2.32128">
        <ele>7.4000000953674</ele>
        <time>2020-05-21T08:52:00.000Z</time>
      </trkpt>
      <trkpt lat="47.3471" lon="-2.32124">
        <ele>6.8000001907349</ele>
        <time>2020-05-21T08:52:01.000Z</time>
      </trkpt>
      <trkpt lat="47.34715" lon="-2.3212">
        <ele>6.4000000953674</ele>
        <time>2020-05-21T08:52:02.000Z</time>
      </trkpt>
      <trkpt lat="47.34719" lon="-2.32117">
        <ele>6.4000000953674</ele>
        <time>2020-05-21T08:52:03.000Z</time>
      </trkpt>
      <trkpt lat="47.34732" lon="-2.32108">
        <ele>6.4000000953674</ele>
        <time>2020-05-21T08:52:07.000Z</time>
      </trkpt>
      <trkpt lat="47.34739" lon="-2.32104">
        <ele>6.4000000953674</ele>
        <time>2020-05-21T08:52:12.000Z</time>
      </trkpt>
      <trkpt lat="47.3474" lon="-2.32103">
        <ele>6</ele>
        <time>2020-05-21T08:52:13.000Z</time>
      </trkpt>
      <trkpt lat="47.34741" lon="-2.32102">
        <ele>5.5999999046326</ele>
        <time>2020-05-21T08:52:14.000Z</time>
      </trkpt>
      <trkpt lat="47.34742" lon="-2.32102">
        <ele>5.1999998092651</ele>
        <time>2020-05-21T08:52:15.000Z</time>
      </trkpt>
      <trkpt lat="47.34743" lon="-2.32102">
        <ele>4.8000001907349</ele>
        <time>2020-05-21T08:52:16.000Z</time>
      </trkpt>
      <trkpt lat="47.34744" lon="-2.32103">
        <ele>4.4000000953674</ele>
        <time>2020-05-21T08:52:17.000Z</time>
      </trkpt>
      <trkpt lat="47.34745" lon="-2.32104">
        <ele>4.4000000953674</ele>
        <time>2020-05-21T08:53:10.000Z</time>
      </trkpt>
      <trkpt lat="47.34744" lon="-2.32107">
        <ele>4.4000000953674</ele>
        <time>2020-05-21T08:53:13.000Z</time>
      </trkpt>
      <trkpt lat="47.34743" lon="-2.3211">
        <ele>4.4000000953674</ele>
        <time>2020-05-21T08:53:58.000Z</time>
      </trkpt>
      <trkpt lat="47.34743" lon="-2.32118">
        <ele>4.4000000953674</ele>
        <time>2020-05-21T08:54:01.000Z</time>
      </trkpt>
      <trkpt lat="47.34746" lon="-2.32128">
        <ele>4.4000000953674</ele>
        <time>2020-05-21T08:54:04.000Z</time>
      </trkpt>
      <trkpt lat="47.34749" lon="-2.32135">
        <ele>4.4000000953674</ele>
        <time>2020-05-21T08:54:06.000Z</time>
      </trkpt>
      <trkpt lat="47.34759" lon="-2.32156">
        <ele>4.4000000953674</ele>
        <time>2020-05-21T08:54:12.000Z</time>
      </trkpt>
      <trkpt lat="47.34768" lon="-2.32173">
        <ele>4.4000000953674</ele>
        <time>2020-05-21T08:54:17.000Z</time>
      </trkpt>
      <trkpt lat="47.34773" lon="-2.32182">
        <ele>4.4000000953674</ele>
        <time>2020-05-21T08:54:23.000Z</time>
      </trkpt>
      <trkpt lat="47.34774" lon="-2.32182">
        <ele>4.4000000953674</ele>
        <time>2020-05-21T08:55:10.000Z</time>
      </trkpt>
      <trkpt lat="47.34776" lon="-2.32187">
        <ele>4.4000000953674</ele>
        <time>2020-05-21T08:55:12.000Z</time>
      </trkpt>
      <trkpt lat="47.34788" lon="-2.32205">
        <ele>4.4000000953674</ele>
        <time>2020-05-21T08:55:18.000Z</time>
      </trkpt>
      <trkpt lat="47.34804" lon="-2.3223">
        <ele>4.4000000953674</ele>
        <time>2020-05-21T08:55:25.000Z</time>
      </trkpt>
      <trkpt lat="47.34811" lon="-2.32243">
        <ele>4.4000000953674</ele>
        <time>2020-05-21T08:55:30.000Z</time>
      </trkpt>
      <trkpt lat="47.34815" lon="-2.32254">
        <ele>4.4000000953674</ele>
        <time>2020-05-21T08:55:36.000Z</time>
      </trkpt>
      <trkpt lat="47.34817" lon="-2.32259">
        <ele>4.4000000953674</ele>
        <time>2020-05-21T08:55:40.000Z</time>
      </trkpt>
      <trkpt lat="47.34831" lon="-2.32274">
        <ele>4.4000000953674</ele>
        <time>2020-05-21T08:56:03.000Z</time>
      </trkpt>
      <trkpt lat="47.34833" lon="-2.32276">
        <ele>4.4000000953674</ele>
        <time>2020-05-21T08:56:04.000Z</time>
      </trkpt>
      <trkpt lat="47.34848" lon="-2.32293">
        <ele>4.4000000953674</ele>
        <time>2020-05-21T08:56:09.000Z</time>
      </trkpt>
      <trkpt lat="47.34852" lon="-2.32297">
        <ele>4.4000000953674</ele>
        <time>2020-05-21T08:56:10.000Z</time>
      </trkpt>
      <trkpt lat="47.34868" lon="-2.32319">
        <ele>4.4000000953674</ele>
        <time>2020-05-21T08:56:15.000Z</time>
      </trkpt>
      <trkpt lat="47.34869" lon="-2.32324">
        <ele>4.4000000953674</ele>
        <time>2020-05-21T08:56:16.000Z</time>
      </trkpt>
      <trkpt lat="47.34868" lon="-2.32336">
        <ele>4.4000000953674</ele>
        <time>2020-05-21T08:56:18.000Z</time>
      </trkpt>
      <trkpt lat="47.34857" lon="-2.32356">
        <ele>4.4000000953674</ele>
        <time>2020-05-21T08:56:22.000Z</time>
      </trkpt>
      <trkpt lat="47.34854" lon="-2.32361">
        <ele>4.4000000953674</ele>
        <time>2020-05-21T08:56:23.000Z</time>
      </trkpt>
      <trkpt lat="47.34843" lon="-2.32377">
        <ele>4.4000000953674</ele>
        <time>2020-05-21T08:56:26.000Z</time>
      </trkpt>
      <trkpt lat="47.34836" lon="-2.32387">
        <ele>4.4000000953674</ele>
        <time>2020-05-21T08:56:28.000Z</time>
      </trkpt>
      <trkpt lat="47.34826" lon="-2.32402">
        <ele>4.4000000953674</ele>
        <time>2020-05-21T08:56:31.000Z</time>
      </trkpt>
      <trkpt lat="47.3482" lon="-2.32413">
        <ele>4.4000000953674</ele>
        <time>2020-05-21T08:56:33.000Z</time>
      </trkpt>
      <trkpt lat="47.34805" lon="-2.32438">
        <ele>4.4000000953674</ele>
        <time>2020-05-21T08:56:38.000Z</time>
      </trkpt>
      <trkpt lat="47.34784" lon="-2.32464">
        <ele>4.4000000953674</ele>
        <time>2020-05-21T08:56:44.000Z</time>
      </trkpt>
      <trkpt lat="47.34772" lon="-2.32473">
        <ele>4.8000001907349</ele>
        <time>2020-05-21T08:56:47.000Z</time>
      </trkpt>
      <trkpt lat="47.34768" lon="-2.32476">
        <ele>5.1999998092651</ele>
        <time>2020-05-21T08:56:48.000Z</time>
      </trkpt>
      <trkpt lat="47.34765" lon="-2.3248">
        <ele>5.5999999046326</ele>
        <time>2020-05-21T08:56:49.000Z</time>
      </trkpt>
      <trkpt lat="47.34761" lon="-2.32484">
        <ele>6</ele>
        <time>2020-05-21T08:56:50.000Z</time>
      </trkpt>
      <trkpt lat="47.34758" lon="-2.32487">
        <ele>6.4000000953674</ele>
        <time>2020-05-21T08:56:51.000Z</time>
      </trkpt>
      <trkpt lat="47.34744" lon="-2.32496">
        <ele>6.4000000953674</ele>
        <time>2020-05-21T08:56:55.000Z</time>
      </trkpt>
      <trkpt lat="47.34728" lon="-2.32503">
        <ele>6.4000000953674</ele>
        <time>2020-05-21T08:57:00.000Z</time>
      </trkpt>
      <trkpt lat="47.34711" lon="-2.32511">
        <ele>6.4000000953674</ele>
        <time>2020-05-21T08:57:06.000Z</time>
      </trkpt>
      <trkpt lat="47.34687" lon="-2.32516">
        <ele>6.4000000953674</ele>
        <time>2020-05-21T08:57:13.000Z</time>
      </trkpt>
      <trkpt lat="47.34676" lon="-2.32517">
        <ele>6.4000000953674</ele>
        <time>2020-05-21T08:57:16.000Z</time>
      </trkpt>
      <trkpt lat="47.3467" lon="-2.32523">
        <ele>6.4000000953674</ele>
        <time>2020-05-21T08:57:18.000Z</time>
      </trkpt>
      <trkpt lat="47.34667" lon="-2.3253">
        <ele>6.4000000953674</ele>
        <time>2020-05-21T08:57:20.000Z</time>
      </trkpt>
      <trkpt lat="47.34664" lon="-2.32539">
        <ele>6.4000000953674</ele>
        <time>2020-05-21T08:57:23.000Z</time>
      </trkpt>
      <trkpt lat="47.3466" lon="-2.32555">
        <ele>6.4000000953674</ele>
        <time>2020-05-21T08:57:28.000Z</time>
      </trkpt>
      <trkpt lat="47.34642" lon="-2.32585">
        <ele>6.4000000953674</ele>
        <time>2020-05-21T08:57:36.000Z</time>
      </trkpt>
      <trkpt lat="47.34623" lon="-2.32612">
        <ele>6.4000000953674</ele>
        <time>2020-05-21T08:57:43.000Z</time>
      </trkpt>
      <trkpt lat="47.34602" lon="-2.32636">
        <ele>6.4000000953674</ele>
        <time>2020-05-21T08:57:49.000Z</time>
      </trkpt>
      <trkpt lat="47.34594" lon="-2.32648">
        <ele>7.1999998092651</ele>
        <time>2020-05-21T08:57:52.000Z</time>
      </trkpt>
      <trkpt lat="47.34592" lon="-2.32651">
        <ele>7.5999999046326</ele>
        <time>2020-05-21T08:57:53.000Z</time>
      </trkpt>
      <trkpt lat="47.34589" lon="-2.32654">
        <ele>8</ele>
        <time>2020-05-21T08:57:54.000Z</time>
      </trkpt>
      <trkpt lat="47.34587" lon="-2.32658">
        <ele>8.6000003814697</ele>
        <time>2020-05-21T08:57:55.000Z</time>
      </trkpt>
      <trkpt lat="47.3456" lon="-2.32684">
        <ele>8.6000003814697</ele>
        <time>2020-05-21T08:58:03.000Z</time>
      </trkpt>
      <trkpt lat="47.34557" lon="-2.32688">
        <ele>9</ele>
        <time>2020-05-21T08:58:04.000Z</time>
      </trkpt>
      <trkpt lat="47.34553" lon="-2.3269">
        <ele>9.3999996185303</ele>
        <time>2020-05-21T08:58:05.000Z</time>
      </trkpt>
      <trkpt lat="47.3455" lon="-2.32693">
        <ele>9.8000001907349</ele>
        <time>2020-05-21T08:58:06.000Z</time>
      </trkpt>
      <trkpt lat="47.34545" lon="-2.32696">
        <ele>10.199999809265</ele>
        <time>2020-05-21T08:58:07.000Z</time>
      </trkpt>
      <trkpt lat="47.34542" lon="-2.32699">
        <ele>10.60000038147</ele>
        <time>2020-05-21T08:58:08.000Z</time>
      </trkpt>
      <trkpt lat="47.34534" lon="-2.32704">
        <ele>10.60000038147</ele>
        <time>2020-05-21T08:58:10.000Z</time>
      </trkpt>
      <trkpt lat="47.34504" lon="-2.32725">
        <ele>10.60000038147</ele>
        <time>2020-05-21T08:58:17.000Z</time>
      </trkpt>
      <trkpt lat="47.3447" lon="-2.32745">
        <ele>10.60000038147</ele>
        <time>2020-05-21T08:58:24.000Z</time>
      </trkpt>
      <trkpt lat="47.34466" lon="-2.32749">
        <ele>10.60000038147</ele>
        <time>2020-05-21T08:58:25.000Z</time>
      </trkpt>
      <trkpt lat="47.34454" lon="-2.32767">
        <ele>10.60000038147</ele>
        <time>2020-05-21T08:58:28.000Z</time>
      </trkpt>
      <trkpt lat="47.34452" lon="-2.32774">
        <ele>10.60000038147</ele>
        <time>2020-05-21T08:58:29.000Z</time>
      </trkpt>
      <trkpt lat="47.34453" lon="-2.32792">
        <ele>10.60000038147</ele>
        <time>2020-05-21T08:58:31.000Z</time>
      </trkpt>
      <trkpt lat="47.34456" lon="-2.32824">
        <ele>10.60000038147</ele>
        <time>2020-05-21T08:58:35.000Z</time>
      </trkpt>
      <trkpt lat="47.3445" lon="-2.32838">
        <ele>10.60000038147</ele>
        <time>2020-05-21T08:58:38.000Z</time>
      </trkpt>
      <trkpt lat="47.34443" lon="-2.32844">
        <ele>9.8000001907349</ele>
        <time>2020-05-21T08:58:40.000Z</time>
      </trkpt>
      <trkpt lat="47.34437" lon="-2.32847">
        <ele>9.3999996185303</ele>
        <time>2020-05-21T08:58:41.000Z</time>
      </trkpt>
      <trkpt lat="47.34432" lon="-2.3285">
        <ele>9</ele>
        <time>2020-05-21T08:58:42.000Z</time>
      </trkpt>
      <trkpt lat="47.34428" lon="-2.32853">
        <ele>8.6000003814697</ele>
        <time>2020-05-21T08:58:43.000Z</time>
      </trkpt>
      <trkpt lat="47.34405" lon="-2.32867">
        <ele>8.6000003814697</ele>
        <time>2020-05-21T08:58:47.000Z</time>
      </trkpt>
      <trkpt lat="47.34398" lon="-2.32871">
        <ele>8.6000003814697</ele>
        <time>2020-05-21T08:58:48.000Z</time>
      </trkpt>
      <trkpt lat="47.34359" lon="-2.32904">
        <ele>8.6000003814697</ele>
        <time>2020-05-21T08:58:55.000Z</time>
      </trkpt>
      <trkpt lat="47.3435" lon="-2.32925">
        <ele>8.6000003814697</ele>
        <time>2020-05-21T08:58:58.000Z</time>
      </trkpt>
      <trkpt lat="47.34353" lon="-2.32953">
        <ele>8.6000003814697</ele>
        <time>2020-05-21T08:59:01.000Z</time>
      </trkpt>
      <trkpt lat="47.34357" lon="-2.3297">
        <ele>8.6000003814697</ele>
        <time>2020-05-21T08:59:03.000Z</time>
      </trkpt>
      <trkpt lat="47.34362" lon="-2.32995">
        <ele>8.6000003814697</ele>
        <time>2020-05-21T08:59:06.000Z</time>
      </trkpt>
      <trkpt lat="47.34364" lon="-2.33002">
        <ele>8.6000003814697</ele>
        <time>2020-05-21T08:59:07.000Z</time>
      </trkpt>
      <trkpt lat="47.3437" lon="-2.33022">
        <ele>8.6000003814697</ele>
        <time>2020-05-21T08:59:11.000Z</time>
      </trkpt>
      <trkpt lat="47.34375" lon="-2.33047">
        <ele>8.6000003814697</ele>
        <time>2020-05-21T08:59:17.000Z</time>
      </trkpt>
      <trkpt lat="47.34382" lon="-2.33086">
        <ele>8.6000003814697</ele>
        <time>2020-05-21T08:59:26.000Z</time>
      </trkpt>
      <trkpt lat="47.34389" lon="-2.33121">
        <ele>8.6000003814697</ele>
        <time>2020-05-21T08:59:34.000Z</time>
      </trkpt>
      <trkpt lat="47.34395" lon="-2.33148">
        <ele>8.6000003814697</ele>
        <time>2020-05-21T08:59:40.000Z</time>
      </trkpt>
      <trkpt lat="47.34404" lon="-2.33182">
        <ele>8.6000003814697</ele>
        <time>2020-05-21T08:59:48.000Z</time>
      </trkpt>
      <trkpt lat="47.34408" lon="-2.33206">
        <ele>8.6000003814697</ele>
        <time>2020-05-21T08:59:53.000Z</time>
      </trkpt>
      <trkpt lat="47.34412" lon="-2.33239">
        <ele>8.6000003814697</ele>
        <time>2020-05-21T09:00:00.000Z</time>
      </trkpt>
      <trkpt lat="47.34419" lon="-2.33273">
        <ele>8.6000003814697</ele>
        <time>2020-05-21T09:00:06.000Z</time>
      </trkpt>
      <trkpt lat="47.3443" lon="-2.33289">
        <ele>8.6000003814697</ele>
        <time>2020-05-21T09:00:10.000Z</time>
      </trkpt>
      <trkpt lat="47.34444" lon="-2.33302">
        <ele>8.6000003814697</ele>
        <time>2020-05-21T09:00:16.000Z</time>
      </trkpt>
      <trkpt lat="47.34448" lon="-2.33306">
        <ele>8.6000003814697</ele>
        <time>2020-05-21T09:00:23.000Z</time>
      </trkpt>
      <trkpt lat="47.34452" lon="-2.33313">
        <ele>8.6000003814697</ele>
        <time>2020-05-21T09:00:26.000Z</time>
      </trkpt>
      <trkpt lat="47.34457" lon="-2.33326">
        <ele>8.6000003814697</ele>
        <time>2020-05-21T09:00:31.000Z</time>
      </trkpt>
      <trkpt lat="47.34458" lon="-2.33329">
        <ele>8.6000003814697</ele>
        <time>2020-05-21T09:00:32.000Z</time>
      </trkpt>
      <trkpt lat="47.34463" lon="-2.33348">
        <ele>8.6000003814697</ele>
        <time>2020-05-21T09:00:38.000Z</time>
      </trkpt>
      <trkpt lat="47.34463" lon="-2.33362">
        <ele>9</ele>
        <time>2020-05-21T09:00:42.000Z</time>
      </trkpt>
      <trkpt lat="47.34463" lon="-2.33366">
        <ele>9.8000001907349</ele>
        <time>2020-05-21T09:00:43.000Z</time>
      </trkpt>
      <trkpt lat="47.34464" lon="-2.3337">
        <ele>10.199999809265</ele>
        <time>2020-05-21T09:00:44.000Z</time>
      </trkpt>
      <trkpt lat="47.34465" lon="-2.33375">
        <ele>10.60000038147</ele>
        <time>2020-05-21T09:00:45.000Z</time>
      </trkpt>
      <trkpt lat="47.34467" lon="-2.33397">
        <ele>10.60000038147</ele>
        <time>2020-05-21T09:00:50.000Z</time>
      </trkpt>
      <trkpt lat="47.3447" lon="-2.33414">
        <ele>10.60000038147</ele>
        <time>2020-05-21T09:00:55.000Z</time>
      </trkpt>
      <trkpt lat="47.34473" lon="-2.33437">
        <ele>10.60000038147</ele>
        <time>2020-05-21T09:01:01.000Z</time>
      </trkpt>
      <trkpt lat="47.34476" lon="-2.33465">
        <ele>10.60000038147</ele>
        <time>2020-05-21T09:01:07.000Z</time>
      </trkpt>
      <trkpt lat="47.34479" lon="-2.33496">
        <ele>10.60000038147</ele>
        <time>2020-05-21T09:01:14.000Z</time>
      </trkpt>
      <trkpt lat="47.34482" lon="-2.33524">
        <ele>10.60000038147</ele>
        <time>2020-05-21T09:01:20.000Z</time>
      </trkpt>
      <trkpt lat="47.34487" lon="-2.33558">
        <ele>10.60000038147</ele>
        <time>2020-05-21T09:01:27.000Z</time>
      </trkpt>
      <trkpt lat="47.34489" lon="-2.33571">
        <ele>10.60000038147</ele>
        <time>2020-05-21T09:01:32.000Z</time>
      </trkpt>
      <trkpt lat="47.34491" lon="-2.33575">
        <ele>10.60000038147</ele>
        <time>2020-05-21T09:01:39.000Z</time>
      </trkpt>
      <trkpt lat="47.34495" lon="-2.33584">
        <ele>11</ele>
        <time>2020-05-21T09:01:42.000Z</time>
      </trkpt>
      <trkpt lat="47.34495" lon="-2.33589">
        <ele>11.39999961853</ele>
        <time>2020-05-21T09:01:43.000Z</time>
      </trkpt>
      <trkpt lat="47.34496" lon="-2.33593">
        <ele>11.800000190735</ele>
        <time>2020-05-21T09:01:44.000Z</time>
      </trkpt>
      <trkpt lat="47.34498" lon="-2.33598">
        <ele>12.199999809265</ele>
        <time>2020-05-21T09:01:45.000Z</time>
      </trkpt>
      <trkpt lat="47.34499" lon="-2.33603">
        <ele>12.60000038147</ele>
        <time>2020-05-21T09:01:46.000Z</time>
      </trkpt>
      <trkpt lat="47.34502" lon="-2.33614">
        <ele>12.60000038147</ele>
        <time>2020-05-21T09:01:48.000Z</time>
      </trkpt>
      <trkpt lat="47.3451" lon="-2.33646">
        <ele>12.60000038147</ele>
        <time>2020-05-21T09:01:54.000Z</time>
      </trkpt>
      <trkpt lat="47.34517" lon="-2.33678">
        <ele>12.60000038147</ele>
        <time>2020-05-21T09:02:01.000Z</time>
      </trkpt>
      <trkpt lat="47.3452" lon="-2.33696">
        <ele>12.60000038147</ele>
        <time>2020-05-21T09:02:06.000Z</time>
      </trkpt>
      <trkpt lat="47.34526" lon="-2.33722">
        <ele>12.60000038147</ele>
        <time>2020-05-21T09:02:12.000Z</time>
      </trkpt>
      <trkpt lat="47.34531" lon="-2.33756">
        <ele>12.60000038147</ele>
        <time>2020-05-21T09:02:19.000Z</time>
      </trkpt>
      <trkpt lat="47.34538" lon="-2.33785">
        <ele>13</ele>
        <time>2020-05-21T09:02:25.000Z</time>
      </trkpt>
      <trkpt lat="47.34539" lon="-2.33791">
        <ele>13.39999961853</ele>
        <time>2020-05-21T09:02:26.000Z</time>
      </trkpt>
      <trkpt lat="47.34541" lon="-2.33796">
        <ele>13.800000190735</ele>
        <time>2020-05-21T09:02:27.000Z</time>
      </trkpt>
      <trkpt lat="47.34542" lon="-2.33802">
        <ele>14.199999809265</ele>
        <time>2020-05-21T09:02:28.000Z</time>
      </trkpt>
      <trkpt lat="47.34542" lon="-2.33809">
        <ele>14.60000038147</ele>
        <time>2020-05-21T09:02:29.000Z</time>
      </trkpt>
      <trkpt lat="47.34544" lon="-2.33821">
        <ele>14.60000038147</ele>
        <time>2020-05-21T09:02:31.000Z</time>
      </trkpt>
      <trkpt lat="47.34547" lon="-2.33841">
        <ele>14.60000038147</ele>
        <time>2020-05-21T09:02:34.000Z</time>
      </trkpt>
      <trkpt lat="47.34552" lon="-2.33863">
        <ele>14.60000038147</ele>
        <time>2020-05-21T09:02:37.000Z</time>
      </trkpt>
      <trkpt lat="47.34557" lon="-2.33881">
        <ele>14.60000038147</ele>
        <time>2020-05-21T09:02:40.000Z</time>
      </trkpt>
      <trkpt lat="47.34562" lon="-2.33894">
        <ele>14.60000038147</ele>
        <time>2020-05-21T09:02:42.000Z</time>
      </trkpt>
      <trkpt lat="47.34577" lon="-2.33941">
        <ele>14.60000038147</ele>
        <time>2020-05-21T09:02:48.000Z</time>
      </trkpt>
      <trkpt lat="47.34583" lon="-2.33964">
        <ele>14.199999809265</ele>
        <time>2020-05-21T09:02:51.000Z</time>
      </trkpt>
      <trkpt lat="47.34585" lon="-2.33972">
        <ele>13.800000190735</ele>
        <time>2020-05-21T09:02:52.000Z</time>
      </trkpt>
      <trkpt lat="47.34588" lon="-2.3398">
        <ele>13.39999961853</ele>
        <time>2020-05-21T09:02:53.000Z</time>
      </trkpt>
      <trkpt lat="47.3459" lon="-2.33988">
        <ele>13</ele>
        <time>2020-05-21T09:02:54.000Z</time>
      </trkpt>
      <trkpt lat="47.34593" lon="-2.33996">
        <ele>12.60000038147</ele>
        <time>2020-05-21T09:02:55.000Z</time>
      </trkpt>
      <trkpt lat="47.34603" lon="-2.34029">
        <ele>12.60000038147</ele>
        <time>2020-05-21T09:02:59.000Z</time>
      </trkpt>
      <trkpt lat="47.34613" lon="-2.34069">
        <ele>12.60000038147</ele>
        <time>2020-05-21T09:03:04.000Z</time>
      </trkpt>
      <trkpt lat="47.34616" lon="-2.34076">
        <ele>12.60000038147</ele>
        <time>2020-05-21T09:03:05.000Z</time>
      </trkpt>
      <trkpt lat="47.34629" lon="-2.34117">
        <ele>13</ele>
        <time>2020-05-21T09:03:11.000Z</time>
      </trkpt>
      <trkpt lat="47.34631" lon="-2.34123">
        <ele>13.39999961853</ele>
        <time>2020-05-21T09:03:12.000Z</time>
      </trkpt>
      <trkpt lat="47.34635" lon="-2.34128">
        <ele>13.800000190735</ele>
        <time>2020-05-21T09:03:13.000Z</time>
      </trkpt>
      <trkpt lat="47.34638" lon="-2.34134">
        <ele>14.199999809265</ele>
        <time>2020-05-21T09:03:14.000Z</time>
      </trkpt>
      <trkpt lat="47.34642" lon="-2.34139">
        <ele>14.60000038147</ele>
        <time>2020-05-21T09:03:15.000Z</time>
      </trkpt>
      <trkpt lat="47.34646" lon="-2.34143">
        <ele>14.60000038147</ele>
        <time>2020-05-21T09:03:16.000Z</time>
      </trkpt>
      <trkpt lat="47.34651" lon="-2.34147">
        <ele>14.60000038147</ele>
        <time>2020-05-21T09:03:17.000Z</time>
      </trkpt>
      <trkpt lat="47.34665" lon="-2.34152">
        <ele>14.60000038147</ele>
        <time>2020-05-21T09:03:20.000Z</time>
      </trkpt>
      <trkpt lat="47.34677" lon="-2.34167">
        <ele>14.60000038147</ele>
        <time>2020-05-21T09:03:24.000Z</time>
      </trkpt>
      <trkpt lat="47.34672" lon="-2.34186">
        <ele>14.60000038147</ele>
        <time>2020-05-21T09:03:27.000Z</time>
      </trkpt>
      <trkpt lat="47.34667" lon="-2.34199">
        <ele>14.60000038147</ele>
        <time>2020-05-21T09:03:29.000Z</time>
      </trkpt>
      <trkpt lat="47.34666" lon="-2.34211">
        <ele>14.60000038147</ele>
        <time>2020-05-21T09:03:31.000Z</time>
      </trkpt>
      <trkpt lat="47.34664" lon="-2.34248">
        <ele>14.60000038147</ele>
        <time>2020-05-21T09:03:38.000Z</time>
      </trkpt>
      <trkpt lat="47.34667" lon="-2.34263">
        <ele>14.60000038147</ele>
        <time>2020-05-21T09:03:43.000Z</time>
      </trkpt>
      <trkpt lat="47.34675" lon="-2.34263">
        <ele>14.60000038147</ele>
        <time>2020-05-21T09:03:48.000Z</time>
      </trkpt>
      <trkpt lat="47.34677" lon="-2.34264">
        <ele>14.60000038147</ele>
        <time>2020-05-21T09:03:49.000Z</time>
      </trkpt>
      <trkpt lat="47.34688" lon="-2.34261">
        <ele>14.60000038147</ele>
        <time>2020-05-21T09:03:54.000Z</time>
      </trkpt>
      <trkpt lat="47.34703" lon="-2.3426">
        <ele>14.60000038147</ele>
        <time>2020-05-21T09:04:00.000Z</time>
      </trkpt>
      <trkpt lat="47.34706" lon="-2.3426">
        <ele>15</ele>
        <time>2020-05-21T09:04:01.000Z</time>
      </trkpt>
      <trkpt lat="47.3471" lon="-2.34259">
        <ele>15.39999961853</ele>
        <time>2020-05-21T09:04:02.000Z</time>
      </trkpt>
      <trkpt lat="47.34713" lon="-2.34258">
        <ele>15.800000190735</ele>
        <time>2020-05-21T09:04:03.000Z</time>
      </trkpt>
      <trkpt lat="47.34716" lon="-2.34257">
        <ele>16.200000762939</ele>
        <time>2020-05-21T09:04:04.000Z</time>
      </trkpt>
      <trkpt lat="47.34719" lon="-2.34256">
        <ele>16.60000038147</ele>
        <time>2020-05-21T09:04:05.000Z</time>
      </trkpt>
      <trkpt lat="47.34725" lon="-2.34255">
        <ele>16.60000038147</ele>
        <time>2020-05-21T09:04:07.000Z</time>
      </trkpt>
      <trkpt lat="47.34748" lon="-2.34249">
        <ele>16.60000038147</ele>
        <time>2020-05-21T09:04:15.000Z</time>
      </trkpt>
      <trkpt lat="47.34762" lon="-2.34243">
        <ele>16.60000038147</ele>
        <time>2020-05-21T09:04:20.000Z</time>
      </trkpt>
      <trkpt lat="47.34767" lon="-2.3424">
        <ele>17</ele>
        <time>2020-05-21T09:04:22.000Z</time>
      </trkpt>
      <trkpt lat="47.34771" lon="-2.34239">
        <ele>17.39999961853</ele>
        <time>2020-05-21T09:04:23.000Z</time>
      </trkpt>
      <trkpt lat="47.34775" lon="-2.34238">
        <ele>18</ele>
        <time>2020-05-21T09:04:24.000Z</time>
      </trkpt>
      <trkpt lat="47.34779" lon="-2.34236">
        <ele>18.799999237061</ele>
        <time>2020-05-21T09:04:26.000Z</time>
      </trkpt>
      <trkpt lat="47.34784" lon="-2.34236">
        <ele>18.799999237061</ele>
        <time>2020-05-21T09:04:27.000Z</time>
      </trkpt>
      <trkpt lat="47.34811" lon="-2.34231">
        <ele>18.799999237061</ele>
        <time>2020-05-21T09:04:34.000Z</time>
      </trkpt>
      <trkpt lat="47.34823" lon="-2.34233">
        <ele>19.200000762939</ele>
        <time>2020-05-21T09:04:37.000Z</time>
      </trkpt>
      <trkpt lat="47.34827" lon="-2.34233">
        <ele>19.60000038147</ele>
        <time>2020-05-21T09:04:38.000Z</time>
      </trkpt>
      <trkpt lat="47.34831" lon="-2.34232">
        <ele>20</ele>
        <time>2020-05-21T09:04:39.000Z</time>
      </trkpt>
      <trkpt lat="47.34834" lon="-2.34232">
        <ele>20.39999961853</ele>
        <time>2020-05-21T09:04:40.000Z</time>
      </trkpt>
      <trkpt lat="47.34837" lon="-2.34232">
        <ele>20.799999237061</ele>
        <time>2020-05-21T09:04:41.000Z</time>
      </trkpt>
      <trkpt lat="47.34847" lon="-2.34233">
        <ele>20.799999237061</ele>
        <time>2020-05-21T09:04:44.000Z</time>
      </trkpt>
      <trkpt lat="47.34855" lon="-2.34239">
        <ele>21.39999961853</ele>
        <time>2020-05-21T09:04:47.000Z</time>
      </trkpt>
      <trkpt lat="47.34857" lon="-2.34239">
        <ele>21.799999237061</ele>
        <time>2020-05-21T09:04:48.000Z</time>
      </trkpt>
      <trkpt lat="47.34859" lon="-2.34239">
        <ele>22.200000762939</ele>
        <time>2020-05-21T09:04:49.000Z</time>
      </trkpt>
      <trkpt lat="47.34861" lon="-2.34238">
        <ele>22.799999237061</ele>
        <time>2020-05-21T09:04:50.000Z</time>
      </trkpt>
      <trkpt lat="47.34864" lon="-2.34235">
        <ele>23.200000762939</ele>
        <time>2020-05-21T09:04:51.000Z</time>
      </trkpt>
      <trkpt lat="47.34867" lon="-2.34231">
        <ele>23.60000038147</ele>
        <time>2020-05-21T09:04:53.000Z</time>
      </trkpt>
      <trkpt lat="47.34869" lon="-2.34228">
        <ele>24</ele>
        <time>2020-05-21T09:04:54.000Z</time>
      </trkpt>
      <trkpt lat="47.3487" lon="-2.34226">
        <ele>24.39999961853</ele>
        <time>2020-05-21T09:04:55.000Z</time>
      </trkpt>
      <trkpt lat="47.34871" lon="-2.34224">
        <ele>24.799999237061</ele>
        <time>2020-05-21T09:04:56.000Z</time>
      </trkpt>
      <trkpt lat="47.34873" lon="-2.34222">
        <ele>25.200000762939</ele>
        <time>2020-05-21T09:04:57.000Z</time>
      </trkpt>
      <trkpt lat="47.34877" lon="-2.34214">
        <ele>25.200000762939</ele>
        <time>2020-05-21T09:04:59.000Z</time>
      </trkpt>
      <trkpt lat="47.34881" lon="-2.34211">
        <ele>25.60000038147</ele>
        <time>2020-05-21T09:05:01.000Z</time>
      </trkpt>
      <trkpt lat="47.34882" lon="-2.34211">
        <ele>26</ele>
        <time>2020-05-21T09:05:02.000Z</time>
      </trkpt>
      <trkpt lat="47.34885" lon="-2.3421">
        <ele>26.39999961853</ele>
        <time>2020-05-21T09:05:03.000Z</time>
      </trkpt>
      <trkpt lat="47.34887" lon="-2.34209">
        <ele>26.799999237061</ele>
        <time>2020-05-21T09:05:04.000Z</time>
      </trkpt>
      <trkpt lat="47.34889" lon="-2.34207">
        <ele>27.200000762939</ele>
        <time>2020-05-21T09:05:05.000Z</time>
      </trkpt>
      <trkpt lat="47.34892" lon="-2.34205">
        <ele>27.200000762939</ele>
        <time>2020-05-21T09:05:08.000Z</time>
      </trkpt>
      <trkpt lat="47.34892" lon="-2.34205">
        <ele>27.200000762939</ele>
        <time>2020-05-21T09:05:09.000Z</time>
      </trkpt>
      <trkpt lat="47.34891" lon="-2.34205">
        <ele>27.200000762939</ele>
        <time>2020-05-21T09:17:56.000Z</time>
      </trkpt>
      <trkpt lat="47.34896" lon="-2.34209">
        <ele>27.200000762939</ele>
        <time>2020-05-21T09:17:58.000Z</time>
      </trkpt>
      <trkpt lat="47.34901" lon="-2.34218">
        <ele>27.200000762939</ele>
        <time>2020-05-21T09:18:01.000Z</time>
      </trkpt>
      <trkpt lat="47.34902" lon="-2.34223">
        <ele>27.200000762939</ele>
        <time>2020-05-21T09:18:03.000Z</time>
      </trkpt>
      <trkpt lat="47.34897" lon="-2.34232">
        <ele>27.200000762939</ele>
        <time>2020-05-21T09:18:08.000Z</time>
      </trkpt>
      <trkpt lat="47.34884" lon="-2.34239">
        <ele>27.200000762939</ele>
        <time>2020-05-21T09:18:13.000Z</time>
      </trkpt>
      <trkpt lat="47.34879" lon="-2.3424">
        <ele>27.200000762939</ele>
        <time>2020-05-21T09:18:14.000Z</time>
      </trkpt>
      <trkpt lat="47.3487" lon="-2.3424">
        <ele>26.799999237061</ele>
        <time>2020-05-21T09:18:16.000Z</time>
      </trkpt>
      <trkpt lat="47.34866" lon="-2.3424">
        <ele>26.39999961853</ele>
        <time>2020-05-21T09:18:17.000Z</time>
      </trkpt>
      <trkpt lat="47.34862" lon="-2.3424">
        <ele>26</ele>
        <time>2020-05-21T09:18:18.000Z</time>
      </trkpt>
      <trkpt lat="47.34859" lon="-2.34239">
        <ele>25.60000038147</ele>
        <time>2020-05-21T09:18:19.000Z</time>
      </trkpt>
      <trkpt lat="47.34856" lon="-2.34239">
        <ele>25.200000762939</ele>
        <time>2020-05-21T09:18:20.000Z</time>
      </trkpt>
      <trkpt lat="47.34851" lon="-2.34237">
        <ele>25.200000762939</ele>
        <time>2020-05-21T09:18:22.000Z</time>
      </trkpt>
      <trkpt lat="47.34845" lon="-2.34233">
        <ele>24.799999237061</ele>
        <time>2020-05-21T09:18:24.000Z</time>
      </trkpt>
      <trkpt lat="47.34841" lon="-2.34233">
        <ele>23.799999237061</ele>
        <time>2020-05-21T09:18:25.000Z</time>
      </trkpt>
      <trkpt lat="47.34836" lon="-2.34233">
        <ele>23.39999961853</ele>
        <time>2020-05-21T09:18:26.000Z</time>
      </trkpt>
      <trkpt lat="47.34831" lon="-2.34234">
        <ele>23</ele>
        <time>2020-05-21T09:18:27.000Z</time>
      </trkpt>
      <trkpt lat="47.34809" lon="-2.34237">
        <ele>22.60000038147</ele>
        <time>2020-05-21T09:18:31.000Z</time>
      </trkpt>
      <trkpt lat="47.34802" lon="-2.34238">
        <ele>22.200000762939</ele>
        <time>2020-05-21T09:18:32.000Z</time>
      </trkpt>
      <trkpt lat="47.34796" lon="-2.3424">
        <ele>21.799999237061</ele>
        <time>2020-05-21T09:18:33.000Z</time>
      </trkpt>
      <trkpt lat="47.3479" lon="-2.34241">
        <ele>21.39999961853</ele>
        <time>2020-05-21T09:18:34.000Z</time>
      </trkpt>
      <trkpt lat="47.34783" lon="-2.34243">
        <ele>20.799999237061</ele>
        <time>2020-05-21T09:18:35.000Z</time>
      </trkpt>
      <trkpt lat="47.34777" lon="-2.34246">
        <ele>20.799999237061</ele>
        <time>2020-05-21T09:18:36.000Z</time>
      </trkpt>
      <trkpt lat="47.34748" lon="-2.34253">
        <ele>20.799999237061</ele>
        <time>2020-05-21T09:18:41.000Z</time>
      </trkpt>
      <trkpt lat="47.34723" lon="-2.34259">
        <ele>20.39999961853</ele>
        <time>2020-05-21T09:18:45.000Z</time>
      </trkpt>
      <trkpt lat="47.34716" lon="-2.3426">
        <ele>20</ele>
        <time>2020-05-21T09:18:46.000Z</time>
      </trkpt>
      <trkpt lat="47.3471" lon="-2.34261">
        <ele>19.60000038147</ele>
        <time>2020-05-21T09:18:47.000Z</time>
      </trkpt>
      <trkpt lat="47.34704" lon="-2.34263">
        <ele>19.200000762939</ele>
        <time>2020-05-21T09:18:48.000Z</time>
      </trkpt>
      <trkpt lat="47.34698" lon="-2.34263">
        <ele>18.799999237061</ele>
        <time>2020-05-21T09:18:49.000Z</time>
      </trkpt>
      <trkpt lat="47.3467" lon="-2.34269">
        <ele>18.200000762939</ele>
        <time>2020-05-21T09:18:54.000Z</time>
      </trkpt>
      <trkpt lat="47.34664" lon="-2.34271">
        <ele>17.799999237061</ele>
        <time>2020-05-21T09:18:55.000Z</time>
      </trkpt>
      <trkpt lat="47.34659" lon="-2.34272">
        <ele>17.39999961853</ele>
        <time>2020-05-21T09:18:56.000Z</time>
      </trkpt>
      <trkpt lat="47.34654" lon="-2.34275">
        <ele>17</ele>
        <time>2020-05-21T09:18:57.000Z</time>
      </trkpt>
      <trkpt lat="47.3465" lon="-2.34278">
        <ele>16.60000038147</ele>
        <time>2020-05-21T09:18:58.000Z</time>
      </trkpt>
      <trkpt lat="47.34647" lon="-2.34281">
        <ele>16.60000038147</ele>
        <time>2020-05-21T09:18:59.000Z</time>
      </trkpt>
      <trkpt lat="47.34632" lon="-2.34299">
        <ele>16.60000038147</ele>
        <time>2020-05-21T09:19:04.000Z</time>
      </trkpt>
      <trkpt lat="47.34625" lon="-2.34322">
        <ele>16.60000038147</ele>
        <time>2020-05-21T09:19:08.000Z</time>
      </trkpt>
      <trkpt lat="47.34622" lon="-2.34334">
        <ele>17</ele>
        <time>2020-05-21T09:19:10.000Z</time>
      </trkpt>
      <trkpt lat="47.3462" lon="-2.3434">
        <ele>17.39999961853</ele>
        <time>2020-05-21T09:19:11.000Z</time>
      </trkpt>
      <trkpt lat="47.34619" lon="-2.34347">
        <ele>17.799999237061</ele>
        <time>2020-05-21T09:19:12.000Z</time>
      </trkpt>
      <trkpt lat="47.34617" lon="-2.34353">
        <ele>18.200000762939</ele>
        <time>2020-05-21T09:19:13.000Z</time>
      </trkpt>
      <trkpt lat="47.34616" lon="-2.34359">
        <ele>18.60000038147</ele>
        <time>2020-05-21T09:19:14.000Z</time>
      </trkpt>
      <trkpt lat="47.34609" lon="-2.34384">
        <ele>18.60000038147</ele>
        <time>2020-05-21T09:19:18.000Z</time>
      </trkpt>
      <trkpt lat="47.34599" lon="-2.34427">
        <ele>18.60000038147</ele>
        <time>2020-05-21T09:19:25.000Z</time>
      </trkpt>
      <trkpt lat="47.34597" lon="-2.34458">
        <ele>18.60000038147</ele>
        <time>2020-05-21T09:19:31.000Z</time>
      </trkpt>
      <trkpt lat="47.34601" lon="-2.34487">
        <ele>18.60000038147</ele>
        <time>2020-05-21T09:19:36.000Z</time>
      </trkpt>
      <trkpt lat="47.34607" lon="-2.34527">
        <ele>18.60000038147</ele>
        <time>2020-05-21T09:19:42.000Z</time>
      </trkpt>
      <trkpt lat="47.34616" lon="-2.34579">
        <ele>18.60000038147</ele>
        <time>2020-05-21T09:19:49.000Z</time>
      </trkpt>
      <trkpt lat="47.34625" lon="-2.34639">
        <ele>18.60000038147</ele>
        <time>2020-05-21T09:19:56.000Z</time>
      </trkpt>
      <trkpt lat="47.34635" lon="-2.34693">
        <ele>18.200000762939</ele>
        <time>2020-05-21T09:20:01.000Z</time>
      </trkpt>
      <trkpt lat="47.34636" lon="-2.34705">
        <ele>17.799999237061</ele>
        <time>2020-05-21T09:20:02.000Z</time>
      </trkpt>
      <trkpt lat="47.34637" lon="-2.34718">
        <ele>17</ele>
        <time>2020-05-21T09:20:03.000Z</time>
      </trkpt>
      <trkpt lat="47.34637" lon="-2.3473">
        <ele>16.60000038147</ele>
        <time>2020-05-21T09:20:04.000Z</time>
      </trkpt>
      <trkpt lat="47.34637" lon="-2.34742">
        <ele>16.60000038147</ele>
        <time>2020-05-21T09:20:05.000Z</time>
      </trkpt>
      <trkpt lat="47.34628" lon="-2.34785">
        <ele>16.60000038147</ele>
        <time>2020-05-21T09:20:09.000Z</time>
      </trkpt>
      <trkpt lat="47.3462" lon="-2.34803">
        <ele>16.60000038147</ele>
        <time>2020-05-21T09:20:11.000Z</time>
      </trkpt>
      <trkpt lat="47.34608" lon="-2.34829">
        <ele>16.60000038147</ele>
        <time>2020-05-21T09:20:14.000Z</time>
      </trkpt>
      <trkpt lat="47.3459" lon="-2.34871">
        <ele>16.60000038147</ele>
        <time>2020-05-21T09:20:20.000Z</time>
      </trkpt>
      <trkpt lat="47.34588" lon="-2.34877">
        <ele>16.200000762939</ele>
        <time>2020-05-21T09:20:21.000Z</time>
      </trkpt>
      <trkpt lat="47.34586" lon="-2.34881">
        <ele>15.800000190735</ele>
        <time>2020-05-21T09:20:22.000Z</time>
      </trkpt>
      <trkpt lat="47.34584" lon="-2.34885">
        <ele>15.39999961853</ele>
        <time>2020-05-21T09:20:23.000Z</time>
      </trkpt>
      <trkpt lat="47.34583" lon="-2.34889">
        <ele>15</ele>
        <time>2020-05-21T09:20:24.000Z</time>
      </trkpt>
      <trkpt lat="47.34581" lon="-2.34892">
        <ele>14.60000038147</ele>
        <time>2020-05-21T09:20:25.000Z</time>
      </trkpt>
      <trkpt lat="47.3458" lon="-2.34905">
        <ele>14.60000038147</ele>
        <time>2020-05-21T09:20:29.000Z</time>
      </trkpt>
      <trkpt lat="47.34585" lon="-2.34915">
        <ele>14.60000038147</ele>
        <time>2020-05-21T09:20:34.000Z</time>
      </trkpt>
      <trkpt lat="47.34585" lon="-2.34919">
        <ele>14.60000038147</ele>
        <time>2020-05-21T09:20:36.000Z</time>
      </trkpt>
      <trkpt lat="47.34588" lon="-2.34925">
        <ele>14.60000038147</ele>
        <time>2020-05-21T09:20:39.000Z</time>
      </trkpt>
      <trkpt lat="47.34596" lon="-2.34943">
        <ele>14.60000038147</ele>
        <time>2020-05-21T09:20:44.000Z</time>
      </trkpt>
      <trkpt lat="47.34607" lon="-2.34964">
        <ele>14.60000038147</ele>
        <time>2020-05-21T09:20:49.000Z</time>
      </trkpt>
      <trkpt lat="47.3461" lon="-2.34969">
        <ele>14.60000038147</ele>
        <time>2020-05-21T09:20:50.000Z</time>
      </trkpt>
      <trkpt lat="47.34629" lon="-2.35">
        <ele>14.60000038147</ele>
        <time>2020-05-21T09:20:56.000Z</time>
      </trkpt>
      <trkpt lat="47.34641" lon="-2.3502">
        <ele>14.60000038147</ele>
        <time>2020-05-21T09:21:00.000Z</time>
      </trkpt>
      <trkpt lat="47.34651" lon="-2.35027">
        <ele>14.60000038147</ele>
        <time>2020-05-21T09:21:06.000Z</time>
      </trkpt>
      <trkpt lat="47.34655" lon="-2.35028">
        <ele>14.60000038147</ele>
        <time>2020-05-21T09:21:08.000Z</time>
      </trkpt>
      <trkpt lat="47.34665" lon="-2.35031">
        <ele>14.60000038147</ele>
        <time>2020-05-21T09:21:13.000Z</time>
      </trkpt>
      <trkpt lat="47.34673" lon="-2.35036">
        <ele>14.60000038147</ele>
        <time>2020-05-21T09:21:16.000Z</time>
      </trkpt>
      <trkpt lat="47.34678" lon="-2.35043">
        <ele>14.60000038147</ele>
        <time>2020-05-21T09:21:18.000Z</time>
      </trkpt>
      <trkpt lat="47.34697" lon="-2.35063">
        <ele>14.60000038147</ele>
        <time>2020-05-21T09:21:23.000Z</time>
      </trkpt>
      <trkpt lat="47.34721" lon="-2.3509">
        <ele>14.60000038147</ele>
        <time>2020-05-21T09:21:29.000Z</time>
      </trkpt>
      <trkpt lat="47.34735" lon="-2.35121">
        <ele>14.60000038147</ele>
        <time>2020-05-21T09:21:35.000Z</time>
      </trkpt>
      <trkpt lat="47.34745" lon="-2.35133">
        <ele>14.60000038147</ele>
        <time>2020-05-21T09:21:38.000Z</time>
      </trkpt>
      <trkpt lat="47.34746" lon="-2.35137">
        <ele>14.60000038147</ele>
        <time>2020-05-21T09:21:39.000Z</time>
      </trkpt>
      <trkpt lat="47.34756" lon="-2.35167">
        <ele>14.60000038147</ele>
        <time>2020-05-21T09:21:45.000Z</time>
      </trkpt>
      <trkpt lat="47.34757" lon="-2.352">
        <ele>14.60000038147</ele>
        <time>2020-05-21T09:21:52.000Z</time>
      </trkpt>
      <trkpt lat="47.34758" lon="-2.35212">
        <ele>14.60000038147</ele>
        <time>2020-05-21T09:21:56.000Z</time>
      </trkpt>
      <trkpt lat="47.34758" lon="-2.35233">
        <ele>14.60000038147</ele>
        <time>2020-05-21T09:22:02.000Z</time>
      </trkpt>
      <trkpt lat="47.34752" lon="-2.35257">
        <ele>14.60000038147</ele>
        <time>2020-05-21T09:22:07.000Z</time>
      </trkpt>
      <trkpt lat="47.34749" lon="-2.3528">
        <ele>14.60000038147</ele>
        <time>2020-05-21T09:22:12.000Z</time>
      </trkpt>
      <trkpt lat="47.34742" lon="-2.35295">
        <ele>14.60000038147</ele>
        <time>2020-05-21T09:22:16.000Z</time>
      </trkpt>
      <trkpt lat="47.34732" lon="-2.35316">
        <ele>15</ele>
        <time>2020-05-21T09:22:22.000Z</time>
      </trkpt>
      <trkpt lat="47.34731" lon="-2.3532">
        <ele>15.39999961853</ele>
        <time>2020-05-21T09:22:23.000Z</time>
      </trkpt>
      <trkpt lat="47.34731" lon="-2.35325">
        <ele>15.800000190735</ele>
        <time>2020-05-21T09:22:24.000Z</time>
      </trkpt>
      <trkpt lat="47.3473" lon="-2.35329">
        <ele>16.200000762939</ele>
        <time>2020-05-21T09:22:25.000Z</time>
      </trkpt>
      <trkpt lat="47.34729" lon="-2.35334">
        <ele>16.799999237061</ele>
        <time>2020-05-21T09:22:26.000Z</time>
      </trkpt>
      <trkpt lat="47.34728" lon="-2.35343">
        <ele>16.799999237061</ele>
        <time>2020-05-21T09:22:28.000Z</time>
      </trkpt>
      <trkpt lat="47.34726" lon="-2.35358">
        <ele>16.799999237061</ele>
        <time>2020-05-21T09:22:32.000Z</time>
      </trkpt>
      <trkpt lat="47.34715" lon="-2.3538">
        <ele>16.799999237061</ele>
        <time>2020-05-21T09:22:38.000Z</time>
      </trkpt>
      <trkpt lat="47.34699" lon="-2.35396">
        <ele>16.799999237061</ele>
        <time>2020-05-21T09:22:43.000Z</time>
      </trkpt>
      <trkpt lat="47.34682" lon="-2.35399">
        <ele>16.799999237061</ele>
        <time>2020-05-21T09:22:48.000Z</time>
      </trkpt>
      <trkpt lat="47.3466" lon="-2.35404">
        <ele>16.799999237061</ele>
        <time>2020-05-21T09:22:54.000Z</time>
      </trkpt>
      <trkpt lat="47.34649" lon="-2.35406">
        <ele>16.799999237061</ele>
        <time>2020-05-21T09:22:59.000Z</time>
      </trkpt>
      <trkpt lat="47.34643" lon="-2.35405">
        <ele>16.799999237061</ele>
        <time>2020-05-21T09:23:01.000Z</time>
      </trkpt>
      <trkpt lat="47.34639" lon="-2.35402">
        <ele>16.799999237061</ele>
        <time>2020-05-21T09:23:02.000Z</time>
      </trkpt>
      <trkpt lat="47.34623" lon="-2.35391">
        <ele>16.799999237061</ele>
        <time>2020-05-21T09:23:06.000Z</time>
      </trkpt>
      <trkpt lat="47.34619" lon="-2.35391">
        <ele>16.799999237061</ele>
        <time>2020-05-21T09:23:07.000Z</time>
      </trkpt>
      <trkpt lat="47.34608" lon="-2.35389">
        <ele>16.799999237061</ele>
        <time>2020-05-21T09:23:11.000Z</time>
      </trkpt>
      <trkpt lat="47.34589" lon="-2.35384">
        <ele>16.799999237061</ele>
        <time>2020-05-21T09:23:18.000Z</time>
      </trkpt>
      <trkpt lat="47.34583" lon="-2.35379">
        <ele>16.799999237061</ele>
        <time>2020-05-21T09:23:21.000Z</time>
      </trkpt>
      <trkpt lat="47.34581" lon="-2.35375">
        <ele>16.799999237061</ele>
        <time>2020-05-21T09:23:23.000Z</time>
      </trkpt>
      <trkpt lat="47.34573" lon="-2.35366">
        <ele>16.799999237061</ele>
        <time>2020-05-21T09:23:28.000Z</time>
      </trkpt>
      <trkpt lat="47.34558" lon="-2.35368">
        <ele>16.799999237061</ele>
        <time>2020-05-21T09:23:33.000Z</time>
      </trkpt>
      <trkpt lat="47.34534" lon="-2.35377">
        <ele>16.799999237061</ele>
        <time>2020-05-21T09:23:39.000Z</time>
      </trkpt>
      <trkpt lat="47.34524" lon="-2.35382">
        <ele>16.39999961853</ele>
        <time>2020-05-21T09:23:42.000Z</time>
      </trkpt>
      <trkpt lat="47.34521" lon="-2.35384">
        <ele>16</ele>
        <time>2020-05-21T09:23:43.000Z</time>
      </trkpt>
      <trkpt lat="47.34518" lon="-2.35384">
        <ele>15.60000038147</ele>
        <time>2020-05-21T09:23:44.000Z</time>
      </trkpt>
      <trkpt lat="47.34514" lon="-2.35385">
        <ele>15.199999809265</ele>
        <time>2020-05-21T09:23:45.000Z</time>
      </trkpt>
      <trkpt lat="47.3451" lon="-2.35386">
        <ele>14.800000190735</ele>
        <time>2020-05-21T09:23:46.000Z</time>
      </trkpt>
      <trkpt lat="47.3449" lon="-2.35393">
        <ele>14.800000190735</ele>
        <time>2020-05-21T09:23:51.000Z</time>
      </trkpt>
      <trkpt lat="47.34474" lon="-2.35401">
        <ele>14.800000190735</ele>
        <time>2020-05-21T09:23:56.000Z</time>
      </trkpt>
      <trkpt lat="47.34469" lon="-2.35404">
        <ele>14.800000190735</ele>
        <time>2020-05-21T09:24:00.000Z</time>
      </trkpt>
      <trkpt lat="47.34457" lon="-2.35402">
        <ele>14.60000038147</ele>
        <time>2020-05-21T09:24:21.000Z</time>
      </trkpt>
      <trkpt lat="47.34456" lon="-2.35403">
        <ele>15</ele>
        <time>2020-05-21T09:24:22.000Z</time>
      </trkpt>
      <trkpt lat="47.34452" lon="-2.35403">
        <ele>15</ele>
        <time>2020-05-21T09:24:24.000Z</time>
      </trkpt>
      <trkpt lat="47.34435" lon="-2.35404">
        <ele>15</ele>
        <time>2020-05-21T09:24:30.000Z</time>
      </trkpt>
      <trkpt lat="47.34422" lon="-2.3542">
        <ele>15</ele>
        <time>2020-05-21T09:24:35.000Z</time>
      </trkpt>
      <trkpt lat="47.34413" lon="-2.35451">
        <ele>15</ele>
        <time>2020-05-21T09:24:39.000Z</time>
      </trkpt>
      <trkpt lat="47.3441" lon="-2.35458">
        <ele>15</ele>
        <time>2020-05-21T09:24:40.000Z</time>
      </trkpt>
      <trkpt lat="47.344" lon="-2.35477">
        <ele>15</ele>
        <time>2020-05-21T09:24:44.000Z</time>
      </trkpt>
      <trkpt lat="47.34379" lon="-2.35509">
        <ele>15</ele>
        <time>2020-05-21T09:24:52.000Z</time>
      </trkpt>
      <trkpt lat="47.34362" lon="-2.35532">
        <ele>15</ele>
        <time>2020-05-21T09:24:57.000Z</time>
      </trkpt>
      <trkpt lat="47.34339" lon="-2.35568">
        <ele>15</ele>
        <time>2020-05-21T09:25:03.000Z</time>
      </trkpt>
      <trkpt lat="47.34307" lon="-2.35612">
        <ele>15</ele>
        <time>2020-05-21T09:25:10.000Z</time>
      </trkpt>
      <trkpt lat="47.34275" lon="-2.35656">
        <ele>15</ele>
        <time>2020-05-21T09:25:17.000Z</time>
      </trkpt>
      <trkpt lat="47.34249" lon="-2.3569">
        <ele>15</ele>
        <time>2020-05-21T09:25:23.000Z</time>
      </trkpt>
      <trkpt lat="47.34228" lon="-2.35727">
        <ele>15</ele>
        <time>2020-05-21T09:25:29.000Z</time>
      </trkpt>
      <trkpt lat="47.3422" lon="-2.35736">
        <ele>15</ele>
        <time>2020-05-21T09:25:32.000Z</time>
      </trkpt>
      <trkpt lat="47.34211" lon="-2.35729">
        <ele>15</ele>
        <time>2020-05-21T09:25:36.000Z</time>
      </trkpt>
      <trkpt lat="47.3421" lon="-2.35722">
        <ele>15.60000038147</ele>
        <time>2020-05-21T09:25:38.000Z</time>
      </trkpt>
      <trkpt lat="47.34209" lon="-2.35719">
        <ele>16</ele>
        <time>2020-05-21T09:25:39.000Z</time>
      </trkpt>
      <trkpt lat="47.34208" lon="-2.35717">
        <ele>16.39999961853</ele>
        <time>2020-05-21T09:25:40.000Z</time>
      </trkpt>
      <trkpt lat="47.34207" lon="-2.35714">
        <ele>17</ele>
        <time>2020-05-21T09:25:41.000Z</time>
      </trkpt>
      <trkpt lat="47.34206" lon="-2.3571">
        <ele>17.39999961853</ele>
        <time>2020-05-21T09:25:42.000Z</time>
      </trkpt>
      <trkpt lat="47.34205" lon="-2.35707">
        <ele>18</ele>
        <time>2020-05-21T09:25:43.000Z</time>
      </trkpt>
      <trkpt lat="47.34203" lon="-2.35704">
        <ele>18.39999961853</ele>
        <time>2020-05-21T09:25:44.000Z</time>
      </trkpt>
      <trkpt lat="47.34201" lon="-2.35701">
        <ele>19</ele>
        <time>2020-05-21T09:25:45.000Z</time>
      </trkpt>
      <trkpt lat="47.34198" lon="-2.35698">
        <ele>19.39999961853</ele>
        <time>2020-05-21T09:25:46.000Z</time>
      </trkpt>
      <trkpt lat="47.34191" lon="-2.35688">
        <ele>19.799999237061</ele>
        <time>2020-05-21T09:25:49.000Z</time>
      </trkpt>
      <trkpt lat="47.34189" lon="-2.35684">
        <ele>20.200000762939</ele>
        <time>2020-05-21T09:25:50.000Z</time>
      </trkpt>
      <trkpt lat="47.34186" lon="-2.35681">
        <ele>20.60000038147</ele>
        <time>2020-05-21T09:25:51.000Z</time>
      </trkpt>
      <trkpt lat="47.34184" lon="-2.35678">
        <ele>21</ele>
        <time>2020-05-21T09:25:52.000Z</time>
      </trkpt>
      <trkpt lat="47.34181" lon="-2.35675">
        <ele>21.39999961853</ele>
        <time>2020-05-21T09:25:53.000Z</time>
      </trkpt>
      <trkpt lat="47.3417" lon="-2.35656">
        <ele>21.799999237061</ele>
        <time>2020-05-21T09:25:58.000Z</time>
      </trkpt>
      <trkpt lat="47.34168" lon="-2.35653">
        <ele>22.200000762939</ele>
        <time>2020-05-21T09:25:59.000Z</time>
      </trkpt>
      <trkpt lat="47.34166" lon="-2.3565">
        <ele>22.60000038147</ele>
        <time>2020-05-21T09:26:00.000Z</time>
      </trkpt>
      <trkpt lat="47.34163" lon="-2.35646">
        <ele>23</ele>
        <time>2020-05-21T09:26:01.000Z</time>
      </trkpt>
      <trkpt lat="47.34161" lon="-2.35642">
        <ele>23.39999961853</ele>
        <time>2020-05-21T09:26:02.000Z</time>
      </trkpt>
      <trkpt lat="47.34151" lon="-2.35622">
        <ele>23.39999961853</ele>
        <time>2020-05-21T09:26:07.000Z</time>
      </trkpt>
      <trkpt lat="47.34139" lon="-2.356">
        <ele>23.39999961853</ele>
        <time>2020-05-21T09:26:12.000Z</time>
      </trkpt>
      <trkpt lat="47.34131" lon="-2.35576">
        <ele>23.39999961853</ele>
        <time>2020-05-21T09:26:16.000Z</time>
      </trkpt>
      <trkpt lat="47.34127" lon="-2.35565">
        <ele>23.39999961853</ele>
        <time>2020-05-21T09:26:18.000Z</time>
      </trkpt>
      <trkpt lat="47.34115" lon="-2.35527">
        <ele>23.39999961853</ele>
        <time>2020-05-21T09:26:24.000Z</time>
      </trkpt>
      <trkpt lat="47.34114" lon="-2.3552">
        <ele>23.39999961853</ele>
        <time>2020-05-21T09:26:25.000Z</time>
      </trkpt>
      <trkpt lat="47.34109" lon="-2.35507">
        <ele>23.39999961853</ele>
        <time>2020-05-21T09:26:27.000Z</time>
      </trkpt>
      <trkpt lat="47.34099" lon="-2.35482">
        <ele>23.39999961853</ele>
        <time>2020-05-21T09:26:31.000Z</time>
      </trkpt>
      <trkpt lat="47.34079" lon="-2.35428">
        <ele>23.39999961853</ele>
        <time>2020-05-21T09:26:39.000Z</time>
      </trkpt>
      <trkpt lat="47.34059" lon="-2.35379">
        <ele>23.39999961853</ele>
        <time>2020-05-21T09:26:46.000Z</time>
      </trkpt>
      <trkpt lat="47.34049" lon="-2.35361">
        <ele>23.39999961853</ele>
        <time>2020-05-21T09:26:49.000Z</time>
      </trkpt>
      <trkpt lat="47.34041" lon="-2.35351">
        <ele>23.39999961853</ele>
        <time>2020-05-21T09:26:51.000Z</time>
      </trkpt>
      <trkpt lat="47.34024" lon="-2.35332">
        <ele>24</ele>
        <time>2020-05-21T09:26:55.000Z</time>
      </trkpt>
      <trkpt lat="47.34019" lon="-2.35328">
        <ele>24.39999961853</ele>
        <time>2020-05-21T09:26:56.000Z</time>
      </trkpt>
      <trkpt lat="47.34014" lon="-2.35323">
        <ele>24.799999237061</ele>
        <time>2020-05-21T09:26:57.000Z</time>
      </trkpt>
      <trkpt lat="47.34009" lon="-2.35319">
        <ele>25.200000762939</ele>
        <time>2020-05-21T09:26:58.000Z</time>
      </trkpt>
      <trkpt lat="47.34004" lon="-2.35314">
        <ele>25.60000038147</ele>
        <time>2020-05-21T09:26:59.000Z</time>
      </trkpt>
      <trkpt lat="47.33969" lon="-2.35277">
        <ele>25.60000038147</ele>
        <time>2020-05-21T09:27:07.000Z</time>
      </trkpt>
      <trkpt lat="47.33959" lon="-2.35265">
        <ele>26</ele>
        <time>2020-05-21T09:27:10.000Z</time>
      </trkpt>
      <trkpt lat="47.33956" lon="-2.3526">
        <ele>26.39999961853</ele>
        <time>2020-05-21T09:27:11.000Z</time>
      </trkpt>
      <trkpt lat="47.33953" lon="-2.35255">
        <ele>27</ele>
        <time>2020-05-21T09:27:12.000Z</time>
      </trkpt>
      <trkpt lat="47.3395" lon="-2.3525">
        <ele>27.39999961853</ele>
        <time>2020-05-21T09:27:13.000Z</time>
      </trkpt>
      <trkpt lat="47.33948" lon="-2.35245">
        <ele>27.799999237061</ele>
        <time>2020-05-21T09:27:14.000Z</time>
      </trkpt>
      <trkpt lat="47.33934" lon="-2.35209">
        <ele>27.799999237061</ele>
        <time>2020-05-21T09:27:20.000Z</time>
      </trkpt>
      <trkpt lat="47.33931" lon="-2.35204">
        <ele>27.799999237061</ele>
        <time>2020-05-21T09:27:21.000Z</time>
      </trkpt>
      <trkpt lat="47.33928" lon="-2.35199">
        <ele>28.200000762939</ele>
        <time>2020-05-21T09:27:22.000Z</time>
      </trkpt>
      <trkpt lat="47.33924" lon="-2.35195">
        <ele>28.60000038147</ele>
        <time>2020-05-21T09:27:23.000Z</time>
      </trkpt>
      <trkpt lat="47.33921" lon="-2.3519">
        <ele>29</ele>
        <time>2020-05-21T09:27:24.000Z</time>
      </trkpt>
      <trkpt lat="47.33917" lon="-2.35186">
        <ele>29.39999961853</ele>
        <time>2020-05-21T09:27:25.000Z</time>
      </trkpt>
      <trkpt lat="47.33914" lon="-2.35181">
        <ele>29.799999237061</ele>
        <time>2020-05-21T09:27:26.000Z</time>
      </trkpt>
      <trkpt lat="47.33893" lon="-2.35162">
        <ele>29.799999237061</ele>
        <time>2020-05-21T09:27:31.000Z</time>
      </trkpt>
      <trkpt lat="47.33853" lon="-2.35129">
        <ele>29.799999237061</ele>
        <time>2020-05-21T09:27:40.000Z</time>
      </trkpt>
      <trkpt lat="47.33817" lon="-2.35108">
        <ele>29.799999237061</ele>
        <time>2020-05-21T09:27:47.000Z</time>
      </trkpt>
      <trkpt lat="47.33777" lon="-2.35083">
        <ele>29.799999237061</ele>
        <time>2020-05-21T09:27:54.000Z</time>
      </trkpt>
      <trkpt lat="47.3377" lon="-2.3508">
        <ele>29.39999961853</ele>
        <time>2020-05-21T09:27:55.000Z</time>
      </trkpt>
      <trkpt lat="47.33764" lon="-2.35077">
        <ele>29</ele>
        <time>2020-05-21T09:27:56.000Z</time>
      </trkpt>
      <trkpt lat="47.33758" lon="-2.35072">
        <ele>28.60000038147</ele>
        <time>2020-05-21T09:27:57.000Z</time>
      </trkpt>
      <trkpt lat="47.33752" lon="-2.35068">
        <ele>28.200000762939</ele>
        <time>2020-05-21T09:27:58.000Z</time>
      </trkpt>
      <trkpt lat="47.33746" lon="-2.35063">
        <ele>27.799999237061</ele>
        <time>2020-05-21T09:27:59.000Z</time>
      </trkpt>
      <trkpt lat="47.33721" lon="-2.35034">
        <ele>27.799999237061</ele>
        <time>2020-05-21T09:28:04.000Z</time>
      </trkpt>
      <trkpt lat="47.33692" lon="-2.34987">
        <ele>27.799999237061</ele>
        <time>2020-05-21T09:28:11.000Z</time>
      </trkpt>
      <trkpt lat="47.33676" lon="-2.34965">
        <ele>27.799999237061</ele>
        <time>2020-05-21T09:28:16.000Z</time>
      </trkpt>
      <trkpt lat="47.33667" lon="-2.34964">
        <ele>27.799999237061</ele>
        <time>2020-05-21T09:28:20.000Z</time>
      </trkpt>
      <trkpt lat="47.33652" lon="-2.34969">
        <ele>27.799999237061</ele>
        <time>2020-05-21T09:28:26.000Z</time>
      </trkpt>
      <trkpt lat="47.33639" lon="-2.34965">
        <ele>27.799999237061</ele>
        <time>2020-05-21T09:28:31.000Z</time>
      </trkpt>
      <trkpt lat="47.33621" lon="-2.34956">
        <ele>27.799999237061</ele>
        <time>2020-05-21T09:28:37.000Z</time>
      </trkpt>
      <trkpt lat="47.33602" lon="-2.34944">
        <ele>27.799999237061</ele>
        <time>2020-05-21T09:28:43.000Z</time>
      </trkpt>
      <trkpt lat="47.33577" lon="-2.34932">
        <ele>28.200000762939</ele>
        <time>2020-05-21T09:28:50.000Z</time>
      </trkpt>
      <trkpt lat="47.33573" lon="-2.3493">
        <ele>28.60000038147</ele>
        <time>2020-05-21T09:28:51.000Z</time>
      </trkpt>
      <trkpt lat="47.3357" lon="-2.34929">
        <ele>29</ele>
        <time>2020-05-21T09:28:52.000Z</time>
      </trkpt>
      <trkpt lat="47.33565" lon="-2.34928">
        <ele>29.39999961853</ele>
        <time>2020-05-21T09:28:53.000Z</time>
      </trkpt>
      <trkpt lat="47.33561" lon="-2.34926">
        <ele>29.799999237061</ele>
        <time>2020-05-21T09:28:54.000Z</time>
      </trkpt>
      <trkpt lat="47.33542" lon="-2.34914">
        <ele>29.799999237061</ele>
        <time>2020-05-21T09:28:58.000Z</time>
      </trkpt>
      <trkpt lat="47.33517" lon="-2.349">
        <ele>29.799999237061</ele>
        <time>2020-05-21T09:29:04.000Z</time>
      </trkpt>
      <trkpt lat="47.33511" lon="-2.349">
        <ele>29.799999237061</ele>
        <time>2020-05-21T09:29:05.000Z</time>
      </trkpt>
      <trkpt lat="47.33494" lon="-2.34902">
        <ele>29.799999237061</ele>
        <time>2020-05-21T09:29:08.000Z</time>
      </trkpt>
      <trkpt lat="47.33489" lon="-2.34903">
        <ele>29.799999237061</ele>
        <time>2020-05-21T09:29:09.000Z</time>
      </trkpt>
      <trkpt lat="47.3347" lon="-2.34907">
        <ele>29.799999237061</ele>
        <time>2020-05-21T09:29:12.000Z</time>
      </trkpt>
      <trkpt lat="47.33451" lon="-2.34913">
        <ele>29.799999237061</ele>
        <time>2020-05-21T09:29:15.000Z</time>
      </trkpt>
      <trkpt lat="47.33405" lon="-2.34931">
        <ele>29.799999237061</ele>
        <time>2020-05-21T09:29:23.000Z</time>
      </trkpt>
      <trkpt lat="47.33384" lon="-2.34933">
        <ele>29.799999237061</ele>
        <time>2020-05-21T09:29:28.000Z</time>
      </trkpt>
      <trkpt lat="47.33364" lon="-2.34931">
        <ele>29.799999237061</ele>
        <time>2020-05-21T09:29:34.000Z</time>
      </trkpt>
      <trkpt lat="47.3334" lon="-2.34935">
        <ele>29.799999237061</ele>
        <time>2020-05-21T09:29:41.000Z</time>
      </trkpt>
      <trkpt lat="47.33332" lon="-2.34934">
        <ele>29.39999961853</ele>
        <time>2020-05-21T09:29:45.000Z</time>
      </trkpt>
      <trkpt lat="47.3333" lon="-2.34934">
        <ele>29</ele>
        <time>2020-05-21T09:29:46.000Z</time>
      </trkpt>
      <trkpt lat="47.33328" lon="-2.34934">
        <ele>28.60000038147</ele>
        <time>2020-05-21T09:29:47.000Z</time>
      </trkpt>
      <trkpt lat="47.33328" lon="-2.34935">
        <ele>28.200000762939</ele>
        <time>2020-05-21T09:29:48.000Z</time>
      </trkpt>
      <trkpt lat="47.33312" lon="-2.3494">
        <ele>27.799999237061</ele>
        <time>2020-05-21T09:30:30.000Z</time>
      </trkpt>
      <trkpt lat="47.3331" lon="-2.3494">
        <ele>27.799999237061</ele>
        <time>2020-05-21T09:30:31.000Z</time>
      </trkpt>
      <trkpt lat="47.33296" lon="-2.34943">
        <ele>27.799999237061</ele>
        <time>2020-05-21T09:30:35.000Z</time>
      </trkpt>
      <trkpt lat="47.33269" lon="-2.34942">
        <ele>27.799999237061</ele>
        <time>2020-05-21T09:30:42.000Z</time>
      </trkpt>
      <trkpt lat="47.3326" lon="-2.34942">
        <ele>27.799999237061</ele>
        <time>2020-05-21T09:30:47.000Z</time>
      </trkpt>
      <trkpt lat="47.33258" lon="-2.34942">
        <ele>27.799999237061</ele>
        <time>2020-05-21T09:30:50.000Z</time>
      </trkpt>
      <trkpt lat="47.33252" lon="-2.34956">
        <ele>27.799999237061</ele>
        <time>2020-05-21T09:31:19.000Z</time>
      </trkpt>
      <trkpt lat="47.3325" lon="-2.34956">
        <ele>27.799999237061</ele>
        <time>2020-05-21T09:31:20.000Z</time>
      </trkpt>
      <trkpt lat="47.33243" lon="-2.34961">
        <ele>27.799999237061</ele>
        <time>2020-05-21T09:31:26.000Z</time>
      </trkpt>
      <trkpt lat="47.33235" lon="-2.34955">
        <ele>27.799999237061</ele>
        <time>2020-05-21T09:31:32.000Z</time>
      </trkpt>
      <trkpt lat="47.33229" lon="-2.34958">
        <ele>27.799999237061</ele>
        <time>2020-05-21T09:31:36.000Z</time>
      </trkpt>
      <trkpt lat="47.33227" lon="-2.34959">
        <ele>27.799999237061</ele>
        <time>2020-05-21T09:31:37.000Z</time>
      </trkpt>
      <trkpt lat="47.33218" lon="-2.34967">
        <ele>27.799999237061</ele>
        <time>2020-05-21T09:31:42.000Z</time>
      </trkpt>
      <trkpt lat="47.33205" lon="-2.3498">
        <ele>27.799999237061</ele>
        <time>2020-05-21T09:31:48.000Z</time>
      </trkpt>
      <trkpt lat="47.33191" lon="-2.34997">
        <ele>27.799999237061</ele>
        <time>2020-05-21T09:31:55.000Z</time>
      </trkpt>
      <trkpt lat="47.33174" lon="-2.35013">
        <ele>27.799999237061</ele>
        <time>2020-05-21T09:32:02.000Z</time>
      </trkpt>
      <trkpt lat="47.33172" lon="-2.35013">
        <ele>27.799999237061</ele>
        <time>2020-05-21T09:32:03.000Z</time>
      </trkpt>
      <trkpt lat="47.33166" lon="-2.35009">
        <ele>27.799999237061</ele>
        <time>2020-05-21T09:32:06.000Z</time>
      </trkpt>
      <trkpt lat="47.33162" lon="-2.35006">
        <ele>27.799999237061</ele>
        <time>2020-05-21T09:32:08.000Z</time>
      </trkpt>
      <trkpt lat="47.33156" lon="-2.35005">
        <ele>27.799999237061</ele>
        <time>2020-05-21T09:32:11.000Z</time>
      </trkpt>
      <trkpt lat="47.33145" lon="-2.35017">
        <ele>27.799999237061</ele>
        <time>2020-05-21T09:32:15.000Z</time>
      </trkpt>
      <trkpt lat="47.33138" lon="-2.35033">
        <ele>27.799999237061</ele>
        <time>2020-05-21T09:32:20.000Z</time>
      </trkpt>
      <trkpt lat="47.33124" lon="-2.35049">
        <ele>27.799999237061</ele>
        <time>2020-05-21T09:32:25.000Z</time>
      </trkpt>
      <trkpt lat="47.33111" lon="-2.35064">
        <ele>27.799999237061</ele>
        <time>2020-05-21T09:32:30.000Z</time>
      </trkpt>
      <trkpt lat="47.33098" lon="-2.35079">
        <ele>27.799999237061</ele>
        <time>2020-05-21T09:32:35.000Z</time>
      </trkpt>
      <trkpt lat="47.33082" lon="-2.35101">
        <ele>27.799999237061</ele>
        <time>2020-05-21T09:32:41.000Z</time>
      </trkpt>
      <trkpt lat="47.33066" lon="-2.35127">
        <ele>27.799999237061</ele>
        <time>2020-05-21T09:32:48.000Z</time>
      </trkpt>
      <trkpt lat="47.33054" lon="-2.35143">
        <ele>27.799999237061</ele>
        <time>2020-05-21T09:32:53.000Z</time>
      </trkpt>
      <trkpt lat="47.33047" lon="-2.35166">
        <ele>27.799999237061</ele>
        <time>2020-05-21T09:32:57.000Z</time>
      </trkpt>
      <trkpt lat="47.33033" lon="-2.3519">
        <ele>27.799999237061</ele>
        <time>2020-05-21T09:33:03.000Z</time>
      </trkpt>
      <trkpt lat="47.33027" lon="-2.35207">
        <ele>27.799999237061</ele>
        <time>2020-05-21T09:33:09.000Z</time>
      </trkpt>
      <trkpt lat="47.33025" lon="-2.35207">
        <ele>28.200000762939</ele>
        <time>2020-05-21T09:33:10.000Z</time>
      </trkpt>
      <trkpt lat="47.33025" lon="-2.35205">
        <ele>28.60000038147</ele>
        <time>2020-05-21T09:33:11.000Z</time>
      </trkpt>
      <trkpt lat="47.33025" lon="-2.35203">
        <ele>29</ele>
        <time>2020-05-21T09:33:12.000Z</time>
      </trkpt>
      <trkpt lat="47.33026" lon="-2.35199">
        <ele>29.39999961853</ele>
        <time>2020-05-21T09:33:13.000Z</time>
      </trkpt>
      <trkpt lat="47.33025" lon="-2.35196">
        <ele>29.799999237061</ele>
        <time>2020-05-21T09:33:14.000Z</time>
      </trkpt>
      <trkpt lat="47.33024" lon="-2.35186">
        <ele>29.799999237061</ele>
        <time>2020-05-21T09:33:16.000Z</time>
      </trkpt>
      <trkpt lat="47.33023" lon="-2.35177">
        <ele>29.799999237061</ele>
        <time>2020-05-21T09:33:18.000Z</time>
      </trkpt>
      <trkpt lat="47.33018" lon="-2.35134">
        <ele>29.799999237061</ele>
        <time>2020-05-21T09:33:24.000Z</time>
      </trkpt>
      <trkpt lat="47.33014" lon="-2.35105">
        <ele>29.799999237061</ele>
        <time>2020-05-21T09:33:29.000Z</time>
      </trkpt>
      <trkpt lat="47.33013" lon="-2.35088">
        <ele>29.799999237061</ele>
        <time>2020-05-21T09:33:33.000Z</time>
      </trkpt>
      <trkpt lat="47.3301" lon="-2.35067">
        <ele>29.39999961853</ele>
        <time>2020-05-21T09:33:38.000Z</time>
      </trkpt>
      <trkpt lat="47.3301" lon="-2.35064">
        <ele>29</ele>
        <time>2020-05-21T09:33:39.000Z</time>
      </trkpt>
      <trkpt lat="47.3301" lon="-2.35061">
        <ele>28.60000038147</ele>
        <time>2020-05-21T09:33:40.000Z</time>
      </trkpt>
      <trkpt lat="47.3301" lon="-2.35058">
        <ele>28.200000762939</ele>
        <time>2020-05-21T09:33:41.000Z</time>
      </trkpt>
      <trkpt lat="47.3301" lon="-2.35055">
        <ele>27.60000038147</ele>
        <time>2020-05-21T09:33:42.000Z</time>
      </trkpt>
      <trkpt lat="47.33009" lon="-2.35049">
        <ele>27.60000038147</ele>
        <time>2020-05-21T09:33:44.000Z</time>
      </trkpt>
      <trkpt lat="47.33008" lon="-2.35047">
        <ele>27.60000038147</ele>
        <time>2020-05-21T09:33:45.000Z</time>
      </trkpt>
      <trkpt lat="47.33004" lon="-2.35033">
        <ele>27.60000038147</ele>
        <time>2020-05-21T09:33:50.000Z</time>
      </trkpt>
      <trkpt lat="47.33003" lon="-2.35029">
        <ele>27.60000038147</ele>
        <time>2020-05-21T09:33:51.000Z</time>
      </trkpt>
      <trkpt lat="47.32994" lon="-2.35005">
        <ele>27.60000038147</ele>
        <time>2020-05-21T09:33:56.000Z</time>
      </trkpt>
      <trkpt lat="47.32988" lon="-2.34983">
        <ele>27.60000038147</ele>
        <time>2020-05-21T09:34:00.000Z</time>
      </trkpt>
      <trkpt lat="47.32986" lon="-2.34977">
        <ele>27.60000038147</ele>
        <time>2020-05-21T09:34:01.000Z</time>
      </trkpt>
      <trkpt lat="47.32979" lon="-2.34961">
        <ele>27.200000762939</ele>
        <time>2020-05-21T09:34:04.000Z</time>
      </trkpt>
      <trkpt lat="47.32976" lon="-2.34955">
        <ele>26.799999237061</ele>
        <time>2020-05-21T09:34:05.000Z</time>
      </trkpt>
      <trkpt lat="47.32973" lon="-2.34949">
        <ele>26.39999961853</ele>
        <time>2020-05-21T09:34:06.000Z</time>
      </trkpt>
      <trkpt lat="47.32971" lon="-2.34944">
        <ele>26</ele>
        <time>2020-05-21T09:34:07.000Z</time>
      </trkpt>
      <trkpt lat="47.32968" lon="-2.34937">
        <ele>25.60000038147</ele>
        <time>2020-05-21T09:34:08.000Z</time>
      </trkpt>
      <trkpt lat="47.32959" lon="-2.34911">
        <ele>25.60000038147</ele>
        <time>2020-05-21T09:34:12.000Z</time>
      </trkpt>
      <trkpt lat="47.32956" lon="-2.34904">
        <ele>25.60000038147</ele>
        <time>2020-05-21T09:34:13.000Z</time>
      </trkpt>
      <trkpt lat="47.32944" lon="-2.34877">
        <ele>25.60000038147</ele>
        <time>2020-05-21T09:34:17.000Z</time>
      </trkpt>
      <trkpt lat="47.32942" lon="-2.3487">
        <ele>25.60000038147</ele>
        <time>2020-05-21T09:34:18.000Z</time>
      </trkpt>
      <trkpt lat="47.32929" lon="-2.34833">
        <ele>25.60000038147</ele>
        <time>2020-05-21T09:34:24.000Z</time>
      </trkpt>
      <trkpt lat="47.32913" lon="-2.34808">
        <ele>25.60000038147</ele>
        <time>2020-05-21T09:34:29.000Z</time>
      </trkpt>
      <trkpt lat="47.32892" lon="-2.34806">
        <ele>25.60000038147</ele>
        <time>2020-05-21T09:34:33.000Z</time>
      </trkpt>
      <trkpt lat="47.32883" lon="-2.3481">
        <ele>25.60000038147</ele>
        <time>2020-05-21T09:34:35.000Z</time>
      </trkpt>
      <trkpt lat="47.32866" lon="-2.34819">
        <ele>25.60000038147</ele>
        <time>2020-05-21T09:34:39.000Z</time>
      </trkpt>
      <trkpt lat="47.32832" lon="-2.34837">
        <ele>25.60000038147</ele>
        <time>2020-05-21T09:34:46.000Z</time>
      </trkpt>
      <trkpt lat="47.32791" lon="-2.34866">
        <ele>25.60000038147</ele>
        <time>2020-05-21T09:34:55.000Z</time>
      </trkpt>
      <trkpt lat="47.32755" lon="-2.34892">
        <ele>25.60000038147</ele>
        <time>2020-05-21T09:35:03.000Z</time>
      </trkpt>
      <trkpt lat="47.32722" lon="-2.34915">
        <ele>25.60000038147</ele>
        <time>2020-05-21T09:35:10.000Z</time>
      </trkpt>
      <trkpt lat="47.32697" lon="-2.34933">
        <ele>25.60000038147</ele>
        <time>2020-05-21T09:35:17.000Z</time>
      </trkpt>
      <trkpt lat="47.32681" lon="-2.34944">
        <ele>25.60000038147</ele>
        <time>2020-05-21T09:35:23.000Z</time>
      </trkpt>
      <trkpt lat="47.3267" lon="-2.34953">
        <ele>25.60000038147</ele>
        <time>2020-05-21T09:35:29.000Z</time>
      </trkpt>
      <trkpt lat="47.32661" lon="-2.34959">
        <ele>25.60000038147</ele>
        <time>2020-05-21T09:35:35.000Z</time>
      </trkpt>
      <trkpt lat="47.32646" lon="-2.34969">
        <ele>25.60000038147</ele>
        <time>2020-05-21T09:35:39.000Z</time>
      </trkpt>
      <trkpt lat="47.32643" lon="-2.34972">
        <ele>26.200000762939</ele>
        <time>2020-05-21T09:35:40.000Z</time>
      </trkpt>
      <trkpt lat="47.32639" lon="-2.34974">
        <ele>26.60000038147</ele>
        <time>2020-05-21T09:35:41.000Z</time>
      </trkpt>
      <trkpt lat="47.32635" lon="-2.34976">
        <ele>27</ele>
        <time>2020-05-21T09:35:42.000Z</time>
      </trkpt>
      <trkpt lat="47.32632" lon="-2.34978">
        <ele>27.39999961853</ele>
        <time>2020-05-21T09:35:43.000Z</time>
      </trkpt>
      <trkpt lat="47.32628" lon="-2.34979">
        <ele>27.799999237061</ele>
        <time>2020-05-21T09:35:44.000Z</time>
      </trkpt>
      <trkpt lat="47.3262" lon="-2.34981">
        <ele>27.799999237061</ele>
        <time>2020-05-21T09:35:46.000Z</time>
      </trkpt>
      <trkpt lat="47.32603" lon="-2.34993">
        <ele>27.799999237061</ele>
        <time>2020-05-21T09:35:52.000Z</time>
      </trkpt>
      <trkpt lat="47.32579" lon="-2.35003">
        <ele>27.799999237061</ele>
        <time>2020-05-21T09:35:58.000Z</time>
      </trkpt>
      <trkpt lat="47.32555" lon="-2.35012">
        <ele>27.799999237061</ele>
        <time>2020-05-21T09:36:04.000Z</time>
      </trkpt>
      <trkpt lat="47.32534" lon="-2.3502">
        <ele>28.200000762939</ele>
        <time>2020-05-21T09:36:09.000Z</time>
      </trkpt>
      <trkpt lat="47.32528" lon="-2.35021">
        <ele>28.60000038147</ele>
        <time>2020-05-21T09:36:10.000Z</time>
      </trkpt>
      <trkpt lat="47.32522" lon="-2.35022">
        <ele>29</ele>
        <time>2020-05-21T09:36:11.000Z</time>
      </trkpt>
      <trkpt lat="47.32517" lon="-2.35024">
        <ele>29.39999961853</ele>
        <time>2020-05-21T09:36:12.000Z</time>
      </trkpt>
      <trkpt lat="47.32512" lon="-2.35024">
        <ele>29.799999237061</ele>
        <time>2020-05-21T09:36:13.000Z</time>
      </trkpt>
      <trkpt lat="47.32493" lon="-2.35028">
        <ele>29.799999237061</ele>
        <time>2020-05-21T09:36:17.000Z</time>
      </trkpt>
      <trkpt lat="47.32459" lon="-2.35039">
        <ele>29.799999237061</ele>
        <time>2020-05-21T09:36:24.000Z</time>
      </trkpt>
      <trkpt lat="47.32424" lon="-2.35049">
        <ele>29.799999237061</ele>
        <time>2020-05-21T09:36:31.000Z</time>
      </trkpt>
      <trkpt lat="47.32393" lon="-2.3505">
        <ele>29.799999237061</ele>
        <time>2020-05-21T09:36:37.000Z</time>
      </trkpt>
      <trkpt lat="47.32388" lon="-2.3505">
        <ele>29.799999237061</ele>
        <time>2020-05-21T09:36:38.000Z</time>
      </trkpt>
      <trkpt lat="47.32346" lon="-2.3505">
        <ele>29.799999237061</ele>
        <time>2020-05-21T09:36:45.000Z</time>
      </trkpt>
      <trkpt lat="47.32305" lon="-2.35049">
        <ele>29.799999237061</ele>
        <time>2020-05-21T09:36:51.000Z</time>
      </trkpt>
      <trkpt lat="47.32269" lon="-2.35051">
        <ele>29.799999237061</ele>
        <time>2020-05-21T09:36:57.000Z</time>
      </trkpt>
      <trkpt lat="47.32243" lon="-2.35052">
        <ele>29.39999961853</ele>
        <time>2020-05-21T09:37:02.000Z</time>
      </trkpt>
      <trkpt lat="47.32237" lon="-2.35053">
        <ele>29</ele>
        <time>2020-05-21T09:37:03.000Z</time>
      </trkpt>
      <trkpt lat="47.32233" lon="-2.35054">
        <ele>28.60000038147</ele>
        <time>2020-05-21T09:37:04.000Z</time>
      </trkpt>
      <trkpt lat="47.32228" lon="-2.35055">
        <ele>28.200000762939</ele>
        <time>2020-05-21T09:37:05.000Z</time>
      </trkpt>
      <trkpt lat="47.32222" lon="-2.35055">
        <ele>27.799999237061</ele>
        <time>2020-05-21T09:37:06.000Z</time>
      </trkpt>
      <trkpt lat="47.3221" lon="-2.35057">
        <ele>27.799999237061</ele>
        <time>2020-05-21T09:37:08.000Z</time>
      </trkpt>
      <trkpt lat="47.32174" lon="-2.35059">
        <ele>27.799999237061</ele>
        <time>2020-05-21T09:37:14.000Z</time>
      </trkpt>
      <trkpt lat="47.32145" lon="-2.3506">
        <ele>27.799999237061</ele>
        <time>2020-05-21T09:37:19.000Z</time>
      </trkpt>
      <trkpt lat="47.321" lon="-2.35064">
        <ele>27.799999237061</ele>
        <time>2020-05-21T09:37:26.000Z</time>
      </trkpt>
      <trkpt lat="47.32061" lon="-2.3506">
        <ele>27.799999237061</ele>
        <time>2020-05-21T09:37:33.000Z</time>
      </trkpt>
      <trkpt lat="47.32041" lon="-2.3506">
        <ele>27.799999237061</ele>
        <time>2020-05-21T09:37:37.000Z</time>
      </trkpt>
      <trkpt lat="47.32036" lon="-2.35066">
        <ele>27.799999237061</ele>
        <time>2020-05-21T09:37:39.000Z</time>
      </trkpt>
      <trkpt lat="47.3204" lon="-2.35081">
        <ele>27.799999237061</ele>
        <time>2020-05-21T09:37:42.000Z</time>
      </trkpt>
      <trkpt lat="47.32043" lon="-2.35108">
        <ele>27.799999237061</ele>
        <time>2020-05-21T09:37:47.000Z</time>
      </trkpt>
      <trkpt lat="47.32031" lon="-2.35128">
        <ele>27.799999237061</ele>
        <time>2020-05-21T09:37:51.000Z</time>
      </trkpt>
      <trkpt lat="47.32012" lon="-2.35144">
        <ele>27.799999237061</ele>
        <time>2020-05-21T09:37:55.000Z</time>
      </trkpt>
      <trkpt lat="47.32003" lon="-2.35153">
        <ele>27.799999237061</ele>
        <time>2020-05-21T09:37:57.000Z</time>
      </trkpt>
      <trkpt lat="47.31978" lon="-2.35179">
        <ele>27.799999237061</ele>
        <time>2020-05-21T09:38:03.000Z</time>
      </trkpt>
      <trkpt lat="47.31947" lon="-2.3521">
        <ele>27.799999237061</ele>
        <time>2020-05-21T09:38:10.000Z</time>
      </trkpt>
      <trkpt lat="47.31933" lon="-2.35221">
        <ele>27.799999237061</ele>
        <time>2020-05-21T09:38:13.000Z</time>
      </trkpt>
      <trkpt lat="47.31924" lon="-2.35229">
        <ele>27.799999237061</ele>
        <time>2020-05-21T09:38:15.000Z</time>
      </trkpt>
      <trkpt lat="47.3189" lon="-2.35261">
        <ele>27.799999237061</ele>
        <time>2020-05-21T09:38:22.000Z</time>
      </trkpt>
      <trkpt lat="47.31881" lon="-2.35269">
        <ele>27.799999237061</ele>
        <time>2020-05-21T09:38:24.000Z</time>
      </trkpt>
      <trkpt lat="47.31862" lon="-2.35284">
        <ele>27.799999237061</ele>
        <time>2020-05-21T09:38:28.000Z</time>
      </trkpt>
      <trkpt lat="47.31853" lon="-2.35291">
        <ele>28.200000762939</ele>
        <time>2020-05-21T09:38:30.000Z</time>
      </trkpt>
      <trkpt lat="47.31848" lon="-2.35293">
        <ele>28.60000038147</ele>
        <time>2020-05-21T09:38:31.000Z</time>
      </trkpt>
      <trkpt lat="47.31842" lon="-2.35297">
        <ele>29</ele>
        <time>2020-05-21T09:38:32.000Z</time>
      </trkpt>
      <trkpt lat="47.31838" lon="-2.35299">
        <ele>29.39999961853</ele>
        <time>2020-05-21T09:38:33.000Z</time>
      </trkpt>
      <trkpt lat="47.31834" lon="-2.35301">
        <ele>29.799999237061</ele>
        <time>2020-05-21T09:38:34.000Z</time>
      </trkpt>
      <trkpt lat="47.31827" lon="-2.35308">
        <ele>29.799999237061</ele>
        <time>2020-05-21T09:38:36.000Z</time>
      </trkpt>
      <trkpt lat="47.31803" lon="-2.35324">
        <ele>29.799999237061</ele>
        <time>2020-05-21T09:38:42.000Z</time>
      </trkpt>
      <trkpt lat="47.31786" lon="-2.35335">
        <ele>30.200000762939</ele>
        <time>2020-05-21T09:38:46.000Z</time>
      </trkpt>
      <trkpt lat="47.31781" lon="-2.35337">
        <ele>31</ele>
        <time>2020-05-21T09:38:47.000Z</time>
      </trkpt>
      <trkpt lat="47.31777" lon="-2.35339">
        <ele>31.39999961853</ele>
        <time>2020-05-21T09:38:48.000Z</time>
      </trkpt>
      <trkpt lat="47.31774" lon="-2.35341">
        <ele>31.799999237061</ele>
        <time>2020-05-21T09:38:49.000Z</time>
      </trkpt>
      <trkpt lat="47.31757" lon="-2.35354">
        <ele>31.799999237061</ele>
        <time>2020-05-21T09:38:54.000Z</time>
      </trkpt>
      <trkpt lat="47.31757" lon="-2.3536">
        <ele>31.799999237061</ele>
        <time>2020-05-21T09:38:55.000Z</time>
      </trkpt>
      <trkpt lat="47.31758" lon="-2.35364">
        <ele>31.799999237061</ele>
        <time>2020-05-21T09:38:56.000Z</time>
      </trkpt>
      <trkpt lat="47.31773" lon="-2.35392">
        <ele>31.799999237061</ele>
        <time>2020-05-21T09:39:02.000Z</time>
      </trkpt>
      <trkpt lat="47.31777" lon="-2.35397">
        <ele>31.799999237061</ele>
        <time>2020-05-21T09:39:03.000Z</time>
      </trkpt>
      <trkpt lat="47.31799" lon="-2.35429">
        <ele>31.799999237061</ele>
        <time>2020-05-21T09:39:09.000Z</time>
      </trkpt>
      <trkpt lat="47.31803" lon="-2.35436">
        <ele>31.799999237061</ele>
        <time>2020-05-21T09:39:10.000Z</time>
      </trkpt>
      <trkpt lat="47.3181" lon="-2.35451">
        <ele>31.39999961853</ele>
        <time>2020-05-21T09:39:13.000Z</time>
      </trkpt>
      <trkpt lat="47.31812" lon="-2.35454">
        <ele>31</ele>
        <time>2020-05-21T09:39:14.000Z</time>
      </trkpt>
      <trkpt lat="47.31814" lon="-2.35459">
        <ele>30.60000038147</ele>
        <time>2020-05-21T09:39:15.000Z</time>
      </trkpt>
      <trkpt lat="47.31815" lon="-2.35462">
        <ele>30.200000762939</ele>
        <time>2020-05-21T09:39:16.000Z</time>
      </trkpt>
      <trkpt lat="47.31817" lon="-2.35465">
        <ele>29.799999237061</ele>
        <time>2020-05-21T09:39:17.000Z</time>
      </trkpt>
      <trkpt lat="47.31821" lon="-2.35477">
        <ele>29.799999237061</ele>
        <time>2020-05-21T09:39:20.000Z</time>
      </trkpt>
      <trkpt lat="47.31833" lon="-2.35511">
        <ele>29.799999237061</ele>
        <time>2020-05-21T09:39:26.000Z</time>
      </trkpt>
      <trkpt lat="47.31843" lon="-2.35539">
        <ele>29.799999237061</ele>
        <time>2020-05-21T09:39:32.000Z</time>
      </trkpt>
      <trkpt lat="47.31843" lon="-2.35543">
        <ele>29.799999237061</ele>
        <time>2020-05-21T09:39:33.000Z</time>
      </trkpt>
      <trkpt lat="47.3184" lon="-2.35548">
        <ele>29.799999237061</ele>
        <time>2020-05-21T09:39:35.000Z</time>
      </trkpt>
      <trkpt lat="47.31834" lon="-2.35552">
        <ele>29.799999237061</ele>
        <time>2020-05-21T09:39:37.000Z</time>
      </trkpt>
      <trkpt lat="47.31824" lon="-2.35561">
        <ele>29.799999237061</ele>
        <time>2020-05-21T09:39:40.000Z</time>
      </trkpt>
      <trkpt lat="47.31817" lon="-2.35572">
        <ele>29.799999237061</ele>
        <time>2020-05-21T09:39:43.000Z</time>
      </trkpt>
      <trkpt lat="47.31814" lon="-2.35582">
        <ele>29.799999237061</ele>
        <time>2020-05-21T09:39:45.000Z</time>
      </trkpt>
      <trkpt lat="47.3181" lon="-2.35591">
        <ele>29.799999237061</ele>
        <time>2020-05-21T09:39:47.000Z</time>
      </trkpt>
      <trkpt lat="47.31802" lon="-2.35603">
        <ele>29.799999237061</ele>
        <time>2020-05-21T09:39:50.000Z</time>
      </trkpt>
      <trkpt lat="47.31789" lon="-2.35628">
        <ele>29.799999237061</ele>
        <time>2020-05-21T09:39:57.000Z</time>
      </trkpt>
      <trkpt lat="47.31788" lon="-2.35651">
        <ele>30.200000762939</ele>
        <time>2020-05-21T09:40:02.000Z</time>
      </trkpt>
      <trkpt lat="47.31788" lon="-2.35657">
        <ele>30.60000038147</ele>
        <time>2020-05-21T09:40:03.000Z</time>
      </trkpt>
      <trkpt lat="47.31789" lon="-2.35662">
        <ele>31</ele>
        <time>2020-05-21T09:40:04.000Z</time>
      </trkpt>
      <trkpt lat="47.31789" lon="-2.35667">
        <ele>31.39999961853</ele>
        <time>2020-05-21T09:40:05.000Z</time>
      </trkpt>
      <trkpt lat="47.31789" lon="-2.35672">
        <ele>32</ele>
        <time>2020-05-21T09:40:06.000Z</time>
      </trkpt>
      <trkpt lat="47.31788" lon="-2.35682">
        <ele>32</ele>
        <time>2020-05-21T09:40:08.000Z</time>
      </trkpt>
      <trkpt lat="47.31785" lon="-2.35718">
        <ele>32.400001525879</ele>
        <time>2020-05-21T09:40:14.000Z</time>
      </trkpt>
      <trkpt lat="47.31785" lon="-2.35724">
        <ele>32.799999237061</ele>
        <time>2020-05-21T09:40:15.000Z</time>
      </trkpt>
      <trkpt lat="47.31786" lon="-2.3573">
        <ele>33.200000762939</ele>
        <time>2020-05-21T09:40:16.000Z</time>
      </trkpt>
      <trkpt lat="47.31786" lon="-2.35737">
        <ele>33.599998474121</ele>
        <time>2020-05-21T09:40:17.000Z</time>
      </trkpt>
      <trkpt lat="47.31787" lon="-2.35743">
        <ele>34</ele>
        <time>2020-05-21T09:40:18.000Z</time>
      </trkpt>
      <trkpt lat="47.31786" lon="-2.35764">
        <ele>34</ele>
        <time>2020-05-21T09:40:21.000Z</time>
      </trkpt>
      <trkpt lat="47.31793" lon="-2.35796">
        <ele>34</ele>
        <time>2020-05-21T09:40:26.000Z</time>
      </trkpt>
      <trkpt lat="47.31808" lon="-2.35819">
        <ele>34</ele>
        <time>2020-05-21T09:40:31.000Z</time>
      </trkpt>
      <trkpt lat="47.31822" lon="-2.3584">
        <ele>34</ele>
        <time>2020-05-21T09:40:36.000Z</time>
      </trkpt>
      <trkpt lat="47.31827" lon="-2.35865">
        <ele>34</ele>
        <time>2020-05-21T09:40:41.000Z</time>
      </trkpt>
      <trkpt lat="47.31815" lon="-2.35881">
        <ele>34</ele>
        <time>2020-05-21T09:40:45.000Z</time>
      </trkpt>
      <trkpt lat="47.31811" lon="-2.35883">
        <ele>34</ele>
        <time>2020-05-21T09:40:46.000Z</time>
      </trkpt>
      <trkpt lat="47.31803" lon="-2.35886">
        <ele>34</ele>
        <time>2020-05-21T09:40:48.000Z</time>
      </trkpt>
      <trkpt lat="47.31795" lon="-2.3589">
        <ele>34</ele>
        <time>2020-05-21T09:40:50.000Z</time>
      </trkpt>
      <trkpt lat="47.31791" lon="-2.35892">
        <ele>34</ele>
        <time>2020-05-21T09:40:51.000Z</time>
      </trkpt>
      <trkpt lat="47.31771" lon="-2.35905">
        <ele>34</ele>
        <time>2020-05-21T09:40:56.000Z</time>
      </trkpt>
      <trkpt lat="47.31752" lon="-2.35917">
        <ele>34.400001525879</ele>
        <time>2020-05-21T09:41:01.000Z</time>
      </trkpt>
      <trkpt lat="47.31748" lon="-2.3592">
        <ele>34.799999237061</ele>
        <time>2020-05-21T09:41:02.000Z</time>
      </trkpt>
      <trkpt lat="47.31743" lon="-2.35923">
        <ele>35.200000762939</ele>
        <time>2020-05-21T09:41:03.000Z</time>
      </trkpt>
      <trkpt lat="47.31739" lon="-2.35926">
        <ele>35.599998474121</ele>
        <time>2020-05-21T09:41:04.000Z</time>
      </trkpt>
      <trkpt lat="47.31735" lon="-2.35929">
        <ele>36</ele>
        <time>2020-05-21T09:41:05.000Z</time>
      </trkpt>
      <trkpt lat="47.3173" lon="-2.35931">
        <ele>36</ele>
        <time>2020-05-21T09:41:06.000Z</time>
      </trkpt>
      <trkpt lat="47.31722" lon="-2.35936">
        <ele>36</ele>
        <time>2020-05-21T09:41:08.000Z</time>
      </trkpt>
      <trkpt lat="47.31701" lon="-2.35947">
        <ele>36</ele>
        <time>2020-05-21T09:41:13.000Z</time>
      </trkpt>
      <trkpt lat="47.31693" lon="-2.35951">
        <ele>36</ele>
        <time>2020-05-21T09:41:15.000Z</time>
      </trkpt>
      <trkpt lat="47.31685" lon="-2.35956">
        <ele>36.400001525879</ele>
        <time>2020-05-21T09:41:17.000Z</time>
      </trkpt>
      <trkpt lat="47.31682" lon="-2.35958">
        <ele>36.799999237061</ele>
        <time>2020-05-21T09:41:18.000Z</time>
      </trkpt>
      <trkpt lat="47.31678" lon="-2.3596">
        <ele>37.200000762939</ele>
        <time>2020-05-21T09:41:19.000Z</time>
      </trkpt>
      <trkpt lat="47.31674" lon="-2.35962">
        <ele>37.599998474121</ele>
        <time>2020-05-21T09:41:20.000Z</time>
      </trkpt>
      <trkpt lat="47.31671" lon="-2.35964">
        <ele>38</ele>
        <time>2020-05-21T09:41:21.000Z</time>
      </trkpt>
      <trkpt lat="47.31667" lon="-2.35967">
        <ele>38</ele>
        <time>2020-05-21T09:41:22.000Z</time>
      </trkpt>
      <trkpt lat="47.31648" lon="-2.35979">
        <ele>38</ele>
        <time>2020-05-21T09:41:27.000Z</time>
      </trkpt>
      <trkpt lat="47.31642" lon="-2.35985">
        <ele>38</ele>
        <time>2020-05-21T09:41:29.000Z</time>
      </trkpt>
      <trkpt lat="47.31622" lon="-2.36004">
        <ele>38</ele>
        <time>2020-05-21T09:41:35.000Z</time>
      </trkpt>
      <trkpt lat="47.31602" lon="-2.36028">
        <ele>38.599998474121</ele>
        <time>2020-05-21T09:41:41.000Z</time>
      </trkpt>
      <trkpt lat="47.31598" lon="-2.36031">
        <ele>39</ele>
        <time>2020-05-21T09:41:42.000Z</time>
      </trkpt>
      <trkpt lat="47.31594" lon="-2.36034">
        <ele>39.400001525879</ele>
        <time>2020-05-21T09:41:43.000Z</time>
      </trkpt>
      <trkpt lat="47.31591" lon="-2.36038">
        <ele>39.799999237061</ele>
        <time>2020-05-21T09:41:44.000Z</time>
      </trkpt>
      <trkpt lat="47.31587" lon="-2.36042">
        <ele>40.200000762939</ele>
        <time>2020-05-21T09:41:45.000Z</time>
      </trkpt>
      <trkpt lat="47.31573" lon="-2.36054">
        <ele>40.200000762939</ele>
        <time>2020-05-21T09:41:49.000Z</time>
      </trkpt>
      <trkpt lat="47.31551" lon="-2.36075">
        <ele>40.200000762939</ele>
        <time>2020-05-21T09:41:55.000Z</time>
      </trkpt>
      <trkpt lat="47.31531" lon="-2.36099">
        <ele>40.200000762939</ele>
        <time>2020-05-21T09:42:01.000Z</time>
      </trkpt>
      <trkpt lat="47.31511" lon="-2.36122">
        <ele>40.200000762939</ele>
        <time>2020-05-21T09:42:07.000Z</time>
      </trkpt>
      <trkpt lat="47.31485" lon="-2.36153">
        <ele>40.200000762939</ele>
        <time>2020-05-21T09:42:14.000Z</time>
      </trkpt>
      <trkpt lat="47.31477" lon="-2.36161">
        <ele>40.599998474121</ele>
        <time>2020-05-21T09:42:16.000Z</time>
      </trkpt>
      <trkpt lat="47.31474" lon="-2.36165">
        <ele>41.200000762939</ele>
        <time>2020-05-21T09:42:17.000Z</time>
      </trkpt>
      <trkpt lat="47.3147" lon="-2.36168">
        <ele>41.599998474121</ele>
        <time>2020-05-21T09:42:18.000Z</time>
      </trkpt>
      <trkpt lat="47.31467" lon="-2.36171">
        <ele>42</ele>
        <time>2020-05-21T09:42:19.000Z</time>
      </trkpt>
      <trkpt lat="47.31464" lon="-2.36172">
        <ele>42.400001525879</ele>
        <time>2020-05-21T09:42:20.000Z</time>
      </trkpt>
      <trkpt lat="47.31461" lon="-2.36171">
        <ele>42.400001525879</ele>
        <time>2020-05-21T09:42:22.000Z</time>
      </trkpt>
      <trkpt lat="47.31459" lon="-2.36168">
        <ele>42.400001525879</ele>
        <time>2020-05-21T09:42:24.000Z</time>
      </trkpt>
      <trkpt lat="47.31455" lon="-2.36157">
        <ele>42.400001525879</ele>
        <time>2020-05-21T09:42:30.000Z</time>
      </trkpt>
      <trkpt lat="47.31455" lon="-2.36158">
        <ele>42.400001525879</ele>
        <time>2020-05-21T09:42:34.000Z</time>
      </trkpt>
      <trkpt lat="47.3146" lon="-2.36172">
        <ele>42.400001525879</ele>
        <time>2020-05-21T09:42:39.000Z</time>
      </trkpt>
      <trkpt lat="47.31459" lon="-2.3618">
        <ele>42.400001525879</ele>
        <time>2020-05-21T09:42:41.000Z</time>
      </trkpt>
      <trkpt lat="47.31455" lon="-2.36186">
        <ele>42.400001525879</ele>
        <time>2020-05-21T09:42:43.000Z</time>
      </trkpt>
      <trkpt lat="47.31435" lon="-2.36201">
        <ele>42.400001525879</ele>
        <time>2020-05-21T09:42:48.000Z</time>
      </trkpt>
      <trkpt lat="47.31406" lon="-2.36218">
        <ele>42.400001525879</ele>
        <time>2020-05-21T09:42:54.000Z</time>
      </trkpt>
      <trkpt lat="47.31379" lon="-2.3623">
        <ele>42.400001525879</ele>
        <time>2020-05-21T09:42:59.000Z</time>
      </trkpt>
      <trkpt lat="47.31375" lon="-2.36233">
        <ele>42.400001525879</ele>
        <time>2020-05-21T09:43:00.000Z</time>
      </trkpt>
      <trkpt lat="47.31337" lon="-2.36266">
        <ele>42.400001525879</ele>
        <time>2020-05-21T09:43:08.000Z</time>
      </trkpt>
      <trkpt lat="47.31332" lon="-2.36271">
        <ele>42.400001525879</ele>
        <time>2020-05-21T09:43:09.000Z</time>
      </trkpt>
      <trkpt lat="47.31314" lon="-2.36288">
        <ele>42.400001525879</ele>
        <time>2020-05-21T09:43:13.000Z</time>
      </trkpt>
      <trkpt lat="47.31283" lon="-2.36306">
        <ele>42.400001525879</ele>
        <time>2020-05-21T09:43:19.000Z</time>
      </trkpt>
      <trkpt lat="47.31249" lon="-2.36321">
        <ele>42.400001525879</ele>
        <time>2020-05-21T09:43:25.000Z</time>
      </trkpt>
      <trkpt lat="47.31227" lon="-2.36337">
        <ele>42.400001525879</ele>
        <time>2020-05-21T09:43:29.000Z</time>
      </trkpt>
      <trkpt lat="47.31216" lon="-2.36344">
        <ele>42.400001525879</ele>
        <time>2020-05-21T09:43:31.000Z</time>
      </trkpt>
      <trkpt lat="47.31181" lon="-2.36366">
        <ele>42.400001525879</ele>
        <time>2020-05-21T09:43:37.000Z</time>
      </trkpt>
      <trkpt lat="47.31142" lon="-2.36393">
        <ele>41.599998474121</ele>
        <time>2020-05-21T09:43:44.000Z</time>
      </trkpt>
      <trkpt lat="47.31137" lon="-2.36396">
        <ele>41.200000762939</ele>
        <time>2020-05-21T09:43:45.000Z</time>
      </trkpt>
      <trkpt lat="47.31131" lon="-2.364">
        <ele>40.799999237061</ele>
        <time>2020-05-21T09:43:46.000Z</time>
      </trkpt>
      <trkpt lat="47.31126" lon="-2.36403">
        <ele>40.400001525879</ele>
        <time>2020-05-21T09:43:47.000Z</time>
      </trkpt>
      <trkpt lat="47.31111" lon="-2.36412">
        <ele>40.400001525879</ele>
        <time>2020-05-21T09:43:50.000Z</time>
      </trkpt>
      <trkpt lat="47.31102" lon="-2.36416">
        <ele>40.400001525879</ele>
        <time>2020-05-21T09:43:52.000Z</time>
      </trkpt>
      <trkpt lat="47.31095" lon="-2.36417">
        <ele>40.400001525879</ele>
        <time>2020-05-21T09:43:54.000Z</time>
      </trkpt>
      <trkpt lat="47.31076" lon="-2.36417">
        <ele>40.400001525879</ele>
        <time>2020-05-21T09:43:59.000Z</time>
      </trkpt>
      <trkpt lat="47.31071" lon="-2.36418">
        <ele>40.400001525879</ele>
        <time>2020-05-21T09:44:00.000Z</time>
      </trkpt>
      <trkpt lat="47.31054" lon="-2.3642">
        <ele>40.400001525879</ele>
        <time>2020-05-21T09:44:04.000Z</time>
      </trkpt>
      <trkpt lat="47.3104" lon="-2.36422">
        <ele>40.400001525879</ele>
        <time>2020-05-21T09:44:07.000Z</time>
      </trkpt>
      <trkpt lat="47.31024" lon="-2.36426">
        <ele>40.400001525879</ele>
        <time>2020-05-21T09:44:10.000Z</time>
      </trkpt>
      <trkpt lat="47.31018" lon="-2.36428">
        <ele>40.400001525879</ele>
        <time>2020-05-21T09:44:11.000Z</time>
      </trkpt>
      <trkpt lat="47.30997" lon="-2.36437">
        <ele>40.400001525879</ele>
        <time>2020-05-21T09:44:15.000Z</time>
      </trkpt>
      <trkpt lat="47.30967" lon="-2.36451">
        <ele>40.400001525879</ele>
        <time>2020-05-21T09:44:21.000Z</time>
      </trkpt>
      <trkpt lat="47.30936" lon="-2.36462">
        <ele>40.799999237061</ele>
        <time>2020-05-21T09:44:27.000Z</time>
      </trkpt>
      <trkpt lat="47.3093" lon="-2.36463">
        <ele>41.200000762939</ele>
        <time>2020-05-21T09:44:28.000Z</time>
      </trkpt>
      <trkpt lat="47.30924" lon="-2.36465">
        <ele>41.599998474121</ele>
        <time>2020-05-21T09:44:29.000Z</time>
      </trkpt>
      <trkpt lat="47.30918" lon="-2.36466">
        <ele>42</ele>
        <time>2020-05-21T09:44:30.000Z</time>
      </trkpt>
      <trkpt lat="47.30913" lon="-2.36468">
        <ele>42.400001525879</ele>
        <time>2020-05-21T09:44:31.000Z</time>
      </trkpt>
      <trkpt lat="47.30896" lon="-2.36475">
        <ele>42.400001525879</ele>
        <time>2020-05-21T09:44:34.000Z</time>
      </trkpt>
      <trkpt lat="47.30891" lon="-2.36477">
        <ele>42.400001525879</ele>
        <time>2020-05-21T09:44:35.000Z</time>
      </trkpt>
      <trkpt lat="47.30875" lon="-2.36481">
        <ele>42.400001525879</ele>
        <time>2020-05-21T09:44:38.000Z</time>
      </trkpt>
      <trkpt lat="47.3084" lon="-2.36488">
        <ele>42.400001525879</ele>
        <time>2020-05-21T09:44:45.000Z</time>
      </trkpt>
      <trkpt lat="47.30831" lon="-2.36487">
        <ele>42.400001525879</ele>
        <time>2020-05-21T09:44:47.000Z</time>
      </trkpt>
      <trkpt lat="47.30823" lon="-2.36481">
        <ele>42.400001525879</ele>
        <time>2020-05-21T09:44:49.000Z</time>
      </trkpt>
      <trkpt lat="47.30803" lon="-2.36473">
        <ele>42.400001525879</ele>
        <time>2020-05-21T09:44:53.000Z</time>
      </trkpt>
      <trkpt lat="47.30782" lon="-2.36482">
        <ele>42.400001525879</ele>
        <time>2020-05-21T09:44:57.000Z</time>
      </trkpt>
      <trkpt lat="47.30767" lon="-2.36488">
        <ele>42.400001525879</ele>
        <time>2020-05-21T09:45:00.000Z</time>
      </trkpt>
      <trkpt lat="47.3075" lon="-2.36494">
        <ele>42.400001525879</ele>
        <time>2020-05-21T09:45:03.000Z</time>
      </trkpt>
      <trkpt lat="47.30723" lon="-2.36506">
        <ele>42.799999237061</ele>
        <time>2020-05-21T09:45:08.000Z</time>
      </trkpt>
      <trkpt lat="47.30719" lon="-2.36509">
        <ele>43.200000762939</ele>
        <time>2020-05-21T09:45:09.000Z</time>
      </trkpt>
      <trkpt lat="47.30714" lon="-2.36512">
        <ele>43.599998474121</ele>
        <time>2020-05-21T09:45:10.000Z</time>
      </trkpt>
      <trkpt lat="47.30711" lon="-2.36515">
        <ele>44</ele>
        <time>2020-05-21T09:45:11.000Z</time>
      </trkpt>
      <trkpt lat="47.30708" lon="-2.36519">
        <ele>44.599998474121</ele>
        <time>2020-05-21T09:45:12.000Z</time>
      </trkpt>
      <trkpt lat="47.30702" lon="-2.36523">
        <ele>44.599998474121</ele>
        <time>2020-05-21T09:45:14.000Z</time>
      </trkpt>
      <trkpt lat="47.30699" lon="-2.36521">
        <ele>44.599998474121</ele>
        <time>2020-05-21T09:45:15.000Z</time>
      </trkpt>
      <trkpt lat="47.30693" lon="-2.36513">
        <ele>44.599998474121</ele>
        <time>2020-05-21T09:45:18.000Z</time>
      </trkpt>
      <trkpt lat="47.30689" lon="-2.36513">
        <ele>44.599998474121</ele>
        <time>2020-05-21T09:45:19.000Z</time>
      </trkpt>
      <trkpt lat="47.30669" lon="-2.36521">
        <ele>44.599998474121</ele>
        <time>2020-05-21T09:45:24.000Z</time>
      </trkpt>
      <trkpt lat="47.30642" lon="-2.36535">
        <ele>45</ele>
        <time>2020-05-21T09:45:31.000Z</time>
      </trkpt>
      <trkpt lat="47.30638" lon="-2.36537">
        <ele>45.400001525879</ele>
        <time>2020-05-21T09:45:32.000Z</time>
      </trkpt>
      <trkpt lat="47.30635" lon="-2.36539">
        <ele>45.799999237061</ele>
        <time>2020-05-21T09:45:33.000Z</time>
      </trkpt>
      <trkpt lat="47.3063" lon="-2.3654">
        <ele>46.200000762939</ele>
        <time>2020-05-21T09:45:34.000Z</time>
      </trkpt>
      <trkpt lat="47.30626" lon="-2.36542">
        <ele>46.799999237061</ele>
        <time>2020-05-21T09:45:35.000Z</time>
      </trkpt>
      <trkpt lat="47.30604" lon="-2.36549">
        <ele>46.799999237061</ele>
        <time>2020-05-21T09:45:40.000Z</time>
      </trkpt>
      <trkpt lat="47.30571" lon="-2.36559">
        <ele>46.799999237061</ele>
        <time>2020-05-21T09:45:47.000Z</time>
      </trkpt>
      <trkpt lat="47.30543" lon="-2.36579">
        <ele>46.799999237061</ele>
        <time>2020-05-21T09:45:53.000Z</time>
      </trkpt>
      <trkpt lat="47.30527" lon="-2.36591">
        <ele>46.799999237061</ele>
        <time>2020-05-21T09:45:57.000Z</time>
      </trkpt>
      <trkpt lat="47.30514" lon="-2.36597">
        <ele>46.799999237061</ele>
        <time>2020-05-21T09:46:00.000Z</time>
      </trkpt>
      <trkpt lat="47.30488" lon="-2.36606">
        <ele>46.799999237061</ele>
        <time>2020-05-21T09:46:06.000Z</time>
      </trkpt>
      <trkpt lat="47.30475" lon="-2.36614">
        <ele>46.799999237061</ele>
        <time>2020-05-21T09:46:10.000Z</time>
      </trkpt>
      <trkpt lat="47.30447" lon="-2.36634">
        <ele>46.799999237061</ele>
        <time>2020-05-21T09:46:17.000Z</time>
      </trkpt>
      <trkpt lat="47.30422" lon="-2.36655">
        <ele>46.799999237061</ele>
        <time>2020-05-21T09:46:24.000Z</time>
      </trkpt>
      <trkpt lat="47.30417" lon="-2.36656">
        <ele>46.799999237061</ele>
        <time>2020-05-21T09:46:25.000Z</time>
      </trkpt>
      <trkpt lat="47.30397" lon="-2.3666">
        <ele>46.799999237061</ele>
        <time>2020-05-21T09:46:29.000Z</time>
      </trkpt>
      <trkpt lat="47.30369" lon="-2.36659">
        <ele>46.799999237061</ele>
        <time>2020-05-21T09:46:34.000Z</time>
      </trkpt>
      <trkpt lat="47.30336" lon="-2.36654">
        <ele>46.799999237061</ele>
        <time>2020-05-21T09:46:40.000Z</time>
      </trkpt>
      <trkpt lat="47.30307" lon="-2.36649">
        <ele>46.799999237061</ele>
        <time>2020-05-21T09:46:45.000Z</time>
      </trkpt>
      <trkpt lat="47.30301" lon="-2.3665">
        <ele>46.799999237061</ele>
        <time>2020-05-21T09:46:46.000Z</time>
      </trkpt>
      <trkpt lat="47.30275" lon="-2.3666">
        <ele>46.799999237061</ele>
        <time>2020-05-21T09:46:51.000Z</time>
      </trkpt>
      <trkpt lat="47.30238" lon="-2.36671">
        <ele>46.799999237061</ele>
        <time>2020-05-21T09:46:58.000Z</time>
      </trkpt>
      <trkpt lat="47.30207" lon="-2.36675">
        <ele>46.799999237061</ele>
        <time>2020-05-21T09:47:04.000Z</time>
      </trkpt>
      <trkpt lat="47.30186" lon="-2.3668">
        <ele>46.799999237061</ele>
        <time>2020-05-21T09:47:09.000Z</time>
      </trkpt>
      <trkpt lat="47.30186" lon="-2.3668">
        <ele>46.200000762939</ele>
        <time>2020-05-21T09:47:10.000Z</time>
      </trkpt>
      <trkpt lat="47.30186" lon="-2.3668">
        <ele>45.799999237061</ele>
        <time>2020-05-21T09:47:11.000Z</time>
      </trkpt>
      <trkpt lat="47.30176" lon="-2.36681">
        <ele>44.599998474121</ele>
        <time>2020-05-21T09:54:23.000Z</time>
      </trkpt>
      <trkpt lat="47.30164" lon="-2.36684">
        <ele>44.599998474121</ele>
        <time>2020-05-21T09:54:28.000Z</time>
      </trkpt>
      <trkpt lat="47.30151" lon="-2.36691">
        <ele>44.200000762939</ele>
        <time>2020-05-21T09:54:31.000Z</time>
      </trkpt>
      <trkpt lat="47.30145" lon="-2.36695">
        <ele>43.799999237061</ele>
        <time>2020-05-21T09:54:32.000Z</time>
      </trkpt>
      <trkpt lat="47.3014" lon="-2.367">
        <ele>43.400001525879</ele>
        <time>2020-05-21T09:54:33.000Z</time>
      </trkpt>
      <trkpt lat="47.30134" lon="-2.36704">
        <ele>43</ele>
        <time>2020-05-21T09:54:34.000Z</time>
      </trkpt>
      <trkpt lat="47.30128" lon="-2.36709">
        <ele>42.599998474121</ele>
        <time>2020-05-21T09:54:35.000Z</time>
      </trkpt>
      <trkpt lat="47.30112" lon="-2.36721">
        <ele>42.599998474121</ele>
        <time>2020-05-21T09:54:38.000Z</time>
      </trkpt>
      <trkpt lat="47.30088" lon="-2.36739">
        <ele>42.599998474121</ele>
        <time>2020-05-21T09:54:43.000Z</time>
      </trkpt>
      <trkpt lat="47.30065" lon="-2.36762">
        <ele>43</ele>
        <time>2020-05-21T09:54:49.000Z</time>
      </trkpt>
      <trkpt lat="47.30061" lon="-2.36767">
        <ele>43.400001525879</ele>
        <time>2020-05-21T09:54:50.000Z</time>
      </trkpt>
      <trkpt lat="47.30057" lon="-2.36772">
        <ele>44.200000762939</ele>
        <time>2020-05-21T09:54:51.000Z</time>
      </trkpt>
      <trkpt lat="47.30053" lon="-2.36776">
        <ele>44.599998474121</ele>
        <time>2020-05-21T09:54:52.000Z</time>
      </trkpt>
      <trkpt lat="47.30019" lon="-2.36817">
        <ele>44.599998474121</ele>
        <time>2020-05-21T09:55:00.000Z</time>
      </trkpt>
      <trkpt lat="47.30005" lon="-2.36832">
        <ele>44.599998474121</ele>
        <time>2020-05-21T09:55:03.000Z</time>
      </trkpt>
      <trkpt lat="47.29992" lon="-2.36848">
        <ele>44.599998474121</ele>
        <time>2020-05-21T09:55:06.000Z</time>
      </trkpt>
      <trkpt lat="47.29956" lon="-2.36893">
        <ele>44.599998474121</ele>
        <time>2020-05-21T09:55:15.000Z</time>
      </trkpt>
      <trkpt lat="47.29922" lon="-2.36934">
        <ele>44.599998474121</ele>
        <time>2020-05-21T09:55:24.000Z</time>
      </trkpt>
      <trkpt lat="47.29911" lon="-2.36949">
        <ele>44.599998474121</ele>
        <time>2020-05-21T09:55:27.000Z</time>
      </trkpt>
      <trkpt lat="47.29904" lon="-2.36965">
        <ele>44.599998474121</ele>
        <time>2020-05-21T09:55:30.000Z</time>
      </trkpt>
      <trkpt lat="47.29902" lon="-2.3697">
        <ele>44.599998474121</ele>
        <time>2020-05-21T09:55:31.000Z</time>
      </trkpt>
      <trkpt lat="47.29891" lon="-2.36975">
        <ele>44.599998474121</ele>
        <time>2020-05-21T09:55:35.000Z</time>
      </trkpt>
      <trkpt lat="47.29872" lon="-2.36984">
        <ele>44.599998474121</ele>
        <time>2020-05-21T09:55:39.000Z</time>
      </trkpt>
      <trkpt lat="47.29864" lon="-2.36993">
        <ele>44.599998474121</ele>
        <time>2020-05-21T09:55:41.000Z</time>
      </trkpt>
      <trkpt lat="47.29852" lon="-2.37009">
        <ele>44.599998474121</ele>
        <time>2020-05-21T09:55:44.000Z</time>
      </trkpt>
      <trkpt lat="47.29822" lon="-2.37048">
        <ele>44.599998474121</ele>
        <time>2020-05-21T09:55:51.000Z</time>
      </trkpt>
      <trkpt lat="47.29819" lon="-2.37054">
        <ele>44.599998474121</ele>
        <time>2020-05-21T09:55:52.000Z</time>
      </trkpt>
      <trkpt lat="47.29808" lon="-2.37083">
        <ele>44.599998474121</ele>
        <time>2020-05-21T09:55:56.000Z</time>
      </trkpt>
      <trkpt lat="47.29805" lon="-2.37098">
        <ele>44.599998474121</ele>
        <time>2020-05-21T09:55:58.000Z</time>
      </trkpt>
      <trkpt lat="47.29796" lon="-2.37145">
        <ele>44.599998474121</ele>
        <time>2020-05-21T09:56:04.000Z</time>
      </trkpt>
      <trkpt lat="47.29793" lon="-2.37152">
        <ele>44.599998474121</ele>
        <time>2020-05-21T09:56:05.000Z</time>
      </trkpt>
      <trkpt lat="47.29774" lon="-2.37174">
        <ele>45</ele>
        <time>2020-05-21T09:56:09.000Z</time>
      </trkpt>
      <trkpt lat="47.29769" lon="-2.37177">
        <ele>45.400001525879</ele>
        <time>2020-05-21T09:56:10.000Z</time>
      </trkpt>
      <trkpt lat="47.29763" lon="-2.3718">
        <ele>45.799999237061</ele>
        <time>2020-05-21T09:56:11.000Z</time>
      </trkpt>
      <trkpt lat="47.29757" lon="-2.37183">
        <ele>46.200000762939</ele>
        <time>2020-05-21T09:56:12.000Z</time>
      </trkpt>
      <trkpt lat="47.29751" lon="-2.37185">
        <ele>46.599998474121</ele>
        <time>2020-05-21T09:56:13.000Z</time>
      </trkpt>
      <trkpt lat="47.29745" lon="-2.37186">
        <ele>46.599998474121</ele>
        <time>2020-05-21T09:56:14.000Z</time>
      </trkpt>
      <trkpt lat="47.29714" lon="-2.3719">
        <ele>46.599998474121</ele>
        <time>2020-05-21T09:56:19.000Z</time>
      </trkpt>
      <trkpt lat="47.297" lon="-2.37196">
        <ele>46.599998474121</ele>
        <time>2020-05-21T09:56:21.000Z</time>
      </trkpt>
      <trkpt lat="47.29647" lon="-2.37217">
        <ele>46.599998474121</ele>
        <time>2020-05-21T09:56:29.000Z</time>
      </trkpt>
      <trkpt lat="47.29634" lon="-2.37222">
        <ele>46.200000762939</ele>
        <time>2020-05-21T09:56:31.000Z</time>
      </trkpt>
      <trkpt lat="47.29628" lon="-2.37226">
        <ele>45.799999237061</ele>
        <time>2020-05-21T09:56:32.000Z</time>
      </trkpt>
      <trkpt lat="47.29621" lon="-2.37229">
        <ele>45.400001525879</ele>
        <time>2020-05-21T09:56:33.000Z</time>
      </trkpt>
      <trkpt lat="47.29615" lon="-2.37232">
        <ele>44.799999237061</ele>
        <time>2020-05-21T09:56:34.000Z</time>
      </trkpt>
      <trkpt lat="47.29608" lon="-2.37236">
        <ele>44.400001525879</ele>
        <time>2020-05-21T09:56:35.000Z</time>
      </trkpt>
      <trkpt lat="47.29601" lon="-2.3724">
        <ele>44.400001525879</ele>
        <time>2020-05-21T09:56:36.000Z</time>
      </trkpt>
      <trkpt lat="47.29555" lon="-2.37266">
        <ele>44</ele>
        <time>2020-05-21T09:56:43.000Z</time>
      </trkpt>
      <trkpt lat="47.29548" lon="-2.3727">
        <ele>43.599998474121</ele>
        <time>2020-05-21T09:56:44.000Z</time>
      </trkpt>
      <trkpt lat="47.29541" lon="-2.37275">
        <ele>43.200000762939</ele>
        <time>2020-05-21T09:56:45.000Z</time>
      </trkpt>
      <trkpt lat="47.29534" lon="-2.37279">
        <ele>42.799999237061</ele>
        <time>2020-05-21T09:56:46.000Z</time>
      </trkpt>
      <trkpt lat="47.29527" lon="-2.37283">
        <ele>42.400001525879</ele>
        <time>2020-05-21T09:56:47.000Z</time>
      </trkpt>
      <trkpt lat="47.29519" lon="-2.37286">
        <ele>42.400001525879</ele>
        <time>2020-05-21T09:56:48.000Z</time>
      </trkpt>
      <trkpt lat="47.29511" lon="-2.37287">
        <ele>42</ele>
        <time>2020-05-21T09:56:49.000Z</time>
      </trkpt>
      <trkpt lat="47.29502" lon="-2.37288">
        <ele>41.599998474121</ele>
        <time>2020-05-21T09:56:50.000Z</time>
      </trkpt>
      <trkpt lat="47.29494" lon="-2.37288">
        <ele>41.200000762939</ele>
        <time>2020-05-21T09:56:51.000Z</time>
      </trkpt>
      <trkpt lat="47.29487" lon="-2.37288">
        <ele>40.799999237061</ele>
        <time>2020-05-21T09:56:52.000Z</time>
      </trkpt>
      <trkpt lat="47.2948" lon="-2.37289">
        <ele>40.400001525879</ele>
        <time>2020-05-21T09:56:53.000Z</time>
      </trkpt>
      <trkpt lat="47.2947" lon="-2.3729">
        <ele>39.400001525879</ele>
        <time>2020-05-21T09:56:55.000Z</time>
      </trkpt>
      <trkpt lat="47.29466" lon="-2.37289">
        <ele>39</ele>
        <time>2020-05-21T09:56:56.000Z</time>
      </trkpt>
      <trkpt lat="47.29461" lon="-2.37286">
        <ele>38.599998474121</ele>
        <time>2020-05-21T09:56:57.000Z</time>
      </trkpt>
      <trkpt lat="47.29457" lon="-2.37283">
        <ele>38.200000762939</ele>
        <time>2020-05-21T09:56:58.000Z</time>
      </trkpt>
      <trkpt lat="47.29452" lon="-2.37278">
        <ele>38.200000762939</ele>
        <time>2020-05-21T09:56:59.000Z</time>
      </trkpt>
      <trkpt lat="47.29438" lon="-2.37266">
        <ele>38.200000762939</ele>
        <time>2020-05-21T09:57:02.000Z</time>
      </trkpt>
      <trkpt lat="47.29429" lon="-2.37257">
        <ele>37.799999237061</ele>
        <time>2020-05-21T09:57:04.000Z</time>
      </trkpt>
      <trkpt lat="47.29424" lon="-2.37252">
        <ele>37.200000762939</ele>
        <time>2020-05-21T09:57:05.000Z</time>
      </trkpt>
      <trkpt lat="47.29419" lon="-2.37248">
        <ele>36.799999237061</ele>
        <time>2020-05-21T09:57:06.000Z</time>
      </trkpt>
      <trkpt lat="47.29414" lon="-2.37245">
        <ele>36.400001525879</ele>
        <time>2020-05-21T09:57:07.000Z</time>
      </trkpt>
      <trkpt lat="47.29408" lon="-2.37241">
        <ele>36</ele>
        <time>2020-05-21T09:57:08.000Z</time>
      </trkpt>
      <trkpt lat="47.29398" lon="-2.37232">
        <ele>35.599998474121</ele>
        <time>2020-05-21T09:57:10.000Z</time>
      </trkpt>
      <trkpt lat="47.29391" lon="-2.37228">
        <ele>35.200000762939</ele>
        <time>2020-05-21T09:57:11.000Z</time>
      </trkpt>
      <trkpt lat="47.29385" lon="-2.37225">
        <ele>34.799999237061</ele>
        <time>2020-05-21T09:57:12.000Z</time>
      </trkpt>
      <trkpt lat="47.29379" lon="-2.37222">
        <ele>34.400001525879</ele>
        <time>2020-05-21T09:57:13.000Z</time>
      </trkpt>
      <trkpt lat="47.29372" lon="-2.37219">
        <ele>34</ele>
        <time>2020-05-21T09:57:14.000Z</time>
      </trkpt>
      <trkpt lat="47.29339" lon="-2.372">
        <ele>34</ele>
        <time>2020-05-21T09:57:20.000Z</time>
      </trkpt>
      <trkpt lat="47.2931" lon="-2.37175">
        <ele>34</ele>
        <time>2020-05-21T09:57:26.000Z</time>
      </trkpt>
      <trkpt lat="47.29289" lon="-2.37155">
        <ele>34</ele>
        <time>2020-05-21T09:57:31.000Z</time>
      </trkpt>
      <trkpt lat="47.29285" lon="-2.37155">
        <ele>34</ele>
        <time>2020-05-21T09:57:32.000Z</time>
      </trkpt>
      <trkpt lat="47.29273" lon="-2.37167">
        <ele>34</ele>
        <time>2020-05-21T09:57:35.000Z</time>
      </trkpt>
      <trkpt lat="47.29266" lon="-2.37179">
        <ele>34</ele>
        <time>2020-05-21T09:57:37.000Z</time>
      </trkpt>
      <trkpt lat="47.29251" lon="-2.37203">
        <ele>34</ele>
        <time>2020-05-21T09:57:41.000Z</time>
      </trkpt>
      <trkpt lat="47.29225" lon="-2.37242">
        <ele>34</ele>
        <time>2020-05-21T09:57:47.000Z</time>
      </trkpt>
      <trkpt lat="47.2922" lon="-2.37249">
        <ele>33.599998474121</ele>
        <time>2020-05-21T09:57:48.000Z</time>
      </trkpt>
      <trkpt lat="47.29215" lon="-2.37256">
        <ele>33.200000762939</ele>
        <time>2020-05-21T09:57:49.000Z</time>
      </trkpt>
      <trkpt lat="47.29211" lon="-2.37262">
        <ele>32.799999237061</ele>
        <time>2020-05-21T09:57:50.000Z</time>
      </trkpt>
      <trkpt lat="47.29205" lon="-2.37269">
        <ele>32.200000762939</ele>
        <time>2020-05-21T09:57:51.000Z</time>
      </trkpt>
      <trkpt lat="47.292" lon="-2.37276">
        <ele>31.799999237061</ele>
        <time>2020-05-21T09:57:52.000Z</time>
      </trkpt>
      <trkpt lat="47.29189" lon="-2.37291">
        <ele>31.39999961853</ele>
        <time>2020-05-21T09:57:54.000Z</time>
      </trkpt>
      <trkpt lat="47.29184" lon="-2.37298">
        <ele>31</ele>
        <time>2020-05-21T09:57:55.000Z</time>
      </trkpt>
      <trkpt lat="47.29178" lon="-2.37305">
        <ele>30.39999961853</ele>
        <time>2020-05-21T09:57:56.000Z</time>
      </trkpt>
      <trkpt lat="47.29173" lon="-2.37311">
        <ele>30</ele>
        <time>2020-05-21T09:57:57.000Z</time>
      </trkpt>
      <trkpt lat="47.29168" lon="-2.37317">
        <ele>29.60000038147</ele>
        <time>2020-05-21T09:57:58.000Z</time>
      </trkpt>
      <trkpt lat="47.29163" lon="-2.37322">
        <ele>29.200000762939</ele>
        <time>2020-05-21T09:57:59.000Z</time>
      </trkpt>
      <trkpt lat="47.29159" lon="-2.37326">
        <ele>28.60000038147</ele>
        <time>2020-05-21T09:58:00.000Z</time>
      </trkpt>
      <trkpt lat="47.29157" lon="-2.3733">
        <ele>28.200000762939</ele>
        <time>2020-05-21T09:58:01.000Z</time>
      </trkpt>
      <trkpt lat="47.29155" lon="-2.37334">
        <ele>27.799999237061</ele>
        <time>2020-05-21T09:58:02.000Z</time>
      </trkpt>
      <trkpt lat="47.29156" lon="-2.37337">
        <ele>27.200000762939</ele>
        <time>2020-05-21T09:58:03.000Z</time>
      </trkpt>
      <trkpt lat="47.29156" lon="-2.3734">
        <ele>26.799999237061</ele>
        <time>2020-05-21T09:58:04.000Z</time>
      </trkpt>
      <trkpt lat="47.29157" lon="-2.37345">
        <ele>26.200000762939</ele>
        <time>2020-05-21T09:58:05.000Z</time>
      </trkpt>
      <trkpt lat="47.29156" lon="-2.3735">
        <ele>25.60000038147</ele>
        <time>2020-05-21T09:58:06.000Z</time>
      </trkpt>
      <trkpt lat="47.29154" lon="-2.37354">
        <ele>25.200000762939</ele>
        <time>2020-05-21T09:58:07.000Z</time>
      </trkpt>
      <trkpt lat="47.29136" lon="-2.37378">
        <ele>25.200000762939</ele>
        <time>2020-05-21T09:58:11.000Z</time>
      </trkpt>
      <trkpt lat="47.29131" lon="-2.37385">
        <ele>24.60000038147</ele>
        <time>2020-05-21T09:58:12.000Z</time>
      </trkpt>
      <trkpt lat="47.29125" lon="-2.37393">
        <ele>24.200000762939</ele>
        <time>2020-05-21T09:58:13.000Z</time>
      </trkpt>
      <trkpt lat="47.29118" lon="-2.37401">
        <ele>23.799999237061</ele>
        <time>2020-05-21T09:58:14.000Z</time>
      </trkpt>
      <trkpt lat="47.29111" lon="-2.37409">
        <ele>23</ele>
        <time>2020-05-21T09:58:15.000Z</time>
      </trkpt>
      <trkpt lat="47.29103" lon="-2.37417">
        <ele>22.39999961853</ele>
        <time>2020-05-21T09:58:16.000Z</time>
      </trkpt>
      <trkpt lat="47.29095" lon="-2.37426">
        <ele>21.799999237061</ele>
        <time>2020-05-21T09:58:17.000Z</time>
      </trkpt>
      <trkpt lat="47.29087" lon="-2.37434">
        <ele>21</ele>
        <time>2020-05-21T09:58:18.000Z</time>
      </trkpt>
      <trkpt lat="47.29078" lon="-2.37443">
        <ele>20.39999961853</ele>
        <time>2020-05-21T09:58:19.000Z</time>
      </trkpt>
      <trkpt lat="47.2907" lon="-2.37452">
        <ele>20</ele>
        <time>2020-05-21T09:58:20.000Z</time>
      </trkpt>
      <trkpt lat="47.29061" lon="-2.37462">
        <ele>19.39999961853</ele>
        <time>2020-05-21T09:58:21.000Z</time>
      </trkpt>
      <trkpt lat="47.29053" lon="-2.37472">
        <ele>19</ele>
        <time>2020-05-21T09:58:22.000Z</time>
      </trkpt>
      <trkpt lat="47.29046" lon="-2.37481">
        <ele>18.60000038147</ele>
        <time>2020-05-21T09:58:23.000Z</time>
      </trkpt>
      <trkpt lat="47.29038" lon="-2.37491">
        <ele>18</ele>
        <time>2020-05-21T09:58:24.000Z</time>
      </trkpt>
      <trkpt lat="47.29032" lon="-2.37502">
        <ele>17.60000038147</ele>
        <time>2020-05-21T09:58:25.000Z</time>
      </trkpt>
      <trkpt lat="47.29025" lon="-2.37512">
        <ele>17</ele>
        <time>2020-05-21T09:58:26.000Z</time>
      </trkpt>
      <trkpt lat="47.29018" lon="-2.37523">
        <ele>16.60000038147</ele>
        <time>2020-05-21T09:58:27.000Z</time>
      </trkpt>
      <trkpt lat="47.29012" lon="-2.37533">
        <ele>16</ele>
        <time>2020-05-21T09:58:28.000Z</time>
      </trkpt>
      <trkpt lat="47.29005" lon="-2.37544">
        <ele>15.39999961853</ele>
        <time>2020-05-21T09:58:29.000Z</time>
      </trkpt>
      <trkpt lat="47.28999" lon="-2.37554">
        <ele>14.800000190735</ele>
        <time>2020-05-21T09:58:30.000Z</time>
      </trkpt>
      <trkpt lat="47.28992" lon="-2.37565">
        <ele>14.199999809265</ele>
        <time>2020-05-21T09:58:31.000Z</time>
      </trkpt>
      <trkpt lat="47.28986" lon="-2.37575">
        <ele>13.60000038147</ele>
        <time>2020-05-21T09:58:32.000Z</time>
      </trkpt>
      <trkpt lat="47.2898" lon="-2.37585">
        <ele>13.199999809265</ele>
        <time>2020-05-21T09:58:33.000Z</time>
      </trkpt>
      <trkpt lat="47.28974" lon="-2.37595">
        <ele>12</ele>
        <time>2020-05-21T09:58:34.000Z</time>
      </trkpt>
      <trkpt lat="47.28969" lon="-2.37605">
        <ele>11.60000038147</ele>
        <time>2020-05-21T09:58:35.000Z</time>
      </trkpt>
      <trkpt lat="47.2895" lon="-2.37637">
        <ele>11.60000038147</ele>
        <time>2020-05-21T09:58:39.000Z</time>
      </trkpt>
      <trkpt lat="47.28943" lon="-2.37646">
        <ele>11.60000038147</ele>
        <time>2020-05-21T09:58:41.000Z</time>
      </trkpt>
      <trkpt lat="47.2894" lon="-2.37647">
        <ele>11.60000038147</ele>
        <time>2020-05-21T09:58:42.000Z</time>
      </trkpt>
      <trkpt lat="47.28931" lon="-2.3765">
        <ele>11.60000038147</ele>
        <time>2020-05-21T09:58:45.000Z</time>
      </trkpt>
      <trkpt lat="47.28928" lon="-2.37649">
        <ele>11.60000038147</ele>
        <time>2020-05-21T09:58:46.000Z</time>
      </trkpt>
      <trkpt lat="47.28919" lon="-2.37648">
        <ele>11.60000038147</ele>
        <time>2020-05-21T09:58:48.000Z</time>
      </trkpt>
      <trkpt lat="47.28911" lon="-2.37649">
        <ele>11.60000038147</ele>
        <time>2020-05-21T09:58:50.000Z</time>
      </trkpt>
      <trkpt lat="47.28886" lon="-2.37655">
        <ele>11.60000038147</ele>
        <time>2020-05-21T09:58:56.000Z</time>
      </trkpt>
      <trkpt lat="47.28869" lon="-2.37657">
        <ele>11.60000038147</ele>
        <time>2020-05-21T09:59:00.000Z</time>
      </trkpt>
      <trkpt lat="47.28861" lon="-2.37653">
        <ele>11.60000038147</ele>
        <time>2020-05-21T09:59:03.000Z</time>
      </trkpt>
      <trkpt lat="47.2886" lon="-2.37648">
        <ele>11.60000038147</ele>
        <time>2020-05-21T09:59:04.000Z</time>
      </trkpt>
      <trkpt lat="47.28855" lon="-2.37635">
        <ele>11.60000038147</ele>
        <time>2020-05-21T09:59:08.000Z</time>
      </trkpt>
      <trkpt lat="47.28855" lon="-2.37634">
        <ele>11.60000038147</ele>
        <time>2020-05-21T09:59:09.000Z</time>
      </trkpt>
      <trkpt lat="47.28854" lon="-2.37633">
        <ele>11.60000038147</ele>
        <time>2020-05-21T09:59:11.000Z</time>
      </trkpt>
      <trkpt lat="47.28853" lon="-2.37631">
        <ele>11.60000038147</ele>
        <time>2020-05-21T09:59:38.000Z</time>
      </trkpt>
      <trkpt lat="47.28851" lon="-2.3763">
        <ele>11.60000038147</ele>
        <time>2020-05-21T09:59:39.000Z</time>
      </trkpt>
      <trkpt lat="47.28849" lon="-2.37629">
        <ele>11.199999809265</ele>
        <time>2020-05-21T09:59:40.000Z</time>
      </trkpt>
      <trkpt lat="47.28846" lon="-2.37631">
        <ele>10.60000038147</ele>
        <time>2020-05-21T09:59:41.000Z</time>
      </trkpt>
      <trkpt lat="47.28844" lon="-2.37634">
        <ele>10.199999809265</ele>
        <time>2020-05-21T09:59:42.000Z</time>
      </trkpt>
      <trkpt lat="47.28842" lon="-2.37636">
        <ele>9.8000001907349</ele>
        <time>2020-05-21T09:59:43.000Z</time>
      </trkpt>
      <trkpt lat="47.2884" lon="-2.37639">
        <ele>9.3999996185303</ele>
        <time>2020-05-21T09:59:44.000Z</time>
      </trkpt>
      <trkpt lat="47.28832" lon="-2.37654">
        <ele>9.3999996185303</ele>
        <time>2020-05-21T09:59:47.000Z</time>
      </trkpt>
      <trkpt lat="47.2883" lon="-2.37661">
        <ele>9.3999996185303</ele>
        <time>2020-05-21T09:59:48.000Z</time>
      </trkpt>
      <trkpt lat="47.28824" lon="-2.37673">
        <ele>9.3999996185303</ele>
        <time>2020-05-21T09:59:50.000Z</time>
      </trkpt>
      <trkpt lat="47.28817" lon="-2.37685">
        <ele>9.3999996185303</ele>
        <time>2020-05-21T09:59:52.000Z</time>
      </trkpt>
      <trkpt lat="47.28813" lon="-2.3769">
        <ele>9.3999996185303</ele>
        <time>2020-05-21T09:59:53.000Z</time>
      </trkpt>
      <trkpt lat="47.288" lon="-2.377">
        <ele>9.3999996185303</ele>
        <time>2020-05-21T09:59:56.000Z</time>
      </trkpt>
      <trkpt lat="47.2879" lon="-2.37705">
        <ele>9.3999996185303</ele>
        <time>2020-05-21T09:59:58.000Z</time>
      </trkpt>
      <trkpt lat="47.28775" lon="-2.37715">
        <ele>9.3999996185303</ele>
        <time>2020-05-21T10:00:01.000Z</time>
      </trkpt>
      <trkpt lat="47.28751" lon="-2.37739">
        <ele>9.3999996185303</ele>
        <time>2020-05-21T10:00:07.000Z</time>
      </trkpt>
      <trkpt lat="47.2874" lon="-2.37756">
        <ele>9.3999996185303</ele>
        <time>2020-05-21T10:00:10.000Z</time>
      </trkpt>
      <trkpt lat="47.28736" lon="-2.37762">
        <ele>9.3999996185303</ele>
        <time>2020-05-21T10:00:11.000Z</time>
      </trkpt>
      <trkpt lat="47.28708" lon="-2.37807">
        <ele>9.3999996185303</ele>
        <time>2020-05-21T10:00:18.000Z</time>
      </trkpt>
      <trkpt lat="47.2868" lon="-2.37854">
        <ele>9.3999996185303</ele>
        <time>2020-05-21T10:00:26.000Z</time>
      </trkpt>
      <trkpt lat="47.28673" lon="-2.37866">
        <ele>9.3999996185303</ele>
        <time>2020-05-21T10:00:30.000Z</time>
      </trkpt>
      <trkpt lat="47.28665" lon="-2.37875">
        <ele>9.3999996185303</ele>
        <time>2020-05-21T10:00:34.000Z</time>
      </trkpt>
      <trkpt lat="47.28663" lon="-2.37878">
        <ele>9.3999996185303</ele>
        <time>2020-05-21T10:00:35.000Z</time>
      </trkpt>
      <trkpt lat="47.28655" lon="-2.37898">
        <ele>9.3999996185303</ele>
        <time>2020-05-21T10:00:39.000Z</time>
      </trkpt>
      <trkpt lat="47.28641" lon="-2.3792">
        <ele>9.3999996185303</ele>
        <time>2020-05-21T10:00:43.000Z</time>
      </trkpt>
      <trkpt lat="47.28614" lon="-2.37962">
        <ele>9.3999996185303</ele>
        <time>2020-05-21T10:00:50.000Z</time>
      </trkpt>
      <trkpt lat="47.28584" lon="-2.38001">
        <ele>9.3999996185303</ele>
        <time>2020-05-21T10:00:57.000Z</time>
      </trkpt>
      <trkpt lat="47.2855" lon="-2.38041">
        <ele>9.3999996185303</ele>
        <time>2020-05-21T10:01:04.000Z</time>
      </trkpt>
      <trkpt lat="47.28527" lon="-2.38063">
        <ele>9.3999996185303</ele>
        <time>2020-05-21T10:01:10.000Z</time>
      </trkpt>
      <trkpt lat="47.28513" lon="-2.38076">
        <ele>9.3999996185303</ele>
        <time>2020-05-21T10:01:15.000Z</time>
      </trkpt>
      <trkpt lat="47.28505" lon="-2.38083">
        <ele>9.3999996185303</ele>
        <time>2020-05-21T10:01:17.000Z</time>
      </trkpt>
      <trkpt lat="47.2849" lon="-2.38094">
        <ele>9.3999996185303</ele>
        <time>2020-05-21T10:01:20.000Z</time>
      </trkpt>
      <trkpt lat="47.28458" lon="-2.38109">
        <ele>9.3999996185303</ele>
        <time>2020-05-21T10:01:26.000Z</time>
      </trkpt>
      <trkpt lat="47.28453" lon="-2.3811">
        <ele>9.3999996185303</ele>
        <time>2020-05-21T10:01:27.000Z</time>
      </trkpt>
      <trkpt lat="47.28419" lon="-2.38118">
        <ele>9.3999996185303</ele>
        <time>2020-05-21T10:01:33.000Z</time>
      </trkpt>
      <trkpt lat="47.28397" lon="-2.38115">
        <ele>9.3999996185303</ele>
        <time>2020-05-21T10:01:37.000Z</time>
      </trkpt>
      <trkpt lat="47.28386" lon="-2.38112">
        <ele>9.3999996185303</ele>
        <time>2020-05-21T10:01:39.000Z</time>
      </trkpt>
      <trkpt lat="47.2838" lon="-2.38109">
        <ele>9.3999996185303</ele>
        <time>2020-05-21T10:01:40.000Z</time>
      </trkpt>
      <trkpt lat="47.28361" lon="-2.38095">
        <ele>9.3999996185303</ele>
        <time>2020-05-21T10:01:44.000Z</time>
      </trkpt>
      <trkpt lat="47.28331" lon="-2.38063">
        <ele>9.3999996185303</ele>
        <time>2020-05-21T10:01:50.000Z</time>
      </trkpt>
      <trkpt lat="47.28308" lon="-2.38042">
        <ele>9.3999996185303</ele>
        <time>2020-05-21T10:01:55.000Z</time>
      </trkpt>
      <trkpt lat="47.28303" lon="-2.38039">
        <ele>9.3999996185303</ele>
        <time>2020-05-21T10:01:56.000Z</time>
      </trkpt>
      <trkpt lat="47.28264" lon="-2.38018">
        <ele>9.3999996185303</ele>
        <time>2020-05-21T10:02:03.000Z</time>
      </trkpt>
      <trkpt lat="47.28257" lon="-2.38016">
        <ele>9.3999996185303</ele>
        <time>2020-05-21T10:02:04.000Z</time>
      </trkpt>
      <trkpt lat="47.28238" lon="-2.38019">
        <ele>9.3999996185303</ele>
        <time>2020-05-21T10:02:07.000Z</time>
      </trkpt>
      <trkpt lat="47.28233" lon="-2.38021">
        <ele>9.3999996185303</ele>
        <time>2020-05-21T10:02:08.000Z</time>
      </trkpt>
      <trkpt lat="47.28222" lon="-2.38024">
        <ele>9.3999996185303</ele>
        <time>2020-05-21T10:02:10.000Z</time>
      </trkpt>
      <trkpt lat="47.28207" lon="-2.38028">
        <ele>9.3999996185303</ele>
        <time>2020-05-21T10:02:13.000Z</time>
      </trkpt>
      <trkpt lat="47.28177" lon="-2.3804">
        <ele>9.3999996185303</ele>
        <time>2020-05-21T10:02:19.000Z</time>
      </trkpt>
      <trkpt lat="47.28138" lon="-2.38054">
        <ele>9.3999996185303</ele>
        <time>2020-05-21T10:02:26.000Z</time>
      </trkpt>
      <trkpt lat="47.28094" lon="-2.38072">
        <ele>9.3999996185303</ele>
        <time>2020-05-21T10:02:34.000Z</time>
      </trkpt>
      <trkpt lat="47.28052" lon="-2.38089">
        <ele>9.3999996185303</ele>
        <time>2020-05-21T10:02:42.000Z</time>
      </trkpt>
      <trkpt lat="47.28034" lon="-2.38097">
        <ele>9.3999996185303</ele>
        <time>2020-05-21T10:02:47.000Z</time>
      </trkpt>
      <trkpt lat="47.28032" lon="-2.38096">
        <ele>9.3999996185303</ele>
        <time>2020-05-21T10:02:48.000Z</time>
      </trkpt>
      <trkpt lat="47.28032" lon="-2.38096">
        <ele>9.3999996185303</ele>
        <time>2020-05-21T10:02:49.000Z</time>
      </trkpt>
      <trkpt lat="47.2803" lon="-2.38097">
        <ele>9.3999996185303</ele>
        <time>2020-05-21T10:03:00.000Z</time>
      </trkpt>
      <trkpt lat="47.28029" lon="-2.38099">
        <ele>9.3999996185303</ele>
        <time>2020-05-21T10:03:01.000Z</time>
      </trkpt>
      <trkpt lat="47.28023" lon="-2.38099">
        <ele>9.3999996185303</ele>
        <time>2020-05-21T10:03:04.000Z</time>
      </trkpt>
      <trkpt lat="47.28021" lon="-2.38095">
        <ele>9.8000001907349</ele>
        <time>2020-05-21T10:03:05.000Z</time>
      </trkpt>
      <trkpt lat="47.28019" lon="-2.3809">
        <ele>10.800000190735</ele>
        <time>2020-05-21T10:03:06.000Z</time>
      </trkpt>
      <trkpt lat="47.28018" lon="-2.38084">
        <ele>11.199999809265</ele>
        <time>2020-05-21T10:03:07.000Z</time>
      </trkpt>
      <trkpt lat="47.28017" lon="-2.38078">
        <ele>11.60000038147</ele>
        <time>2020-05-21T10:03:08.000Z</time>
      </trkpt>
      <trkpt lat="47.28015" lon="-2.38072">
        <ele>11.60000038147</ele>
        <time>2020-05-21T10:03:09.000Z</time>
      </trkpt>
      <trkpt lat="47.28011" lon="-2.38048">
        <ele>11.60000038147</ele>
        <time>2020-05-21T10:03:13.000Z</time>
      </trkpt>
      <trkpt lat="47.2801" lon="-2.38035">
        <ele>11.60000038147</ele>
        <time>2020-05-21T10:03:15.000Z</time>
      </trkpt>
      <trkpt lat="47.28005" lon="-2.38009">
        <ele>11.60000038147</ele>
        <time>2020-05-21T10:03:19.000Z</time>
      </trkpt>
      <trkpt lat="47.28001" lon="-2.37982">
        <ele>11.60000038147</ele>
        <time>2020-05-21T10:03:24.000Z</time>
      </trkpt>
      <trkpt lat="47.27993" lon="-2.37938">
        <ele>11.60000038147</ele>
        <time>2020-05-21T10:03:31.000Z</time>
      </trkpt>
      <trkpt lat="47.27981" lon="-2.37879">
        <ele>11.60000038147</ele>
        <time>2020-05-21T10:03:40.000Z</time>
      </trkpt>
      <trkpt lat="47.27973" lon="-2.37824">
        <ele>11.60000038147</ele>
        <time>2020-05-21T10:03:47.000Z</time>
      </trkpt>
      <trkpt lat="47.27967" lon="-2.37802">
        <ele>11.60000038147</ele>
        <time>2020-05-21T10:03:50.000Z</time>
      </trkpt>
      <trkpt lat="47.27966" lon="-2.37794">
        <ele>11.60000038147</ele>
        <time>2020-05-21T10:03:51.000Z</time>
      </trkpt>
      <trkpt lat="47.27958" lon="-2.37758">
        <ele>11.60000038147</ele>
        <time>2020-05-21T10:03:56.000Z</time>
      </trkpt>
      <trkpt lat="47.27946" lon="-2.3771">
        <ele>11.60000038147</ele>
        <time>2020-05-21T10:04:02.000Z</time>
      </trkpt>
      <trkpt lat="47.27932" lon="-2.37643">
        <ele>11.60000038147</ele>
        <time>2020-05-21T10:04:10.000Z</time>
      </trkpt>
      <trkpt lat="47.27926" lon="-2.37616">
        <ele>12</ele>
        <time>2020-05-21T10:04:13.000Z</time>
      </trkpt>
      <trkpt lat="47.27924" lon="-2.37608">
        <ele>12.39999961853</ele>
        <time>2020-05-21T10:04:14.000Z</time>
      </trkpt>
      <trkpt lat="47.27922" lon="-2.37599">
        <ele>12.800000190735</ele>
        <time>2020-05-21T10:04:15.000Z</time>
      </trkpt>
      <trkpt lat="47.2792" lon="-2.3759">
        <ele>13.199999809265</ele>
        <time>2020-05-21T10:04:16.000Z</time>
      </trkpt>
      <trkpt lat="47.27918" lon="-2.37582">
        <ele>13.60000038147</ele>
        <time>2020-05-21T10:04:17.000Z</time>
      </trkpt>
      <trkpt lat="47.27916" lon="-2.37574">
        <ele>13.60000038147</ele>
        <time>2020-05-21T10:04:18.000Z</time>
      </trkpt>
      <trkpt lat="47.27901" lon="-2.37514">
        <ele>13.60000038147</ele>
        <time>2020-05-21T10:04:25.000Z</time>
      </trkpt>
      <trkpt lat="47.27885" lon="-2.37447">
        <ele>13.60000038147</ele>
        <time>2020-05-21T10:04:33.000Z</time>
      </trkpt>
      <trkpt lat="47.27867" lon="-2.37372">
        <ele>13.60000038147</ele>
        <time>2020-05-21T10:04:42.000Z</time>
      </trkpt>
      <trkpt lat="47.27851" lon="-2.37316">
        <ele>13.60000038147</ele>
        <time>2020-05-21T10:04:49.000Z</time>
      </trkpt>
      <trkpt lat="47.27834" lon="-2.37252">
        <ele>13.60000038147</ele>
        <time>2020-05-21T10:04:57.000Z</time>
      </trkpt>
      <trkpt lat="47.27829" lon="-2.37227">
        <ele>13.60000038147</ele>
        <time>2020-05-21T10:05:01.000Z</time>
      </trkpt>
      <trkpt lat="47.27828" lon="-2.37221">
        <ele>13.60000038147</ele>
        <time>2020-05-21T10:05:02.000Z</time>
      </trkpt>
      <trkpt lat="47.27825" lon="-2.37209">
        <ele>13.60000038147</ele>
        <time>2020-05-21T10:05:04.000Z</time>
      </trkpt>
      <trkpt lat="47.27818" lon="-2.37187">
        <ele>13.60000038147</ele>
        <time>2020-05-21T10:05:07.000Z</time>
      </trkpt>
      <trkpt lat="47.27817" lon="-2.37171">
        <ele>13.60000038147</ele>
        <time>2020-05-21T10:05:09.000Z</time>
      </trkpt>
      <trkpt lat="47.27815" lon="-2.37163">
        <ele>13.60000038147</ele>
        <time>2020-05-21T10:05:10.000Z</time>
      </trkpt>
      <trkpt lat="47.27809" lon="-2.37148">
        <ele>13.60000038147</ele>
        <time>2020-05-21T10:05:12.000Z</time>
      </trkpt>
      <trkpt lat="47.27794" lon="-2.37097">
        <ele>13.60000038147</ele>
        <time>2020-05-21T10:05:18.000Z</time>
      </trkpt>
      <trkpt lat="47.27778" lon="-2.37037">
        <ele>13.60000038147</ele>
        <time>2020-05-21T10:05:25.000Z</time>
      </trkpt>
      <trkpt lat="47.27758" lon="-2.36967">
        <ele>13.60000038147</ele>
        <time>2020-05-21T10:05:34.000Z</time>
      </trkpt>
      <trkpt lat="47.27748" lon="-2.36937">
        <ele>13.60000038147</ele>
        <time>2020-05-21T10:05:38.000Z</time>
      </trkpt>
      <trkpt lat="47.27739" lon="-2.36908">
        <ele>13.60000038147</ele>
        <time>2020-05-21T10:05:42.000Z</time>
      </trkpt>
      <trkpt lat="47.27722" lon="-2.3685">
        <ele>13.60000038147</ele>
        <time>2020-05-21T10:05:50.000Z</time>
      </trkpt>
      <trkpt lat="47.27703" lon="-2.36787">
        <ele>13.60000038147</ele>
        <time>2020-05-21T10:05:58.000Z</time>
      </trkpt>
      <trkpt lat="47.27683" lon="-2.36727">
        <ele>13.60000038147</ele>
        <time>2020-05-21T10:06:06.000Z</time>
      </trkpt>
      <trkpt lat="47.27658" lon="-2.36658">
        <ele>13.60000038147</ele>
        <time>2020-05-21T10:06:16.000Z</time>
      </trkpt>
      <trkpt lat="47.27658" lon="-2.36658">
        <ele>13.199999809265</ele>
        <time>2020-05-21T10:06:18.000Z</time>
      </trkpt>
      <trkpt lat="47.27658" lon="-2.36658">
        <ele>12.60000038147</ele>
        <time>2020-05-21T10:06:19.000Z</time>
      </trkpt>
      <trkpt lat="47.27658" lon="-2.36657">
        <ele>11.39999961853</ele>
        <time>2020-05-21T10:06:22.000Z</time>
      </trkpt>
      <trkpt lat="47.27655" lon="-2.36649">
        <ele>11.39999961853</ele>
        <time>2020-05-21T10:06:24.000Z</time>
      </trkpt>
      <trkpt lat="47.27645" lon="-2.3662">
        <ele>11.39999961853</ele>
        <time>2020-05-21T10:06:29.000Z</time>
      </trkpt>
      <trkpt lat="47.27628" lon="-2.36569">
        <ele>11.39999961853</ele>
        <time>2020-05-21T10:06:37.000Z</time>
      </trkpt>
      <trkpt lat="47.27609" lon="-2.36515">
        <ele>11.39999961853</ele>
        <time>2020-05-21T10:06:45.000Z</time>
      </trkpt>
      <trkpt lat="47.27587" lon="-2.36456">
        <ele>11.39999961853</ele>
        <time>2020-05-21T10:06:53.000Z</time>
      </trkpt>
      <trkpt lat="47.27561" lon="-2.36388">
        <ele>11.39999961853</ele>
        <time>2020-05-21T10:07:02.000Z</time>
      </trkpt>
      <trkpt lat="47.27537" lon="-2.36325">
        <ele>11.800000190735</ele>
        <time>2020-05-21T10:07:10.000Z</time>
      </trkpt>
      <trkpt lat="47.27534" lon="-2.36317">
        <ele>12.199999809265</ele>
        <time>2020-05-21T10:07:11.000Z</time>
      </trkpt>
      <trkpt lat="47.27532" lon="-2.3631">
        <ele>13</ele>
        <time>2020-05-21T10:07:12.000Z</time>
      </trkpt>
      <trkpt lat="47.27529" lon="-2.36302">
        <ele>13.39999961853</ele>
        <time>2020-05-21T10:07:13.000Z</time>
      </trkpt>
      <trkpt lat="47.27509" lon="-2.36247">
        <ele>13.39999961853</ele>
        <time>2020-05-21T10:07:20.000Z</time>
      </trkpt>
      <trkpt lat="47.27485" lon="-2.36186">
        <ele>13.39999961853</ele>
        <time>2020-05-21T10:07:28.000Z</time>
      </trkpt>
      <trkpt lat="47.27467" lon="-2.36134">
        <ele>13.39999961853</ele>
        <time>2020-05-21T10:07:35.000Z</time>
      </trkpt>
      <trkpt lat="47.2746" lon="-2.36111">
        <ele>13.39999961853</ele>
        <time>2020-05-21T10:07:38.000Z</time>
      </trkpt>
      <trkpt lat="47.2745" lon="-2.36091">
        <ele>13.39999961853</ele>
        <time>2020-05-21T10:07:41.000Z</time>
      </trkpt>
      <trkpt lat="47.27445" lon="-2.36076">
        <ele>13.39999961853</ele>
        <time>2020-05-21T10:07:43.000Z</time>
      </trkpt>
      <trkpt lat="47.27437" lon="-2.36052">
        <ele>13.39999961853</ele>
        <time>2020-05-21T10:07:46.000Z</time>
      </trkpt>
      <trkpt lat="47.27434" lon="-2.36046">
        <ele>13.39999961853</ele>
        <time>2020-05-21T10:07:47.000Z</time>
      </trkpt>
      <trkpt lat="47.27421" lon="-2.36017">
        <ele>13.39999961853</ele>
        <time>2020-05-21T10:07:51.000Z</time>
      </trkpt>
      <trkpt lat="47.27391" lon="-2.35943">
        <ele>13.39999961853</ele>
        <time>2020-05-21T10:08:01.000Z</time>
      </trkpt>
      <trkpt lat="47.27375" lon="-2.359">
        <ele>13.39999961853</ele>
        <time>2020-05-21T10:08:07.000Z</time>
      </trkpt>
      <trkpt lat="47.27349" lon="-2.35835">
        <ele>13.39999961853</ele>
        <time>2020-05-21T10:08:16.000Z</time>
      </trkpt>
      <trkpt lat="47.27334" lon="-2.35801">
        <ele>13.39999961853</ele>
        <time>2020-05-21T10:08:21.000Z</time>
      </trkpt>
      <trkpt lat="47.27329" lon="-2.35788">
        <ele>13.39999961853</ele>
        <time>2020-05-21T10:08:23.000Z</time>
      </trkpt>
      <trkpt lat="47.27327" lon="-2.3578">
        <ele>13</ele>
        <time>2020-05-21T10:08:24.000Z</time>
      </trkpt>
      <trkpt lat="47.27325" lon="-2.35773">
        <ele>12.39999961853</ele>
        <time>2020-05-21T10:08:25.000Z</time>
      </trkpt>
      <trkpt lat="47.27323" lon="-2.35766">
        <ele>11.60000038147</ele>
        <time>2020-05-21T10:08:26.000Z</time>
      </trkpt>
      <trkpt lat="47.27321" lon="-2.3576">
        <ele>11.199999809265</ele>
        <time>2020-05-21T10:08:27.000Z</time>
      </trkpt>
      <trkpt lat="47.27318" lon="-2.35754">
        <ele>11.199999809265</ele>
        <time>2020-05-21T10:08:28.000Z</time>
      </trkpt>
      <trkpt lat="47.27312" lon="-2.35743">
        <ele>11.199999809265</ele>
        <time>2020-05-21T10:08:30.000Z</time>
      </trkpt>
      <trkpt lat="47.27306" lon="-2.35729">
        <ele>11.199999809265</ele>
        <time>2020-05-21T10:08:32.000Z</time>
      </trkpt>
      <trkpt lat="47.273" lon="-2.35707">
        <ele>11.199999809265</ele>
        <time>2020-05-21T10:08:35.000Z</time>
      </trkpt>
      <trkpt lat="47.27291" lon="-2.3569">
        <ele>11.199999809265</ele>
        <time>2020-05-21T10:08:38.000Z</time>
      </trkpt>
      <trkpt lat="47.27285" lon="-2.35678">
        <ele>11.199999809265</ele>
        <time>2020-05-21T10:08:40.000Z</time>
      </trkpt>
      <trkpt lat="47.27252" lon="-2.35606">
        <ele>11.199999809265</ele>
        <time>2020-05-21T10:08:51.000Z</time>
      </trkpt>
      <trkpt lat="47.27219" lon="-2.35536">
        <ele>11.199999809265</ele>
        <time>2020-05-21T10:09:02.000Z</time>
      </trkpt>
      <trkpt lat="47.27216" lon="-2.35529">
        <ele>11.199999809265</ele>
        <time>2020-05-21T10:09:03.000Z</time>
      </trkpt>
      <trkpt lat="47.27189" lon="-2.35471">
        <ele>11.199999809265</ele>
        <time>2020-05-21T10:09:12.000Z</time>
      </trkpt>
      <trkpt lat="47.27158" lon="-2.35413">
        <ele>11.199999809265</ele>
        <time>2020-05-21T10:09:21.000Z</time>
      </trkpt>
      <trkpt lat="47.2713" lon="-2.35361">
        <ele>11.199999809265</ele>
        <time>2020-05-21T10:09:29.000Z</time>
      </trkpt>
      <trkpt lat="47.27106" lon="-2.35323">
        <ele>11.199999809265</ele>
        <time>2020-05-21T10:09:35.000Z</time>
      </trkpt>
      <trkpt lat="47.2707" lon="-2.35267">
        <ele>11.199999809265</ele>
        <time>2020-05-21T10:09:44.000Z</time>
      </trkpt>
      <trkpt lat="47.27047" lon="-2.35231">
        <ele>11.199999809265</ele>
        <time>2020-05-21T10:09:50.000Z</time>
      </trkpt>
      <trkpt lat="47.27031" lon="-2.35206">
        <ele>11.199999809265</ele>
        <time>2020-05-21T10:09:54.000Z</time>
      </trkpt>
      <trkpt lat="47.27" lon="-2.35157">
        <ele>11.199999809265</ele>
        <time>2020-05-21T10:10:02.000Z</time>
      </trkpt>
      <trkpt lat="47.2696" lon="-2.35096">
        <ele>11.199999809265</ele>
        <time>2020-05-21T10:10:12.000Z</time>
      </trkpt>
      <trkpt lat="47.26919" lon="-2.35036">
        <ele>11.199999809265</ele>
        <time>2020-05-21T10:10:22.000Z</time>
      </trkpt>
      <trkpt lat="47.26892" lon="-2.34996">
        <ele>11.199999809265</ele>
        <time>2020-05-21T10:10:29.000Z</time>
      </trkpt>
      <trkpt lat="47.26866" lon="-2.34956">
        <ele>11.199999809265</ele>
        <time>2020-05-21T10:10:36.000Z</time>
      </trkpt>
      <trkpt lat="47.26837" lon="-2.34911">
        <ele>11.199999809265</ele>
        <time>2020-05-21T10:10:44.000Z</time>
      </trkpt>
      <trkpt lat="47.26811" lon="-2.34873">
        <ele>11.199999809265</ele>
        <time>2020-05-21T10:10:51.000Z</time>
      </trkpt>
      <trkpt lat="47.26779" lon="-2.34828">
        <ele>11.199999809265</ele>
        <time>2020-05-21T10:10:59.000Z</time>
      </trkpt>
      <trkpt lat="47.2676" lon="-2.34802">
        <ele>11.199999809265</ele>
        <time>2020-05-21T10:11:04.000Z</time>
      </trkpt>
      <trkpt lat="47.26751" lon="-2.3479">
        <ele>11.199999809265</ele>
        <time>2020-05-21T10:11:06.000Z</time>
      </trkpt>
      <trkpt lat="47.2672" lon="-2.34753">
        <ele>11.199999809265</ele>
        <time>2020-05-21T10:11:13.000Z</time>
      </trkpt>
      <trkpt lat="47.26695" lon="-2.3472">
        <ele>11.199999809265</ele>
        <time>2020-05-21T10:11:20.000Z</time>
      </trkpt>
      <trkpt lat="47.2666" lon="-2.34678">
        <ele>11.199999809265</ele>
        <time>2020-05-21T10:11:29.000Z</time>
      </trkpt>
      <trkpt lat="47.2663" lon="-2.34641">
        <ele>11.199999809265</ele>
        <time>2020-05-21T10:11:37.000Z</time>
      </trkpt>
      <trkpt lat="47.26599" lon="-2.34602">
        <ele>11.199999809265</ele>
        <time>2020-05-21T10:11:45.000Z</time>
      </trkpt>
      <trkpt lat="47.26566" lon="-2.34567">
        <ele>11.199999809265</ele>
        <time>2020-05-21T10:11:53.000Z</time>
      </trkpt>
      <trkpt lat="47.26528" lon="-2.34526">
        <ele>11.199999809265</ele>
        <time>2020-05-21T10:12:02.000Z</time>
      </trkpt>
      <trkpt lat="47.26517" lon="-2.34513">
        <ele>11.199999809265</ele>
        <time>2020-05-21T10:12:05.000Z</time>
      </trkpt>
      <trkpt lat="47.26507" lon="-2.34507">
        <ele>11.199999809265</ele>
        <time>2020-05-21T10:12:07.000Z</time>
      </trkpt>
      <trkpt lat="47.26476" lon="-2.34487">
        <ele>11.199999809265</ele>
        <time>2020-05-21T10:12:13.000Z</time>
      </trkpt>
      <trkpt lat="47.26444" lon="-2.34464">
        <ele>11.199999809265</ele>
        <time>2020-05-21T10:12:19.000Z</time>
      </trkpt>
      <trkpt lat="47.26414" lon="-2.34444">
        <ele>11.199999809265</ele>
        <time>2020-05-21T10:12:25.000Z</time>
      </trkpt>
      <trkpt lat="47.26377" lon="-2.34413">
        <ele>11.199999809265</ele>
        <time>2020-05-21T10:12:33.000Z</time>
      </trkpt>
      <trkpt lat="47.26348" lon="-2.34386">
        <ele>11.199999809265</ele>
        <time>2020-05-21T10:12:40.000Z</time>
      </trkpt>
      <trkpt lat="47.26339" lon="-2.3438">
        <ele>11.199999809265</ele>
        <time>2020-05-21T10:12:42.000Z</time>
      </trkpt>
      <trkpt lat="47.26324" lon="-2.34373">
        <ele>11.199999809265</ele>
        <time>2020-05-21T10:12:45.000Z</time>
      </trkpt>
      <trkpt lat="47.2632" lon="-2.34369">
        <ele>11.199999809265</ele>
        <time>2020-05-21T10:12:46.000Z</time>
      </trkpt>
      <trkpt lat="47.26314" lon="-2.34357">
        <ele>11.199999809265</ele>
        <time>2020-05-21T10:12:48.000Z</time>
      </trkpt>
      <trkpt lat="47.26299" lon="-2.34339">
        <ele>11.199999809265</ele>
        <time>2020-05-21T10:12:52.000Z</time>
      </trkpt>
      <trkpt lat="47.26294" lon="-2.34335">
        <ele>11.199999809265</ele>
        <time>2020-05-21T10:12:53.000Z</time>
      </trkpt>
      <trkpt lat="47.26261" lon="-2.34301">
        <ele>11.199999809265</ele>
        <time>2020-05-21T10:13:01.000Z</time>
      </trkpt>
      <trkpt lat="47.26223" lon="-2.34261">
        <ele>11.199999809265</ele>
        <time>2020-05-21T10:13:10.000Z</time>
      </trkpt>
      <trkpt lat="47.26184" lon="-2.34221">
        <ele>11.199999809265</ele>
        <time>2020-05-21T10:13:19.000Z</time>
      </trkpt>
      <trkpt lat="47.26153" lon="-2.34191">
        <ele>11.199999809265</ele>
        <time>2020-05-21T10:13:27.000Z</time>
      </trkpt>
      <trkpt lat="47.26146" lon="-2.34185">
        <ele>11.199999809265</ele>
        <time>2020-05-21T10:13:29.000Z</time>
      </trkpt>
      <trkpt lat="47.26136" lon="-2.34181">
        <ele>11.199999809265</ele>
        <time>2020-05-21T10:13:31.000Z</time>
      </trkpt>
      <trkpt lat="47.26131" lon="-2.34178">
        <ele>11.199999809265</ele>
        <time>2020-05-21T10:13:32.000Z</time>
      </trkpt>
      <trkpt lat="47.26119" lon="-2.34167">
        <ele>11.199999809265</ele>
        <time>2020-05-21T10:13:35.000Z</time>
      </trkpt>
      <trkpt lat="47.2611" lon="-2.3416">
        <ele>11.199999809265</ele>
        <time>2020-05-21T10:13:37.000Z</time>
      </trkpt>
      <trkpt lat="47.26093" lon="-2.34149">
        <ele>11.199999809265</ele>
        <time>2020-05-21T10:13:41.000Z</time>
      </trkpt>
      <trkpt lat="47.26065" lon="-2.34134">
        <ele>11.199999809265</ele>
        <time>2020-05-21T10:13:47.000Z</time>
      </trkpt>
      <trkpt lat="47.2601" lon="-2.34106">
        <ele>11.199999809265</ele>
        <time>2020-05-21T10:13:58.000Z</time>
      </trkpt>
      <trkpt lat="47.26005" lon="-2.34103">
        <ele>11.199999809265</ele>
        <time>2020-05-21T10:13:59.000Z</time>
      </trkpt>
      <trkpt lat="47.25971" lon="-2.34089">
        <ele>11.199999809265</ele>
        <time>2020-05-21T10:14:06.000Z</time>
      </trkpt>
      <trkpt lat="47.25935" lon="-2.34074">
        <ele>11.199999809265</ele>
        <time>2020-05-21T10:14:14.000Z</time>
      </trkpt>
      <trkpt lat="47.25913" lon="-2.34068">
        <ele>10.800000190735</ele>
        <time>2020-05-21T10:14:19.000Z</time>
      </trkpt>
      <trkpt lat="47.25908" lon="-2.34066">
        <ele>10.39999961853</ele>
        <time>2020-05-21T10:14:20.000Z</time>
      </trkpt>
      <trkpt lat="47.25904" lon="-2.34064">
        <ele>10</ele>
        <time>2020-05-21T10:14:21.000Z</time>
      </trkpt>
      <trkpt lat="47.25901" lon="-2.3406">
        <ele>9.6000003814697</ele>
        <time>2020-05-21T10:14:22.000Z</time>
      </trkpt>
      <trkpt lat="47.25899" lon="-2.34052">
        <ele>9.1999998092651</ele>
        <time>2020-05-21T10:14:23.000Z</time>
      </trkpt>
      <trkpt lat="47.25897" lon="-2.34038">
        <ele>9.1999998092651</ele>
        <time>2020-05-21T10:14:25.000Z</time>
      </trkpt>
      <trkpt lat="47.25897" lon="-2.34031">
        <ele>9.1999998092651</ele>
        <time>2020-05-21T10:14:26.000Z</time>
      </trkpt>
      <trkpt lat="47.25903" lon="-2.34014">
        <ele>9.1999998092651</ele>
        <time>2020-05-21T10:14:29.000Z</time>
      </trkpt>
      <trkpt lat="47.25907" lon="-2.34001">
        <ele>9.1999998092651</ele>
        <time>2020-05-21T10:14:31.000Z</time>
      </trkpt>
      <trkpt lat="47.25919" lon="-2.33972">
        <ele>9.1999998092651</ele>
        <time>2020-05-21T10:14:36.000Z</time>
      </trkpt>
      <trkpt lat="47.25936" lon="-2.33939">
        <ele>9.1999998092651</ele>
        <time>2020-05-21T10:14:42.000Z</time>
      </trkpt>
      <trkpt lat="47.25942" lon="-2.33928">
        <ele>9.1999998092651</ele>
        <time>2020-05-21T10:14:44.000Z</time>
      </trkpt>
      <trkpt lat="47.25947" lon="-2.33905">
        <ele>9.1999998092651</ele>
        <time>2020-05-21T10:14:48.000Z</time>
      </trkpt>
      <trkpt lat="47.25948" lon="-2.339">
        <ele>9.1999998092651</ele>
        <time>2020-05-21T10:14:49.000Z</time>
      </trkpt>
      <trkpt lat="47.25951" lon="-2.33894">
        <ele>9.1999998092651</ele>
        <time>2020-05-21T10:14:50.000Z</time>
      </trkpt>
      <trkpt lat="47.25959" lon="-2.33869">
        <ele>9.1999998092651</ele>
        <time>2020-05-21T10:14:54.000Z</time>
      </trkpt>
      <trkpt lat="47.25961" lon="-2.33862">
        <ele>9.1999998092651</ele>
        <time>2020-05-21T10:14:55.000Z</time>
      </trkpt>
      <trkpt lat="47.25969" lon="-2.33837">
        <ele>9.1999998092651</ele>
        <time>2020-05-21T10:14:59.000Z</time>
      </trkpt>
      <trkpt lat="47.25975" lon="-2.33816">
        <ele>9.1999998092651</ele>
        <time>2020-05-21T10:15:02.000Z</time>
      </trkpt>
      <trkpt lat="47.25984" lon="-2.33789">
        <ele>9.1999998092651</ele>
        <time>2020-05-21T10:15:06.000Z</time>
      </trkpt>
      <trkpt lat="47.26004" lon="-2.3373">
        <ele>9.1999998092651</ele>
        <time>2020-05-21T10:15:15.000Z</time>
      </trkpt>
      <trkpt lat="47.26016" lon="-2.33694">
        <ele>9.1999998092651</ele>
        <time>2020-05-21T10:15:20.000Z</time>
      </trkpt>
      <trkpt lat="47.26018" lon="-2.33688">
        <ele>9.1999998092651</ele>
        <time>2020-05-21T10:15:21.000Z</time>
      </trkpt>
      <trkpt lat="47.26024" lon="-2.33668">
        <ele>9.1999998092651</ele>
        <time>2020-05-21T10:15:24.000Z</time>
      </trkpt>
      <trkpt lat="47.26032" lon="-2.33666">
        <ele>9.1999998092651</ele>
        <time>2020-05-21T10:15:26.000Z</time>
      </trkpt>
      <trkpt lat="47.26045" lon="-2.33658">
        <ele>9.1999998092651</ele>
        <time>2020-05-21T10:15:29.000Z</time>
      </trkpt>
      <trkpt lat="47.2605" lon="-2.33645">
        <ele>9.1999998092651</ele>
        <time>2020-05-21T10:15:31.000Z</time>
      </trkpt>
      <trkpt lat="47.26051" lon="-2.33638">
        <ele>9.1999998092651</ele>
        <time>2020-05-21T10:15:32.000Z</time>
      </trkpt>
      <trkpt lat="47.26055" lon="-2.33624">
        <ele>9.1999998092651</ele>
        <time>2020-05-21T10:15:34.000Z</time>
      </trkpt>
      <trkpt lat="47.26069" lon="-2.33555">
        <ele>9.1999998092651</ele>
        <time>2020-05-21T10:15:44.000Z</time>
      </trkpt>
      <trkpt lat="47.2608" lon="-2.33504">
        <ele>9.1999998092651</ele>
        <time>2020-05-21T10:15:51.000Z</time>
      </trkpt>
      <trkpt lat="47.26082" lon="-2.3349">
        <ele>9.1999998092651</ele>
        <time>2020-05-21T10:15:53.000Z</time>
      </trkpt>
      <trkpt lat="47.2608" lon="-2.33473">
        <ele>9.1999998092651</ele>
        <time>2020-05-21T10:15:56.000Z</time>
      </trkpt>
      <trkpt lat="47.26073" lon="-2.33458">
        <ele>9.1999998092651</ele>
        <time>2020-05-21T10:15:59.000Z</time>
      </trkpt>
      <trkpt lat="47.26068" lon="-2.33447">
        <ele>9.1999998092651</ele>
        <time>2020-05-21T10:16:01.000Z</time>
      </trkpt>
      <trkpt lat="47.26066" lon="-2.33418">
        <ele>9.1999998092651</ele>
        <time>2020-05-21T10:16:05.000Z</time>
      </trkpt>
      <trkpt lat="47.26077" lon="-2.33396">
        <ele>9.1999998092651</ele>
        <time>2020-05-21T10:16:09.000Z</time>
      </trkpt>
      <trkpt lat="47.26085" lon="-2.33385">
        <ele>9.1999998092651</ele>
        <time>2020-05-21T10:16:12.000Z</time>
      </trkpt>
      <trkpt lat="47.26083" lon="-2.33376">
        <ele>9.1999998092651</ele>
        <time>2020-05-21T10:16:14.000Z</time>
      </trkpt>
      <trkpt lat="47.26078" lon="-2.33361">
        <ele>9.1999998092651</ele>
        <time>2020-05-21T10:16:17.000Z</time>
      </trkpt>
      <trkpt lat="47.26065" lon="-2.33318">
        <ele>9.1999998092651</ele>
        <time>2020-05-21T10:16:24.000Z</time>
      </trkpt>
      <trkpt lat="47.26039" lon="-2.33246">
        <ele>9.1999998092651</ele>
        <time>2020-05-21T10:16:35.000Z</time>
      </trkpt>
      <trkpt lat="47.26022" lon="-2.33199">
        <ele>9.1999998092651</ele>
        <time>2020-05-21T10:16:42.000Z</time>
      </trkpt>
      <trkpt lat="47.26001" lon="-2.33146">
        <ele>9.1999998092651</ele>
        <time>2020-05-21T10:16:50.000Z</time>
      </trkpt>
      <trkpt lat="47.25979" lon="-2.33085">
        <ele>9.1999998092651</ele>
        <time>2020-05-21T10:16:59.000Z</time>
      </trkpt>
      <trkpt lat="47.2596" lon="-2.33026">
        <ele>9.1999998092651</ele>
        <time>2020-05-21T10:17:08.000Z</time>
      </trkpt>
      <trkpt lat="47.25938" lon="-2.32962">
        <ele>9.1999998092651</ele>
        <time>2020-05-21T10:17:18.000Z</time>
      </trkpt>
      <trkpt lat="47.25923" lon="-2.32917">
        <ele>9.1999998092651</ele>
        <time>2020-05-21T10:17:25.000Z</time>
      </trkpt>
      <trkpt lat="47.25904" lon="-2.32864">
        <ele>9.1999998092651</ele>
        <time>2020-05-21T10:17:33.000Z</time>
      </trkpt>
      <trkpt lat="47.25889" lon="-2.3282">
        <ele>9.1999998092651</ele>
        <time>2020-05-21T10:17:40.000Z</time>
      </trkpt>
      <trkpt lat="47.25874" lon="-2.32777">
        <ele>9.1999998092651</ele>
        <time>2020-05-21T10:17:47.000Z</time>
      </trkpt>
      <trkpt lat="47.2586" lon="-2.32727">
        <ele>9.1999998092651</ele>
        <time>2020-05-21T10:17:55.000Z</time>
      </trkpt>
      <trkpt lat="47.25848" lon="-2.32684">
        <ele>9.1999998092651</ele>
        <time>2020-05-21T10:18:02.000Z</time>
      </trkpt>
      <trkpt lat="47.25835" lon="-2.32627">
        <ele>9.1999998092651</ele>
        <time>2020-05-21T10:18:11.000Z</time>
      </trkpt>
      <trkpt lat="47.25828" lon="-2.3258">
        <ele>9.1999998092651</ele>
        <time>2020-05-21T10:18:18.000Z</time>
      </trkpt>
      <trkpt lat="47.25812" lon="-2.32521">
        <ele>9.1999998092651</ele>
        <time>2020-05-21T10:18:27.000Z</time>
      </trkpt>
      <trkpt lat="47.2581" lon="-2.32507">
        <ele>9.1999998092651</ele>
        <time>2020-05-21T10:18:29.000Z</time>
      </trkpt>
      <trkpt lat="47.25811" lon="-2.32495">
        <ele>9.1999998092651</ele>
        <time>2020-05-21T10:18:31.000Z</time>
      </trkpt>
      <trkpt lat="47.25821" lon="-2.32485">
        <ele>9.1999998092651</ele>
        <time>2020-05-21T10:18:34.000Z</time>
      </trkpt>
      <trkpt lat="47.25836" lon="-2.32484">
        <ele>9.1999998092651</ele>
        <time>2020-05-21T10:18:37.000Z</time>
      </trkpt>
      <trkpt lat="47.25845" lon="-2.32485">
        <ele>9.1999998092651</ele>
        <time>2020-05-21T10:18:39.000Z</time>
      </trkpt>
      <trkpt lat="47.2586" lon="-2.32485">
        <ele>9.1999998092651</ele>
        <time>2020-05-21T10:18:42.000Z</time>
      </trkpt>
      <trkpt lat="47.25869" lon="-2.32487">
        <ele>9.1999998092651</ele>
        <time>2020-05-21T10:18:44.000Z</time>
      </trkpt>
      <trkpt lat="47.25873" lon="-2.32488">
        <ele>9.1999998092651</ele>
        <time>2020-05-21T10:18:45.000Z</time>
      </trkpt>
      <trkpt lat="47.25878" lon="-2.32488">
        <ele>9.1999998092651</ele>
        <time>2020-05-21T10:18:46.000Z</time>
      </trkpt>
      <trkpt lat="47.25888" lon="-2.32481">
        <ele>9.1999998092651</ele>
        <time>2020-05-21T10:18:49.000Z</time>
      </trkpt>
      <trkpt lat="47.2589" lon="-2.32472">
        <ele>9.1999998092651</ele>
        <time>2020-05-21T10:18:51.000Z</time>
      </trkpt>
      <trkpt lat="47.25894" lon="-2.32465">
        <ele>9.1999998092651</ele>
        <time>2020-05-21T10:18:53.000Z</time>
      </trkpt>
      <trkpt lat="47.25911" lon="-2.32445">
        <ele>9.1999998092651</ele>
        <time>2020-05-21T10:18:58.000Z</time>
      </trkpt>
      <trkpt lat="47.25914" lon="-2.3244">
        <ele>9.1999998092651</ele>
        <time>2020-05-21T10:18:59.000Z</time>
      </trkpt>
      <trkpt lat="47.25937" lon="-2.3241">
        <ele>9.1999998092651</ele>
        <time>2020-05-21T10:19:05.000Z</time>
      </trkpt>
      <trkpt lat="47.25945" lon="-2.32401">
        <ele>8.6000003814697</ele>
        <time>2020-05-21T10:19:07.000Z</time>
      </trkpt>
      <trkpt lat="47.25949" lon="-2.32395">
        <ele>7.8000001907349</ele>
        <time>2020-05-21T10:19:08.000Z</time>
      </trkpt>
      <trkpt lat="47.25952" lon="-2.3239">
        <ele>6.8000001907349</ele>
        <time>2020-05-21T10:19:09.000Z</time>
      </trkpt>
      <trkpt lat="47.25956" lon="-2.32385">
        <ele>7.4000000953674</ele>
        <time>2020-05-21T10:19:10.000Z</time>
      </trkpt>
      <trkpt lat="47.2596" lon="-2.3238">
        <ele>8.1999998092651</ele>
        <time>2020-05-21T10:19:11.000Z</time>
      </trkpt>
      <trkpt lat="47.25964" lon="-2.32376">
        <ele>8.8000001907349</ele>
        <time>2020-05-21T10:19:12.000Z</time>
      </trkpt>
      <trkpt lat="47.25967" lon="-2.32371">
        <ele>9.3999996185303</ele>
        <time>2020-05-21T10:19:13.000Z</time>
      </trkpt>
      <trkpt lat="47.25971" lon="-2.32367">
        <ele>10</ele>
        <time>2020-05-21T10:19:14.000Z</time>
      </trkpt>
      <trkpt lat="47.25975" lon="-2.32362">
        <ele>9.6000003814697</ele>
        <time>2020-05-21T10:19:15.000Z</time>
      </trkpt>
      <trkpt lat="47.25979" lon="-2.32357">
        <ele>9.1999998092651</ele>
        <time>2020-05-21T10:19:16.000Z</time>
      </trkpt>
      <trkpt lat="47.25982" lon="-2.32353">
        <ele>8.6000003814697</ele>
        <time>2020-05-21T10:19:17.000Z</time>
      </trkpt>
      <trkpt lat="47.25986" lon="-2.32348">
        <ele>8.1999998092651</ele>
        <time>2020-05-21T10:19:18.000Z</time>
      </trkpt>
      <trkpt lat="47.2599" lon="-2.32344">
        <ele>7.8000001907349</ele>
        <time>2020-05-21T10:19:19.000Z</time>
      </trkpt>
      <trkpt lat="47.25994" lon="-2.32339">
        <ele>7.8000001907349</ele>
        <time>2020-05-21T10:19:20.000Z</time>
      </trkpt>
      <trkpt lat="47.26023" lon="-2.32302">
        <ele>7.8000001907349</ele>
        <time>2020-05-21T10:19:27.000Z</time>
      </trkpt>
      <trkpt lat="47.26046" lon="-2.32275">
        <ele>7.8000001907349</ele>
        <time>2020-05-21T10:19:33.000Z</time>
      </trkpt>
      <trkpt lat="47.26075" lon="-2.32243">
        <ele>7.8000001907349</ele>
        <time>2020-05-21T10:19:40.000Z</time>
      </trkpt>
      <trkpt lat="47.26097" lon="-2.32212">
        <ele>7.8000001907349</ele>
        <time>2020-05-21T10:19:46.000Z</time>
      </trkpt>
      <trkpt lat="47.261" lon="-2.32206">
        <ele>7.8000001907349</ele>
        <time>2020-05-21T10:19:47.000Z</time>
      </trkpt>
      <trkpt lat="47.26114" lon="-2.32175">
        <ele>7.8000001907349</ele>
        <time>2020-05-21T10:19:52.000Z</time>
      </trkpt>
      <trkpt lat="47.26118" lon="-2.32163">
        <ele>7.8000001907349</ele>
        <time>2020-05-21T10:19:54.000Z</time>
      </trkpt>
      <trkpt lat="47.26129" lon="-2.32126">
        <ele>7.8000001907349</ele>
        <time>2020-05-21T10:20:00.000Z</time>
      </trkpt>
      <trkpt lat="47.2613" lon="-2.3212">
        <ele>7.8000001907349</ele>
        <time>2020-05-21T10:20:01.000Z</time>
      </trkpt>
      <trkpt lat="47.26142" lon="-2.32077">
        <ele>7.8000001907349</ele>
        <time>2020-05-21T10:20:08.000Z</time>
      </trkpt>
      <trkpt lat="47.26159" lon="-2.32032">
        <ele>7.8000001907349</ele>
        <time>2020-05-21T10:20:16.000Z</time>
      </trkpt>
      <trkpt lat="47.26171" lon="-2.32021">
        <ele>7.8000001907349</ele>
        <time>2020-05-21T10:20:20.000Z</time>
      </trkpt>
      <trkpt lat="47.26175" lon="-2.32022">
        <ele>7.8000001907349</ele>
        <time>2020-05-21T10:20:21.000Z</time>
      </trkpt>
      <trkpt lat="47.26193" lon="-2.32028">
        <ele>7.8000001907349</ele>
        <time>2020-05-21T10:20:28.000Z</time>
      </trkpt>
      <trkpt lat="47.26196" lon="-2.32028">
        <ele>7.8000001907349</ele>
        <time>2020-05-21T10:20:30.000Z</time>
      </trkpt>
      <trkpt lat="47.26198" lon="-2.32024">
        <ele>7.8000001907349</ele>
        <time>2020-05-21T10:20:32.000Z</time>
      </trkpt>
      <trkpt lat="47.262" lon="-2.32018">
        <ele>7.8000001907349</ele>
        <time>2020-05-21T10:20:34.000Z</time>
      </trkpt>
      <trkpt lat="47.26207" lon="-2.32004">
        <ele>7.8000001907349</ele>
        <time>2020-05-21T10:20:39.000Z</time>
      </trkpt>
      <trkpt lat="47.26219" lon="-2.31991">
        <ele>7.8000001907349</ele>
        <time>2020-05-21T10:20:44.000Z</time>
      </trkpt>
      <trkpt lat="47.26225" lon="-2.31986">
        <ele>7.8000001907349</ele>
        <time>2020-05-21T10:20:46.000Z</time>
      </trkpt>
      <trkpt lat="47.26231" lon="-2.31985">
        <ele>7.8000001907349</ele>
        <time>2020-05-21T10:20:48.000Z</time>
      </trkpt>
      <trkpt lat="47.26239" lon="-2.3197">
        <ele>7.8000001907349</ele>
        <time>2020-05-21T10:20:52.000Z</time>
      </trkpt>
      <trkpt lat="47.26242" lon="-2.3196">
        <ele>7.8000001907349</ele>
        <time>2020-05-21T10:20:54.000Z</time>
      </trkpt>
      <trkpt lat="47.26253" lon="-2.31943">
        <ele>7.8000001907349</ele>
        <time>2020-05-21T10:20:58.000Z</time>
      </trkpt>
      <trkpt lat="47.26263" lon="-2.31927">
        <ele>7.8000001907349</ele>
        <time>2020-05-21T10:21:02.000Z</time>
      </trkpt>
      <trkpt lat="47.26267" lon="-2.31918">
        <ele>7.8000001907349</ele>
        <time>2020-05-21T10:21:04.000Z</time>
      </trkpt>
      <trkpt lat="47.26281" lon="-2.31905">
        <ele>7.8000001907349</ele>
        <time>2020-05-21T10:21:09.000Z</time>
      </trkpt>
      <trkpt lat="47.263" lon="-2.3188">
        <ele>7.8000001907349</ele>
        <time>2020-05-21T10:21:15.000Z</time>
      </trkpt>
      <trkpt lat="47.26301" lon="-2.31856">
        <ele>7.8000001907349</ele>
        <time>2020-05-21T10:21:19.000Z</time>
      </trkpt>
      <trkpt lat="47.26303" lon="-2.31814">
        <ele>7.8000001907349</ele>
        <time>2020-05-21T10:21:26.000Z</time>
      </trkpt>
      <trkpt lat="47.26303" lon="-2.31778">
        <ele>7.8000001907349</ele>
        <time>2020-05-21T10:21:32.000Z</time>
      </trkpt>
      <trkpt lat="47.26304" lon="-2.31743">
        <ele>7.8000001907349</ele>
        <time>2020-05-21T10:21:38.000Z</time>
      </trkpt>
      <trkpt lat="47.26305" lon="-2.31718">
        <ele>7.8000001907349</ele>
        <time>2020-05-21T10:21:42.000Z</time>
      </trkpt>
      <trkpt lat="47.26309" lon="-2.31717">
        <ele>7.8000001907349</ele>
        <time>2020-05-21T10:21:43.000Z</time>
      </trkpt>
      <trkpt lat="47.26323" lon="-2.3171">
        <ele>7.8000001907349</ele>
        <time>2020-05-21T10:21:47.000Z</time>
      </trkpt>
      <trkpt lat="47.26329" lon="-2.31704">
        <ele>7.8000001907349</ele>
        <time>2020-05-21T10:21:49.000Z</time>
      </trkpt>
      <trkpt lat="47.26337" lon="-2.31688">
        <ele>7.8000001907349</ele>
        <time>2020-05-21T10:21:53.000Z</time>
      </trkpt>
      <trkpt lat="47.26346" lon="-2.31684">
        <ele>8.1999998092651</ele>
        <time>2020-05-21T10:21:56.000Z</time>
      </trkpt>
      <trkpt lat="47.26349" lon="-2.31683">
        <ele>8.6000003814697</ele>
        <time>2020-05-21T10:21:57.000Z</time>
      </trkpt>
      <trkpt lat="47.26352" lon="-2.3168">
        <ele>9</ele>
        <time>2020-05-21T10:21:58.000Z</time>
      </trkpt>
      <trkpt lat="47.26355" lon="-2.31679">
        <ele>9.3999996185303</ele>
        <time>2020-05-21T10:21:59.000Z</time>
      </trkpt>
      <trkpt lat="47.26358" lon="-2.31678">
        <ele>9.8000001907349</ele>
        <time>2020-05-21T10:22:00.000Z</time>
      </trkpt>
      <trkpt lat="47.26378" lon="-2.31668">
        <ele>9.8000001907349</ele>
        <time>2020-05-21T10:22:06.000Z</time>
      </trkpt>
      <trkpt lat="47.26398" lon="-2.31657">
        <ele>9.8000001907349</ele>
        <time>2020-05-21T10:22:13.000Z</time>
      </trkpt>
      <trkpt lat="47.26404" lon="-2.31653">
        <ele>9.8000001907349</ele>
        <time>2020-05-21T10:22:16.000Z</time>
      </trkpt>
      <trkpt lat="47.26405" lon="-2.3165">
        <ele>9.8000001907349</ele>
        <time>2020-05-21T10:22:17.000Z</time>
      </trkpt>
      <trkpt lat="47.26405" lon="-2.31637">
        <ele>10.199999809265</ele>
        <time>2020-05-21T10:22:20.000Z</time>
      </trkpt>
      <trkpt lat="47.26406" lon="-2.31633">
        <ele>10.60000038147</ele>
        <time>2020-05-21T10:22:21.000Z</time>
      </trkpt>
      <trkpt lat="47.26406" lon="-2.31629">
        <ele>11</ele>
        <time>2020-05-21T10:22:22.000Z</time>
      </trkpt>
      <trkpt lat="47.26406" lon="-2.31624">
        <ele>11.39999961853</ele>
        <time>2020-05-21T10:22:23.000Z</time>
      </trkpt>
      <trkpt lat="47.26406" lon="-2.3162">
        <ele>11.800000190735</ele>
        <time>2020-05-21T10:22:24.000Z</time>
      </trkpt>
      <trkpt lat="47.26407" lon="-2.31598">
        <ele>11.800000190735</ele>
        <time>2020-05-21T10:22:29.000Z</time>
      </trkpt>
      <trkpt lat="47.26407" lon="-2.31565">
        <ele>11.800000190735</ele>
        <time>2020-05-21T10:22:36.000Z</time>
      </trkpt>
      <trkpt lat="47.2641" lon="-2.31551">
        <ele>11.800000190735</ele>
        <time>2020-05-21T10:22:40.000Z</time>
      </trkpt>
      <trkpt lat="47.26412" lon="-2.31552">
        <ele>11.800000190735</ele>
        <time>2020-05-21T10:22:41.000Z</time>
      </trkpt>
      <trkpt lat="47.26415" lon="-2.31553">
        <ele>11.800000190735</ele>
        <time>2020-05-21T10:22:44.000Z</time>
      </trkpt>
      <trkpt lat="47.26415" lon="-2.31553">
        <ele>11.800000190735</ele>
        <time>2020-05-21T10:22:45.000Z</time>
      </trkpt>
    </trkseg>
  </trk>
</gpx>